<?xml version='1.0' encoding='UTF-8'?><gpx version="1.1" creator="JPX - https://github.com/jenetics/jpx" xmlns="http://www.topografix.com/GPX/1/1"><trk><trkseg><trkpt lat="44.5349575" lon="10.8431952"><ele>127.0</ele><time>2026-04-18T12:33:49.728Z</time></trkpt><trkpt lat="44.5350488" lon="10.8432229"><ele>126.99999999999999</ele><time>2026-04-18T12:33:50.716Z</time></trkpt><trkpt lat="44.5351414" lon="10.843254"><ele>126.99999999999999</ele><time>2026-04-18T12:33:51.712Z</time></trkpt><trkpt lat="44.5352368" lon="10.8432861"><ele>127.0</ele><time>2026-04-18T12:33:52.743Z</time></trkpt><trkpt lat="44.5353378" lon="10.8433223"><ele>127.0</ele><time>2026-04-18T12:33:53.721Z</time></trkpt><trkpt lat="44.5354411" lon="10.8433567"><ele>127.0</ele><time>2026-04-18T12:33:54.721Z</time></trkpt><trkpt lat="44.5355479" lon="10.8433914"><ele>126.99999999999999</ele><time>2026-04-18T12:33:55.708Z</time></trkpt><trkpt lat="44.5356542" lon="10.8434284"><ele>126.99999999999999</ele><time>2026-04-18T12:33:56.727Z</time></trkpt><trkpt lat="44.5357643" lon="10.8434662"><ele>127.0</ele><time>2026-04-18T12:33:57.706Z</time></trkpt><trkpt lat="44.5358736" lon="10.8435064"><ele>127.0</ele><time>2026-04-18T12:33:58.718Z</time></trkpt><trkpt lat="44.5359798" lon="10.8435434"><ele>127.0</ele><time>2026-04-18T12:33:59.736Z</time></trkpt><trkpt lat="44.5360885" lon="10.8435826"><ele>126.99999999999999</ele><time>2026-04-18T12:34:00.721Z</time></trkpt><trkpt lat="44.5361968" lon="10.8436207"><ele>126.99999999999999</ele><time>2026-04-18T12:34:01.707Z</time></trkpt><trkpt lat="44.5363052" lon="10.8436603"><ele>127.0</ele><time>2026-04-18T12:34:02.729Z</time></trkpt><trkpt lat="44.5364118" lon="10.8436967"><ele>127.0</ele><time>2026-04-18T12:34:03.721Z</time></trkpt><trkpt lat="44.5365147" lon="10.8437309"><ele>127.0</ele><time>2026-04-18T12:34:04.728Z</time></trkpt><trkpt lat="44.536621" lon="10.8437663"><ele>126.99999999999999</ele><time>2026-04-18T12:34:05.724Z</time></trkpt><trkpt lat="44.5367275" lon="10.8438024"><ele>126.99999999999999</ele><time>2026-04-18T12:34:06.718Z</time></trkpt><trkpt lat="44.536837" lon="10.8438445"><ele>127.0</ele><time>2026-04-18T12:34:07.73Z</time></trkpt><trkpt lat="44.5369442" lon="10.843885"><ele>127.0</ele><time>2026-04-18T12:34:08.73Z</time></trkpt><trkpt lat="44.5370555" lon="10.8439252"><ele>126.0</ele><time>2026-04-18T12:34:09.73Z</time></trkpt><trkpt lat="44.5371722" lon="10.8439658"><ele>125.0</ele><time>2026-04-18T12:34:10.731Z</time></trkpt><trkpt lat="44.5372989" lon="10.8440086"><ele>124.0</ele><time>2026-04-18T12:34:11.723Z</time></trkpt><trkpt lat="44.5374261" lon="10.8440503"><ele>123.0</ele><time>2026-04-18T12:34:12.704Z</time></trkpt><trkpt lat="44.53756" lon="10.8440945"><ele>123.0</ele><time>2026-04-18T12:34:13.713Z</time></trkpt><trkpt lat="44.537708" lon="10.844146"><ele>123.0</ele><time>2026-04-18T12:34:14.712Z</time></trkpt><trkpt lat="44.5378526" lon="10.8441968"><ele>123.0</ele><time>2026-04-18T12:34:15.718Z</time></trkpt><trkpt lat="44.5380094" lon="10.8442574"><ele>122.0</ele><time>2026-04-18T12:34:16.722Z</time></trkpt><trkpt lat="44.5381646" lon="10.8443125"><ele>121.0</ele><time>2026-04-18T12:34:17.727Z</time></trkpt><trkpt lat="44.5383245" lon="10.8443654"><ele>120.0</ele><time>2026-04-18T12:34:18.72Z</time></trkpt><trkpt lat="44.5384918" lon="10.8444216"><ele>120.0</ele><time>2026-04-18T12:34:19.722Z</time></trkpt><trkpt lat="44.5386521" lon="10.844475"><ele>120.0</ele><time>2026-04-18T12:34:20.721Z</time></trkpt><trkpt lat="44.5388129" lon="10.8445344"><ele>120.0</ele><time>2026-04-18T12:34:21.72Z</time></trkpt><trkpt lat="44.5389818" lon="10.8445903"><ele>120.0</ele><time>2026-04-18T12:34:22.72Z</time></trkpt><trkpt lat="44.5391487" lon="10.8446466"><ele>120.0</ele><time>2026-04-18T12:34:23.711Z</time></trkpt><trkpt lat="44.5393154" lon="10.8447028"><ele>120.0</ele><time>2026-04-18T12:34:24.714Z</time></trkpt><trkpt lat="44.5394758" lon="10.844757"><ele>119.33333333333334</ele><time>2026-04-18T12:34:25.723Z</time></trkpt><trkpt lat="44.5396297" lon="10.8448096"><ele>118.66666666666667</ele><time>2026-04-18T12:34:26.723Z</time></trkpt><trkpt lat="44.5397827" lon="10.8448659"><ele>118.0</ele><time>2026-04-18T12:34:27.721Z</time></trkpt><trkpt lat="44.5399331" lon="10.84492"><ele>118.0</ele><time>2026-04-18T12:34:28.719Z</time></trkpt><trkpt lat="44.5400869" lon="10.8449726"><ele>118.0</ele><time>2026-04-18T12:34:29.727Z</time></trkpt><trkpt lat="44.5402349" lon="10.8450236"><ele>118.0</ele><time>2026-04-18T12:34:30.717Z</time></trkpt><trkpt lat="44.5403812" lon="10.8450761"><ele>117.75</ele><time>2026-04-18T12:34:31.722Z</time></trkpt><trkpt lat="44.5405204" lon="10.8451289"><ele>117.5</ele><time>2026-04-18T12:34:32.714Z</time></trkpt><trkpt lat="44.5406555" lon="10.845178"><ele>117.25</ele><time>2026-04-18T12:34:33.721Z</time></trkpt><trkpt lat="44.54078" lon="10.8452179"><ele>117.0</ele><time>2026-04-18T12:34:34.722Z</time></trkpt><trkpt lat="44.5408938" lon="10.8452552"><ele>117.0</ele><time>2026-04-18T12:34:35.721Z</time></trkpt><trkpt lat="44.541003" lon="10.8452953"><ele>116.99999999999999</ele><time>2026-04-18T12:34:36.709Z</time></trkpt><trkpt lat="44.5411043" lon="10.8453288"><ele>116.99999999999999</ele><time>2026-04-18T12:34:37.719Z</time></trkpt><trkpt lat="44.5411959" lon="10.8453576"><ele>117.0</ele><time>2026-04-18T12:34:38.717Z</time></trkpt><trkpt lat="44.5412778" lon="10.8454024"><ele>117.0</ele><time>2026-04-18T12:34:39.716Z</time></trkpt><trkpt lat="44.5413502" lon="10.8454724"><ele>117.0</ele><time>2026-04-18T12:34:40.712Z</time></trkpt><trkpt lat="44.5414153" lon="10.8455646"><ele>117.0</ele><time>2026-04-18T12:34:41.719Z</time></trkpt><trkpt lat="44.5414459" lon="10.8457116"><ele>117.0</ele><time>2026-04-18T12:34:42.715Z</time></trkpt><trkpt lat="44.541477" lon="10.8458933"><ele>117.0</ele><time>2026-04-18T12:34:43.713Z</time></trkpt><trkpt lat="44.5414802" lon="10.8461151"><ele>117.0</ele><time>2026-04-18T12:34:44.714Z</time></trkpt><trkpt lat="44.5414812" lon="10.8463475"><ele>117.0</ele><time>2026-04-18T12:34:45.731Z</time></trkpt><trkpt lat="44.5414886" lon="10.8465877"><ele>117.0</ele><time>2026-04-18T12:34:46.723Z</time></trkpt><trkpt lat="44.5414875" lon="10.846841"><ele>116.33333333333334</ele><time>2026-04-18T12:34:47.723Z</time></trkpt><trkpt lat="44.5414682" lon="10.8471"><ele>115.66666666666667</ele><time>2026-04-18T12:34:48.711Z</time></trkpt><trkpt lat="44.5414405" lon="10.8473514"><ele>115.0</ele><time>2026-04-18T12:34:49.707Z</time></trkpt><trkpt lat="44.5414128" lon="10.8475984"><ele>115.0</ele><time>2026-04-18T12:34:50.736Z</time></trkpt><trkpt lat="44.5413805" lon="10.8478379"><ele>115.0</ele><time>2026-04-18T12:34:51.726Z</time></trkpt><trkpt lat="44.5413486" lon="10.8480761"><ele>115.0</ele><time>2026-04-18T12:34:52.721Z</time></trkpt><trkpt lat="44.5413166" lon="10.8483171"><ele>115.0</ele><time>2026-04-18T12:34:53.715Z</time></trkpt><trkpt lat="44.541286" lon="10.8485592"><ele>115.0</ele><time>2026-04-18T12:34:54.717Z</time></trkpt><trkpt lat="44.5412544" lon="10.8488001"><ele>115.0</ele><time>2026-04-18T12:34:55.733Z</time></trkpt><trkpt lat="44.5412228" lon="10.8490275"><ele>115.25</ele><time>2026-04-18T12:34:56.727Z</time></trkpt><trkpt lat="44.5411929" lon="10.849238"><ele>115.5</ele><time>2026-04-18T12:34:57.718Z</time></trkpt><trkpt lat="44.5411595" lon="10.8494396"><ele>115.75</ele><time>2026-04-18T12:34:58.717Z</time></trkpt><trkpt lat="44.5411288" lon="10.8496398"><ele>116.0</ele><time>2026-04-18T12:34:59.714Z</time></trkpt><trkpt lat="44.5410914" lon="10.8498219"><ele>116.0</ele><time>2026-04-18T12:35:00.72Z</time></trkpt><trkpt lat="44.5410543" lon="10.8499893"><ele>116.0</ele><time>2026-04-18T12:35:01.725Z</time></trkpt><trkpt lat="44.5410174" lon="10.8501405"><ele>116.0</ele><time>2026-04-18T12:35:02.716Z</time></trkpt><trkpt lat="44.5409834" lon="10.8502803"><ele>116.0</ele><time>2026-04-18T12:35:03.721Z</time></trkpt><trkpt lat="44.540953" lon="10.8504127"><ele>116.0</ele><time>2026-04-18T12:35:04.72Z</time></trkpt><trkpt lat="44.540925" lon="10.8505404"><ele>115.99999999999999</ele><time>2026-04-18T12:35:05.719Z</time></trkpt><trkpt lat="44.5408971" lon="10.8506575"><ele>116.0</ele><time>2026-04-18T12:35:06.714Z</time></trkpt><trkpt lat="44.5408746" lon="10.8507503"><ele>116.0</ele><time>2026-04-18T12:35:07.725Z</time></trkpt><trkpt lat="44.5408367" lon="10.8508617"><ele>116.0</ele><time>2026-04-18T12:35:09.725Z</time></trkpt><trkpt lat="44.5407733" lon="10.8509446"><ele>115.99999999999999</ele><time>2026-04-18T12:35:11.708Z</time></trkpt><trkpt lat="44.5407205" lon="10.8509934"><ele>116.0</ele><time>2026-04-18T12:35:12.712Z</time></trkpt><trkpt lat="44.5406713" lon="10.8510801"><ele>116.19999999999999</ele><time>2026-04-18T12:35:13.722Z</time></trkpt><trkpt lat="44.5406531" lon="10.8512058"><ele>116.39999999999999</ele><time>2026-04-18T12:35:14.72Z</time></trkpt><trkpt lat="44.5406688" lon="10.8513416"><ele>116.6</ele><time>2026-04-18T12:35:15.723Z</time></trkpt><trkpt lat="44.540697" lon="10.8514865"><ele>116.8</ele><time>2026-04-18T12:35:16.709Z</time></trkpt><trkpt lat="44.540759" lon="10.8516381"><ele>117.0</ele><time>2026-04-18T12:35:17.713Z</time></trkpt><trkpt lat="44.5408148" lon="10.851806"><ele>116.5</ele><time>2026-04-18T12:35:18.738Z</time></trkpt><trkpt lat="44.5408737" lon="10.8519724"><ele>116.0</ele><time>2026-04-18T12:35:19.72Z</time></trkpt><trkpt lat="44.5409674" lon="10.8520994"><ele>115.5</ele><time>2026-04-18T12:35:20.718Z</time></trkpt><trkpt lat="44.5410914" lon="10.8521986"><ele>115.0</ele><time>2026-04-18T12:35:21.728Z</time></trkpt><trkpt lat="44.5412196" lon="10.8522851"><ele>114.25</ele><time>2026-04-18T12:35:22.712Z</time></trkpt><trkpt lat="44.5413606" lon="10.8523572"><ele>113.5</ele><time>2026-04-18T12:35:23.724Z</time></trkpt><trkpt lat="44.5414985" lon="10.8524335"><ele>112.75</ele><time>2026-04-18T12:35:24.716Z</time></trkpt><trkpt lat="44.54163" lon="10.8525081"><ele>112.0</ele><time>2026-04-18T12:35:25.709Z</time></trkpt><trkpt lat="44.5417545" lon="10.8525718"><ele>112.0</ele><time>2026-04-18T12:35:26.712Z</time></trkpt><trkpt lat="44.5418799" lon="10.852622"><ele>112.0</ele><time>2026-04-18T12:35:27.711Z</time></trkpt><trkpt lat="44.5420152" lon="10.8526389"><ele>112.0</ele><time>2026-04-18T12:35:28.712Z</time></trkpt><trkpt lat="44.5421621" lon="10.8526095"><ele>112.0</ele><time>2026-04-18T12:35:29.721Z</time></trkpt><trkpt lat="44.5423048" lon="10.8525437"><ele>111.75</ele><time>2026-04-18T12:35:30.72Z</time></trkpt><trkpt lat="44.542426" lon="10.8524703"><ele>111.5</ele><time>2026-04-18T12:35:31.706Z</time></trkpt><trkpt lat="44.5425335" lon="10.8523894"><ele>111.25</ele><time>2026-04-18T12:35:32.713Z</time></trkpt><trkpt lat="44.5426348" lon="10.8523228"><ele>111.0</ele><time>2026-04-18T12:35:33.722Z</time></trkpt><trkpt lat="44.542735" lon="10.8522996"><ele>111.0</ele><time>2026-04-18T12:35:34.72Z</time></trkpt><trkpt lat="44.5428331" lon="10.8522863"><ele>111.0</ele><time>2026-04-18T12:35:35.715Z</time></trkpt><trkpt lat="44.5429283" lon="10.8522961"><ele>111.0</ele><time>2026-04-18T12:35:36.721Z</time></trkpt><trkpt lat="44.5430113" lon="10.8522738"><ele>111.0</ele><time>2026-04-18T12:35:37.71Z</time></trkpt><trkpt lat="44.5430688" lon="10.8521819"><ele>111.0</ele><time>2026-04-18T12:35:38.703Z</time></trkpt><trkpt lat="44.5431089" lon="10.8520877"><ele>111.0</ele><time>2026-04-18T12:35:39.721Z</time></trkpt><trkpt lat="44.5430865" lon="10.8519704"><ele>111.25</ele><time>2026-04-18T12:35:40.728Z</time></trkpt><trkpt lat="44.5430448" lon="10.8518505"><ele>111.5</ele><time>2026-04-18T12:35:41.724Z</time></trkpt><trkpt lat="44.5429505" lon="10.8517716"><ele>111.75</ele><time>2026-04-18T12:35:42.716Z</time></trkpt><trkpt lat="44.5428369" lon="10.8517172"><ele>112.0</ele><time>2026-04-18T12:35:43.705Z</time></trkpt><trkpt lat="44.5426951" lon="10.8516773"><ele>113.33333333333334</ele><time>2026-04-18T12:35:44.721Z</time></trkpt><trkpt lat="44.5425326" lon="10.8516295"><ele>114.66666666666666</ele><time>2026-04-18T12:35:45.705Z</time></trkpt><trkpt lat="44.5423662" lon="10.8515709"><ele>116.0</ele><time>2026-04-18T12:35:46.722Z</time></trkpt><trkpt lat="44.5422139" lon="10.8515073"><ele>116.0</ele><time>2026-04-18T12:35:47.72Z</time></trkpt><trkpt lat="44.5420829" lon="10.8514403"><ele>116.0</ele><time>2026-04-18T12:35:48.721Z</time></trkpt><trkpt lat="44.5419757" lon="10.851355"><ele>116.0</ele><time>2026-04-18T12:35:49.708Z</time></trkpt><trkpt lat="44.5418832" lon="10.8512607"><ele>116.0</ele><time>2026-04-18T12:35:50.715Z</time></trkpt><trkpt lat="44.5418328" lon="10.8511253"><ele>115.25</ele><time>2026-04-18T12:35:51.739Z</time></trkpt><trkpt lat="44.5418181" lon="10.8509633"><ele>114.5</ele><time>2026-04-18T12:35:52.709Z</time></trkpt><trkpt lat="44.5418417" lon="10.8507841"><ele>113.75</ele><time>2026-04-18T12:35:53.715Z</time></trkpt><trkpt lat="44.5418972" lon="10.8505843"><ele>113.0</ele><time>2026-04-18T12:35:54.711Z</time></trkpt><trkpt lat="44.5419599" lon="10.8503662"><ele>113.0</ele><time>2026-04-18T12:35:55.714Z</time></trkpt><trkpt lat="44.5420205" lon="10.8501301"><ele>113.0</ele><time>2026-04-18T12:35:56.711Z</time></trkpt><trkpt lat="44.5420823" lon="10.8498773"><ele>113.0</ele><time>2026-04-18T12:35:57.708Z</time></trkpt><trkpt lat="44.5421453" lon="10.8496043"><ele>114.33333333333333</ele><time>2026-04-18T12:35:58.708Z</time></trkpt><trkpt lat="44.5422179" lon="10.8493248"><ele>115.66666666666666</ele><time>2026-04-18T12:35:59.715Z</time></trkpt><trkpt lat="44.5422934" lon="10.8490473"><ele>117.0</ele><time>2026-04-18T12:36:00.731Z</time></trkpt><trkpt lat="44.5423689" lon="10.8487628"><ele>117.0</ele><time>2026-04-18T12:36:01.724Z</time></trkpt><trkpt lat="44.5424483" lon="10.8484726"><ele>117.0</ele><time>2026-04-18T12:36:02.709Z</time></trkpt><trkpt lat="44.5425275" lon="10.8481876"><ele>117.0</ele><time>2026-04-18T12:36:03.717Z</time></trkpt><trkpt lat="44.5426063" lon="10.8479048"><ele>117.33333333333334</ele><time>2026-04-18T12:36:04.711Z</time></trkpt><trkpt lat="44.5426861" lon="10.8476201"><ele>117.66666666666667</ele><time>2026-04-18T12:36:05.708Z</time></trkpt><trkpt lat="44.5427617" lon="10.8473403"><ele>118.0</ele><time>2026-04-18T12:36:06.726Z</time></trkpt><trkpt lat="44.5428373" lon="10.8470623"><ele>116.66666666666667</ele><time>2026-04-18T12:36:07.722Z</time></trkpt><trkpt lat="44.5429136" lon="10.8467843"><ele>115.33333333333334</ele><time>2026-04-18T12:36:08.724Z</time></trkpt><trkpt lat="44.5429915" lon="10.8465038"><ele>114.0</ele><time>2026-04-18T12:36:09.718Z</time></trkpt><trkpt lat="44.5430685" lon="10.8462256"><ele>113.33333333333334</ele><time>2026-04-18T12:36:10.714Z</time></trkpt><trkpt lat="44.5431469" lon="10.8459426"><ele>112.66666666666667</ele><time>2026-04-18T12:36:11.721Z</time></trkpt><trkpt lat="44.5432277" lon="10.8456503"><ele>112.0</ele><time>2026-04-18T12:36:12.722Z</time></trkpt><trkpt lat="44.5433099" lon="10.8453527"><ele>113.5</ele><time>2026-04-18T12:36:13.725Z</time></trkpt><trkpt lat="44.5433947" lon="10.8450422"><ele>115.0</ele><time>2026-04-18T12:36:14.725Z</time></trkpt><trkpt lat="44.5434834" lon="10.8447187"><ele>115.0</ele><time>2026-04-18T12:36:15.72Z</time></trkpt><trkpt lat="44.5435762" lon="10.8443821"><ele>115.0</ele><time>2026-04-18T12:36:16.719Z</time></trkpt><trkpt lat="44.5436716" lon="10.8440408"><ele>115.0</ele><time>2026-04-18T12:36:17.729Z</time></trkpt><trkpt lat="44.543772" lon="10.8436978"><ele>115.0</ele><time>2026-04-18T12:36:18.724Z</time></trkpt><trkpt lat="44.5438807" lon="10.8433495"><ele>114.0</ele><time>2026-04-18T12:36:19.722Z</time></trkpt><trkpt lat="44.5440056" lon="10.842996"><ele>113.0</ele><time>2026-04-18T12:36:20.711Z</time></trkpt><trkpt lat="44.5441452" lon="10.8426491"><ele>112.0</ele><time>2026-04-18T12:36:21.722Z</time></trkpt><trkpt lat="44.544302" lon="10.8423075"><ele>111.0</ele><time>2026-04-18T12:36:22.708Z</time></trkpt><trkpt lat="44.5444669" lon="10.8419664"><ele>109.5</ele><time>2026-04-18T12:36:23.714Z</time></trkpt><trkpt lat="44.5446368" lon="10.8416312"><ele>108.0</ele><time>2026-04-18T12:36:24.732Z</time></trkpt><trkpt lat="44.5448095" lon="10.8413102"><ele>108.0</ele><time>2026-04-18T12:36:25.72Z</time></trkpt><trkpt lat="44.544982" lon="10.8409934"><ele>108.0</ele><time>2026-04-18T12:36:26.725Z</time></trkpt><trkpt lat="44.5451533" lon="10.840682"><ele>108.5</ele><time>2026-04-18T12:36:27.725Z</time></trkpt><trkpt lat="44.5453221" lon="10.8403688"><ele>109.0</ele><time>2026-04-18T12:36:28.705Z</time></trkpt><trkpt lat="44.5454851" lon="10.8400516"><ele>109.0</ele><time>2026-04-18T12:36:29.716Z</time></trkpt><trkpt lat="44.5456478" lon="10.8397432"><ele>109.0</ele><time>2026-04-18T12:36:30.712Z</time></trkpt><trkpt lat="44.545811" lon="10.8394466"><ele>110.0</ele><time>2026-04-18T12:36:31.709Z</time></trkpt><trkpt lat="44.5459664" lon="10.8391581"><ele>111.0</ele><time>2026-04-18T12:36:32.72Z</time></trkpt><trkpt lat="44.5461202" lon="10.8388733"><ele>110.5</ele><time>2026-04-18T12:36:33.704Z</time></trkpt><trkpt lat="44.5462689" lon="10.8385926"><ele>110.0</ele><time>2026-04-18T12:36:34.725Z</time></trkpt><trkpt lat="44.5464165" lon="10.8383151"><ele>110.0</ele><time>2026-04-18T12:36:35.731Z</time></trkpt><trkpt lat="44.5465695" lon="10.8380383"><ele>110.0</ele><time>2026-04-18T12:36:36.721Z</time></trkpt><trkpt lat="44.5467185" lon="10.8377583"><ele>109.0</ele><time>2026-04-18T12:36:37.717Z</time></trkpt><trkpt lat="44.5468661" lon="10.8374768"><ele>108.0</ele><time>2026-04-18T12:36:38.718Z</time></trkpt><trkpt lat="44.5470156" lon="10.8371909"><ele>108.5</ele><time>2026-04-18T12:36:39.709Z</time></trkpt><trkpt lat="44.5471666" lon="10.8369051"><ele>109.0</ele><time>2026-04-18T12:36:40.718Z</time></trkpt><trkpt lat="44.5473172" lon="10.836614"><ele>109.0</ele><time>2026-04-18T12:36:41.728Z</time></trkpt><trkpt lat="44.5474669" lon="10.8363175"><ele>109.0</ele><time>2026-04-18T12:36:42.709Z</time></trkpt><trkpt lat="44.5476201" lon="10.8360203"><ele>108.0</ele><time>2026-04-18T12:36:43.73Z</time></trkpt><trkpt lat="44.5477723" lon="10.8357267"><ele>107.0</ele><time>2026-04-18T12:36:44.716Z</time></trkpt><trkpt lat="44.5479181" lon="10.8354217"><ele>107.0</ele><time>2026-04-18T12:36:45.712Z</time></trkpt><trkpt lat="44.548061" lon="10.8351085"><ele>107.0</ele><time>2026-04-18T12:36:46.705Z</time></trkpt><trkpt lat="44.5481965" lon="10.8347788"><ele>107.0</ele><time>2026-04-18T12:36:47.732Z</time></trkpt><trkpt lat="44.5483256" lon="10.8344357"><ele>107.0</ele><time>2026-04-18T12:36:48.709Z</time></trkpt><trkpt lat="44.5484496" lon="10.8340865"><ele>106.5</ele><time>2026-04-18T12:36:49.715Z</time></trkpt><trkpt lat="44.5485696" lon="10.8337401"><ele>106.0</ele><time>2026-04-18T12:36:50.725Z</time></trkpt><trkpt lat="44.5486875" lon="10.8333973"><ele>105.5</ele><time>2026-04-18T12:36:51.721Z</time></trkpt><trkpt lat="44.5488037" lon="10.8330532"><ele>105.0</ele><time>2026-04-18T12:36:52.721Z</time></trkpt><trkpt lat="44.5489149" lon="10.8327144"><ele>104.5</ele><time>2026-04-18T12:36:53.721Z</time></trkpt><trkpt lat="44.5490303" lon="10.8323749"><ele>104.0</ele><time>2026-04-18T12:36:54.721Z</time></trkpt><trkpt lat="44.5491432" lon="10.8320368"><ele>104.0</ele><time>2026-04-18T12:36:55.724Z</time></trkpt><trkpt lat="44.5492619" lon="10.8317072"><ele>104.0</ele><time>2026-04-18T12:36:56.717Z</time></trkpt><trkpt lat="44.549376" lon="10.8313827"><ele>104.0</ele><time>2026-04-18T12:36:57.721Z</time></trkpt><trkpt lat="44.549484" lon="10.8310699"><ele>104.0</ele><time>2026-04-18T12:36:58.719Z</time></trkpt><trkpt lat="44.5495849" lon="10.8307677"><ele>105.5</ele><time>2026-04-18T12:36:59.705Z</time></trkpt><trkpt lat="44.5496796" lon="10.830477"><ele>107.0</ele><time>2026-04-18T12:37:00.724Z</time></trkpt><trkpt lat="44.5497721" lon="10.8301814"><ele>106.0</ele><time>2026-04-18T12:37:01.719Z</time></trkpt><trkpt lat="44.5498619" lon="10.829881"><ele>105.0</ele><time>2026-04-18T12:37:02.708Z</time></trkpt><trkpt lat="44.5499502" lon="10.8295742"><ele>105.0</ele><time>2026-04-18T12:37:03.727Z</time></trkpt><trkpt lat="44.550029" lon="10.8292633"><ele>105.0</ele><time>2026-04-18T12:37:04.715Z</time></trkpt><trkpt lat="44.5501051" lon="10.8289542"><ele>105.0</ele><time>2026-04-18T12:37:05.716Z</time></trkpt><trkpt lat="44.5501787" lon="10.8286443"><ele>105.0</ele><time>2026-04-18T12:37:06.72Z</time></trkpt><trkpt lat="44.5502421" lon="10.8283326"><ele>106.0</ele><time>2026-04-18T12:37:07.725Z</time></trkpt><trkpt lat="44.5503007" lon="10.8280093"><ele>107.0</ele><time>2026-04-18T12:37:08.71Z</time></trkpt><trkpt lat="44.5503559" lon="10.827677"><ele>105.5</ele><time>2026-04-18T12:37:09.72Z</time></trkpt><trkpt lat="44.5504103" lon="10.827333"><ele>104.0</ele><time>2026-04-18T12:37:10.72Z</time></trkpt><trkpt lat="44.5504494" lon="10.8269737"><ele>104.0</ele><time>2026-04-18T12:37:11.708Z</time></trkpt><trkpt lat="44.5504927" lon="10.8266118"><ele>104.0</ele><time>2026-04-18T12:37:12.722Z</time></trkpt><trkpt lat="44.5505283" lon="10.826234"><ele>103.5</ele><time>2026-04-18T12:37:13.716Z</time></trkpt><trkpt lat="44.5505629" lon="10.8258369"><ele>103.0</ele><time>2026-04-18T12:37:14.719Z</time></trkpt><trkpt lat="44.5505924" lon="10.825425"><ele>103.5</ele><time>2026-04-18T12:37:15.717Z</time></trkpt><trkpt lat="44.5506191" lon="10.8250114"><ele>104.0</ele><time>2026-04-18T12:37:16.708Z</time></trkpt><trkpt lat="44.5506448" lon="10.8246023"><ele>104.5</ele><time>2026-04-18T12:37:17.724Z</time></trkpt><trkpt lat="44.5506706" lon="10.824192"><ele>105.0</ele><time>2026-04-18T12:37:18.721Z</time></trkpt><trkpt lat="44.5507025" lon="10.82379"><ele>105.0</ele><time>2026-04-18T12:37:19.717Z</time></trkpt><trkpt lat="44.5507306" lon="10.8233873"><ele>105.0</ele><time>2026-04-18T12:37:20.723Z</time></trkpt><trkpt lat="44.5507598" lon="10.8229925"><ele>105.0</ele><time>2026-04-18T12:37:21.717Z</time></trkpt><trkpt lat="44.5507897" lon="10.8226034"><ele>105.0</ele><time>2026-04-18T12:37:22.708Z</time></trkpt><trkpt lat="44.5508183" lon="10.8222223"><ele>105.0</ele><time>2026-04-18T12:37:23.703Z</time></trkpt><trkpt lat="44.5508488" lon="10.8218437"><ele>105.0</ele><time>2026-04-18T12:37:24.72Z</time></trkpt><trkpt lat="44.5508755" lon="10.8214685"><ele>106.5</ele><time>2026-04-18T12:37:25.724Z</time></trkpt><trkpt lat="44.5509037" lon="10.8210964"><ele>108.0</ele><time>2026-04-18T12:37:26.707Z</time></trkpt><trkpt lat="44.550934" lon="10.8207242"><ele>109.5</ele><time>2026-04-18T12:37:27.718Z</time></trkpt><trkpt lat="44.5509843" lon="10.8203653"><ele>111.0</ele><time>2026-04-18T12:37:28.712Z</time></trkpt><trkpt lat="44.5510578" lon="10.8200113"><ele>111.0</ele><time>2026-04-18T12:37:29.703Z</time></trkpt><trkpt lat="44.5511431" lon="10.8196564"><ele>111.0</ele><time>2026-04-18T12:37:30.702Z</time></trkpt><trkpt lat="44.5512439" lon="10.8192997"><ele>109.0</ele><time>2026-04-18T12:37:31.725Z</time></trkpt><trkpt lat="44.5513424" lon="10.8189525"><ele>107.0</ele><time>2026-04-18T12:37:32.717Z</time></trkpt><trkpt lat="44.5514394" lon="10.8186101"><ele>107.0</ele><time>2026-04-18T12:37:33.72Z</time></trkpt><trkpt lat="44.5515265" lon="10.8182846"><ele>107.0</ele><time>2026-04-18T12:37:34.709Z</time></trkpt><trkpt lat="44.5516094" lon="10.8179787"><ele>107.0</ele><time>2026-04-18T12:37:35.717Z</time></trkpt><trkpt lat="44.5516843" lon="10.8176958"><ele>107.0</ele><time>2026-04-18T12:37:36.712Z</time></trkpt><trkpt lat="44.5517532" lon="10.8174328"><ele>107.0</ele><time>2026-04-18T12:37:37.721Z</time></trkpt><trkpt lat="44.5518184" lon="10.8171933"><ele>107.66666666666666</ele><time>2026-04-18T12:37:38.726Z</time></trkpt><trkpt lat="44.5518809" lon="10.8169743"><ele>108.33333333333334</ele><time>2026-04-18T12:37:39.706Z</time></trkpt><trkpt lat="44.5519456" lon="10.8167774"><ele>109.0</ele><time>2026-04-18T12:37:40.714Z</time></trkpt><trkpt lat="44.5520144" lon="10.8166167"><ele>109.2</ele><time>2026-04-18T12:37:41.722Z</time></trkpt><trkpt lat="44.5520811" lon="10.8165001"><ele>109.4</ele><time>2026-04-18T12:37:42.712Z</time></trkpt><trkpt lat="44.5521583" lon="10.8164528"><ele>109.6</ele><time>2026-04-18T12:37:43.718Z</time></trkpt><trkpt lat="44.5522613" lon="10.8164233"><ele>109.8</ele><time>2026-04-18T12:37:45.705Z</time></trkpt><trkpt lat="44.552352" lon="10.8164437"><ele>110.0</ele><time>2026-04-18T12:37:47.717Z</time></trkpt><trkpt lat="44.5524951" lon="10.8164713"><ele>110.0</ele><time>2026-04-18T12:37:49.722Z</time></trkpt><trkpt lat="44.5525975" lon="10.8164424"><ele>110.0</ele><time>2026-04-18T12:37:50.729Z</time></trkpt><trkpt lat="44.5526976" lon="10.8163734"><ele>110.0</ele><time>2026-04-18T12:37:51.718Z</time></trkpt><trkpt lat="44.5527799" lon="10.8162678"><ele>110.0</ele><time>2026-04-18T12:37:52.721Z</time></trkpt><trkpt lat="44.5528345" lon="10.8161328"><ele>110.0</ele><time>2026-04-18T12:37:53.711Z</time></trkpt><trkpt lat="44.5528474" lon="10.8159686"><ele>110.0</ele><time>2026-04-18T12:37:54.718Z</time></trkpt><trkpt lat="44.5528201" lon="10.8157993"><ele>110.0</ele><time>2026-04-18T12:37:55.719Z</time></trkpt><trkpt lat="44.5527556" lon="10.8156403"><ele>110.0</ele><time>2026-04-18T12:37:56.719Z</time></trkpt><trkpt lat="44.5526653" lon="10.815498"><ele>110.0</ele><time>2026-04-18T12:37:57.71Z</time></trkpt><trkpt lat="44.5525643" lon="10.8153515"><ele>110.0</ele><time>2026-04-18T12:37:58.714Z</time></trkpt><trkpt lat="44.5524758" lon="10.81519"><ele>110.0</ele><time>2026-04-18T12:37:59.708Z</time></trkpt><trkpt lat="44.5524326" lon="10.8149948"><ele>110.0</ele><time>2026-04-18T12:38:00.705Z</time></trkpt><trkpt lat="44.5524171" lon="10.8147715"><ele>109.66666666666666</ele><time>2026-04-18T12:38:01.708Z</time></trkpt><trkpt lat="44.5524398" lon="10.8145178"><ele>109.33333333333334</ele><time>2026-04-18T12:38:02.719Z</time></trkpt><trkpt lat="44.5524799" lon="10.8142465"><ele>109.0</ele><time>2026-04-18T12:38:03.719Z</time></trkpt><trkpt lat="44.5525442" lon="10.81396"><ele>109.0</ele><time>2026-04-18T12:38:04.718Z</time></trkpt><trkpt lat="44.5526209" lon="10.8136645"><ele>109.0</ele><time>2026-04-18T12:38:05.715Z</time></trkpt><trkpt lat="44.5526976" lon="10.8133807"><ele>109.0</ele><time>2026-04-18T12:38:06.721Z</time></trkpt><trkpt lat="44.5527701" lon="10.8131155"><ele>108.33333333333334</ele><time>2026-04-18T12:38:07.716Z</time></trkpt><trkpt lat="44.5528405" lon="10.8128645"><ele>107.66666666666666</ele><time>2026-04-18T12:38:08.713Z</time></trkpt><trkpt lat="44.5529089" lon="10.8126322"><ele>107.0</ele><time>2026-04-18T12:38:09.721Z</time></trkpt><trkpt lat="44.5529774" lon="10.8124114"><ele>107.0</ele><time>2026-04-18T12:38:10.71Z</time></trkpt><trkpt lat="44.5530427" lon="10.8121972"><ele>107.0</ele><time>2026-04-18T12:38:11.717Z</time></trkpt><trkpt lat="44.5531089" lon="10.8119974"><ele>107.0</ele><time>2026-04-18T12:38:12.725Z</time></trkpt><trkpt lat="44.553173" lon="10.8118014"><ele>107.0</ele><time>2026-04-18T12:38:13.709Z</time></trkpt><trkpt lat="44.5532353" lon="10.8116184"><ele>107.0</ele><time>2026-04-18T12:38:14.712Z</time></trkpt><trkpt lat="44.5532952" lon="10.811443"><ele>107.0</ele><time>2026-04-18T12:38:15.721Z</time></trkpt><trkpt lat="44.5533471" lon="10.8112967"><ele>107.0</ele><time>2026-04-18T12:38:16.721Z</time></trkpt><trkpt lat="44.5533903" lon="10.8111803"><ele>106.99999999999999</ele><time>2026-04-18T12:38:17.717Z</time></trkpt><trkpt lat="44.5534323" lon="10.8110913"><ele>107.0</ele><time>2026-04-18T12:38:18.72Z</time></trkpt><trkpt lat="44.5534794" lon="10.8110173"><ele>107.0</ele><time>2026-04-18T12:38:19.708Z</time></trkpt><trkpt lat="44.5535493" lon="10.8109616"><ele>107.0</ele><time>2026-04-18T12:38:20.725Z</time></trkpt><trkpt lat="44.5536365" lon="10.8109226"><ele>106.99999999999999</ele><time>2026-04-18T12:38:21.711Z</time></trkpt><trkpt lat="44.5537262" lon="10.8108848"><ele>107.0</ele><time>2026-04-18T12:38:22.708Z</time></trkpt><trkpt lat="44.5538008" lon="10.8108152"><ele>106.99999999999999</ele><time>2026-04-18T12:38:23.713Z</time></trkpt><trkpt lat="44.5538583" lon="10.81073"><ele>107.0</ele><time>2026-04-18T12:38:24.721Z</time></trkpt><trkpt lat="44.5538788" lon="10.8106171"><ele>107.0</ele><time>2026-04-18T12:38:25.72Z</time></trkpt><trkpt lat="44.5538753" lon="10.8104966"><ele>107.0</ele><time>2026-04-18T12:38:26.721Z</time></trkpt><trkpt lat="44.5538504" lon="10.8103775"><ele>106.99999999999999</ele><time>2026-04-18T12:38:27.71Z</time></trkpt><trkpt lat="44.5537999" lon="10.8102627"><ele>107.0</ele><time>2026-04-18T12:38:28.72Z</time></trkpt><trkpt lat="44.553747" lon="10.8101535"><ele>107.0</ele><time>2026-04-18T12:38:29.706Z</time></trkpt><trkpt lat="44.5537054" lon="10.8100259"><ele>107.0</ele><time>2026-04-18T12:38:30.715Z</time></trkpt><trkpt lat="44.553692" lon="10.8098675"><ele>107.0</ele><time>2026-04-18T12:38:31.72Z</time></trkpt><trkpt lat="44.5537127" lon="10.8096809"><ele>107.0</ele><time>2026-04-18T12:38:32.715Z</time></trkpt><trkpt lat="44.5537551" lon="10.8094673"><ele>106.66666666666666</ele><time>2026-04-18T12:38:33.71Z</time></trkpt><trkpt lat="44.5538128" lon="10.809222"><ele>106.33333333333334</ele><time>2026-04-18T12:38:34.718Z</time></trkpt><trkpt lat="44.5538724" lon="10.808947"><ele>106.0</ele><time>2026-04-18T12:38:35.72Z</time></trkpt><trkpt lat="44.5539278" lon="10.808646"><ele>105.5</ele><time>2026-04-18T12:38:36.712Z</time></trkpt><trkpt lat="44.5539847" lon="10.8083351"><ele>105.0</ele><time>2026-04-18T12:38:37.722Z</time></trkpt><trkpt lat="44.5540384" lon="10.8080268"><ele>105.0</ele><time>2026-04-18T12:38:38.721Z</time></trkpt><trkpt lat="44.5540852" lon="10.8077157"><ele>105.0</ele><time>2026-04-18T12:38:39.702Z</time></trkpt><trkpt lat="44.5541302" lon="10.8073878"><ele>105.0</ele><time>2026-04-18T12:38:40.724Z</time></trkpt><trkpt lat="44.5541756" lon="10.8070649"><ele>105.0</ele><time>2026-04-18T12:38:41.719Z</time></trkpt><trkpt lat="44.5542215" lon="10.8067464"><ele>105.0</ele><time>2026-04-18T12:38:42.708Z</time></trkpt><trkpt lat="44.5542644" lon="10.806429"><ele>105.0</ele><time>2026-04-18T12:38:43.712Z</time></trkpt><trkpt lat="44.5543035" lon="10.8061246"><ele>105.0</ele><time>2026-04-18T12:38:44.707Z</time></trkpt><trkpt lat="44.5543431" lon="10.8058235"><ele>105.0</ele><time>2026-04-18T12:38:45.708Z</time></trkpt><trkpt lat="44.5543872" lon="10.8055256"><ele>105.0</ele><time>2026-04-18T12:38:46.708Z</time></trkpt><trkpt lat="44.5544363" lon="10.8052216"><ele>105.0</ele><time>2026-04-18T12:38:47.722Z</time></trkpt><trkpt lat="44.5544978" lon="10.8049099"><ele>105.0</ele><time>2026-04-18T12:38:48.725Z</time></trkpt><trkpt lat="44.5545587" lon="10.8045772"><ele>104.5</ele><time>2026-04-18T12:38:49.701Z</time></trkpt><trkpt lat="44.5546194" lon="10.8042069"><ele>104.0</ele><time>2026-04-18T12:38:50.705Z</time></trkpt><trkpt lat="44.5546804" lon="10.8038219"><ele>104.5</ele><time>2026-04-18T12:38:51.71Z</time></trkpt><trkpt lat="44.5547404" lon="10.8034427"><ele>105.0</ele><time>2026-04-18T12:38:52.717Z</time></trkpt><trkpt lat="44.5547985" lon="10.8030828"><ele>105.0</ele><time>2026-04-18T12:38:53.715Z</time></trkpt><trkpt lat="44.5548532" lon="10.8027367"><ele>105.0</ele><time>2026-04-18T12:38:54.707Z</time></trkpt><trkpt lat="44.5549002" lon="10.8024117"><ele>105.0</ele><time>2026-04-18T12:38:55.718Z</time></trkpt><trkpt lat="44.5549455" lon="10.8021052"><ele>105.0</ele><time>2026-04-18T12:38:56.721Z</time></trkpt><trkpt lat="44.5549948" lon="10.8018108"><ele>105.0</ele><time>2026-04-18T12:38:57.716Z</time></trkpt><trkpt lat="44.5550514" lon="10.8015346"><ele>105.0</ele><time>2026-04-18T12:38:58.702Z</time></trkpt><trkpt lat="44.5551152" lon="10.8012764"><ele>105.0</ele><time>2026-04-18T12:38:59.702Z</time></trkpt><trkpt lat="44.5551935" lon="10.8010399"><ele>105.0</ele><time>2026-04-18T12:39:00.72Z</time></trkpt><trkpt lat="44.5552754" lon="10.8008279"><ele>105.33333333333334</ele><time>2026-04-18T12:39:01.706Z</time></trkpt><trkpt lat="44.5553624" lon="10.8006124"><ele>105.66666666666667</ele><time>2026-04-18T12:39:02.725Z</time></trkpt><trkpt lat="44.5554521" lon="10.800405"><ele>106.0</ele><time>2026-04-18T12:39:03.721Z</time></trkpt><trkpt lat="44.5555383" lon="10.8002101"><ele>107.0</ele><time>2026-04-18T12:39:04.7Z</time></trkpt><trkpt lat="44.5556215" lon="10.8000206"><ele>108.0</ele><time>2026-04-18T12:39:05.708Z</time></trkpt><trkpt lat="44.5556952" lon="10.7998498"><ele>109.0</ele><time>2026-04-18T12:39:06.701Z</time></trkpt><trkpt lat="44.5557671" lon="10.799684"><ele>110.0</ele><time>2026-04-18T12:39:07.707Z</time></trkpt><trkpt lat="44.5558371" lon="10.7995307"><ele>110.0</ele><time>2026-04-18T12:39:08.714Z</time></trkpt><trkpt lat="44.5559022" lon="10.799383"><ele>110.0</ele><time>2026-04-18T12:39:09.723Z</time></trkpt><trkpt lat="44.5559601" lon="10.7992606"><ele>110.0</ele><time>2026-04-18T12:39:10.709Z</time></trkpt><trkpt lat="44.5560127" lon="10.7991584"><ele>110.0</ele><time>2026-04-18T12:39:11.72Z</time></trkpt><trkpt lat="44.5560592" lon="10.7990804"><ele>110.0</ele><time>2026-04-18T12:39:12.72Z</time></trkpt><trkpt lat="44.5561415" lon="10.7989917"><ele>109.4</ele><time>2026-04-18T12:39:14.706Z</time></trkpt><trkpt lat="44.5562578" lon="10.7988965"><ele>108.8</ele><time>2026-04-18T12:39:16.72Z</time></trkpt><trkpt lat="44.5563301" lon="10.7988193"><ele>108.19999999999999</ele><time>2026-04-18T12:39:17.715Z</time></trkpt><trkpt lat="44.5563961" lon="10.7987036"><ele>107.6</ele><time>2026-04-18T12:39:18.706Z</time></trkpt><trkpt lat="44.5564328" lon="10.7985617"><ele>107.0</ele><time>2026-04-18T12:39:19.705Z</time></trkpt><trkpt lat="44.5564547" lon="10.7984112"><ele>107.0</ele><time>2026-04-18T12:39:20.699Z</time></trkpt><trkpt lat="44.5564539" lon="10.7982475"><ele>107.0</ele><time>2026-04-18T12:39:21.719Z</time></trkpt><trkpt lat="44.5564505" lon="10.7980844"><ele>107.0</ele><time>2026-04-18T12:39:22.719Z</time></trkpt><trkpt lat="44.5564618" lon="10.7979215"><ele>107.0</ele><time>2026-04-18T12:39:23.707Z</time></trkpt><trkpt lat="44.5564948" lon="10.7977607"><ele>107.0</ele><time>2026-04-18T12:39:24.713Z</time></trkpt><trkpt lat="44.5565375" lon="10.7975975"><ele>107.0</ele><time>2026-04-18T12:39:25.721Z</time></trkpt><trkpt lat="44.5565787" lon="10.7974286"><ele>107.0</ele><time>2026-04-18T12:39:26.717Z</time></trkpt><trkpt lat="44.5566224" lon="10.7972572"><ele>107.0</ele><time>2026-04-18T12:39:27.705Z</time></trkpt><trkpt lat="44.5566633" lon="10.7970863"><ele>107.0</ele><time>2026-04-18T12:39:28.729Z</time></trkpt><trkpt lat="44.5566991" lon="10.7969341"><ele>106.99999999999999</ele><time>2026-04-18T12:39:29.727Z</time></trkpt><trkpt lat="44.5567309" lon="10.7968015"><ele>106.99999999999999</ele><time>2026-04-18T12:39:30.705Z</time></trkpt><trkpt lat="44.5567628" lon="10.79669"><ele>107.0</ele><time>2026-04-18T12:39:31.72Z</time></trkpt><trkpt lat="44.556812" lon="10.7965718"><ele>107.0</ele><time>2026-04-18T12:39:33.708Z</time></trkpt><trkpt lat="44.556802" lon="10.7964511"><ele>106.75</ele><time>2026-04-18T12:40:05.714Z</time></trkpt><trkpt lat="44.5567521" lon="10.7962807"><ele>106.5</ele><time>2026-04-18T12:40:07.721Z</time></trkpt><trkpt lat="44.5567645" lon="10.7961543"><ele>106.25</ele><time>2026-04-18T12:40:08.71Z</time></trkpt><trkpt lat="44.5568134" lon="10.7959988"><ele>106.0</ele><time>2026-04-18T12:40:09.725Z</time></trkpt><trkpt lat="44.5568503" lon="10.7958175"><ele>106.66666666666667</ele><time>2026-04-18T12:40:10.709Z</time></trkpt><trkpt lat="44.5568754" lon="10.7956049"><ele>107.33333333333334</ele><time>2026-04-18T12:40:11.708Z</time></trkpt><trkpt lat="44.5568944" lon="10.7953629"><ele>108.0</ele><time>2026-04-18T12:40:12.705Z</time></trkpt><trkpt lat="44.5569116" lon="10.7951027"><ele>108.33333333333334</ele><time>2026-04-18T12:40:13.727Z</time></trkpt><trkpt lat="44.5569235" lon="10.794816"><ele>108.66666666666667</ele><time>2026-04-18T12:40:14.726Z</time></trkpt><trkpt lat="44.5569373" lon="10.7945071"><ele>109.0</ele><time>2026-04-18T12:40:15.724Z</time></trkpt><trkpt lat="44.556954" lon="10.7941855"><ele>108.0</ele><time>2026-04-18T12:40:16.729Z</time></trkpt><trkpt lat="44.5569699" lon="10.7938567"><ele>107.0</ele><time>2026-04-18T12:40:17.718Z</time></trkpt><trkpt lat="44.5569846" lon="10.7935311"><ele>107.0</ele><time>2026-04-18T12:40:18.721Z</time></trkpt><trkpt lat="44.5569987" lon="10.793201"><ele>107.0</ele><time>2026-04-18T12:40:19.722Z</time></trkpt><trkpt lat="44.5570133" lon="10.7928657"><ele>106.5</ele><time>2026-04-18T12:40:20.726Z</time></trkpt><trkpt lat="44.5570276" lon="10.7925295"><ele>106.0</ele><time>2026-04-18T12:40:21.724Z</time></trkpt><trkpt lat="44.5570412" lon="10.792194"><ele>105.0</ele><time>2026-04-18T12:40:22.715Z</time></trkpt><trkpt lat="44.557056" lon="10.7918588"><ele>104.0</ele><time>2026-04-18T12:40:23.713Z</time></trkpt><trkpt lat="44.5570779" lon="10.7915263"><ele>104.0</ele><time>2026-04-18T12:40:24.722Z</time></trkpt><trkpt lat="44.5571092" lon="10.7911955"><ele>104.0</ele><time>2026-04-18T12:40:25.715Z</time></trkpt><trkpt lat="44.5571518" lon="10.7908688"><ele>103.5</ele><time>2026-04-18T12:40:26.723Z</time></trkpt><trkpt lat="44.5571918" lon="10.7905403"><ele>103.0</ele><time>2026-04-18T12:40:27.72Z</time></trkpt><trkpt lat="44.5572503" lon="10.7902204"><ele>103.0</ele><time>2026-04-18T12:40:28.721Z</time></trkpt><trkpt lat="44.5573203" lon="10.7899152"><ele>103.0</ele><time>2026-04-18T12:40:29.72Z</time></trkpt><trkpt lat="44.5573997" lon="10.7896304"><ele>103.0</ele><time>2026-04-18T12:40:30.715Z</time></trkpt><trkpt lat="44.557488" lon="10.7893755"><ele>103.0</ele><time>2026-04-18T12:40:31.719Z</time></trkpt><trkpt lat="44.5575609" lon="10.7891387"><ele>103.0</ele><time>2026-04-18T12:40:32.73Z</time></trkpt><trkpt lat="44.5576259" lon="10.7889352"><ele>103.0</ele><time>2026-04-18T12:40:33.718Z</time></trkpt><trkpt lat="44.5576886" lon="10.7887632"><ele>103.00000000000001</ele><time>2026-04-18T12:40:34.714Z</time></trkpt><trkpt lat="44.5577381" lon="10.7886362"><ele>103.0</ele><time>2026-04-18T12:40:35.707Z</time></trkpt><trkpt lat="44.5577917" lon="10.7885525"><ele>103.0</ele><time>2026-04-18T12:40:36.72Z</time></trkpt><trkpt lat="44.5578449" lon="10.7884783"><ele>103.0</ele><time>2026-04-18T12:40:37.722Z</time></trkpt><trkpt lat="44.5579019" lon="10.788404"><ele>103.00000000000001</ele><time>2026-04-18T12:40:38.712Z</time></trkpt><trkpt lat="44.557963" lon="10.788327"><ele>103.0</ele><time>2026-04-18T12:40:39.72Z</time></trkpt><trkpt lat="44.5580139" lon="10.7882289"><ele>102.80000000000001</ele><time>2026-04-18T12:40:40.723Z</time></trkpt><trkpt lat="44.558042" lon="10.7881143"><ele>102.6</ele><time>2026-04-18T12:40:41.719Z</time></trkpt><trkpt lat="44.5580545" lon="10.7879898"><ele>102.4</ele><time>2026-04-18T12:40:42.715Z</time></trkpt><trkpt lat="44.5580414" lon="10.7878482"><ele>102.19999999999999</ele><time>2026-04-18T12:40:43.722Z</time></trkpt><trkpt lat="44.5580323" lon="10.787708"><ele>102.0</ele><time>2026-04-18T12:40:44.708Z</time></trkpt><trkpt lat="44.5580511" lon="10.7875567"><ele>102.75</ele><time>2026-04-18T12:40:45.721Z</time></trkpt><trkpt lat="44.558093" lon="10.7874049"><ele>103.5</ele><time>2026-04-18T12:40:46.724Z</time></trkpt><trkpt lat="44.5581665" lon="10.7872428"><ele>104.25</ele><time>2026-04-18T12:40:47.721Z</time></trkpt><trkpt lat="44.5582358" lon="10.7870422"><ele>105.0</ele><time>2026-04-18T12:40:48.725Z</time></trkpt><trkpt lat="44.5583036" lon="10.7868046"><ele>105.5</ele><time>2026-04-18T12:40:49.709Z</time></trkpt><trkpt lat="44.5583995" lon="10.7865201"><ele>106.0</ele><time>2026-04-18T12:40:50.717Z</time></trkpt><trkpt lat="44.5585153" lon="10.7862083"><ele>105.5</ele><time>2026-04-18T12:40:51.711Z</time></trkpt><trkpt lat="44.5586339" lon="10.7858798"><ele>105.0</ele><time>2026-04-18T12:40:52.723Z</time></trkpt><trkpt lat="44.5587553" lon="10.7855273"><ele>104.0</ele><time>2026-04-18T12:40:53.71Z</time></trkpt><trkpt lat="44.5588736" lon="10.785159"><ele>103.0</ele><time>2026-04-18T12:40:54.708Z</time></trkpt><trkpt lat="44.5589901" lon="10.7847802"><ele>103.0</ele><time>2026-04-18T12:40:55.718Z</time></trkpt><trkpt lat="44.5590908" lon="10.7843919"><ele>103.0</ele><time>2026-04-18T12:40:56.726Z</time></trkpt><trkpt lat="44.5591741" lon="10.7840069"><ele>104.0</ele><time>2026-04-18T12:40:57.721Z</time></trkpt><trkpt lat="44.5592393" lon="10.7836252"><ele>105.0</ele><time>2026-04-18T12:40:58.715Z</time></trkpt><trkpt lat="44.5592861" lon="10.783248"><ele>105.0</ele><time>2026-04-18T12:40:59.717Z</time></trkpt><trkpt lat="44.5593133" lon="10.7828777"><ele>105.0</ele><time>2026-04-18T12:41:00.708Z</time></trkpt><trkpt lat="44.5593284" lon="10.7825096"><ele>104.5</ele><time>2026-04-18T12:41:01.71Z</time></trkpt><trkpt lat="44.5593251" lon="10.7821497"><ele>104.0</ele><time>2026-04-18T12:41:02.73Z</time></trkpt><trkpt lat="44.559319" lon="10.7817911"><ele>104.0</ele><time>2026-04-18T12:41:03.708Z</time></trkpt><trkpt lat="44.5592848" lon="10.7814323"><ele>104.0</ele><time>2026-04-18T12:41:04.726Z</time></trkpt><trkpt lat="44.5592433" lon="10.781077"><ele>104.5</ele><time>2026-04-18T12:41:05.711Z</time></trkpt><trkpt lat="44.5591975" lon="10.7807239"><ele>105.0</ele><time>2026-04-18T12:41:06.723Z</time></trkpt><trkpt lat="44.5591555" lon="10.7803749"><ele>104.5</ele><time>2026-04-18T12:41:07.714Z</time></trkpt><trkpt lat="44.5591188" lon="10.7800282"><ele>104.0</ele><time>2026-04-18T12:41:08.7Z</time></trkpt><trkpt lat="44.5590822" lon="10.7796844"><ele>102.5</ele><time>2026-04-18T12:41:09.721Z</time></trkpt><trkpt lat="44.5590411" lon="10.7793397"><ele>101.0</ele><time>2026-04-18T12:41:10.712Z</time></trkpt><trkpt lat="44.559008" lon="10.7789937"><ele>101.0</ele><time>2026-04-18T12:41:11.721Z</time></trkpt><trkpt lat="44.5589844" lon="10.778647"><ele>101.0</ele><time>2026-04-18T12:41:12.706Z</time></trkpt><trkpt lat="44.5589699" lon="10.7783022"><ele>102.0</ele><time>2026-04-18T12:41:13.717Z</time></trkpt><trkpt lat="44.5589759" lon="10.7779576"><ele>103.0</ele><time>2026-04-18T12:41:14.712Z</time></trkpt><trkpt lat="44.5589928" lon="10.777616"><ele>104.0</ele><time>2026-04-18T12:41:15.72Z</time></trkpt><trkpt lat="44.5590338" lon="10.7772772"><ele>105.0</ele><time>2026-04-18T12:41:16.715Z</time></trkpt><trkpt lat="44.5590689" lon="10.7769417"><ele>108.0</ele><time>2026-04-18T12:41:17.73Z</time></trkpt><trkpt lat="44.5591034" lon="10.7765982"><ele>111.0</ele><time>2026-04-18T12:41:18.718Z</time></trkpt><trkpt lat="44.5591382" lon="10.7762628"><ele>110.33333333333334</ele><time>2026-04-18T12:41:19.717Z</time></trkpt><trkpt lat="44.5591747" lon="10.7759479"><ele>109.66666666666667</ele><time>2026-04-18T12:41:20.72Z</time></trkpt><trkpt lat="44.5592054" lon="10.7756586"><ele>109.0</ele><time>2026-04-18T12:41:21.709Z</time></trkpt><trkpt lat="44.5592357" lon="10.7753822"><ele>107.0</ele><time>2026-04-18T12:41:22.719Z</time></trkpt><trkpt lat="44.5592598" lon="10.7751081"><ele>105.0</ele><time>2026-04-18T12:41:23.713Z</time></trkpt><trkpt lat="44.5592842" lon="10.7748338"><ele>103.0</ele><time>2026-04-18T12:41:24.727Z</time></trkpt><trkpt lat="44.559306" lon="10.7745621"><ele>102.0</ele><time>2026-04-18T12:41:25.725Z</time></trkpt><trkpt lat="44.5593303" lon="10.7742949"><ele>101.0</ele><time>2026-04-18T12:41:26.717Z</time></trkpt><trkpt lat="44.5593542" lon="10.7740364"><ele>100.0</ele><time>2026-04-18T12:41:27.725Z</time></trkpt><trkpt lat="44.5593783" lon="10.7737911"><ele>100.0</ele><time>2026-04-18T12:41:28.71Z</time></trkpt><trkpt lat="44.5594054" lon="10.7735547"><ele>100.0</ele><time>2026-04-18T12:41:29.718Z</time></trkpt><trkpt lat="44.5594319" lon="10.7733175"><ele>100.0</ele><time>2026-04-18T12:41:30.72Z</time></trkpt><trkpt lat="44.5594561" lon="10.7730825"><ele>99.33333333333334</ele><time>2026-04-18T12:41:31.719Z</time></trkpt><trkpt lat="44.5594778" lon="10.7728502"><ele>98.66666666666666</ele><time>2026-04-18T12:41:32.713Z</time></trkpt><trkpt lat="44.5594972" lon="10.772623"><ele>98.0</ele><time>2026-04-18T12:41:33.727Z</time></trkpt><trkpt lat="44.5595201" lon="10.7724003"><ele>98.0</ele><time>2026-04-18T12:41:34.719Z</time></trkpt><trkpt lat="44.5595432" lon="10.772175"><ele>98.0</ele><time>2026-04-18T12:41:35.707Z</time></trkpt><trkpt lat="44.5595662" lon="10.7719489"><ele>98.0</ele><time>2026-04-18T12:41:36.725Z</time></trkpt><trkpt lat="44.559589" lon="10.7717228"><ele>98.0</ele><time>2026-04-18T12:41:37.709Z</time></trkpt><trkpt lat="44.5596078" lon="10.7714944"><ele>98.0</ele><time>2026-04-18T12:41:38.72Z</time></trkpt><trkpt lat="44.5596276" lon="10.7712676"><ele>98.0</ele><time>2026-04-18T12:41:39.725Z</time></trkpt><trkpt lat="44.5596479" lon="10.7710414"><ele>99.33333333333333</ele><time>2026-04-18T12:41:40.725Z</time></trkpt><trkpt lat="44.5596678" lon="10.7708133"><ele>100.66666666666666</ele><time>2026-04-18T12:41:41.71Z</time></trkpt><trkpt lat="44.5596887" lon="10.7705856"><ele>102.0</ele><time>2026-04-18T12:41:42.714Z</time></trkpt><trkpt lat="44.5597121" lon="10.7703582"><ele>103.0</ele><time>2026-04-18T12:41:43.713Z</time></trkpt><trkpt lat="44.5597341" lon="10.7701416"><ele>104.0</ele><time>2026-04-18T12:41:44.731Z</time></trkpt><trkpt lat="44.5597572" lon="10.7699286"><ele>105.0</ele><time>2026-04-18T12:41:45.715Z</time></trkpt><trkpt lat="44.5597815" lon="10.7697139"><ele>105.0</ele><time>2026-04-18T12:41:46.71Z</time></trkpt><trkpt lat="44.5598005" lon="10.7695054"><ele>105.0</ele><time>2026-04-18T12:41:47.72Z</time></trkpt><trkpt lat="44.5598185" lon="10.769305"><ele>105.0</ele><time>2026-04-18T12:41:48.721Z</time></trkpt><trkpt lat="44.5598303" lon="10.7691173"><ele>105.0</ele><time>2026-04-18T12:41:49.709Z</time></trkpt><trkpt lat="44.5598389" lon="10.7689345"><ele>105.4</ele><time>2026-04-18T12:41:50.726Z</time></trkpt><trkpt lat="44.5598496" lon="10.7687639"><ele>105.8</ele><time>2026-04-18T12:41:51.724Z</time></trkpt><trkpt lat="44.5598555" lon="10.7686162"><ele>106.19999999999999</ele><time>2026-04-18T12:41:52.721Z</time></trkpt><trkpt lat="44.5598576" lon="10.7684781"><ele>106.6</ele><time>2026-04-18T12:41:53.723Z</time></trkpt><trkpt lat="44.5598527" lon="10.7683397"><ele>107.0</ele><time>2026-04-18T12:41:54.723Z</time></trkpt><trkpt lat="44.5598282" lon="10.7681811"><ele>107.5</ele><time>2026-04-18T12:41:55.719Z</time></trkpt><trkpt lat="44.5598009" lon="10.7680207"><ele>108.0</ele><time>2026-04-18T12:41:56.726Z</time></trkpt><trkpt lat="44.5597559" lon="10.7678646"><ele>108.5</ele><time>2026-04-18T12:41:57.714Z</time></trkpt><trkpt lat="44.5596893" lon="10.76772"><ele>109.0</ele><time>2026-04-18T12:41:58.718Z</time></trkpt><trkpt lat="44.5596055" lon="10.767589"><ele>109.0</ele><time>2026-04-18T12:41:59.714Z</time></trkpt><trkpt lat="44.5595061" lon="10.76749"><ele>109.0</ele><time>2026-04-18T12:42:00.714Z</time></trkpt><trkpt lat="44.5594076" lon="10.7674363"><ele>109.0</ele><time>2026-04-18T12:42:01.724Z</time></trkpt><trkpt lat="44.5592941" lon="10.7673693"><ele>109.0</ele><time>2026-04-18T12:42:02.724Z</time></trkpt><trkpt lat="44.5591738" lon="10.7673097"><ele>109.0</ele><time>2026-04-18T12:42:03.731Z</time></trkpt><trkpt lat="44.5590505" lon="10.7672532"><ele>109.0</ele><time>2026-04-18T12:42:04.732Z</time></trkpt><trkpt lat="44.5589317" lon="10.7671936"><ele>109.0</ele><time>2026-04-18T12:42:05.707Z</time></trkpt><trkpt lat="44.5588225" lon="10.7671381"><ele>109.0</ele><time>2026-04-18T12:42:06.726Z</time></trkpt><trkpt lat="44.5587156" lon="10.7670848"><ele>109.25</ele><time>2026-04-18T12:42:07.725Z</time></trkpt><trkpt lat="44.5586096" lon="10.7670244"><ele>109.5</ele><time>2026-04-18T12:42:08.714Z</time></trkpt><trkpt lat="44.5584987" lon="10.7669594"><ele>109.75</ele><time>2026-04-18T12:42:09.71Z</time></trkpt><trkpt lat="44.5583844" lon="10.7668992"><ele>110.0</ele><time>2026-04-18T12:42:10.724Z</time></trkpt><trkpt lat="44.5582719" lon="10.7668382"><ele>110.0</ele><time>2026-04-18T12:42:11.71Z</time></trkpt><trkpt lat="44.5581579" lon="10.766775"><ele>110.0</ele><time>2026-04-18T12:42:12.709Z</time></trkpt><trkpt lat="44.5580371" lon="10.7667208"><ele>110.0</ele><time>2026-04-18T12:42:13.711Z</time></trkpt><trkpt lat="44.5579063" lon="10.7666721"><ele>110.0</ele><time>2026-04-18T12:42:14.711Z</time></trkpt><trkpt lat="44.5577543" lon="10.7666337"><ele>110.0</ele><time>2026-04-18T12:42:15.717Z</time></trkpt><trkpt lat="44.5575884" lon="10.766604"><ele>110.0</ele><time>2026-04-18T12:42:16.725Z</time></trkpt><trkpt lat="44.5574181" lon="10.7665822"><ele>110.0</ele><time>2026-04-18T12:42:17.723Z</time></trkpt><trkpt lat="44.5572642" lon="10.7665826"><ele>110.0</ele><time>2026-04-18T12:42:18.718Z</time></trkpt><trkpt lat="44.5571129" lon="10.766597"><ele>110.0</ele><time>2026-04-18T12:42:19.72Z</time></trkpt><trkpt lat="44.5569616" lon="10.7666202"><ele>110.0</ele><time>2026-04-18T12:42:20.731Z</time></trkpt><trkpt lat="44.5568105" lon="10.766683"><ele>109.33333333333333</ele><time>2026-04-18T12:42:21.721Z</time></trkpt><trkpt lat="44.5566496" lon="10.7667658"><ele>108.66666666666666</ele><time>2026-04-18T12:42:22.723Z</time></trkpt><trkpt lat="44.5564971" lon="10.7668425"><ele>108.0</ele><time>2026-04-18T12:42:23.709Z</time></trkpt><trkpt lat="44.5563402" lon="10.7669388"><ele>108.0</ele><time>2026-04-18T12:42:24.725Z</time></trkpt><trkpt lat="44.5561859" lon="10.7670382"><ele>108.0</ele><time>2026-04-18T12:42:25.724Z</time></trkpt><trkpt lat="44.5560289" lon="10.7671346"><ele>108.0</ele><time>2026-04-18T12:42:26.727Z</time></trkpt><trkpt lat="44.5558737" lon="10.7672338"><ele>108.0</ele><time>2026-04-18T12:42:27.711Z</time></trkpt><trkpt lat="44.5557209" lon="10.7673328"><ele>108.0</ele><time>2026-04-18T12:42:28.714Z</time></trkpt><trkpt lat="44.555573" lon="10.767432"><ele>108.0</ele><time>2026-04-18T12:42:29.705Z</time></trkpt><trkpt lat="44.5554249" lon="10.7675229"><ele>108.0</ele><time>2026-04-18T12:42:30.705Z</time></trkpt><trkpt lat="44.5552767" lon="10.7676106"><ele>108.0</ele><time>2026-04-18T12:42:31.725Z</time></trkpt><trkpt lat="44.5551248" lon="10.7677059"><ele>108.0</ele><time>2026-04-18T12:42:32.73Z</time></trkpt><trkpt lat="44.5549713" lon="10.7678027"><ele>108.0</ele><time>2026-04-18T12:42:33.71Z</time></trkpt><trkpt lat="44.554817" lon="10.7679018"><ele>108.0</ele><time>2026-04-18T12:42:34.725Z</time></trkpt><trkpt lat="44.5546589" lon="10.7680014"><ele>108.0</ele><time>2026-04-18T12:42:35.713Z</time></trkpt><trkpt lat="44.5545064" lon="10.768098"><ele>108.33333333333334</ele><time>2026-04-18T12:42:36.722Z</time></trkpt><trkpt lat="44.5543599" lon="10.7681895"><ele>108.66666666666667</ele><time>2026-04-18T12:42:37.729Z</time></trkpt><trkpt lat="44.5542147" lon="10.7682781"><ele>109.0</ele><time>2026-04-18T12:42:38.724Z</time></trkpt><trkpt lat="44.5540757" lon="10.7683624"><ele>109.0</ele><time>2026-04-18T12:42:39.718Z</time></trkpt><trkpt lat="44.5539368" lon="10.7684438"><ele>109.0</ele><time>2026-04-18T12:42:40.725Z</time></trkpt><trkpt lat="44.5537925" lon="10.7685273"><ele>109.0</ele><time>2026-04-18T12:42:41.722Z</time></trkpt><trkpt lat="44.5536442" lon="10.7686113"><ele>108.66666666666667</ele><time>2026-04-18T12:42:42.728Z</time></trkpt><trkpt lat="44.5534944" lon="10.7686917"><ele>108.33333333333334</ele><time>2026-04-18T12:42:43.71Z</time></trkpt><trkpt lat="44.5533444" lon="10.7687644"><ele>108.0</ele><time>2026-04-18T12:42:44.721Z</time></trkpt><trkpt lat="44.5532005" lon="10.7688308"><ele>108.0</ele><time>2026-04-18T12:42:45.707Z</time></trkpt><trkpt lat="44.5530598" lon="10.7688893"><ele>108.0</ele><time>2026-04-18T12:42:46.723Z</time></trkpt><trkpt lat="44.5529239" lon="10.768941"><ele>108.0</ele><time>2026-04-18T12:42:47.72Z</time></trkpt><trkpt lat="44.5527857" lon="10.7689884"><ele>108.0</ele><time>2026-04-18T12:42:48.724Z</time></trkpt><trkpt lat="44.5526467" lon="10.7690193"><ele>107.5</ele><time>2026-04-18T12:42:49.724Z</time></trkpt><trkpt lat="44.5525127" lon="10.7690079"><ele>107.0</ele><time>2026-04-18T12:42:50.715Z</time></trkpt><trkpt lat="44.5523919" lon="10.768966"><ele>106.5</ele><time>2026-04-18T12:42:51.73Z</time></trkpt><trkpt lat="44.5522833" lon="10.7689419"><ele>106.0</ele><time>2026-04-18T12:42:52.718Z</time></trkpt><trkpt lat="44.5521787" lon="10.7689542"><ele>106.0</ele><time>2026-04-18T12:42:53.723Z</time></trkpt><trkpt lat="44.5520856" lon="10.7690278"><ele>106.0</ele><time>2026-04-18T12:42:54.724Z</time></trkpt><trkpt lat="44.5519886" lon="10.7691125"><ele>106.0</ele><time>2026-04-18T12:42:55.724Z</time></trkpt><trkpt lat="44.5518744" lon="10.7691542"><ele>106.0</ele><time>2026-04-18T12:42:56.722Z</time></trkpt><trkpt lat="44.5517432" lon="10.7691659"><ele>106.33333333333334</ele><time>2026-04-18T12:42:57.72Z</time></trkpt><trkpt lat="44.551589" lon="10.7691644"><ele>106.66666666666666</ele><time>2026-04-18T12:42:58.729Z</time></trkpt><trkpt lat="44.5513995" lon="10.7691446"><ele>107.0</ele><time>2026-04-18T12:42:59.71Z</time></trkpt><trkpt lat="44.5511842" lon="10.7691058"><ele>107.5</ele><time>2026-04-18T12:43:00.723Z</time></trkpt><trkpt lat="44.5509375" lon="10.7690477"><ele>108.0</ele><time>2026-04-18T12:43:01.719Z</time></trkpt><trkpt lat="44.5506577" lon="10.7689631"><ele>108.0</ele><time>2026-04-18T12:43:02.724Z</time></trkpt><trkpt lat="44.5503783" lon="10.7688667"><ele>108.0</ele><time>2026-04-18T12:43:03.716Z</time></trkpt><trkpt lat="44.5500965" lon="10.7687513"><ele>108.0</ele><time>2026-04-18T12:43:04.734Z</time></trkpt><trkpt lat="44.5498206" lon="10.7686437"><ele>108.0</ele><time>2026-04-18T12:43:05.715Z</time></trkpt><trkpt lat="44.5495548" lon="10.7685371"><ele>111.0</ele><time>2026-04-18T12:43:06.723Z</time></trkpt><trkpt lat="44.5493133" lon="10.7684336"><ele>114.0</ele><time>2026-04-18T12:43:07.721Z</time></trkpt><trkpt lat="44.549073" lon="10.7683335"><ele>114.0</ele><time>2026-04-18T12:43:08.714Z</time></trkpt><trkpt lat="44.5488308" lon="10.7682315"><ele>114.0</ele><time>2026-04-18T12:43:09.709Z</time></trkpt><trkpt lat="44.5485843" lon="10.7681286"><ele>113.0</ele><time>2026-04-18T12:43:10.723Z</time></trkpt><trkpt lat="44.5483359" lon="10.7680246"><ele>112.0</ele><time>2026-04-18T12:43:11.712Z</time></trkpt><trkpt lat="44.5480685" lon="10.7679132"><ele>114.0</ele><time>2026-04-18T12:43:12.721Z</time></trkpt><trkpt lat="44.5477985" lon="10.767805"><ele>116.0</ele><time>2026-04-18T12:43:13.712Z</time></trkpt><trkpt lat="44.5475209" lon="10.7676961"><ele>116.0</ele><time>2026-04-18T12:43:14.728Z</time></trkpt><trkpt lat="44.5472409" lon="10.7675794"><ele>116.0</ele><time>2026-04-18T12:43:15.711Z</time></trkpt><trkpt lat="44.5469666" lon="10.7674444"><ele>116.5</ele><time>2026-04-18T12:43:16.724Z</time></trkpt><trkpt lat="44.5466981" lon="10.7672981"><ele>117.0</ele><time>2026-04-18T12:43:17.704Z</time></trkpt><trkpt lat="44.546422" lon="10.7671647"><ele>116.5</ele><time>2026-04-18T12:43:18.719Z</time></trkpt><trkpt lat="44.5461425" lon="10.7670437"><ele>116.0</ele><time>2026-04-18T12:43:19.719Z</time></trkpt><trkpt lat="44.5458627" lon="10.7669341"><ele>116.0</ele><time>2026-04-18T12:43:20.717Z</time></trkpt><trkpt lat="44.54559" lon="10.7668232"><ele>116.0</ele><time>2026-04-18T12:43:21.715Z</time></trkpt><trkpt lat="44.5453205" lon="10.7667131"><ele>116.0</ele><time>2026-04-18T12:43:22.728Z</time></trkpt><trkpt lat="44.5450569" lon="10.7665878"><ele>116.0</ele><time>2026-04-18T12:43:23.715Z</time></trkpt><trkpt lat="44.5447979" lon="10.7664556"><ele>115.5</ele><time>2026-04-18T12:43:24.723Z</time></trkpt><trkpt lat="44.5445441" lon="10.7663169"><ele>115.0</ele><time>2026-04-18T12:43:25.727Z</time></trkpt><trkpt lat="44.5442967" lon="10.7661661"><ele>116.0</ele><time>2026-04-18T12:43:26.719Z</time></trkpt><trkpt lat="44.5440558" lon="10.7660039"><ele>117.0</ele><time>2026-04-18T12:43:27.717Z</time></trkpt><trkpt lat="44.5438228" lon="10.7658301"><ele>117.5</ele><time>2026-04-18T12:43:28.714Z</time></trkpt><trkpt lat="44.5435914" lon="10.7656582"><ele>118.0</ele><time>2026-04-18T12:43:29.72Z</time></trkpt><trkpt lat="44.5433633" lon="10.7654861"><ele>118.0</ele><time>2026-04-18T12:43:30.714Z</time></trkpt><trkpt lat="44.5431437" lon="10.7653099"><ele>118.0</ele><time>2026-04-18T12:43:31.708Z</time></trkpt><trkpt lat="44.5429297" lon="10.7651382"><ele>118.0</ele><time>2026-04-18T12:43:32.724Z</time></trkpt><trkpt lat="44.5427224" lon="10.7649761"><ele>118.0</ele><time>2026-04-18T12:43:33.726Z</time></trkpt><trkpt lat="44.5425283" lon="10.7648182"><ele>118.0</ele><time>2026-04-18T12:43:34.724Z</time></trkpt><trkpt lat="44.5423423" lon="10.764677"><ele>118.0</ele><time>2026-04-18T12:43:35.709Z</time></trkpt><trkpt lat="44.5421715" lon="10.764541"><ele>118.0</ele><time>2026-04-18T12:43:36.702Z</time></trkpt><trkpt lat="44.5420129" lon="10.764409"><ele>116.66666666666667</ele><time>2026-04-18T12:43:37.719Z</time></trkpt><trkpt lat="44.5418662" lon="10.7642817"><ele>115.33333333333334</ele><time>2026-04-18T12:43:38.72Z</time></trkpt><trkpt lat="44.5417337" lon="10.7641526"><ele>114.0</ele><time>2026-04-18T12:43:39.7Z</time></trkpt><trkpt lat="44.5416157" lon="10.7640173"><ele>114.0</ele><time>2026-04-18T12:43:40.718Z</time></trkpt><trkpt lat="44.5415145" lon="10.763879"><ele>114.0</ele><time>2026-04-18T12:43:41.71Z</time></trkpt><trkpt lat="44.5414345" lon="10.7637375"><ele>114.0</ele><time>2026-04-18T12:43:42.717Z</time></trkpt><trkpt lat="44.5413704" lon="10.763618"><ele>114.0</ele><time>2026-04-18T12:43:43.712Z</time></trkpt><trkpt lat="44.5413252" lon="10.7634977"><ele>115.0</ele><time>2026-04-18T12:43:44.728Z</time></trkpt><trkpt lat="44.541298" lon="10.763383"><ele>116.0</ele><time>2026-04-18T12:43:45.714Z</time></trkpt><trkpt lat="44.5412597" lon="10.7632784"><ele>117.0</ele><time>2026-04-18T12:43:46.721Z</time></trkpt><trkpt lat="44.5412165" lon="10.7631801"><ele>118.0</ele><time>2026-04-18T12:43:47.721Z</time></trkpt><trkpt lat="44.5411443" lon="10.763114"><ele>119.0</ele><time>2026-04-18T12:43:48.723Z</time></trkpt><trkpt lat="44.5410544" lon="10.763089"><ele>120.0</ele><time>2026-04-18T12:43:49.708Z</time></trkpt><trkpt lat="44.540957" lon="10.7631095"><ele>120.0</ele><time>2026-04-18T12:43:50.714Z</time></trkpt><trkpt lat="44.5408539" lon="10.7631435"><ele>120.0</ele><time>2026-04-18T12:43:51.708Z</time></trkpt><trkpt lat="44.540745" lon="10.7631554"><ele>120.0</ele><time>2026-04-18T12:43:52.717Z</time></trkpt><trkpt lat="44.5406345" lon="10.7631377"><ele>120.0</ele><time>2026-04-18T12:43:53.724Z</time></trkpt><trkpt lat="44.5405253" lon="10.7630893"><ele>120.0</ele><time>2026-04-18T12:43:54.706Z</time></trkpt><trkpt lat="44.5404209" lon="10.7630173"><ele>119.25</ele><time>2026-04-18T12:43:55.721Z</time></trkpt><trkpt lat="44.5403226" lon="10.7629383"><ele>118.5</ele><time>2026-04-18T12:43:56.722Z</time></trkpt><trkpt lat="44.5402287" lon="10.7628485"><ele>117.75</ele><time>2026-04-18T12:43:57.728Z</time></trkpt><trkpt lat="44.5401324" lon="10.7627486"><ele>117.0</ele><time>2026-04-18T12:43:58.72Z</time></trkpt><trkpt lat="44.5400298" lon="10.7626439"><ele>117.0</ele><time>2026-04-18T12:43:59.723Z</time></trkpt><trkpt lat="44.539913" lon="10.7625475"><ele>117.0</ele><time>2026-04-18T12:44:00.71Z</time></trkpt><trkpt lat="44.5397906" lon="10.7624334"><ele>117.0</ele><time>2026-04-18T12:44:01.725Z</time></trkpt><trkpt lat="44.5396626" lon="10.7623206"><ele>117.0</ele><time>2026-04-18T12:44:02.711Z</time></trkpt><trkpt lat="44.5395283" lon="10.7622126"><ele>118.33333333333334</ele><time>2026-04-18T12:44:03.709Z</time></trkpt><trkpt lat="44.5393928" lon="10.7620966"><ele>119.66666666666667</ele><time>2026-04-18T12:44:04.723Z</time></trkpt><trkpt lat="44.539254" lon="10.7619735"><ele>121.0</ele><time>2026-04-18T12:44:05.724Z</time></trkpt><trkpt lat="44.5391123" lon="10.7618423"><ele>121.0</ele><time>2026-04-18T12:44:06.728Z</time></trkpt><trkpt lat="44.5389685" lon="10.7617063"><ele>121.0</ele><time>2026-04-18T12:44:07.719Z</time></trkpt><trkpt lat="44.5388351" lon="10.7615674"><ele>121.0</ele><time>2026-04-18T12:44:08.716Z</time></trkpt><trkpt lat="44.538705" lon="10.7614333"><ele>121.0</ele><time>2026-04-18T12:44:09.725Z</time></trkpt><trkpt lat="44.538582" lon="10.7613139"><ele>121.0</ele><time>2026-04-18T12:44:10.72Z</time></trkpt><trkpt lat="44.538463" lon="10.761195"><ele>121.0</ele><time>2026-04-18T12:44:11.722Z</time></trkpt><trkpt lat="44.5383406" lon="10.7610755"><ele>121.0</ele><time>2026-04-18T12:44:12.708Z</time></trkpt><trkpt lat="44.538218" lon="10.7609582"><ele>120.66666666666667</ele><time>2026-04-18T12:44:13.715Z</time></trkpt><trkpt lat="44.5380947" lon="10.7608327"><ele>120.33333333333334</ele><time>2026-04-18T12:44:14.722Z</time></trkpt><trkpt lat="44.5379696" lon="10.7606999"><ele>120.0</ele><time>2026-04-18T12:44:15.71Z</time></trkpt><trkpt lat="44.5378357" lon="10.7605597"><ele>119.33333333333334</ele><time>2026-04-18T12:44:16.731Z</time></trkpt><trkpt lat="44.5376743" lon="10.7604212"><ele>118.66666666666667</ele><time>2026-04-18T12:44:17.716Z</time></trkpt><trkpt lat="44.5374965" lon="10.7602634"><ele>118.0</ele><time>2026-04-18T12:44:18.722Z</time></trkpt><trkpt lat="44.5373072" lon="10.7600773"><ele>120.0</ele><time>2026-04-18T12:44:19.717Z</time></trkpt><trkpt lat="44.537121" lon="10.7598753"><ele>122.0</ele><time>2026-04-18T12:44:20.705Z</time></trkpt><trkpt lat="44.5369398" lon="10.7596883"><ele>122.0</ele><time>2026-04-18T12:44:21.722Z</time></trkpt><trkpt lat="44.5367781" lon="10.7595223"><ele>122.0</ele><time>2026-04-18T12:44:22.71Z</time></trkpt><trkpt lat="44.536629" lon="10.7593644"><ele>122.0</ele><time>2026-04-18T12:44:23.721Z</time></trkpt><trkpt lat="44.5364899" lon="10.7592206"><ele>122.66666666666666</ele><time>2026-04-18T12:44:24.716Z</time></trkpt><trkpt lat="44.5363566" lon="10.759089"><ele>123.33333333333334</ele><time>2026-04-18T12:44:25.721Z</time></trkpt><trkpt lat="44.5362252" lon="10.7589556"><ele>124.0</ele><time>2026-04-18T12:44:26.722Z</time></trkpt><trkpt lat="44.5360748" lon="10.7588149"><ele>123.33333333333334</ele><time>2026-04-18T12:44:27.709Z</time></trkpt><trkpt lat="44.5359025" lon="10.7586557"><ele>122.66666666666666</ele><time>2026-04-18T12:44:28.715Z</time></trkpt><trkpt lat="44.5357287" lon="10.7584828"><ele>122.0</ele><time>2026-04-18T12:44:29.704Z</time></trkpt><trkpt lat="44.5355643" lon="10.7583045"><ele>122.0</ele><time>2026-04-18T12:44:30.725Z</time></trkpt><trkpt lat="44.5354086" lon="10.7581402"><ele>122.0</ele><time>2026-04-18T12:44:31.717Z</time></trkpt><trkpt lat="44.5352498" lon="10.7579741"><ele>122.0</ele><time>2026-04-18T12:44:32.725Z</time></trkpt><trkpt lat="44.5350823" lon="10.7578111"><ele>122.0</ele><time>2026-04-18T12:44:33.727Z</time></trkpt><trkpt lat="44.5349065" lon="10.7576449"><ele>122.0</ele><time>2026-04-18T12:44:34.712Z</time></trkpt><trkpt lat="44.5347119" lon="10.7574634"><ele>122.0</ele><time>2026-04-18T12:44:35.721Z</time></trkpt><trkpt lat="44.5345071" lon="10.7572619"><ele>122.0</ele><time>2026-04-18T12:44:36.729Z</time></trkpt><trkpt lat="44.5342881" lon="10.7570432"><ele>122.0</ele><time>2026-04-18T12:44:37.73Z</time></trkpt><trkpt lat="44.534054" lon="10.756804"><ele>122.0</ele><time>2026-04-18T12:44:38.722Z</time></trkpt><trkpt lat="44.5338102" lon="10.7565498"><ele>122.0</ele><time>2026-04-18T12:44:39.72Z</time></trkpt><trkpt lat="44.5335661" lon="10.7562894"><ele>124.5</ele><time>2026-04-18T12:44:40.722Z</time></trkpt><trkpt lat="44.5333234" lon="10.7560159"><ele>127.0</ele><time>2026-04-18T12:44:41.712Z</time></trkpt><trkpt lat="44.5330711" lon="10.7557447"><ele>125.0</ele><time>2026-04-18T12:44:42.712Z</time></trkpt><trkpt lat="44.5328148" lon="10.7554823"><ele>123.0</ele><time>2026-04-18T12:44:43.724Z</time></trkpt><trkpt lat="44.5325609" lon="10.7552362"><ele>124.0</ele><time>2026-04-18T12:44:44.719Z</time></trkpt><trkpt lat="44.53231" lon="10.7549928"><ele>125.0</ele><time>2026-04-18T12:44:45.726Z</time></trkpt><trkpt lat="44.5320669" lon="10.7547553"><ele>126.0</ele><time>2026-04-18T12:44:46.712Z</time></trkpt><trkpt lat="44.531825" lon="10.7545191"><ele>127.0</ele><time>2026-04-18T12:44:47.715Z</time></trkpt><trkpt lat="44.5315899" lon="10.7542839"><ele>126.5</ele><time>2026-04-18T12:44:48.715Z</time></trkpt><trkpt lat="44.5313619" lon="10.7540483"><ele>126.0</ele><time>2026-04-18T12:44:49.712Z</time></trkpt><trkpt lat="44.5311367" lon="10.7538161"><ele>126.0</ele><time>2026-04-18T12:44:50.715Z</time></trkpt><trkpt lat="44.5309129" lon="10.7535925"><ele>126.0</ele><time>2026-04-18T12:44:51.713Z</time></trkpt><trkpt lat="44.5306883" lon="10.7533697"><ele>126.5</ele><time>2026-04-18T12:44:52.73Z</time></trkpt><trkpt lat="44.5304666" lon="10.7531461"><ele>127.0</ele><time>2026-04-18T12:44:53.71Z</time></trkpt><trkpt lat="44.5302397" lon="10.7529148"><ele>128.5</ele><time>2026-04-18T12:44:54.73Z</time></trkpt><trkpt lat="44.5300179" lon="10.7526865"><ele>130.0</ele><time>2026-04-18T12:44:55.714Z</time></trkpt><trkpt lat="44.5297913" lon="10.7524572"><ele>130.0</ele><time>2026-04-18T12:44:56.719Z</time></trkpt><trkpt lat="44.5295656" lon="10.7522323"><ele>130.0</ele><time>2026-04-18T12:44:57.715Z</time></trkpt><trkpt lat="44.5293404" lon="10.7520119"><ele>131.0</ele><time>2026-04-18T12:44:58.719Z</time></trkpt><trkpt lat="44.5291198" lon="10.7517935"><ele>132.0</ele><time>2026-04-18T12:44:59.714Z</time></trkpt><trkpt lat="44.5289007" lon="10.7515737"><ele>131.5</ele><time>2026-04-18T12:45:00.711Z</time></trkpt><trkpt lat="44.52868" lon="10.7513559"><ele>131.0</ele><time>2026-04-18T12:45:01.721Z</time></trkpt><trkpt lat="44.5284622" lon="10.7511407"><ele>132.0</ele><time>2026-04-18T12:45:02.72Z</time></trkpt><trkpt lat="44.5282465" lon="10.7509247"><ele>133.0</ele><time>2026-04-18T12:45:03.726Z</time></trkpt><trkpt lat="44.5280295" lon="10.7507058"><ele>131.5</ele><time>2026-04-18T12:45:04.712Z</time></trkpt><trkpt lat="44.5278203" lon="10.7504935"><ele>130.0</ele><time>2026-04-18T12:45:05.719Z</time></trkpt><trkpt lat="44.527614" lon="10.7502822"><ele>132.0</ele><time>2026-04-18T12:45:06.721Z</time></trkpt><trkpt lat="44.5274075" lon="10.7500764"><ele>134.0</ele><time>2026-04-18T12:45:07.711Z</time></trkpt><trkpt lat="44.5271987" lon="10.749869"><ele>133.0</ele><time>2026-04-18T12:45:08.725Z</time></trkpt><trkpt lat="44.5269929" lon="10.7496629"><ele>132.0</ele><time>2026-04-18T12:45:09.729Z</time></trkpt><trkpt lat="44.5267889" lon="10.7494585"><ele>133.0</ele><time>2026-04-18T12:45:10.723Z</time></trkpt><trkpt lat="44.5265839" lon="10.7492556"><ele>134.0</ele><time>2026-04-18T12:45:11.707Z</time></trkpt><trkpt lat="44.526374" lon="10.7490504"><ele>134.0</ele><time>2026-04-18T12:45:12.716Z</time></trkpt><trkpt lat="44.5261606" lon="10.7488578"><ele>134.0</ele><time>2026-04-18T12:45:13.725Z</time></trkpt><trkpt lat="44.525947" lon="10.7486721"><ele>134.0</ele><time>2026-04-18T12:45:14.73Z</time></trkpt><trkpt lat="44.5257326" lon="10.7484936"><ele>134.0</ele><time>2026-04-18T12:45:15.729Z</time></trkpt><trkpt lat="44.5255169" lon="10.7483203"><ele>135.0</ele><time>2026-04-18T12:45:16.725Z</time></trkpt><trkpt lat="44.5253008" lon="10.7481516"><ele>136.0</ele><time>2026-04-18T12:45:17.711Z</time></trkpt><trkpt lat="44.5250803" lon="10.7479855"><ele>136.0</ele><time>2026-04-18T12:45:18.727Z</time></trkpt><trkpt lat="44.5248629" lon="10.7478243"><ele>136.0</ele><time>2026-04-18T12:45:19.718Z</time></trkpt><trkpt lat="44.5246442" lon="10.7476666"><ele>136.0</ele><time>2026-04-18T12:45:20.71Z</time></trkpt><trkpt lat="44.5244218" lon="10.7475136"><ele>136.0</ele><time>2026-04-18T12:45:21.712Z</time></trkpt><trkpt lat="44.5241965" lon="10.7473656"><ele>136.0</ele><time>2026-04-18T12:45:22.723Z</time></trkpt><trkpt lat="44.5239697" lon="10.7472219"><ele>136.0</ele><time>2026-04-18T12:45:23.722Z</time></trkpt><trkpt lat="44.5237357" lon="10.747079"><ele>135.5</ele><time>2026-04-18T12:45:24.722Z</time></trkpt><trkpt lat="44.5234983" lon="10.7469383"><ele>135.0</ele><time>2026-04-18T12:45:25.715Z</time></trkpt><trkpt lat="44.523257" lon="10.7468032"><ele>134.5</ele><time>2026-04-18T12:45:26.709Z</time></trkpt><trkpt lat="44.52301" lon="10.7466719"><ele>134.0</ele><time>2026-04-18T12:45:27.724Z</time></trkpt><trkpt lat="44.5227646" lon="10.7465421"><ele>134.0</ele><time>2026-04-18T12:45:28.721Z</time></trkpt><trkpt lat="44.5225176" lon="10.746413"><ele>134.0</ele><time>2026-04-18T12:45:29.72Z</time></trkpt><trkpt lat="44.5222702" lon="10.7462841"><ele>133.0</ele><time>2026-04-18T12:45:30.732Z</time></trkpt><trkpt lat="44.5220273" lon="10.7461581"><ele>132.0</ele><time>2026-04-18T12:45:31.716Z</time></trkpt><trkpt lat="44.5217857" lon="10.7460239"><ele>134.5</ele><time>2026-04-18T12:45:32.714Z</time></trkpt><trkpt lat="44.5215489" lon="10.7458837"><ele>137.0</ele><time>2026-04-18T12:45:33.717Z</time></trkpt><trkpt lat="44.5213182" lon="10.7457376"><ele>138.0</ele><time>2026-04-18T12:45:34.711Z</time></trkpt><trkpt lat="44.5210969" lon="10.7455825"><ele>139.0</ele><time>2026-04-18T12:45:35.703Z</time></trkpt><trkpt lat="44.5208911" lon="10.7454213"><ele>139.0</ele><time>2026-04-18T12:45:36.719Z</time></trkpt><trkpt lat="44.5207055" lon="10.7452599"><ele>139.0</ele><time>2026-04-18T12:45:37.715Z</time></trkpt><trkpt lat="44.5205354" lon="10.7451059"><ele>139.0</ele><time>2026-04-18T12:45:38.715Z</time></trkpt><trkpt lat="44.5203766" lon="10.744968"><ele>138.66666666666669</ele><time>2026-04-18T12:45:39.717Z</time></trkpt><trkpt lat="44.5202297" lon="10.7448423"><ele>138.33333333333334</ele><time>2026-04-18T12:45:40.725Z</time></trkpt><trkpt lat="44.5201014" lon="10.7447342"><ele>138.0</ele><time>2026-04-18T12:45:41.717Z</time></trkpt><trkpt lat="44.5199896" lon="10.744643"><ele>138.0</ele><time>2026-04-18T12:45:42.72Z</time></trkpt><trkpt lat="44.5198859" lon="10.7445584"><ele>138.0</ele><time>2026-04-18T12:45:43.724Z</time></trkpt><trkpt lat="44.5198007" lon="10.7444844"><ele>138.0</ele><time>2026-04-18T12:45:44.725Z</time></trkpt><trkpt lat="44.5197424" lon="10.7443963"><ele>138.0</ele><time>2026-04-18T12:45:45.72Z</time></trkpt><trkpt lat="44.5197015" lon="10.7442947"><ele>138.0</ele><time>2026-04-18T12:45:46.712Z</time></trkpt><trkpt lat="44.519703" lon="10.7441574"><ele>138.0</ele><time>2026-04-18T12:45:47.724Z</time></trkpt><trkpt lat="44.5197316" lon="10.7440036"><ele>138.0</ele><time>2026-04-18T12:45:48.732Z</time></trkpt><trkpt lat="44.5197811" lon="10.7438326"><ele>138.0</ele><time>2026-04-18T12:45:49.723Z</time></trkpt><trkpt lat="44.5198316" lon="10.7436476"><ele>138.0</ele><time>2026-04-18T12:45:50.711Z</time></trkpt><trkpt lat="44.5198953" lon="10.7434371"><ele>139.33333333333334</ele><time>2026-04-18T12:45:51.712Z</time></trkpt><trkpt lat="44.5199612" lon="10.7432172"><ele>140.66666666666669</ele><time>2026-04-18T12:45:52.712Z</time></trkpt><trkpt lat="44.5200239" lon="10.7429929"><ele>142.0</ele><time>2026-04-18T12:45:53.706Z</time></trkpt><trkpt lat="44.5200881" lon="10.7427597"><ele>142.33333333333334</ele><time>2026-04-18T12:45:54.72Z</time></trkpt><trkpt lat="44.5201541" lon="10.7425251"><ele>142.66666666666666</ele><time>2026-04-18T12:45:55.72Z</time></trkpt><trkpt lat="44.5202215" lon="10.7422876"><ele>143.0</ele><time>2026-04-18T12:45:56.733Z</time></trkpt><trkpt lat="44.5202866" lon="10.7420572"><ele>143.33333333333331</ele><time>2026-04-18T12:45:57.72Z</time></trkpt><trkpt lat="44.5203495" lon="10.7418333"><ele>143.66666666666666</ele><time>2026-04-18T12:45:58.725Z</time></trkpt><trkpt lat="44.5204069" lon="10.7416266"><ele>144.0</ele><time>2026-04-18T12:45:59.725Z</time></trkpt><trkpt lat="44.5204562" lon="10.7414337"><ele>144.25</ele><time>2026-04-18T12:46:00.721Z</time></trkpt><trkpt lat="44.5204992" lon="10.7412424"><ele>144.5</ele><time>2026-04-18T12:46:01.722Z</time></trkpt><trkpt lat="44.5205367" lon="10.741051"><ele>144.75</ele><time>2026-04-18T12:46:02.717Z</time></trkpt><trkpt lat="44.5205672" lon="10.740855"><ele>145.0</ele><time>2026-04-18T12:46:03.724Z</time></trkpt><trkpt lat="44.5205894" lon="10.7406517"><ele>145.0</ele><time>2026-04-18T12:46:04.718Z</time></trkpt><trkpt lat="44.5206018" lon="10.7404346"><ele>145.0</ele><time>2026-04-18T12:46:05.729Z</time></trkpt><trkpt lat="44.520606" lon="10.7402114"><ele>145.0</ele><time>2026-04-18T12:46:06.724Z</time></trkpt><trkpt lat="44.5206031" lon="10.7399861"><ele>145.66666666666669</ele><time>2026-04-18T12:46:07.716Z</time></trkpt><trkpt lat="44.520597" lon="10.7397571"><ele>146.33333333333334</ele><time>2026-04-18T12:46:08.725Z</time></trkpt><trkpt lat="44.5205895" lon="10.7395323"><ele>147.0</ele><time>2026-04-18T12:46:09.718Z</time></trkpt><trkpt lat="44.5205813" lon="10.7393066"><ele>147.66666666666666</ele><time>2026-04-18T12:46:10.711Z</time></trkpt><trkpt lat="44.5205733" lon="10.7390815"><ele>148.33333333333331</ele><time>2026-04-18T12:46:11.722Z</time></trkpt><trkpt lat="44.5205702" lon="10.7388718"><ele>149.0</ele><time>2026-04-18T12:46:12.724Z</time></trkpt><trkpt lat="44.5205786" lon="10.7386759"><ele>149.2</ele><time>2026-04-18T12:46:13.726Z</time></trkpt><trkpt lat="44.5205908" lon="10.7385022"><ele>149.4</ele><time>2026-04-18T12:46:14.716Z</time></trkpt><trkpt lat="44.5206064" lon="10.7383411"><ele>149.6</ele><time>2026-04-18T12:46:15.722Z</time></trkpt><trkpt lat="44.5206197" lon="10.7381881"><ele>149.8</ele><time>2026-04-18T12:46:16.729Z</time></trkpt><trkpt lat="44.5206348" lon="10.738066"><ele>150.0</ele><time>2026-04-18T12:46:17.714Z</time></trkpt><trkpt lat="44.5206621" lon="10.7379669"><ele>150.0</ele><time>2026-04-18T12:46:18.719Z</time></trkpt><trkpt lat="44.5206945" lon="10.7378796"><ele>150.0</ele><time>2026-04-18T12:46:19.712Z</time></trkpt><trkpt lat="44.5207571" lon="10.7377428"><ele>150.0</ele><time>2026-04-18T12:46:21.716Z</time></trkpt><trkpt lat="44.5207964" lon="10.7376696"><ele>150.0</ele><time>2026-04-18T12:46:22.721Z</time></trkpt><trkpt lat="44.5208265" lon="10.7375899"><ele>150.0</ele><time>2026-04-18T12:46:23.716Z</time></trkpt><trkpt lat="44.5208388" lon="10.7374903"><ele>150.0</ele><time>2026-04-18T12:46:24.724Z</time></trkpt><trkpt lat="44.5208278" lon="10.737381"><ele>149.83333333333334</ele><time>2026-04-18T12:46:25.712Z</time></trkpt><trkpt lat="44.5208045" lon="10.737271"><ele>149.66666666666666</ele><time>2026-04-18T12:46:26.713Z</time></trkpt><trkpt lat="44.5207843" lon="10.7371504"><ele>149.5</ele><time>2026-04-18T12:46:27.726Z</time></trkpt><trkpt lat="44.520768" lon="10.7370303"><ele>149.33333333333331</ele><time>2026-04-18T12:46:28.713Z</time></trkpt><trkpt lat="44.5207601" lon="10.7369031"><ele>149.16666666666666</ele><time>2026-04-18T12:46:29.728Z</time></trkpt><trkpt lat="44.5207542" lon="10.736774"><ele>149.0</ele><time>2026-04-18T12:46:30.706Z</time></trkpt><trkpt lat="44.5207456" lon="10.7366355"><ele>149.6</ele><time>2026-04-18T12:46:31.706Z</time></trkpt><trkpt lat="44.5207397" lon="10.7364861"><ele>150.2</ele><time>2026-04-18T12:46:32.71Z</time></trkpt><trkpt lat="44.5207266" lon="10.7363364"><ele>150.79999999999998</ele><time>2026-04-18T12:46:33.719Z</time></trkpt><trkpt lat="44.5207028" lon="10.7361869"><ele>151.4</ele><time>2026-04-18T12:46:34.705Z</time></trkpt><trkpt lat="44.5206644" lon="10.7360333"><ele>152.0</ele><time>2026-04-18T12:46:35.726Z</time></trkpt><trkpt lat="44.5206178" lon="10.7358762"><ele>153.0</ele><time>2026-04-18T12:46:36.717Z</time></trkpt><trkpt lat="44.5205716" lon="10.7357167"><ele>154.0</ele><time>2026-04-18T12:46:37.728Z</time></trkpt><trkpt lat="44.5205295" lon="10.735557"><ele>155.0</ele><time>2026-04-18T12:46:38.707Z</time></trkpt><trkpt lat="44.5204907" lon="10.7353961"><ele>156.0</ele><time>2026-04-18T12:46:39.724Z</time></trkpt><trkpt lat="44.520461" lon="10.7352438"><ele>156.8</ele><time>2026-04-18T12:46:40.704Z</time></trkpt><trkpt lat="44.5204243" lon="10.7350965"><ele>157.6</ele><time>2026-04-18T12:46:41.726Z</time></trkpt><trkpt lat="44.5203867" lon="10.7349637"><ele>158.4</ele><time>2026-04-18T12:46:42.723Z</time></trkpt><trkpt lat="44.5203491" lon="10.7348342"><ele>159.2</ele><time>2026-04-18T12:46:43.71Z</time></trkpt><trkpt lat="44.520305" lon="10.7346999"><ele>160.0</ele><time>2026-04-18T12:46:44.732Z</time></trkpt><trkpt lat="44.5202611" lon="10.7345592"><ele>160.0</ele><time>2026-04-18T12:46:45.721Z</time></trkpt><trkpt lat="44.5202123" lon="10.7344141"><ele>160.0</ele><time>2026-04-18T12:46:46.726Z</time></trkpt><trkpt lat="44.5201636" lon="10.7342646"><ele>160.0</ele><time>2026-04-18T12:46:47.715Z</time></trkpt><trkpt lat="44.5201107" lon="10.734113"><ele>160.0</ele><time>2026-04-18T12:46:48.719Z</time></trkpt><trkpt lat="44.5200659" lon="10.7339553"><ele>162.25</ele><time>2026-04-18T12:46:49.729Z</time></trkpt><trkpt lat="44.5200363" lon="10.7337905"><ele>164.5</ele><time>2026-04-18T12:46:50.724Z</time></trkpt><trkpt lat="44.52" lon="10.7336322"><ele>166.75</ele><time>2026-04-18T12:46:51.717Z</time></trkpt><trkpt lat="44.5199586" lon="10.7334823"><ele>169.0</ele><time>2026-04-18T12:46:52.71Z</time></trkpt><trkpt lat="44.5199159" lon="10.7333397"><ele>170.6</ele><time>2026-04-18T12:46:53.727Z</time></trkpt><trkpt lat="44.5198731" lon="10.7332079"><ele>172.2</ele><time>2026-04-18T12:46:54.722Z</time></trkpt><trkpt lat="44.519835" lon="10.7330736"><ele>173.79999999999998</ele><time>2026-04-18T12:46:55.731Z</time></trkpt><trkpt lat="44.5198062" lon="10.7329247"><ele>175.39999999999998</ele><time>2026-04-18T12:46:56.705Z</time></trkpt><trkpt lat="44.5197681" lon="10.7327809"><ele>177.0</ele><time>2026-04-18T12:46:57.722Z</time></trkpt><trkpt lat="44.5197329" lon="10.7326315"><ele>176.6</ele><time>2026-04-18T12:46:58.711Z</time></trkpt><trkpt lat="44.519692" lon="10.7324843"><ele>176.2</ele><time>2026-04-18T12:46:59.721Z</time></trkpt><trkpt lat="44.5196441" lon="10.7323454"><ele>175.8</ele><time>2026-04-18T12:47:00.718Z</time></trkpt><trkpt lat="44.5195948" lon="10.732206"><ele>175.4</ele><time>2026-04-18T12:47:01.716Z</time></trkpt><trkpt lat="44.5195503" lon="10.7320801"><ele>175.0</ele><time>2026-04-18T12:47:02.726Z</time></trkpt><trkpt lat="44.5194981" lon="10.7319607"><ele>176.4</ele><time>2026-04-18T12:47:03.714Z</time></trkpt><trkpt lat="44.5194446" lon="10.7318427"><ele>177.8</ele><time>2026-04-18T12:47:04.722Z</time></trkpt><trkpt lat="44.5193902" lon="10.7317243"><ele>179.2</ele><time>2026-04-18T12:47:05.72Z</time></trkpt><trkpt lat="44.5193374" lon="10.7316011"><ele>180.6</ele><time>2026-04-18T12:47:06.729Z</time></trkpt><trkpt lat="44.5192841" lon="10.7314757"><ele>182.0</ele><time>2026-04-18T12:47:07.72Z</time></trkpt><trkpt lat="44.519225" lon="10.7313529"><ele>182.0</ele><time>2026-04-18T12:47:08.715Z</time></trkpt><trkpt lat="44.5191609" lon="10.7312355"><ele>182.0</ele><time>2026-04-18T12:47:09.72Z</time></trkpt><trkpt lat="44.5190982" lon="10.7311402"><ele>182.0</ele><time>2026-04-18T12:47:10.714Z</time></trkpt><trkpt lat="44.5190381" lon="10.7310494"><ele>182.0</ele><time>2026-04-18T12:47:11.721Z</time></trkpt><trkpt lat="44.5189752" lon="10.7309537"><ele>182.0</ele><time>2026-04-18T12:47:12.724Z</time></trkpt><trkpt lat="44.5189119" lon="10.7308561"><ele>184.2</ele><time>2026-04-18T12:47:13.717Z</time></trkpt><trkpt lat="44.5188614" lon="10.7307417"><ele>186.39999999999998</ele><time>2026-04-18T12:47:14.709Z</time></trkpt><trkpt lat="44.5188338" lon="10.7306254"><ele>188.60000000000002</ele><time>2026-04-18T12:47:15.723Z</time></trkpt><trkpt lat="44.5188401" lon="10.7305067"><ele>190.8</ele><time>2026-04-18T12:47:16.723Z</time></trkpt><trkpt lat="44.5188709" lon="10.7303749"><ele>193.0</ele><time>2026-04-18T12:47:17.722Z</time></trkpt><trkpt lat="44.5189066" lon="10.7302157"><ele>194.75</ele><time>2026-04-18T12:47:18.711Z</time></trkpt><trkpt lat="44.5189134" lon="10.7300297"><ele>196.5</ele><time>2026-04-18T12:47:19.714Z</time></trkpt><trkpt lat="44.518887" lon="10.7298368"><ele>198.25</ele><time>2026-04-18T12:47:20.724Z</time></trkpt><trkpt lat="44.5188478" lon="10.729664"><ele>200.0</ele><time>2026-04-18T12:47:21.717Z</time></trkpt><trkpt lat="44.5188037" lon="10.7295122"><ele>201.2</ele><time>2026-04-18T12:47:22.728Z</time></trkpt><trkpt lat="44.5187655" lon="10.7293657"><ele>202.4</ele><time>2026-04-18T12:47:23.711Z</time></trkpt><trkpt lat="44.5187348" lon="10.7292286"><ele>203.60000000000002</ele><time>2026-04-18T12:47:24.718Z</time></trkpt><trkpt lat="44.5187093" lon="10.7290962"><ele>204.8</ele><time>2026-04-18T12:47:25.72Z</time></trkpt><trkpt lat="44.5186866" lon="10.7289541"><ele>206.0</ele><time>2026-04-18T12:47:26.718Z</time></trkpt><trkpt lat="44.5186743" lon="10.7288023"><ele>207.0</ele><time>2026-04-18T12:47:27.726Z</time></trkpt><trkpt lat="44.5186718" lon="10.7286474"><ele>208.0</ele><time>2026-04-18T12:47:28.705Z</time></trkpt><trkpt lat="44.5186892" lon="10.7284809"><ele>209.0</ele><time>2026-04-18T12:47:29.718Z</time></trkpt><trkpt lat="44.5187211" lon="10.728304"><ele>210.0</ele><time>2026-04-18T12:47:30.709Z</time></trkpt><trkpt lat="44.5187624" lon="10.7281385"><ele>210.0</ele><time>2026-04-18T12:47:31.724Z</time></trkpt><trkpt lat="44.5188037" lon="10.7279851"><ele>210.0</ele><time>2026-04-18T12:47:32.713Z</time></trkpt><trkpt lat="44.518831" lon="10.7278464"><ele>210.0</ele><time>2026-04-18T12:47:33.718Z</time></trkpt><trkpt lat="44.5188509" lon="10.7277157"><ele>210.0</ele><time>2026-04-18T12:47:34.723Z</time></trkpt><trkpt lat="44.5188655" lon="10.7276095"><ele>210.0</ele><time>2026-04-18T12:47:35.716Z</time></trkpt><trkpt lat="44.5188815" lon="10.7275146"><ele>210.0</ele><time>2026-04-18T12:47:36.716Z</time></trkpt><trkpt lat="44.5189306" lon="10.7273952"><ele>210.0</ele><time>2026-04-18T12:47:38.721Z</time></trkpt><trkpt lat="44.519013" lon="10.727391"><ele>210.0</ele><time>2026-04-18T12:47:40.718Z</time></trkpt><trkpt lat="44.5190731" lon="10.7274887"><ele>210.0</ele><time>2026-04-18T12:47:42.727Z</time></trkpt><trkpt lat="44.5190707" lon="10.7276366"><ele>210.0</ele><time>2026-04-18T12:47:44.715Z</time></trkpt><trkpt lat="44.5190596" lon="10.7277832"><ele>210.0</ele><time>2026-04-18T12:47:46.719Z</time></trkpt><trkpt lat="44.5190639" lon="10.727961"><ele>210.0</ele><time>2026-04-18T12:47:48.73Z</time></trkpt><trkpt lat="44.5190879" lon="10.7280654"><ele>210.0</ele><time>2026-04-18T12:47:49.709Z</time></trkpt><trkpt lat="44.5191184" lon="10.7281714"><ele>210.0</ele><time>2026-04-18T12:47:50.717Z</time></trkpt><trkpt lat="44.519151" lon="10.7282645"><ele>210.0</ele><time>2026-04-18T12:47:51.714Z</time></trkpt><trkpt lat="44.5191843" lon="10.7283492"><ele>210.0</ele><time>2026-04-18T12:47:52.72Z</time></trkpt><trkpt lat="44.519216" lon="10.7284303"><ele>210.0</ele><time>2026-04-18T12:47:53.727Z</time></trkpt><trkpt lat="44.5192505" lon="10.7285102"><ele>210.0</ele><time>2026-04-18T12:47:54.719Z</time></trkpt><trkpt lat="44.5192867" lon="10.7285952"><ele>210.0</ele><time>2026-04-18T12:47:55.722Z</time></trkpt><trkpt lat="44.5193255" lon="10.7286944"><ele>210.0</ele><time>2026-04-18T12:47:56.721Z</time></trkpt><trkpt lat="44.5193684" lon="10.7288046"><ele>210.0</ele><time>2026-04-18T12:47:57.72Z</time></trkpt><trkpt lat="44.5194144" lon="10.7289138"><ele>210.0</ele><time>2026-04-18T12:47:58.721Z</time></trkpt><trkpt lat="44.5194656" lon="10.7290265"><ele>208.66666666666669</ele><time>2026-04-18T12:47:59.716Z</time></trkpt><trkpt lat="44.5195551" lon="10.7291638"><ele>207.33333333333334</ele><time>2026-04-18T12:48:00.722Z</time></trkpt><trkpt lat="44.5196685" lon="10.7293219"><ele>206.0</ele><time>2026-04-18T12:48:01.73Z</time></trkpt><trkpt lat="44.5197952" lon="10.7295041"><ele>210.33333333333334</ele><time>2026-04-18T12:48:02.718Z</time></trkpt><trkpt lat="44.5199109" lon="10.7297218"><ele>214.66666666666669</ele><time>2026-04-18T12:48:03.722Z</time></trkpt><trkpt lat="44.5200151" lon="10.7299409"><ele>219.0</ele><time>2026-04-18T12:48:04.708Z</time></trkpt><trkpt lat="44.5201123" lon="10.7301712"><ele>215.33333333333331</ele><time>2026-04-18T12:48:05.723Z</time></trkpt><trkpt lat="44.5202183" lon="10.7303855"><ele>211.66666666666666</ele><time>2026-04-18T12:48:06.723Z</time></trkpt><trkpt lat="44.5203321" lon="10.7305864"><ele>208.0</ele><time>2026-04-18T12:48:07.722Z</time></trkpt><trkpt lat="44.5204523" lon="10.730777"><ele>211.33333333333331</ele><time>2026-04-18T12:48:08.715Z</time></trkpt><trkpt lat="44.520568" lon="10.7309654"><ele>214.66666666666669</ele><time>2026-04-18T12:48:09.71Z</time></trkpt><trkpt lat="44.5206789" lon="10.7311513"><ele>218.0</ele><time>2026-04-18T12:48:10.722Z</time></trkpt><trkpt lat="44.520793" lon="10.7313132"><ele>218.0</ele><time>2026-04-18T12:48:11.722Z</time></trkpt><trkpt lat="44.5209056" lon="10.7314407"><ele>218.0</ele><time>2026-04-18T12:48:12.716Z</time></trkpt><trkpt lat="44.5210439" lon="10.7315048"><ele>218.0</ele><time>2026-04-18T12:48:13.725Z</time></trkpt><trkpt lat="44.5211917" lon="10.731526"><ele>218.0</ele><time>2026-04-18T12:48:14.723Z</time></trkpt><trkpt lat="44.5213383" lon="10.7315169"><ele>220.75</ele><time>2026-04-18T12:48:15.714Z</time></trkpt><trkpt lat="44.5214959" lon="10.7314759"><ele>223.5</ele><time>2026-04-18T12:48:16.721Z</time></trkpt><trkpt lat="44.5216413" lon="10.7314257"><ele>226.25</ele><time>2026-04-18T12:48:17.725Z</time></trkpt><trkpt lat="44.5217718" lon="10.7314201"><ele>229.0</ele><time>2026-04-18T12:48:18.707Z</time></trkpt><trkpt lat="44.5218932" lon="10.7314714"><ele>229.0</ele><time>2026-04-18T12:48:19.712Z</time></trkpt><trkpt lat="44.5219999" lon="10.7315773"><ele>229.0</ele><time>2026-04-18T12:48:20.721Z</time></trkpt><trkpt lat="44.5220878" lon="10.7317038"><ele>229.0</ele><time>2026-04-18T12:48:21.725Z</time></trkpt><trkpt lat="44.5221726" lon="10.7318144"><ele>229.0</ele><time>2026-04-18T12:48:22.708Z</time></trkpt><trkpt lat="44.5222667" lon="10.7319021"><ele>229.6</ele><time>2026-04-18T12:48:23.725Z</time></trkpt><trkpt lat="44.5223608" lon="10.7319697"><ele>230.2</ele><time>2026-04-18T12:48:24.71Z</time></trkpt><trkpt lat="44.5224596" lon="10.7320186"><ele>230.79999999999998</ele><time>2026-04-18T12:48:25.713Z</time></trkpt><trkpt lat="44.5225624" lon="10.732057"><ele>231.39999999999998</ele><time>2026-04-18T12:48:26.72Z</time></trkpt><trkpt lat="44.5226639" lon="10.7320918"><ele>232.0</ele><time>2026-04-18T12:48:27.724Z</time></trkpt><trkpt lat="44.5227698" lon="10.7321218"><ele>232.0</ele><time>2026-04-18T12:48:28.704Z</time></trkpt><trkpt lat="44.5228848" lon="10.7321529"><ele>232.0</ele><time>2026-04-18T12:48:29.726Z</time></trkpt><trkpt lat="44.5229936" lon="10.7321763"><ele>232.0</ele><time>2026-04-18T12:48:30.726Z</time></trkpt><trkpt lat="44.5230981" lon="10.7321817"><ele>232.0</ele><time>2026-04-18T12:48:31.712Z</time></trkpt><trkpt lat="44.5232093" lon="10.7321448"><ele>232.0</ele><time>2026-04-18T12:48:32.722Z</time></trkpt><trkpt lat="44.5233229" lon="10.7320813"><ele>232.75</ele><time>2026-04-18T12:48:33.711Z</time></trkpt><trkpt lat="44.5234269" lon="10.7319976"><ele>233.5</ele><time>2026-04-18T12:48:34.723Z</time></trkpt><trkpt lat="44.5235163" lon="10.7318899"><ele>234.25</ele><time>2026-04-18T12:48:35.725Z</time></trkpt><trkpt lat="44.5235937" lon="10.731745"><ele>235.0</ele><time>2026-04-18T12:48:36.708Z</time></trkpt><trkpt lat="44.523648" lon="10.7315794"><ele>235.25</ele><time>2026-04-18T12:48:37.709Z</time></trkpt><trkpt lat="44.5236863" lon="10.7314087"><ele>235.5</ele><time>2026-04-18T12:48:38.726Z</time></trkpt><trkpt lat="44.5237185" lon="10.7312396"><ele>235.75</ele><time>2026-04-18T12:48:39.707Z</time></trkpt><trkpt lat="44.5237526" lon="10.7310737"><ele>236.0</ele><time>2026-04-18T12:48:40.724Z</time></trkpt><trkpt lat="44.5237873" lon="10.7309134"><ele>237.0</ele><time>2026-04-18T12:48:41.717Z</time></trkpt><trkpt lat="44.5238208" lon="10.7307473"><ele>238.0</ele><time>2026-04-18T12:48:42.708Z</time></trkpt><trkpt lat="44.523857" lon="10.7305744"><ele>239.0</ele><time>2026-04-18T12:48:43.719Z</time></trkpt><trkpt lat="44.5239094" lon="10.7304055"><ele>240.0</ele><time>2026-04-18T12:48:44.712Z</time></trkpt><trkpt lat="44.5239713" lon="10.7302394"><ele>241.33333333333331</ele><time>2026-04-18T12:48:45.707Z</time></trkpt><trkpt lat="44.5240657" lon="10.7300801"><ele>242.66666666666666</ele><time>2026-04-18T12:48:46.727Z</time></trkpt><trkpt lat="44.5241704" lon="10.7299236"><ele>244.0</ele><time>2026-04-18T12:48:47.709Z</time></trkpt><trkpt lat="44.5242895" lon="10.7297587"><ele>244.0</ele><time>2026-04-18T12:48:48.722Z</time></trkpt><trkpt lat="44.5244051" lon="10.7295829"><ele>244.0</ele><time>2026-04-18T12:48:49.718Z</time></trkpt><trkpt lat="44.5245089" lon="10.7293945"><ele>244.0</ele><time>2026-04-18T12:48:50.709Z</time></trkpt><trkpt lat="44.524595" lon="10.7291828"><ele>243.33333333333331</ele><time>2026-04-18T12:48:51.724Z</time></trkpt><trkpt lat="44.5246555" lon="10.7289438"><ele>242.66666666666669</ele><time>2026-04-18T12:48:52.721Z</time></trkpt><trkpt lat="44.5247133" lon="10.7286876"><ele>242.0</ele><time>2026-04-18T12:48:53.72Z</time></trkpt><trkpt lat="44.5247494" lon="10.7284107"><ele>242.0</ele><time>2026-04-18T12:48:54.718Z</time></trkpt><trkpt lat="44.5247781" lon="10.7281306"><ele>242.0</ele><time>2026-04-18T12:48:55.726Z</time></trkpt><trkpt lat="44.5248088" lon="10.7278496"><ele>242.0</ele><time>2026-04-18T12:48:56.71Z</time></trkpt><trkpt lat="44.5248339" lon="10.7275681"><ele>242.66666666666669</ele><time>2026-04-18T12:48:57.722Z</time></trkpt><trkpt lat="44.5248663" lon="10.7272869"><ele>243.33333333333331</ele><time>2026-04-18T12:48:58.716Z</time></trkpt><trkpt lat="44.5248965" lon="10.7270018"><ele>244.0</ele><time>2026-04-18T12:48:59.712Z</time></trkpt><trkpt lat="44.5249185" lon="10.7267145"><ele>244.66666666666666</ele><time>2026-04-18T12:49:00.723Z</time></trkpt><trkpt lat="44.5249284" lon="10.7264231"><ele>245.33333333333331</ele><time>2026-04-18T12:49:01.717Z</time></trkpt><trkpt lat="44.5249244" lon="10.7261205"><ele>246.0</ele><time>2026-04-18T12:49:02.723Z</time></trkpt><trkpt lat="44.5249111" lon="10.7258104"><ele>247.66666666666669</ele><time>2026-04-18T12:49:03.733Z</time></trkpt><trkpt lat="44.5248989" lon="10.725521"><ele>249.33333333333334</ele><time>2026-04-18T12:49:04.721Z</time></trkpt><trkpt lat="44.5248927" lon="10.7252463"><ele>251.0</ele><time>2026-04-18T12:49:05.718Z</time></trkpt><trkpt lat="44.524887" lon="10.7249837"><ele>252.33333333333334</ele><time>2026-04-18T12:49:06.722Z</time></trkpt><trkpt lat="44.5248781" lon="10.7247355"><ele>253.66666666666669</ele><time>2026-04-18T12:49:07.722Z</time></trkpt><trkpt lat="44.524882" lon="10.7245016"><ele>255.0</ele><time>2026-04-18T12:49:08.727Z</time></trkpt><trkpt lat="44.5249143" lon="10.7242721"><ele>255.66666666666669</ele><time>2026-04-18T12:49:09.719Z</time></trkpt><trkpt lat="44.5249765" lon="10.7240499"><ele>256.33333333333337</ele><time>2026-04-18T12:49:10.714Z</time></trkpt><trkpt lat="44.5250342" lon="10.723828"><ele>257.0</ele><time>2026-04-18T12:49:11.71Z</time></trkpt><trkpt lat="44.5250662" lon="10.7235724"><ele>256.6666666666667</ele><time>2026-04-18T12:49:12.718Z</time></trkpt><trkpt lat="44.5250675" lon="10.7233048"><ele>256.3333333333333</ele><time>2026-04-18T12:49:13.716Z</time></trkpt><trkpt lat="44.5250454" lon="10.7230285"><ele>256.0</ele><time>2026-04-18T12:49:14.722Z</time></trkpt><trkpt lat="44.5249904" lon="10.722753"><ele>256.3333333333333</ele><time>2026-04-18T12:49:15.722Z</time></trkpt><trkpt lat="44.5249283" lon="10.7224723"><ele>256.6666666666667</ele><time>2026-04-18T12:49:16.713Z</time></trkpt><trkpt lat="44.5248696" lon="10.7221935"><ele>257.0</ele><time>2026-04-18T12:49:17.723Z</time></trkpt><trkpt lat="44.5248192" lon="10.7219151"><ele>258.33333333333337</ele><time>2026-04-18T12:49:18.708Z</time></trkpt><trkpt lat="44.5247681" lon="10.721631"><ele>259.6666666666667</ele><time>2026-04-18T12:49:19.721Z</time></trkpt><trkpt lat="44.524722" lon="10.7213412"><ele>261.0</ele><time>2026-04-18T12:49:20.712Z</time></trkpt><trkpt lat="44.5246785" lon="10.7210377"><ele>261.5</ele><time>2026-04-18T12:49:21.723Z</time></trkpt><trkpt lat="44.5246413" lon="10.7207248"><ele>262.0</ele><time>2026-04-18T12:49:22.716Z</time></trkpt><trkpt lat="44.524612" lon="10.7203999"><ele>263.0</ele><time>2026-04-18T12:49:23.708Z</time></trkpt><trkpt lat="44.5245912" lon="10.7200622"><ele>264.0</ele><time>2026-04-18T12:49:24.717Z</time></trkpt><trkpt lat="44.5245731" lon="10.7197217"><ele>265.0</ele><time>2026-04-18T12:49:25.714Z</time></trkpt><trkpt lat="44.5245536" lon="10.7193809"><ele>266.0</ele><time>2026-04-18T12:49:26.729Z</time></trkpt><trkpt lat="44.5245323" lon="10.7190512"><ele>266.0</ele><time>2026-04-18T12:49:27.718Z</time></trkpt><trkpt lat="44.5245097" lon="10.7187399"><ele>266.0</ele><time>2026-04-18T12:49:28.712Z</time></trkpt><trkpt lat="44.5244864" lon="10.7184506"><ele>266.0</ele><time>2026-04-18T12:49:29.722Z</time></trkpt><trkpt lat="44.5244651" lon="10.7181872"><ele>266.0</ele><time>2026-04-18T12:49:30.71Z</time></trkpt><trkpt lat="44.5244475" lon="10.7179383"><ele>266.0</ele><time>2026-04-18T12:49:31.725Z</time></trkpt><trkpt lat="44.5244268" lon="10.7177074"><ele>266.0</ele><time>2026-04-18T12:49:32.707Z</time></trkpt><trkpt lat="44.5244126" lon="10.7174822"><ele>266.33333333333337</ele><time>2026-04-18T12:49:33.721Z</time></trkpt><trkpt lat="44.5244034" lon="10.7172592"><ele>266.6666666666667</ele><time>2026-04-18T12:49:34.723Z</time></trkpt><trkpt lat="44.5243992" lon="10.717033"><ele>267.0</ele><time>2026-04-18T12:49:35.722Z</time></trkpt><trkpt lat="44.5244008" lon="10.7168077"><ele>267.0</ele><time>2026-04-18T12:49:36.712Z</time></trkpt><trkpt lat="44.5243938" lon="10.7165882"><ele>267.0</ele><time>2026-04-18T12:49:37.714Z</time></trkpt><trkpt lat="44.5243645" lon="10.7163678"><ele>267.0</ele><time>2026-04-18T12:49:38.723Z</time></trkpt><trkpt lat="44.5243114" lon="10.7161611"><ele>268.0</ele><time>2026-04-18T12:49:39.726Z</time></trkpt><trkpt lat="44.5242509" lon="10.7159565"><ele>269.0</ele><time>2026-04-18T12:49:40.725Z</time></trkpt><trkpt lat="44.5242178" lon="10.7157527"><ele>270.0</ele><time>2026-04-18T12:49:41.723Z</time></trkpt><trkpt lat="44.5242231" lon="10.7155341"><ele>270.0</ele><time>2026-04-18T12:49:42.713Z</time></trkpt><trkpt lat="44.5242469" lon="10.7153074"><ele>270.0</ele><time>2026-04-18T12:49:43.725Z</time></trkpt><trkpt lat="44.5242594" lon="10.7150879"><ele>270.0</ele><time>2026-04-18T12:49:44.718Z</time></trkpt><trkpt lat="44.5242542" lon="10.7148665"><ele>271.25</ele><time>2026-04-18T12:49:45.729Z</time></trkpt><trkpt lat="44.5242401" lon="10.7146601"><ele>272.5</ele><time>2026-04-18T12:49:46.71Z</time></trkpt><trkpt lat="44.5242241" lon="10.7144736"><ele>273.75</ele><time>2026-04-18T12:49:47.719Z</time></trkpt><trkpt lat="44.5242236" lon="10.7143099"><ele>275.0</ele><time>2026-04-18T12:49:48.716Z</time></trkpt><trkpt lat="44.5242726" lon="10.7141573"><ele>276.25</ele><time>2026-04-18T12:49:49.714Z</time></trkpt><trkpt lat="44.5243496" lon="10.7140211"><ele>277.5</ele><time>2026-04-18T12:49:50.72Z</time></trkpt><trkpt lat="44.5244611" lon="10.7139186"><ele>278.75</ele><time>2026-04-18T12:49:51.722Z</time></trkpt><trkpt lat="44.5246046" lon="10.713864"><ele>280.0</ele><time>2026-04-18T12:49:52.711Z</time></trkpt><trkpt lat="44.524768" lon="10.7138388"><ele>280.25</ele><time>2026-04-18T12:49:53.725Z</time></trkpt><trkpt lat="44.5249249" lon="10.7138147"><ele>280.5</ele><time>2026-04-18T12:49:54.717Z</time></trkpt><trkpt lat="44.5250601" lon="10.713746"><ele>280.75</ele><time>2026-04-18T12:49:55.718Z</time></trkpt><trkpt lat="44.5251738" lon="10.7136202"><ele>281.0</ele><time>2026-04-18T12:49:56.709Z</time></trkpt><trkpt lat="44.5252853" lon="10.7134943"><ele>285.0</ele><time>2026-04-18T12:49:57.721Z</time></trkpt><trkpt lat="44.5254222" lon="10.7134078"><ele>289.0</ele><time>2026-04-18T12:49:58.714Z</time></trkpt><trkpt lat="44.525582" lon="10.7133562"><ele>293.0</ele><time>2026-04-18T12:49:59.722Z</time></trkpt><trkpt lat="44.5257486" lon="10.7133138"><ele>293.0</ele><time>2026-04-18T12:50:00.723Z</time></trkpt><trkpt lat="44.5259121" lon="10.7132398"><ele>293.0</ele><time>2026-04-18T12:50:01.721Z</time></trkpt><trkpt lat="44.5260635" lon="10.7131244"><ele>293.0</ele><time>2026-04-18T12:50:02.723Z</time></trkpt><trkpt lat="44.5261875" lon="10.712964"><ele>295.6666666666667</ele><time>2026-04-18T12:50:03.722Z</time></trkpt><trkpt lat="44.5263022" lon="10.7127458"><ele>298.3333333333333</ele><time>2026-04-18T12:50:04.719Z</time></trkpt><trkpt lat="44.5264016" lon="10.7125115"><ele>301.0</ele><time>2026-04-18T12:50:05.711Z</time></trkpt><trkpt lat="44.5265109" lon="10.7122641"><ele>301.0</ele><time>2026-04-18T12:50:06.723Z</time></trkpt><trkpt lat="44.5266227" lon="10.71201"><ele>301.0</ele><time>2026-04-18T12:50:07.725Z</time></trkpt><trkpt lat="44.5267224" lon="10.711732"><ele>301.0</ele><time>2026-04-18T12:50:08.72Z</time></trkpt><trkpt lat="44.5268051" lon="10.7114374"><ele>299.3333333333333</ele><time>2026-04-18T12:50:09.717Z</time></trkpt><trkpt lat="44.5268863" lon="10.7111634"><ele>297.6666666666667</ele><time>2026-04-18T12:50:10.727Z</time></trkpt><trkpt lat="44.5269592" lon="10.7109194"><ele>296.0</ele><time>2026-04-18T12:50:11.721Z</time></trkpt><trkpt lat="44.5270276" lon="10.7106935"><ele>298.6666666666667</ele><time>2026-04-18T12:50:12.714Z</time></trkpt><trkpt lat="44.5270815" lon="10.7104855"><ele>301.3333333333333</ele><time>2026-04-18T12:50:13.723Z</time></trkpt><trkpt lat="44.5271039" lon="10.7102892"><ele>304.0</ele><time>2026-04-18T12:50:14.72Z</time></trkpt><trkpt lat="44.5270909" lon="10.7100783"><ele>302.0</ele><time>2026-04-18T12:50:15.723Z</time></trkpt><trkpt lat="44.5270299" lon="10.7098555"><ele>300.0</ele><time>2026-04-18T12:50:16.707Z</time></trkpt><trkpt lat="44.5269587" lon="10.709623"><ele>298.0</ele><time>2026-04-18T12:50:17.718Z</time></trkpt><trkpt lat="44.5269137" lon="10.7093707"><ele>298.0</ele><time>2026-04-18T12:50:18.717Z</time></trkpt><trkpt lat="44.5268827" lon="10.7091209"><ele>298.0</ele><time>2026-04-18T12:50:19.723Z</time></trkpt><trkpt lat="44.5268152" lon="10.7088959"><ele>298.0</ele><time>2026-04-18T12:50:20.718Z</time></trkpt><trkpt lat="44.5267397" lon="10.7086835"><ele>300.0</ele><time>2026-04-18T12:50:21.714Z</time></trkpt><trkpt lat="44.5266924" lon="10.708442"><ele>302.0</ele><time>2026-04-18T12:50:22.718Z</time></trkpt><trkpt lat="44.5266678" lon="10.7081935"><ele>304.0</ele><time>2026-04-18T12:50:23.705Z</time></trkpt><trkpt lat="44.5266672" lon="10.7079515"><ele>304.0</ele><time>2026-04-18T12:50:24.721Z</time></trkpt><trkpt lat="44.5266509" lon="10.707722"><ele>304.0</ele><time>2026-04-18T12:50:25.712Z</time></trkpt><trkpt lat="44.5266103" lon="10.7075056"><ele>304.0</ele><time>2026-04-18T12:50:26.708Z</time></trkpt><trkpt lat="44.5265535" lon="10.7073082"><ele>304.0</ele><time>2026-04-18T12:50:27.701Z</time></trkpt><trkpt lat="44.526543" lon="10.7071012"><ele>304.0</ele><time>2026-04-18T12:50:28.708Z</time></trkpt><trkpt lat="44.5265724" lon="10.706883"><ele>304.0</ele><time>2026-04-18T12:50:29.706Z</time></trkpt><trkpt lat="44.5266146" lon="10.7066475"><ele>304.3333333333333</ele><time>2026-04-18T12:50:30.709Z</time></trkpt><trkpt lat="44.526649" lon="10.706409"><ele>304.6666666666667</ele><time>2026-04-18T12:50:31.716Z</time></trkpt><trkpt lat="44.5266557" lon="10.7061788"><ele>305.0</ele><time>2026-04-18T12:50:32.721Z</time></trkpt><trkpt lat="44.5266322" lon="10.7059703"><ele>307.0</ele><time>2026-04-18T12:50:33.72Z</time></trkpt><trkpt lat="44.5265699" lon="10.705781"><ele>309.0</ele><time>2026-04-18T12:50:34.704Z</time></trkpt><trkpt lat="44.5264547" lon="10.7056158"><ele>311.0</ele><time>2026-04-18T12:50:35.708Z</time></trkpt><trkpt lat="44.5263251" lon="10.7054882"><ele>307.5</ele><time>2026-04-18T12:50:36.718Z</time></trkpt><trkpt lat="44.5262095" lon="10.7053663"><ele>304.0</ele><time>2026-04-18T12:50:37.719Z</time></trkpt><trkpt lat="44.5261202" lon="10.7052304"><ele>300.5</ele><time>2026-04-18T12:50:38.714Z</time></trkpt><trkpt lat="44.5260654" lon="10.7050449"><ele>297.0</ele><time>2026-04-18T12:50:39.717Z</time></trkpt><trkpt lat="44.5260241" lon="10.704851"><ele>297.0</ele><time>2026-04-18T12:50:40.72Z</time></trkpt><trkpt lat="44.5260229" lon="10.7046465"><ele>297.0</ele><time>2026-04-18T12:50:41.72Z</time></trkpt><trkpt lat="44.5260709" lon="10.7044474"><ele>297.0</ele><time>2026-04-18T12:50:42.706Z</time></trkpt><trkpt lat="44.5261391" lon="10.7042496"><ele>296.6666666666667</ele><time>2026-04-18T12:50:43.706Z</time></trkpt><trkpt lat="44.5262236" lon="10.7040455"><ele>296.33333333333337</ele><time>2026-04-18T12:50:44.707Z</time></trkpt><trkpt lat="44.5263019" lon="10.7038428"><ele>296.0</ele><time>2026-04-18T12:50:45.717Z</time></trkpt><trkpt lat="44.5263828" lon="10.7036517"><ele>299.0</ele><time>2026-04-18T12:50:46.709Z</time></trkpt><trkpt lat="44.5264481" lon="10.7034813"><ele>302.0</ele><time>2026-04-18T12:50:47.724Z</time></trkpt><trkpt lat="44.5264842" lon="10.703331"><ele>305.0</ele><time>2026-04-18T12:50:48.719Z</time></trkpt><trkpt lat="44.5265036" lon="10.7031822"><ele>308.0</ele><time>2026-04-18T12:50:49.719Z</time></trkpt><trkpt lat="44.5264617" lon="10.7030436"><ele>308.0</ele><time>2026-04-18T12:50:50.719Z</time></trkpt><trkpt lat="44.5263752" lon="10.702915"><ele>308.0</ele><time>2026-04-18T12:50:51.715Z</time></trkpt><trkpt lat="44.5262693" lon="10.7027865"><ele>308.0</ele><time>2026-04-18T12:50:52.727Z</time></trkpt><trkpt lat="44.5261629" lon="10.702644"><ele>308.0</ele><time>2026-04-18T12:50:53.716Z</time></trkpt><trkpt lat="44.5260638" lon="10.7024892"><ele>306.5</ele><time>2026-04-18T12:50:54.727Z</time></trkpt><trkpt lat="44.525973" lon="10.7023464"><ele>305.0</ele><time>2026-04-18T12:50:55.705Z</time></trkpt><trkpt lat="44.5258918" lon="10.7022147"><ele>303.5</ele><time>2026-04-18T12:50:56.71Z</time></trkpt><trkpt lat="44.5258264" lon="10.7020954"><ele>302.0</ele><time>2026-04-18T12:50:57.723Z</time></trkpt><trkpt lat="44.5257622" lon="10.7019725"><ele>302.5</ele><time>2026-04-18T12:50:58.721Z</time></trkpt><trkpt lat="44.5256864" lon="10.7018592"><ele>303.0</ele><time>2026-04-18T12:50:59.716Z</time></trkpt><trkpt lat="44.5255853" lon="10.7017594"><ele>303.5</ele><time>2026-04-18T12:51:00.717Z</time></trkpt><trkpt lat="44.5254692" lon="10.7016644"><ele>304.0</ele><time>2026-04-18T12:51:01.719Z</time></trkpt><trkpt lat="44.5253423" lon="10.7015675"><ele>304.0</ele><time>2026-04-18T12:51:02.713Z</time></trkpt><trkpt lat="44.5252219" lon="10.7014749"><ele>304.0</ele><time>2026-04-18T12:51:03.716Z</time></trkpt><trkpt lat="44.5251115" lon="10.7013942"><ele>304.0</ele><time>2026-04-18T12:51:04.717Z</time></trkpt><trkpt lat="44.5250181" lon="10.7013127"><ele>304.0</ele><time>2026-04-18T12:51:05.705Z</time></trkpt><trkpt lat="44.5249388" lon="10.7012404"><ele>304.0</ele><time>2026-04-18T12:51:06.71Z</time></trkpt><trkpt lat="44.5248795" lon="10.7011657"><ele>304.0</ele><time>2026-04-18T12:51:07.727Z</time></trkpt><trkpt lat="44.5248485" lon="10.7010735"><ele>304.0</ele><time>2026-04-18T12:51:08.717Z</time></trkpt><trkpt lat="44.524841" lon="10.7009676"><ele>304.0</ele><time>2026-04-18T12:51:09.709Z</time></trkpt><trkpt lat="44.5248752" lon="10.7008288"><ele>304.0</ele><time>2026-04-18T12:51:10.719Z</time></trkpt><trkpt lat="44.5249308" lon="10.7006745"><ele>303.5</ele><time>2026-04-18T12:51:11.711Z</time></trkpt><trkpt lat="44.5249946" lon="10.700517"><ele>303.0</ele><time>2026-04-18T12:51:12.723Z</time></trkpt><trkpt lat="44.5250637" lon="10.7003618"><ele>302.5</ele><time>2026-04-18T12:51:13.718Z</time></trkpt><trkpt lat="44.5251364" lon="10.7002323"><ele>302.0</ele><time>2026-04-18T12:51:14.72Z</time></trkpt><trkpt lat="44.5251974" lon="10.7001148"><ele>299.5</ele><time>2026-04-18T12:51:15.705Z</time></trkpt><trkpt lat="44.5252277" lon="10.699984"><ele>297.0</ele><time>2026-04-18T12:51:16.711Z</time></trkpt><trkpt lat="44.5252142" lon="10.6998238"><ele>294.5</ele><time>2026-04-18T12:51:17.722Z</time></trkpt><trkpt lat="44.5251678" lon="10.6996563"><ele>292.0</ele><time>2026-04-18T12:51:18.719Z</time></trkpt><trkpt lat="44.5250972" lon="10.6994752"><ele>289.3333333333333</ele><time>2026-04-18T12:51:19.712Z</time></trkpt><trkpt lat="44.5250296" lon="10.6992643"><ele>286.6666666666667</ele><time>2026-04-18T12:51:20.717Z</time></trkpt><trkpt lat="44.5249732" lon="10.699034"><ele>284.0</ele><time>2026-04-18T12:51:21.709Z</time></trkpt><trkpt lat="44.5249188" lon="10.6987818"><ele>282.33333333333337</ele><time>2026-04-18T12:51:22.722Z</time></trkpt><trkpt lat="44.5248659" lon="10.6985273"><ele>280.6666666666667</ele><time>2026-04-18T12:51:23.719Z</time></trkpt><trkpt lat="44.5248103" lon="10.6982777"><ele>279.0</ele><time>2026-04-18T12:51:24.714Z</time></trkpt><trkpt lat="44.5247578" lon="10.6980251"><ele>279.0</ele><time>2026-04-18T12:51:25.729Z</time></trkpt><trkpt lat="44.5247208" lon="10.6977896"><ele>279.0</ele><time>2026-04-18T12:51:26.721Z</time></trkpt><trkpt lat="44.5246915" lon="10.6975642"><ele>279.0</ele><time>2026-04-18T12:51:27.722Z</time></trkpt><trkpt lat="44.5246685" lon="10.6973578"><ele>278.75</ele><time>2026-04-18T12:51:28.717Z</time></trkpt><trkpt lat="44.5246195" lon="10.6971638"><ele>278.5</ele><time>2026-04-18T12:51:29.724Z</time></trkpt><trkpt lat="44.524542" lon="10.6969928"><ele>278.25</ele><time>2026-04-18T12:51:30.732Z</time></trkpt><trkpt lat="44.5244558" lon="10.6968437"><ele>278.0</ele><time>2026-04-18T12:51:31.715Z</time></trkpt><trkpt lat="44.52439" lon="10.6967036"><ele>278.0</ele><time>2026-04-18T12:51:32.707Z</time></trkpt><trkpt lat="44.5243703" lon="10.696563"><ele>278.0</ele><time>2026-04-18T12:51:33.728Z</time></trkpt><trkpt lat="44.5244058" lon="10.696437"><ele>278.0</ele><time>2026-04-18T12:51:34.719Z</time></trkpt><trkpt lat="44.5244721" lon="10.6963076"><ele>278.0</ele><time>2026-04-18T12:51:35.721Z</time></trkpt><trkpt lat="44.5245709" lon="10.6961797"><ele>278.0</ele><time>2026-04-18T12:51:36.726Z</time></trkpt><trkpt lat="44.524678" lon="10.6960318"><ele>274.33333333333337</ele><time>2026-04-18T12:51:37.721Z</time></trkpt><trkpt lat="44.5247964" lon="10.6958499"><ele>270.6666666666667</ele><time>2026-04-18T12:51:38.705Z</time></trkpt><trkpt lat="44.5249087" lon="10.6956458"><ele>267.0</ele><time>2026-04-18T12:51:39.73Z</time></trkpt><trkpt lat="44.5250122" lon="10.69543"><ele>266.6666666666667</ele><time>2026-04-18T12:51:40.719Z</time></trkpt><trkpt lat="44.5251049" lon="10.6951874"><ele>266.33333333333337</ele><time>2026-04-18T12:51:41.725Z</time></trkpt><trkpt lat="44.5251874" lon="10.6949362"><ele>266.0</ele><time>2026-04-18T12:51:42.714Z</time></trkpt><trkpt lat="44.5252719" lon="10.6946849"><ele>266.0</ele><time>2026-04-18T12:51:43.715Z</time></trkpt><trkpt lat="44.525358" lon="10.6944469"><ele>266.0</ele><time>2026-04-18T12:51:44.718Z</time></trkpt><trkpt lat="44.5254505" lon="10.6942177"><ele>266.0</ele><time>2026-04-18T12:51:45.71Z</time></trkpt><trkpt lat="44.5255612" lon="10.6939922"><ele>265.0</ele><time>2026-04-18T12:51:46.726Z</time></trkpt><trkpt lat="44.525672" lon="10.6937819"><ele>264.0</ele><time>2026-04-18T12:51:47.726Z</time></trkpt><trkpt lat="44.5257786" lon="10.6935937"><ele>263.0</ele><time>2026-04-18T12:51:48.713Z</time></trkpt><trkpt lat="44.5258825" lon="10.6934303"><ele>263.0</ele><time>2026-04-18T12:51:49.723Z</time></trkpt><trkpt lat="44.5259842" lon="10.6932773"><ele>263.0</ele><time>2026-04-18T12:51:50.705Z</time></trkpt><trkpt lat="44.5260933" lon="10.6931323"><ele>263.0</ele><time>2026-04-18T12:51:51.723Z</time></trkpt><trkpt lat="44.526204" lon="10.6929776"><ele>264.0</ele><time>2026-04-18T12:51:52.717Z</time></trkpt><trkpt lat="44.5263059" lon="10.6927976"><ele>265.0</ele><time>2026-04-18T12:51:53.704Z</time></trkpt><trkpt lat="44.5263923" lon="10.6926004"><ele>266.0</ele><time>2026-04-18T12:51:54.723Z</time></trkpt><trkpt lat="44.5264625" lon="10.6924018"><ele>266.33333333333337</ele><time>2026-04-18T12:51:55.71Z</time></trkpt><trkpt lat="44.5265338" lon="10.692197"><ele>266.6666666666667</ele><time>2026-04-18T12:51:56.727Z</time></trkpt><trkpt lat="44.5266117" lon="10.6920044"><ele>267.0</ele><time>2026-04-18T12:51:57.718Z</time></trkpt><trkpt lat="44.5266926" lon="10.6918275"><ele>265.25</ele><time>2026-04-18T12:51:58.725Z</time></trkpt><trkpt lat="44.5267786" lon="10.6916763"><ele>263.5</ele><time>2026-04-18T12:51:59.712Z</time></trkpt><trkpt lat="44.5268727" lon="10.6915452"><ele>261.75</ele><time>2026-04-18T12:52:00.719Z</time></trkpt><trkpt lat="44.5269808" lon="10.6914442"><ele>260.0</ele><time>2026-04-18T12:52:01.723Z</time></trkpt><trkpt lat="44.5271068" lon="10.6913774"><ele>258.0</ele><time>2026-04-18T12:52:02.724Z</time></trkpt><trkpt lat="44.5272349" lon="10.6913179"><ele>256.0</ele><time>2026-04-18T12:52:03.727Z</time></trkpt><trkpt lat="44.5273469" lon="10.6912325"><ele>254.0</ele><time>2026-04-18T12:52:04.706Z</time></trkpt><trkpt lat="44.5274403" lon="10.6911139"><ele>252.0</ele><time>2026-04-18T12:52:05.728Z</time></trkpt><trkpt lat="44.527515" lon="10.6909492"><ele>252.0</ele><time>2026-04-18T12:52:06.72Z</time></trkpt><trkpt lat="44.5275558" lon="10.6907591"><ele>252.0</ele><time>2026-04-18T12:52:07.72Z</time></trkpt><trkpt lat="44.5275499" lon="10.6905544"><ele>252.0</ele><time>2026-04-18T12:52:08.723Z</time></trkpt><trkpt lat="44.5275241" lon="10.6903596"><ele>252.0</ele><time>2026-04-18T12:52:09.708Z</time></trkpt><trkpt lat="44.527485" lon="10.6901688"><ele>252.0</ele><time>2026-04-18T12:52:10.706Z</time></trkpt><trkpt lat="44.5274401" lon="10.6899632"><ele>252.0</ele><time>2026-04-18T12:52:11.726Z</time></trkpt><trkpt lat="44.5273996" lon="10.6897638"><ele>252.0</ele><time>2026-04-18T12:52:12.707Z</time></trkpt><trkpt lat="44.5273617" lon="10.6895801"><ele>252.0</ele><time>2026-04-18T12:52:13.718Z</time></trkpt><trkpt lat="44.5273269" lon="10.6894315"><ele>251.39999999999998</ele><time>2026-04-18T12:52:14.718Z</time></trkpt><trkpt lat="44.5273107" lon="10.6892832"><ele>250.79999999999998</ele><time>2026-04-18T12:52:15.711Z</time></trkpt><trkpt lat="44.5273101" lon="10.6891463"><ele>250.2</ele><time>2026-04-18T12:52:16.716Z</time></trkpt><trkpt lat="44.5273305" lon="10.6890178"><ele>249.6</ele><time>2026-04-18T12:52:17.724Z</time></trkpt><trkpt lat="44.5273945" lon="10.6889086"><ele>249.0</ele><time>2026-04-18T12:52:18.702Z</time></trkpt><trkpt lat="44.52751" lon="10.6888089"><ele>249.0</ele><time>2026-04-18T12:52:19.711Z</time></trkpt><trkpt lat="44.5276505" lon="10.6887244"><ele>249.0</ele><time>2026-04-18T12:52:20.715Z</time></trkpt><trkpt lat="44.5277695" lon="10.6886736"><ele>249.0</ele><time>2026-04-18T12:52:21.717Z</time></trkpt><trkpt lat="44.5278976" lon="10.6886435"><ele>249.0</ele><time>2026-04-18T12:52:22.704Z</time></trkpt><trkpt lat="44.5280385" lon="10.6886301"><ele>245.25</ele><time>2026-04-18T12:52:23.723Z</time></trkpt><trkpt lat="44.5281677" lon="10.6885834"><ele>241.5</ele><time>2026-04-18T12:52:24.71Z</time></trkpt><trkpt lat="44.5282928" lon="10.6885295"><ele>237.75</ele><time>2026-04-18T12:52:25.714Z</time></trkpt><trkpt lat="44.5284138" lon="10.6884554"><ele>234.0</ele><time>2026-04-18T12:52:26.702Z</time></trkpt><trkpt lat="44.5285282" lon="10.6883645"><ele>234.0</ele><time>2026-04-18T12:52:27.717Z</time></trkpt><trkpt lat="44.5286335" lon="10.6882056"><ele>234.0</ele><time>2026-04-18T12:52:28.717Z</time></trkpt><trkpt lat="44.5287373" lon="10.6880579"><ele>234.0</ele><time>2026-04-18T12:52:29.711Z</time></trkpt><trkpt lat="44.5288251" lon="10.6878958"><ele>234.0</ele><time>2026-04-18T12:52:30.718Z</time></trkpt><trkpt lat="44.5289126" lon="10.6877452"><ele>231.25</ele><time>2026-04-18T12:52:31.713Z</time></trkpt><trkpt lat="44.5289962" lon="10.687607"><ele>228.5</ele><time>2026-04-18T12:52:32.718Z</time></trkpt><trkpt lat="44.5290622" lon="10.6874645"><ele>225.75</ele><time>2026-04-18T12:52:33.719Z</time></trkpt><trkpt lat="44.5291493" lon="10.6873566"><ele>223.0</ele><time>2026-04-18T12:52:34.716Z</time></trkpt><trkpt lat="44.529254" lon="10.6872521"><ele>223.0</ele><time>2026-04-18T12:52:35.712Z</time></trkpt><trkpt lat="44.52937" lon="10.6871575"><ele>223.0</ele><time>2026-04-18T12:52:36.723Z</time></trkpt><trkpt lat="44.5294803" lon="10.687054"><ele>223.0</ele><time>2026-04-18T12:52:37.709Z</time></trkpt><trkpt lat="44.5295717" lon="10.6869294"><ele>223.0</ele><time>2026-04-18T12:52:38.713Z</time></trkpt><trkpt lat="44.5296688" lon="10.6868022"><ele>219.25</ele><time>2026-04-18T12:52:39.72Z</time></trkpt><trkpt lat="44.5297434" lon="10.6866721"><ele>215.5</ele><time>2026-04-18T12:52:40.719Z</time></trkpt><trkpt lat="44.5298081" lon="10.6865076"><ele>211.75</ele><time>2026-04-18T12:52:41.716Z</time></trkpt><trkpt lat="44.5299209" lon="10.6863899"><ele>208.0</ele><time>2026-04-18T12:52:42.708Z</time></trkpt><trkpt lat="44.5300528" lon="10.6863443"><ele>208.0</ele><time>2026-04-18T12:52:43.714Z</time></trkpt><trkpt lat="44.5301871" lon="10.6863185"><ele>208.0</ele><time>2026-04-18T12:52:44.714Z</time></trkpt><trkpt lat="44.5303485" lon="10.6862733"><ele>208.0</ele><time>2026-04-18T12:52:45.711Z</time></trkpt><trkpt lat="44.5305266" lon="10.6862235"><ele>204.66666666666666</ele><time>2026-04-18T12:52:46.712Z</time></trkpt><trkpt lat="44.5306921" lon="10.6861183"><ele>201.33333333333331</ele><time>2026-04-18T12:52:47.72Z</time></trkpt><trkpt lat="44.5308516" lon="10.6860225"><ele>198.0</ele><time>2026-04-18T12:52:48.706Z</time></trkpt><trkpt lat="44.531001" lon="10.6859425"><ele>196.0</ele><time>2026-04-18T12:52:49.72Z</time></trkpt><trkpt lat="44.5311337" lon="10.6858526"><ele>194.0</ele><time>2026-04-18T12:52:50.709Z</time></trkpt><trkpt lat="44.531243" lon="10.6857223"><ele>192.0</ele><time>2026-04-18T12:52:51.7Z</time></trkpt><trkpt lat="44.5313333" lon="10.6855461"><ele>190.0</ele><time>2026-04-18T12:52:52.709Z</time></trkpt><trkpt lat="44.5314076" lon="10.6853424"><ele>189.25</ele><time>2026-04-18T12:52:53.718Z</time></trkpt><trkpt lat="44.5314863" lon="10.6851471"><ele>188.5</ele><time>2026-04-18T12:52:54.724Z</time></trkpt><trkpt lat="44.5315566" lon="10.6849713"><ele>187.75</ele><time>2026-04-18T12:52:55.718Z</time></trkpt><trkpt lat="44.53168" lon="10.684886"><ele>187.0</ele><time>2026-04-18T12:52:56.711Z</time></trkpt><trkpt lat="44.5318117" lon="10.6848186"><ele>187.0</ele><time>2026-04-18T12:52:57.712Z</time></trkpt><trkpt lat="44.5319465" lon="10.6847704"><ele>187.0</ele><time>2026-04-18T12:52:58.717Z</time></trkpt><trkpt lat="44.5321087" lon="10.6847266"><ele>187.0</ele><time>2026-04-18T12:52:59.711Z</time></trkpt><trkpt lat="44.5322647" lon="10.6846805"><ele>186.5</ele><time>2026-04-18T12:53:00.719Z</time></trkpt><trkpt lat="44.5324033" lon="10.6845928"><ele>186.0</ele><time>2026-04-18T12:53:01.724Z</time></trkpt><trkpt lat="44.532529" lon="10.6844974"><ele>185.5</ele><time>2026-04-18T12:53:02.709Z</time></trkpt><trkpt lat="44.5326346" lon="10.6843664"><ele>185.0</ele><time>2026-04-18T12:53:03.715Z</time></trkpt><trkpt lat="44.5327473" lon="10.6842231"><ele>186.66666666666666</ele><time>2026-04-18T12:53:04.711Z</time></trkpt><trkpt lat="44.5328592" lon="10.6840852"><ele>188.33333333333334</ele><time>2026-04-18T12:53:05.719Z</time></trkpt><trkpt lat="44.5329932" lon="10.6839716"><ele>190.0</ele><time>2026-04-18T12:53:06.717Z</time></trkpt><trkpt lat="44.5331427" lon="10.6838923"><ele>190.0</ele><time>2026-04-18T12:53:07.704Z</time></trkpt><trkpt lat="44.5333038" lon="10.6838045"><ele>190.0</ele><time>2026-04-18T12:53:08.728Z</time></trkpt><trkpt lat="44.5334736" lon="10.6837046"><ele>190.0</ele><time>2026-04-18T12:53:09.703Z</time></trkpt><trkpt lat="44.5336444" lon="10.6835918"><ele>191.0</ele><time>2026-04-18T12:53:10.722Z</time></trkpt><trkpt lat="44.5338148" lon="10.6834824"><ele>192.0</ele><time>2026-04-18T12:53:11.725Z</time></trkpt><trkpt lat="44.5339908" lon="10.6833594"><ele>193.0</ele><time>2026-04-18T12:53:12.729Z</time></trkpt><trkpt lat="44.5341607" lon="10.6832212"><ele>193.0</ele><time>2026-04-18T12:53:13.72Z</time></trkpt><trkpt lat="44.5343261" lon="10.6830825"><ele>193.0</ele><time>2026-04-18T12:53:14.721Z</time></trkpt><trkpt lat="44.5344931" lon="10.6829241"><ele>193.0</ele><time>2026-04-18T12:53:15.72Z</time></trkpt><trkpt lat="44.5346639" lon="10.6827615"><ele>191.66666666666666</ele><time>2026-04-18T12:53:16.707Z</time></trkpt><trkpt lat="44.5348347" lon="10.68262"><ele>190.33333333333331</ele><time>2026-04-18T12:53:17.724Z</time></trkpt><trkpt lat="44.5350137" lon="10.6825201"><ele>189.0</ele><time>2026-04-18T12:53:18.707Z</time></trkpt><trkpt lat="44.5351938" lon="10.6824268"><ele>189.0</ele><time>2026-04-18T12:53:19.706Z</time></trkpt><trkpt lat="44.5353641" lon="10.6823198"><ele>189.0</ele><time>2026-04-18T12:53:20.706Z</time></trkpt><trkpt lat="44.5355121" lon="10.682164"><ele>189.0</ele><time>2026-04-18T12:53:21.718Z</time></trkpt><trkpt lat="44.5356437" lon="10.6820172"><ele>191.33333333333331</ele><time>2026-04-18T12:53:22.704Z</time></trkpt><trkpt lat="44.5357686" lon="10.6818864"><ele>193.66666666666666</ele><time>2026-04-18T12:53:23.716Z</time></trkpt><trkpt lat="44.5358946" lon="10.6817606"><ele>196.0</ele><time>2026-04-18T12:53:24.721Z</time></trkpt><trkpt lat="44.5360209" lon="10.6816497"><ele>196.0</ele><time>2026-04-18T12:53:25.712Z</time></trkpt><trkpt lat="44.5361588" lon="10.6815697"><ele>196.0</ele><time>2026-04-18T12:53:26.718Z</time></trkpt><trkpt lat="44.5363188" lon="10.6815021"><ele>196.0</ele><time>2026-04-18T12:53:27.723Z</time></trkpt><trkpt lat="44.5364937" lon="10.6814312"><ele>193.0</ele><time>2026-04-18T12:53:28.711Z</time></trkpt><trkpt lat="44.5366752" lon="10.6813396"><ele>190.0</ele><time>2026-04-18T12:53:29.711Z</time></trkpt><trkpt lat="44.5368582" lon="10.6812381"><ele>187.0</ele><time>2026-04-18T12:53:30.719Z</time></trkpt><trkpt lat="44.5370301" lon="10.6811172"><ele>189.0</ele><time>2026-04-18T12:53:31.707Z</time></trkpt><trkpt lat="44.5371911" lon="10.6810044"><ele>191.0</ele><time>2026-04-18T12:53:32.717Z</time></trkpt><trkpt lat="44.5373452" lon="10.6809019"><ele>193.0</ele><time>2026-04-18T12:53:33.702Z</time></trkpt><trkpt lat="44.5374926" lon="10.680798"><ele>193.0</ele><time>2026-04-18T12:53:34.729Z</time></trkpt><trkpt lat="44.537628" lon="10.6807028"><ele>193.0</ele><time>2026-04-18T12:53:35.724Z</time></trkpt><trkpt lat="44.5377427" lon="10.680606"><ele>193.0</ele><time>2026-04-18T12:53:36.715Z</time></trkpt><trkpt lat="44.5378435" lon="10.6804758"><ele>193.0</ele><time>2026-04-18T12:53:37.717Z</time></trkpt><trkpt lat="44.5379566" lon="10.6803421"><ele>195.66666666666666</ele><time>2026-04-18T12:53:38.704Z</time></trkpt><trkpt lat="44.5380926" lon="10.6802102"><ele>198.33333333333331</ele><time>2026-04-18T12:53:39.706Z</time></trkpt><trkpt lat="44.538229" lon="10.680093"><ele>201.0</ele><time>2026-04-18T12:53:40.713Z</time></trkpt><trkpt lat="44.5383513" lon="10.6799915"><ele>201.0</ele><time>2026-04-18T12:53:41.721Z</time></trkpt><trkpt lat="44.5384519" lon="10.679896"><ele>201.0</ele><time>2026-04-18T12:53:42.71Z</time></trkpt><trkpt lat="44.5385384" lon="10.6798114"><ele>201.0</ele><time>2026-04-18T12:53:43.71Z</time></trkpt><trkpt lat="44.5385909" lon="10.6797135"><ele>201.0</ele><time>2026-04-18T12:53:44.723Z</time></trkpt><trkpt lat="44.5386463" lon="10.6795858"><ele>201.0</ele><time>2026-04-18T12:53:45.716Z</time></trkpt><trkpt lat="44.5386689" lon="10.6794699"><ele>201.4</ele><time>2026-04-18T12:53:46.712Z</time></trkpt><trkpt lat="44.5386914" lon="10.6793792"><ele>201.8</ele><time>2026-04-18T12:53:47.716Z</time></trkpt><trkpt lat="44.538749" lon="10.6793215"><ele>202.20000000000002</ele><time>2026-04-18T12:53:48.703Z</time></trkpt><trkpt lat="44.5388336" lon="10.6793213"><ele>202.60000000000002</ele><time>2026-04-18T12:53:49.715Z</time></trkpt><trkpt lat="44.5389495" lon="10.6793339"><ele>203.0</ele><time>2026-04-18T12:53:50.721Z</time></trkpt><trkpt lat="44.5390665" lon="10.67938"><ele>203.0</ele><time>2026-04-18T12:53:51.704Z</time></trkpt><trkpt lat="44.5392003" lon="10.6794305"><ele>203.0</ele><time>2026-04-18T12:53:52.726Z</time></trkpt><trkpt lat="44.5393356" lon="10.6794913"><ele>203.0</ele><time>2026-04-18T12:53:53.72Z</time></trkpt><trkpt lat="44.5394691" lon="10.6795338"><ele>203.0</ele><time>2026-04-18T12:53:54.704Z</time></trkpt><trkpt lat="44.5396022" lon="10.6795729"><ele>201.33333333333334</ele><time>2026-04-18T12:53:55.708Z</time></trkpt><trkpt lat="44.5397417" lon="10.6796265"><ele>199.66666666666669</ele><time>2026-04-18T12:53:56.704Z</time></trkpt><trkpt lat="44.5398828" lon="10.6796943"><ele>198.0</ele><time>2026-04-18T12:53:57.705Z</time></trkpt><trkpt lat="44.5400367" lon="10.6797371"><ele>198.0</ele><time>2026-04-18T12:53:58.719Z</time></trkpt><trkpt lat="44.5401836" lon="10.6797905"><ele>198.0</ele><time>2026-04-18T12:53:59.713Z</time></trkpt><trkpt lat="44.5403202" lon="10.6798338"><ele>198.0</ele><time>2026-04-18T12:54:00.703Z</time></trkpt><trkpt lat="44.5404483" lon="10.6798624"><ele>198.0</ele><time>2026-04-18T12:54:01.708Z</time></trkpt><trkpt lat="44.5405707" lon="10.6798919"><ele>197.4</ele><time>2026-04-18T12:54:02.732Z</time></trkpt><trkpt lat="44.5406862" lon="10.6799263"><ele>196.8</ele><time>2026-04-18T12:54:03.71Z</time></trkpt><trkpt lat="44.5407974" lon="10.6799683"><ele>196.2</ele><time>2026-04-18T12:54:04.715Z</time></trkpt><trkpt lat="44.5409028" lon="10.6800201"><ele>195.6</ele><time>2026-04-18T12:54:05.703Z</time></trkpt><trkpt lat="44.5409943" lon="10.6800728"><ele>195.0</ele><time>2026-04-18T12:54:06.722Z</time></trkpt><trkpt lat="44.5410734" lon="10.6801342"><ele>195.0</ele><time>2026-04-18T12:54:07.726Z</time></trkpt><trkpt lat="44.5411448" lon="10.6802028"><ele>195.0</ele><time>2026-04-18T12:54:08.712Z</time></trkpt><trkpt lat="44.5412093" lon="10.6802786"><ele>195.0</ele><time>2026-04-18T12:54:09.726Z</time></trkpt><trkpt lat="44.5412747" lon="10.680353"><ele>195.0</ele><time>2026-04-18T12:54:10.713Z</time></trkpt><trkpt lat="44.5413476" lon="10.6804195"><ele>195.0</ele><time>2026-04-18T12:54:11.718Z</time></trkpt><trkpt lat="44.5414151" lon="10.6804718"><ele>195.0</ele><time>2026-04-18T12:54:12.711Z</time></trkpt><trkpt lat="44.5414826" lon="10.6805128"><ele>194.0</ele><time>2026-04-18T12:54:13.729Z</time></trkpt><trkpt lat="44.541572" lon="10.6805438"><ele>193.0</ele><time>2026-04-18T12:54:14.715Z</time></trkpt><trkpt lat="44.5416733" lon="10.6805569"><ele>192.0</ele><time>2026-04-18T12:54:15.704Z</time></trkpt><trkpt lat="44.5417846" lon="10.6805679"><ele>191.0</ele><time>2026-04-18T12:54:16.723Z</time></trkpt><trkpt lat="44.5418967" lon="10.6805618"><ele>190.0</ele><time>2026-04-18T12:54:17.722Z</time></trkpt><trkpt lat="44.5420104" lon="10.6805544"><ele>188.5</ele><time>2026-04-18T12:54:18.707Z</time></trkpt><trkpt lat="44.5421184" lon="10.6805474"><ele>187.0</ele><time>2026-04-18T12:54:19.725Z</time></trkpt><trkpt lat="44.5422301" lon="10.6805423"><ele>185.5</ele><time>2026-04-18T12:54:20.708Z</time></trkpt><trkpt lat="44.5423513" lon="10.6805376"><ele>184.0</ele><time>2026-04-18T12:54:21.712Z</time></trkpt><trkpt lat="44.5424765" lon="10.6805258"><ele>184.0</ele><time>2026-04-18T12:54:22.722Z</time></trkpt><trkpt lat="44.5426026" lon="10.680507"><ele>184.0</ele><time>2026-04-18T12:54:23.722Z</time></trkpt><trkpt lat="44.5427264" lon="10.6804801"><ele>184.0</ele><time>2026-04-18T12:54:24.715Z</time></trkpt><trkpt lat="44.5428469" lon="10.6804525"><ele>184.0</ele><time>2026-04-18T12:54:25.711Z</time></trkpt><trkpt lat="44.5429685" lon="10.6804154"><ele>182.25</ele><time>2026-04-18T12:54:26.712Z</time></trkpt><trkpt lat="44.5430852" lon="10.6803876"><ele>180.5</ele><time>2026-04-18T12:54:27.711Z</time></trkpt><trkpt lat="44.5431982" lon="10.6803413"><ele>178.75</ele><time>2026-04-18T12:54:28.707Z</time></trkpt><trkpt lat="44.5433109" lon="10.6802979"><ele>177.0</ele><time>2026-04-18T12:54:29.71Z</time></trkpt><trkpt lat="44.5434213" lon="10.6802487"><ele>177.0</ele><time>2026-04-18T12:54:30.706Z</time></trkpt><trkpt lat="44.5435253" lon="10.6801918"><ele>177.0</ele><time>2026-04-18T12:54:31.718Z</time></trkpt><trkpt lat="44.5436159" lon="10.6801198"><ele>177.0</ele><time>2026-04-18T12:54:32.722Z</time></trkpt><trkpt lat="44.5436955" lon="10.6800384"><ele>177.0</ele><time>2026-04-18T12:54:33.717Z</time></trkpt><trkpt lat="44.5437674" lon="10.6799511"><ele>177.0</ele><time>2026-04-18T12:54:34.71Z</time></trkpt><trkpt lat="44.5438325" lon="10.6798585"><ele>176.2</ele><time>2026-04-18T12:54:35.72Z</time></trkpt><trkpt lat="44.5438958" lon="10.6797712"><ele>175.39999999999998</ele><time>2026-04-18T12:54:36.711Z</time></trkpt><trkpt lat="44.5439623" lon="10.679697"><ele>174.60000000000002</ele><time>2026-04-18T12:54:37.704Z</time></trkpt><trkpt lat="44.5440206" lon="10.6796155"><ele>173.8</ele><time>2026-04-18T12:54:38.708Z</time></trkpt><trkpt lat="44.5440767" lon="10.6795203"><ele>173.0</ele><time>2026-04-18T12:54:39.71Z</time></trkpt><trkpt lat="44.5441145" lon="10.6793637"><ele>173.0</ele><time>2026-04-18T12:54:40.72Z</time></trkpt><trkpt lat="44.5441449" lon="10.6791961"><ele>173.0</ele><time>2026-04-18T12:54:41.708Z</time></trkpt><trkpt lat="44.5441672" lon="10.6790175"><ele>173.0</ele><time>2026-04-18T12:54:42.725Z</time></trkpt><trkpt lat="44.5442006" lon="10.6788505"><ele>173.0</ele><time>2026-04-18T12:54:43.705Z</time></trkpt><trkpt lat="44.5442512" lon="10.678723"><ele>173.0</ele><time>2026-04-18T12:54:44.703Z</time></trkpt><trkpt lat="44.5443165" lon="10.6786205"><ele>173.0</ele><time>2026-04-18T12:54:45.72Z</time></trkpt><trkpt lat="44.5443729" lon="10.6785326"><ele>173.0</ele><time>2026-04-18T12:54:46.721Z</time></trkpt><trkpt lat="44.5444391" lon="10.6784402"><ele>173.0</ele><time>2026-04-18T12:54:47.722Z</time></trkpt><trkpt lat="44.5445211" lon="10.6783464"><ele>173.0</ele><time>2026-04-18T12:54:48.721Z</time></trkpt><trkpt lat="44.5446304" lon="10.6782546"><ele>171.0</ele><time>2026-04-18T12:54:49.719Z</time></trkpt><trkpt lat="44.5447775" lon="10.678174"><ele>169.0</ele><time>2026-04-18T12:54:50.715Z</time></trkpt><trkpt lat="44.5449497" lon="10.6781018"><ele>167.0</ele><time>2026-04-18T12:54:51.723Z</time></trkpt><trkpt lat="44.5451411" lon="10.6780229"><ele>167.0</ele><time>2026-04-18T12:54:52.723Z</time></trkpt><trkpt lat="44.5453389" lon="10.6779221"><ele>167.0</ele><time>2026-04-18T12:54:53.716Z</time></trkpt><trkpt lat="44.5455317" lon="10.6778169"><ele>167.0</ele><time>2026-04-18T12:54:54.716Z</time></trkpt><trkpt lat="44.545717" lon="10.6776694"><ele>166.33333333333331</ele><time>2026-04-18T12:54:55.721Z</time></trkpt><trkpt lat="44.5458953" lon="10.6775233"><ele>165.66666666666666</ele><time>2026-04-18T12:54:56.719Z</time></trkpt><trkpt lat="44.546076" lon="10.6774117"><ele>165.0</ele><time>2026-04-18T12:54:57.712Z</time></trkpt><trkpt lat="44.5462518" lon="10.677309"><ele>164.0</ele><time>2026-04-18T12:54:58.71Z</time></trkpt><trkpt lat="44.5464275" lon="10.6771873"><ele>163.0</ele><time>2026-04-18T12:54:59.701Z</time></trkpt><trkpt lat="44.546592" lon="10.6770123"><ele>162.0</ele><time>2026-04-18T12:55:00.71Z</time></trkpt><trkpt lat="44.5467463" lon="10.6767848"><ele>161.33333333333334</ele><time>2026-04-18T12:55:01.72Z</time></trkpt><trkpt lat="44.5469" lon="10.6765517"><ele>160.66666666666669</ele><time>2026-04-18T12:55:02.718Z</time></trkpt><trkpt lat="44.5470494" lon="10.6763194"><ele>160.0</ele><time>2026-04-18T12:55:03.721Z</time></trkpt><trkpt lat="44.5472008" lon="10.6760738"><ele>158.0</ele><time>2026-04-18T12:55:04.725Z</time></trkpt><trkpt lat="44.547348" lon="10.6758427"><ele>156.0</ele><time>2026-04-18T12:55:05.72Z</time></trkpt><trkpt lat="44.5474998" lon="10.6756059"><ele>154.0</ele><time>2026-04-18T12:55:06.724Z</time></trkpt><trkpt lat="44.5476572" lon="10.6753657"><ele>154.5</ele><time>2026-04-18T12:55:07.709Z</time></trkpt><trkpt lat="44.5478177" lon="10.675125"><ele>155.0</ele><time>2026-04-18T12:55:08.724Z</time></trkpt><trkpt lat="44.5479764" lon="10.6748895"><ele>155.0</ele><time>2026-04-18T12:55:09.711Z</time></trkpt><trkpt lat="44.5481337" lon="10.6746551"><ele>155.0</ele><time>2026-04-18T12:55:10.72Z</time></trkpt><trkpt lat="44.5482896" lon="10.6744215"><ele>155.0</ele><time>2026-04-18T12:55:11.723Z</time></trkpt><trkpt lat="44.5484441" lon="10.6741881"><ele>155.0</ele><time>2026-04-18T12:55:12.724Z</time></trkpt><trkpt lat="44.5485994" lon="10.6739546"><ele>155.0</ele><time>2026-04-18T12:55:13.717Z</time></trkpt><trkpt lat="44.5487628" lon="10.6737298"><ele>155.0</ele><time>2026-04-18T12:55:14.713Z</time></trkpt><trkpt lat="44.5489231" lon="10.6735121"><ele>155.0</ele><time>2026-04-18T12:55:15.712Z</time></trkpt><trkpt lat="44.5490801" lon="10.6732819"><ele>155.0</ele><time>2026-04-18T12:55:16.706Z</time></trkpt><trkpt lat="44.5492332" lon="10.673048"><ele>155.0</ele><time>2026-04-18T12:55:17.711Z</time></trkpt><trkpt lat="44.5493783" lon="10.6728261"><ele>155.0</ele><time>2026-04-18T12:55:18.716Z</time></trkpt><trkpt lat="44.5495149" lon="10.6726124"><ele>155.0</ele><time>2026-04-18T12:55:19.717Z</time></trkpt><trkpt lat="44.5496409" lon="10.672389"><ele>155.66666666666666</ele><time>2026-04-18T12:55:20.722Z</time></trkpt><trkpt lat="44.5497577" lon="10.672155"><ele>156.33333333333334</ele><time>2026-04-18T12:55:21.723Z</time></trkpt><trkpt lat="44.549868" lon="10.6719005"><ele>157.0</ele><time>2026-04-18T12:55:22.719Z</time></trkpt><trkpt lat="44.5499784" lon="10.6716355"><ele>157.0</ele><time>2026-04-18T12:55:23.715Z</time></trkpt><trkpt lat="44.5500931" lon="10.6713695"><ele>157.0</ele><time>2026-04-18T12:55:24.725Z</time></trkpt><trkpt lat="44.5502144" lon="10.6711025"><ele>157.0</ele><time>2026-04-18T12:55:25.724Z</time></trkpt><trkpt lat="44.5503383" lon="10.6708317"><ele>157.0</ele><time>2026-04-18T12:55:26.709Z</time></trkpt><trkpt lat="44.5504638" lon="10.6705602"><ele>157.0</ele><time>2026-04-18T12:55:27.725Z</time></trkpt><trkpt lat="44.550588" lon="10.6702901"><ele>157.0</ele><time>2026-04-18T12:55:28.721Z</time></trkpt><trkpt lat="44.5507149" lon="10.670029"><ele>157.0</ele><time>2026-04-18T12:55:29.71Z</time></trkpt><trkpt lat="44.5508316" lon="10.6697805"><ele>157.0</ele><time>2026-04-18T12:55:30.722Z</time></trkpt><trkpt lat="44.5509428" lon="10.6695407"><ele>157.0</ele><time>2026-04-18T12:55:31.723Z</time></trkpt><trkpt lat="44.5510461" lon="10.6693227"><ele>157.0</ele><time>2026-04-18T12:55:32.711Z</time></trkpt><trkpt lat="44.5511463" lon="10.6691123"><ele>157.0</ele><time>2026-04-18T12:55:33.715Z</time></trkpt><trkpt lat="44.5512512" lon="10.6688909"><ele>157.0</ele><time>2026-04-18T12:55:34.711Z</time></trkpt><trkpt lat="44.5513546" lon="10.6686742"><ele>157.0</ele><time>2026-04-18T12:55:35.722Z</time></trkpt><trkpt lat="44.55146" lon="10.6684531"><ele>157.0</ele><time>2026-04-18T12:55:36.73Z</time></trkpt><trkpt lat="44.5515652" lon="10.668231"><ele>156.33333333333334</ele><time>2026-04-18T12:55:37.714Z</time></trkpt><trkpt lat="44.5516712" lon="10.6680112"><ele>155.66666666666666</ele><time>2026-04-18T12:55:38.706Z</time></trkpt><trkpt lat="44.5517785" lon="10.6677856"><ele>155.0</ele><time>2026-04-18T12:55:39.723Z</time></trkpt><trkpt lat="44.5519051" lon="10.6675433"><ele>154.66666666666666</ele><time>2026-04-18T12:55:40.726Z</time></trkpt><trkpt lat="44.5520316" lon="10.6672922"><ele>154.33333333333334</ele><time>2026-04-18T12:55:41.706Z</time></trkpt><trkpt lat="44.5521591" lon="10.6670333"><ele>154.0</ele><time>2026-04-18T12:55:42.72Z</time></trkpt><trkpt lat="44.5522832" lon="10.6667684"><ele>153.66666666666669</ele><time>2026-04-18T12:55:43.727Z</time></trkpt><trkpt lat="44.5523995" lon="10.6665212"><ele>153.33333333333334</ele><time>2026-04-18T12:55:44.727Z</time></trkpt><trkpt lat="44.5524997" lon="10.6662868"><ele>153.0</ele><time>2026-04-18T12:55:45.72Z</time></trkpt><trkpt lat="44.5525874" lon="10.6660604"><ele>152.33333333333334</ele><time>2026-04-18T12:55:46.725Z</time></trkpt><trkpt lat="44.5526342" lon="10.6658382"><ele>151.66666666666669</ele><time>2026-04-18T12:55:47.714Z</time></trkpt><trkpt lat="44.5526438" lon="10.6655978"><ele>151.0</ele><time>2026-04-18T12:55:48.708Z</time></trkpt><trkpt lat="44.5526191" lon="10.6653594"><ele>150.5</ele><time>2026-04-18T12:55:49.718Z</time></trkpt><trkpt lat="44.5525919" lon="10.6651559"><ele>150.0</ele><time>2026-04-18T12:55:50.715Z</time></trkpt><trkpt lat="44.5525708" lon="10.6649864"><ele>149.5</ele><time>2026-04-18T12:55:51.725Z</time></trkpt><trkpt lat="44.5525526" lon="10.6648374"><ele>149.0</ele><time>2026-04-18T12:55:52.73Z</time></trkpt><trkpt lat="44.5525245" lon="10.6646854"><ele>149.0</ele><time>2026-04-18T12:55:53.729Z</time></trkpt><trkpt lat="44.5524911" lon="10.6645152"><ele>149.0</ele><time>2026-04-18T12:55:54.727Z</time></trkpt><trkpt lat="44.5524603" lon="10.6643052"><ele>149.0</ele><time>2026-04-18T12:55:55.721Z</time></trkpt><trkpt lat="44.5524203" lon="10.6640755"><ele>149.0</ele><time>2026-04-18T12:55:56.705Z</time></trkpt><trkpt lat="44.5523564" lon="10.6638381"><ele>148.66666666666666</ele><time>2026-04-18T12:55:57.71Z</time></trkpt><trkpt lat="44.5522733" lon="10.6635943"><ele>148.33333333333334</ele><time>2026-04-18T12:55:58.715Z</time></trkpt><trkpt lat="44.5521527" lon="10.6633595"><ele>148.0</ele><time>2026-04-18T12:55:59.718Z</time></trkpt><trkpt lat="44.5520215" lon="10.6631386"><ele>148.0</ele><time>2026-04-18T12:56:00.725Z</time></trkpt><trkpt lat="44.5518955" lon="10.6629412"><ele>148.0</ele><time>2026-04-18T12:56:01.714Z</time></trkpt><trkpt lat="44.5517806" lon="10.6627511"><ele>148.0</ele><time>2026-04-18T12:56:02.709Z</time></trkpt><trkpt lat="44.5516779" lon="10.662581"><ele>147.8</ele><time>2026-04-18T12:56:03.706Z</time></trkpt><trkpt lat="44.5515938" lon="10.6624357"><ele>147.60000000000002</ele><time>2026-04-18T12:56:04.721Z</time></trkpt><trkpt lat="44.5515273" lon="10.6623205"><ele>147.39999999999998</ele><time>2026-04-18T12:56:05.709Z</time></trkpt><trkpt lat="44.5514715" lon="10.6622415"><ele>147.2</ele><time>2026-04-18T12:56:06.702Z</time></trkpt><trkpt lat="44.5513599" lon="10.6622234"><ele>147.0</ele><time>2026-04-18T12:56:08.711Z</time></trkpt><trkpt lat="44.5512985" lon="10.6622826"><ele>147.0</ele><time>2026-04-18T12:56:09.717Z</time></trkpt><trkpt lat="44.5512696" lon="10.6624115"><ele>147.0</ele><time>2026-04-18T12:56:10.721Z</time></trkpt><trkpt lat="44.5513041" lon="10.6625329"><ele>147.0</ele><time>2026-04-18T12:56:11.716Z</time></trkpt><trkpt lat="44.5513383" lon="10.6626642"><ele>147.0</ele><time>2026-04-18T12:56:12.717Z</time></trkpt><trkpt lat="44.5513644" lon="10.6627869"><ele>147.0</ele><time>2026-04-18T12:56:13.725Z</time></trkpt><trkpt lat="44.5513577" lon="10.6629073"><ele>147.25</ele><time>2026-04-18T12:56:14.717Z</time></trkpt><trkpt lat="44.5513148" lon="10.663028"><ele>147.5</ele><time>2026-04-18T12:56:15.722Z</time></trkpt><trkpt lat="44.5512579" lon="10.6631645"><ele>147.75</ele><time>2026-04-18T12:56:16.706Z</time></trkpt><trkpt lat="44.5511503" lon="10.6633289"><ele>148.0</ele><time>2026-04-18T12:56:17.721Z</time></trkpt><trkpt lat="44.5510429" lon="10.66351"><ele>148.33333333333334</ele><time>2026-04-18T12:56:18.711Z</time></trkpt><trkpt lat="44.550925" lon="10.663718"><ele>148.66666666666666</ele><time>2026-04-18T12:56:19.706Z</time></trkpt><trkpt lat="44.5508012" lon="10.6639474"><ele>149.0</ele><time>2026-04-18T12:56:20.71Z</time></trkpt><trkpt lat="44.5506961" lon="10.6641943"><ele>149.0</ele><time>2026-04-18T12:56:21.723Z</time></trkpt><trkpt lat="44.5505735" lon="10.6644222"><ele>149.0</ele><time>2026-04-18T12:56:22.719Z</time></trkpt><trkpt lat="44.5504499" lon="10.6646509"><ele>149.0</ele><time>2026-04-18T12:56:23.711Z</time></trkpt><trkpt lat="44.5503317" lon="10.6648754"><ele>149.66666666666666</ele><time>2026-04-18T12:56:24.711Z</time></trkpt><trkpt lat="44.5502115" lon="10.665112"><ele>150.33333333333334</ele><time>2026-04-18T12:56:25.704Z</time></trkpt><trkpt lat="44.5500925" lon="10.6653686"><ele>151.0</ele><time>2026-04-18T12:56:26.722Z</time></trkpt><trkpt lat="44.5499691" lon="10.6656381"><ele>151.0</ele><time>2026-04-18T12:56:27.707Z</time></trkpt><trkpt lat="44.5498454" lon="10.6659212"><ele>151.0</ele><time>2026-04-18T12:56:28.716Z</time></trkpt><trkpt lat="44.5497154" lon="10.6662159"><ele>152.0</ele><time>2026-04-18T12:56:29.719Z</time></trkpt><trkpt lat="44.5495753" lon="10.6665297"><ele>153.0</ele><time>2026-04-18T12:56:30.708Z</time></trkpt><trkpt lat="44.5494312" lon="10.6668513"><ele>151.0</ele><time>2026-04-18T12:56:31.712Z</time></trkpt><trkpt lat="44.5492835" lon="10.6671731"><ele>149.0</ele><time>2026-04-18T12:56:32.724Z</time></trkpt><trkpt lat="44.5491384" lon="10.6674916"><ele>149.0</ele><time>2026-04-18T12:56:33.709Z</time></trkpt><trkpt lat="44.5489949" lon="10.6678122"><ele>149.0</ele><time>2026-04-18T12:56:34.725Z</time></trkpt><trkpt lat="44.5488516" lon="10.6681266"><ele>149.0</ele><time>2026-04-18T12:56:35.713Z</time></trkpt><trkpt lat="44.5487127" lon="10.6684353"><ele>149.0</ele><time>2026-04-18T12:56:36.699Z</time></trkpt><trkpt lat="44.5485752" lon="10.6687387"><ele>151.0</ele><time>2026-04-18T12:56:37.7Z</time></trkpt><trkpt lat="44.5484452" lon="10.6690263"><ele>153.0</ele><time>2026-04-18T12:56:38.707Z</time></trkpt><trkpt lat="44.5483229" lon="10.6692962"><ele>152.33333333333334</ele><time>2026-04-18T12:56:39.711Z</time></trkpt><trkpt lat="44.5482043" lon="10.6695537"><ele>151.66666666666669</ele><time>2026-04-18T12:56:40.705Z</time></trkpt><trkpt lat="44.5480926" lon="10.6697873"><ele>151.0</ele><time>2026-04-18T12:56:41.709Z</time></trkpt><trkpt lat="44.5479829" lon="10.6699995"><ele>152.0</ele><time>2026-04-18T12:56:42.708Z</time></trkpt><trkpt lat="44.5478663" lon="10.670193"><ele>153.0</ele><time>2026-04-18T12:56:43.701Z</time></trkpt><trkpt lat="44.5477167" lon="10.6703607"><ele>154.0</ele><time>2026-04-18T12:56:44.72Z</time></trkpt><trkpt lat="44.5475577" lon="10.6705253"><ele>154.0</ele><time>2026-04-18T12:56:45.72Z</time></trkpt><trkpt lat="44.5473759" lon="10.6706663"><ele>154.0</ele><time>2026-04-18T12:56:46.711Z</time></trkpt><trkpt lat="44.5472018" lon="10.6708036"><ele>154.0</ele><time>2026-04-18T12:56:47.706Z</time></trkpt><trkpt lat="44.5470408" lon="10.6709398"><ele>154.0</ele><time>2026-04-18T12:56:48.719Z</time></trkpt><trkpt lat="44.5468839" lon="10.6710626"><ele>154.0</ele><time>2026-04-18T12:56:49.715Z</time></trkpt><trkpt lat="44.5467179" lon="10.6711597"><ele>154.0</ele><time>2026-04-18T12:56:50.714Z</time></trkpt><trkpt lat="44.5465399" lon="10.6712246"><ele>154.0</ele><time>2026-04-18T12:56:51.708Z</time></trkpt><trkpt lat="44.5463541" lon="10.6712666"><ele>154.0</ele><time>2026-04-18T12:56:52.725Z</time></trkpt><trkpt lat="44.5461591" lon="10.6713021"><ele>154.0</ele><time>2026-04-18T12:56:53.722Z</time></trkpt><trkpt lat="44.5459495" lon="10.6713338"><ele>155.0</ele><time>2026-04-18T12:56:54.727Z</time></trkpt><trkpt lat="44.5457351" lon="10.6713653"><ele>156.0</ele><time>2026-04-18T12:56:55.725Z</time></trkpt><trkpt lat="44.545508" lon="10.6714084"><ele>157.0</ele><time>2026-04-18T12:56:56.715Z</time></trkpt><trkpt lat="44.545268" lon="10.6714463"><ele>157.5</ele><time>2026-04-18T12:56:57.713Z</time></trkpt><trkpt lat="44.5450212" lon="10.6714866"><ele>158.0</ele><time>2026-04-18T12:56:58.722Z</time></trkpt><trkpt lat="44.5447737" lon="10.6715228"><ele>159.0</ele><time>2026-04-18T12:56:59.716Z</time></trkpt><trkpt lat="44.5445355" lon="10.6715659"><ele>160.0</ele><time>2026-04-18T12:57:00.72Z</time></trkpt><trkpt lat="44.5443131" lon="10.6716033"><ele>160.0</ele><time>2026-04-18T12:57:01.712Z</time></trkpt><trkpt lat="44.544102" lon="10.6716429"><ele>160.0</ele><time>2026-04-18T12:57:02.713Z</time></trkpt><trkpt lat="44.543904" lon="10.67168"><ele>160.0</ele><time>2026-04-18T12:57:03.714Z</time></trkpt><trkpt lat="44.5437178" lon="10.6717101"><ele>161.0</ele><time>2026-04-18T12:57:04.727Z</time></trkpt><trkpt lat="44.5435473" lon="10.6717304"><ele>162.0</ele><time>2026-04-18T12:57:05.702Z</time></trkpt><trkpt lat="44.5433799" lon="10.6717345"><ele>163.0</ele><time>2026-04-18T12:57:06.721Z</time></trkpt><trkpt lat="44.5432205" lon="10.6716993"><ele>163.0</ele><time>2026-04-18T12:57:07.715Z</time></trkpt><trkpt lat="44.543065" lon="10.6716204"><ele>163.0</ele><time>2026-04-18T12:57:08.714Z</time></trkpt><trkpt lat="44.5429038" lon="10.6715229"><ele>163.0</ele><time>2026-04-18T12:57:09.705Z</time></trkpt><trkpt lat="44.5427545" lon="10.6713863"><ele>162.33333333333334</ele><time>2026-04-18T12:57:10.704Z</time></trkpt><trkpt lat="44.5425956" lon="10.6712535"><ele>161.66666666666666</ele><time>2026-04-18T12:57:11.71Z</time></trkpt><trkpt lat="44.5424243" lon="10.6711175"><ele>161.0</ele><time>2026-04-18T12:57:12.718Z</time></trkpt><trkpt lat="44.5422495" lon="10.6709801"><ele>161.66666666666666</ele><time>2026-04-18T12:57:13.711Z</time></trkpt><trkpt lat="44.5420779" lon="10.6708373"><ele>162.33333333333334</ele><time>2026-04-18T12:57:14.715Z</time></trkpt><trkpt lat="44.5419064" lon="10.6706921"><ele>163.0</ele><time>2026-04-18T12:57:15.72Z</time></trkpt><trkpt lat="44.541739" lon="10.6705562"><ele>163.0</ele><time>2026-04-18T12:57:16.717Z</time></trkpt><trkpt lat="44.5415795" lon="10.6704259"><ele>163.0</ele><time>2026-04-18T12:57:17.707Z</time></trkpt><trkpt lat="44.5414265" lon="10.6703049"><ele>163.0</ele><time>2026-04-18T12:57:18.723Z</time></trkpt><trkpt lat="44.541286" lon="10.6701889"><ele>164.0</ele><time>2026-04-18T12:57:19.722Z</time></trkpt><trkpt lat="44.5411633" lon="10.670078"><ele>165.0</ele><time>2026-04-18T12:57:20.706Z</time></trkpt><trkpt lat="44.5410646" lon="10.6699373"><ele>166.0</ele><time>2026-04-18T12:57:21.721Z</time></trkpt><trkpt lat="44.5409691" lon="10.6697771"><ele>167.0</ele><time>2026-04-18T12:57:22.726Z</time></trkpt><trkpt lat="44.540886" lon="10.6695893"><ele>168.66666666666666</ele><time>2026-04-18T12:57:23.714Z</time></trkpt><trkpt lat="44.5408248" lon="10.6693619"><ele>170.33333333333334</ele><time>2026-04-18T12:57:24.727Z</time></trkpt><trkpt lat="44.540771" lon="10.6691246"><ele>172.0</ele><time>2026-04-18T12:57:25.719Z</time></trkpt><trkpt lat="44.5407277" lon="10.6688477"><ele>172.33333333333334</ele><time>2026-04-18T12:57:26.719Z</time></trkpt><trkpt lat="44.5406796" lon="10.668568"><ele>172.66666666666666</ele><time>2026-04-18T12:57:27.708Z</time></trkpt><trkpt lat="44.5406453" lon="10.6682733"><ele>173.0</ele><time>2026-04-18T12:57:28.721Z</time></trkpt><trkpt lat="44.5406072" lon="10.6679869"><ele>173.66666666666666</ele><time>2026-04-18T12:57:29.717Z</time></trkpt><trkpt lat="44.5405624" lon="10.6677029"><ele>174.33333333333334</ele><time>2026-04-18T12:57:30.716Z</time></trkpt><trkpt lat="44.5405169" lon="10.6674105"><ele>175.0</ele><time>2026-04-18T12:57:31.725Z</time></trkpt><trkpt lat="44.5404652" lon="10.6671283"><ele>174.33333333333334</ele><time>2026-04-18T12:57:32.722Z</time></trkpt><trkpt lat="44.5404364" lon="10.6668341"><ele>173.66666666666666</ele><time>2026-04-18T12:57:33.723Z</time></trkpt><trkpt lat="44.5404124" lon="10.6665696"><ele>173.0</ele><time>2026-04-18T12:57:34.718Z</time></trkpt><trkpt lat="44.5403774" lon="10.6663262"><ele>174.0</ele><time>2026-04-18T12:57:35.707Z</time></trkpt><trkpt lat="44.5403456" lon="10.6660967"><ele>175.0</ele><time>2026-04-18T12:57:36.72Z</time></trkpt><trkpt lat="44.540317" lon="10.6658769"><ele>176.0</ele><time>2026-04-18T12:57:37.723Z</time></trkpt><trkpt lat="44.540277" lon="10.6656525"><ele>176.0</ele><time>2026-04-18T12:57:38.72Z</time></trkpt><trkpt lat="44.5402305" lon="10.6654319"><ele>176.0</ele><time>2026-04-18T12:57:39.709Z</time></trkpt><trkpt lat="44.5401827" lon="10.6652154"><ele>176.0</ele><time>2026-04-18T12:57:40.718Z</time></trkpt><trkpt lat="44.5401283" lon="10.6649952"><ele>176.0</ele><time>2026-04-18T12:57:41.709Z</time></trkpt><trkpt lat="44.5400628" lon="10.6647701"><ele>176.0</ele><time>2026-04-18T12:57:42.719Z</time></trkpt><trkpt lat="44.5399891" lon="10.6645262"><ele>176.0</ele><time>2026-04-18T12:57:43.71Z</time></trkpt><trkpt lat="44.5399027" lon="10.6642902"><ele>176.66666666666666</ele><time>2026-04-18T12:57:44.711Z</time></trkpt><trkpt lat="44.5398039" lon="10.6640571"><ele>177.33333333333334</ele><time>2026-04-18T12:57:45.73Z</time></trkpt><trkpt lat="44.5397052" lon="10.6638267"><ele>178.0</ele><time>2026-04-18T12:57:46.712Z</time></trkpt><trkpt lat="44.5396162" lon="10.6635932"><ele>176.33333333333334</ele><time>2026-04-18T12:57:47.712Z</time></trkpt><trkpt lat="44.5395389" lon="10.6633445"><ele>174.66666666666666</ele><time>2026-04-18T12:57:48.711Z</time></trkpt><trkpt lat="44.5394653" lon="10.6630949"><ele>173.0</ele><time>2026-04-18T12:57:49.712Z</time></trkpt><trkpt lat="44.5394076" lon="10.6628284"><ele>173.0</ele><time>2026-04-18T12:57:50.714Z</time></trkpt><trkpt lat="44.5393582" lon="10.6625556"><ele>173.0</ele><time>2026-04-18T12:57:51.714Z</time></trkpt><trkpt lat="44.5393246" lon="10.6622718"><ele>173.0</ele><time>2026-04-18T12:57:52.714Z</time></trkpt><trkpt lat="44.539307" lon="10.6619784"><ele>173.33333333333331</ele><time>2026-04-18T12:57:53.708Z</time></trkpt><trkpt lat="44.539293" lon="10.6616889"><ele>173.66666666666666</ele><time>2026-04-18T12:57:54.723Z</time></trkpt><trkpt lat="44.5392857" lon="10.6614148"><ele>174.0</ele><time>2026-04-18T12:57:55.705Z</time></trkpt><trkpt lat="44.5392801" lon="10.6611516"><ele>174.66666666666666</ele><time>2026-04-18T12:57:56.712Z</time></trkpt><trkpt lat="44.5392675" lon="10.6609032"><ele>175.33333333333331</ele><time>2026-04-18T12:57:57.722Z</time></trkpt><trkpt lat="44.5392414" lon="10.6606668"><ele>176.0</ele><time>2026-04-18T12:57:58.728Z</time></trkpt><trkpt lat="44.5392015" lon="10.6604449"><ele>176.25</ele><time>2026-04-18T12:57:59.73Z</time></trkpt><trkpt lat="44.5391624" lon="10.6602376"><ele>176.5</ele><time>2026-04-18T12:58:00.713Z</time></trkpt><trkpt lat="44.5391325" lon="10.6600423"><ele>176.75</ele><time>2026-04-18T12:58:01.71Z</time></trkpt><trkpt lat="44.5391146" lon="10.6598533"><ele>177.0</ele><time>2026-04-18T12:58:02.703Z</time></trkpt><trkpt lat="44.5391079" lon="10.6596508"><ele>177.25</ele><time>2026-04-18T12:58:03.711Z</time></trkpt><trkpt lat="44.5391381" lon="10.6594359"><ele>177.5</ele><time>2026-04-18T12:58:04.718Z</time></trkpt><trkpt lat="44.5391759" lon="10.6592269"><ele>177.75</ele><time>2026-04-18T12:58:05.719Z</time></trkpt><trkpt lat="44.5392118" lon="10.6590464"><ele>178.0</ele><time>2026-04-18T12:58:06.704Z</time></trkpt><trkpt lat="44.5392477" lon="10.6588731"><ele>178.0</ele><time>2026-04-18T12:58:07.711Z</time></trkpt><trkpt lat="44.5392972" lon="10.6587195"><ele>178.0</ele><time>2026-04-18T12:58:08.705Z</time></trkpt><trkpt lat="44.5393552" lon="10.6585801"><ele>178.0</ele><time>2026-04-18T12:58:09.718Z</time></trkpt><trkpt lat="44.539433" lon="10.6584432"><ele>178.0</ele><time>2026-04-18T12:58:10.703Z</time></trkpt><trkpt lat="44.5395138" lon="10.6583002"><ele>179.5</ele><time>2026-04-18T12:58:11.711Z</time></trkpt><trkpt lat="44.5396068" lon="10.6581567"><ele>181.0</ele><time>2026-04-18T12:58:12.707Z</time></trkpt><trkpt lat="44.5397039" lon="10.6580115"><ele>182.5</ele><time>2026-04-18T12:58:13.717Z</time></trkpt><trkpt lat="44.5397992" lon="10.6578651"><ele>184.0</ele><time>2026-04-18T12:58:14.717Z</time></trkpt><trkpt lat="44.5399126" lon="10.657743"><ele>184.0</ele><time>2026-04-18T12:58:15.717Z</time></trkpt><trkpt lat="44.5400431" lon="10.6576283"><ele>184.0</ele><time>2026-04-18T12:58:16.707Z</time></trkpt><trkpt lat="44.5401806" lon="10.6575092"><ele>184.0</ele><time>2026-04-18T12:58:17.71Z</time></trkpt><trkpt lat="44.5403072" lon="10.6573688"><ele>186.0</ele><time>2026-04-18T12:58:18.706Z</time></trkpt><trkpt lat="44.5404203" lon="10.6571943"><ele>188.0</ele><time>2026-04-18T12:58:19.712Z</time></trkpt><trkpt lat="44.540527" lon="10.6569862"><ele>190.0</ele><time>2026-04-18T12:58:20.715Z</time></trkpt><trkpt lat="44.5406082" lon="10.6567452"><ele>190.0</ele><time>2026-04-18T12:58:21.712Z</time></trkpt><trkpt lat="44.5406654" lon="10.6564898"><ele>190.0</ele><time>2026-04-18T12:58:22.715Z</time></trkpt><trkpt lat="44.5407193" lon="10.6562347"><ele>190.0</ele><time>2026-04-18T12:58:23.701Z</time></trkpt><trkpt lat="44.5407767" lon="10.655981"><ele>188.66666666666669</ele><time>2026-04-18T12:58:24.707Z</time></trkpt><trkpt lat="44.5408382" lon="10.6557239"><ele>187.33333333333334</ele><time>2026-04-18T12:58:25.71Z</time></trkpt><trkpt lat="44.5408985" lon="10.655462"><ele>186.0</ele><time>2026-04-18T12:58:26.721Z</time></trkpt><trkpt lat="44.5409667" lon="10.6552004"><ele>185.66666666666666</ele><time>2026-04-18T12:58:27.719Z</time></trkpt><trkpt lat="44.5410435" lon="10.6549358"><ele>185.33333333333331</ele><time>2026-04-18T12:58:28.702Z</time></trkpt><trkpt lat="44.5411254" lon="10.6546603"><ele>185.0</ele><time>2026-04-18T12:58:29.716Z</time></trkpt><trkpt lat="44.5412066" lon="10.6543789"><ele>186.66666666666666</ele><time>2026-04-18T12:58:30.721Z</time></trkpt><trkpt lat="44.541273" lon="10.6540875"><ele>188.33333333333334</ele><time>2026-04-18T12:58:31.714Z</time></trkpt><trkpt lat="44.5413261" lon="10.6537865"><ele>190.0</ele><time>2026-04-18T12:58:32.702Z</time></trkpt><trkpt lat="44.5413703" lon="10.6534796"><ele>190.0</ele><time>2026-04-18T12:58:33.714Z</time></trkpt><trkpt lat="44.5414113" lon="10.6531793"><ele>190.0</ele><time>2026-04-18T12:58:34.718Z</time></trkpt><trkpt lat="44.5414563" lon="10.6528869"><ele>190.0</ele><time>2026-04-18T12:58:35.723Z</time></trkpt><trkpt lat="44.541505" lon="10.6525987"><ele>189.0</ele><time>2026-04-18T12:58:36.722Z</time></trkpt><trkpt lat="44.5415678" lon="10.6523184"><ele>188.0</ele><time>2026-04-18T12:58:37.712Z</time></trkpt><trkpt lat="44.5416298" lon="10.652033"><ele>187.0</ele><time>2026-04-18T12:58:38.704Z</time></trkpt><trkpt lat="44.5416917" lon="10.6517515"><ele>187.0</ele><time>2026-04-18T12:58:39.713Z</time></trkpt><trkpt lat="44.5417568" lon="10.6514947"><ele>187.0</ele><time>2026-04-18T12:58:40.716Z</time></trkpt><trkpt lat="44.5418249" lon="10.651272"><ele>187.0</ele><time>2026-04-18T12:58:41.696Z</time></trkpt><trkpt lat="44.5418892" lon="10.6510826"><ele>187.5</ele><time>2026-04-18T12:58:42.704Z</time></trkpt><trkpt lat="44.5419603" lon="10.6509592"><ele>188.0</ele><time>2026-04-18T12:58:43.713Z</time></trkpt><trkpt lat="44.5420471" lon="10.6508854"><ele>188.5</ele><time>2026-04-18T12:58:44.711Z</time></trkpt><trkpt lat="44.5421688" lon="10.6508779"><ele>189.0</ele><time>2026-04-18T12:58:45.723Z</time></trkpt><trkpt lat="44.5422857" lon="10.6508847"><ele>190.75</ele><time>2026-04-18T12:58:46.711Z</time></trkpt><trkpt lat="44.542396" lon="10.6508621"><ele>192.5</ele><time>2026-04-18T12:58:47.707Z</time></trkpt><trkpt lat="44.542499" lon="10.6507661"><ele>194.25</ele><time>2026-04-18T12:58:48.695Z</time></trkpt><trkpt lat="44.5426015" lon="10.6506266"><ele>196.0</ele><time>2026-04-18T12:58:49.699Z</time></trkpt><trkpt lat="44.5427129" lon="10.650428"><ele>195.66666666666666</ele><time>2026-04-18T12:58:50.705Z</time></trkpt><trkpt lat="44.5428314" lon="10.6502079"><ele>195.33333333333331</ele><time>2026-04-18T12:58:51.715Z</time></trkpt><trkpt lat="44.5429536" lon="10.6499841"><ele>195.0</ele><time>2026-04-18T12:58:52.721Z</time></trkpt><trkpt lat="44.5430685" lon="10.6497629"><ele>195.66666666666669</ele><time>2026-04-18T12:58:53.724Z</time></trkpt><trkpt lat="44.5431686" lon="10.6495412"><ele>196.33333333333334</ele><time>2026-04-18T12:58:54.714Z</time></trkpt><trkpt lat="44.5432605" lon="10.6493154"><ele>197.0</ele><time>2026-04-18T12:58:55.718Z</time></trkpt><trkpt lat="44.5433408" lon="10.649083"><ele>197.0</ele><time>2026-04-18T12:58:56.717Z</time></trkpt><trkpt lat="44.5434089" lon="10.6488516"><ele>197.0</ele><time>2026-04-18T12:58:57.721Z</time></trkpt><trkpt lat="44.5434659" lon="10.6486351"><ele>197.0</ele><time>2026-04-18T12:58:58.723Z</time></trkpt><trkpt lat="44.5435103" lon="10.648441"><ele>196.8</ele><time>2026-04-18T12:58:59.707Z</time></trkpt><trkpt lat="44.5435473" lon="10.6482619"><ele>196.6</ele><time>2026-04-18T12:59:00.712Z</time></trkpt><trkpt lat="44.5435749" lon="10.6481179"><ele>196.4</ele><time>2026-04-18T12:59:01.713Z</time></trkpt><trkpt lat="44.543597" lon="10.6480092"><ele>196.20000000000002</ele><time>2026-04-18T12:59:02.707Z</time></trkpt><trkpt lat="44.5436635" lon="10.6479194"><ele>196.0</ele><time>2026-04-18T12:59:04.719Z</time></trkpt><trkpt lat="44.5437479" lon="10.6479221"><ele>197.0</ele><time>2026-04-18T12:59:05.72Z</time></trkpt><trkpt lat="44.5438532" lon="10.6479458"><ele>198.0</ele><time>2026-04-18T12:59:06.707Z</time></trkpt><trkpt lat="44.5439853" lon="10.6479981"><ele>199.0</ele><time>2026-04-18T12:59:07.707Z</time></trkpt><trkpt lat="44.5441364" lon="10.6480638"><ele>200.0</ele><time>2026-04-18T12:59:08.708Z</time></trkpt><trkpt lat="44.544291" lon="10.6481303"><ele>200.0</ele><time>2026-04-18T12:59:09.708Z</time></trkpt><trkpt lat="44.5444416" lon="10.6481985"><ele>200.0</ele><time>2026-04-18T12:59:10.709Z</time></trkpt><trkpt lat="44.5445736" lon="10.6482616"><ele>200.0</ele><time>2026-04-18T12:59:11.71Z</time></trkpt><trkpt lat="44.5446902" lon="10.6483052"><ele>200.0</ele><time>2026-04-18T12:59:12.728Z</time></trkpt><trkpt lat="44.5447965" lon="10.648305"><ele>202.25</ele><time>2026-04-18T12:59:13.71Z</time></trkpt><trkpt lat="44.5448886" lon="10.6482377"><ele>204.5</ele><time>2026-04-18T12:59:14.714Z</time></trkpt><trkpt lat="44.5449548" lon="10.6481023"><ele>206.75</ele><time>2026-04-18T12:59:15.717Z</time></trkpt><trkpt lat="44.5449913" lon="10.6479356"><ele>209.0</ele><time>2026-04-18T12:59:16.72Z</time></trkpt><trkpt lat="44.5450425" lon="10.6477494"><ele>209.0</ele><time>2026-04-18T12:59:17.713Z</time></trkpt><trkpt lat="44.5451274" lon="10.6475598"><ele>209.0</ele><time>2026-04-18T12:59:18.706Z</time></trkpt><trkpt lat="44.5452117" lon="10.6473733"><ele>209.0</ele><time>2026-04-18T12:59:19.708Z</time></trkpt><trkpt lat="44.545271" lon="10.6471785"><ele>209.0</ele><time>2026-04-18T12:59:20.711Z</time></trkpt><trkpt lat="44.5453146" lon="10.6469649"><ele>209.0</ele><time>2026-04-18T12:59:21.723Z</time></trkpt><trkpt lat="44.5453497" lon="10.6467623"><ele>209.0</ele><time>2026-04-18T12:59:22.716Z</time></trkpt><trkpt lat="44.5453763" lon="10.6465824"><ele>209.0</ele><time>2026-04-18T12:59:23.712Z</time></trkpt><trkpt lat="44.5453916" lon="10.646442"><ele>211.50000000000003</ele><time>2026-04-18T12:59:24.717Z</time></trkpt><trkpt lat="44.5454086" lon="10.6463478"><ele>214.0</ele><time>2026-04-18T12:59:25.715Z</time></trkpt><trkpt lat="44.545464" lon="10.6462659"><ele>216.5</ele><time>2026-04-18T12:59:27.708Z</time></trkpt><trkpt lat="44.5455422" lon="10.6463638"><ele>219.0</ele><time>2026-04-18T12:59:29.708Z</time></trkpt><trkpt lat="44.545571" lon="10.6464729"><ele>221.50000000000003</ele><time>2026-04-18T12:59:30.723Z</time></trkpt><trkpt lat="44.545611" lon="10.646615"><ele>224.0</ele><time>2026-04-18T12:59:31.721Z</time></trkpt><trkpt lat="44.5456647" lon="10.646766"><ele>224.0</ele><time>2026-04-18T12:59:32.705Z</time></trkpt><trkpt lat="44.5457195" lon="10.646936"><ele>224.0</ele><time>2026-04-18T12:59:33.711Z</time></trkpt><trkpt lat="44.5457742" lon="10.6471005"><ele>224.0</ele><time>2026-04-18T12:59:34.715Z</time></trkpt><trkpt lat="44.5458134" lon="10.6472681"><ele>224.0</ele><time>2026-04-18T12:59:35.712Z</time></trkpt><trkpt lat="44.5458371" lon="10.6474286"><ele>224.16666666666669</ele><time>2026-04-18T12:59:36.712Z</time></trkpt><trkpt lat="44.5458495" lon="10.6475734"><ele>224.33333333333334</ele><time>2026-04-18T12:59:37.723Z</time></trkpt><trkpt lat="44.5458657" lon="10.647677"><ele>224.5</ele><time>2026-04-18T12:59:38.712Z</time></trkpt><trkpt lat="44.5458748" lon="10.647765"><ele>224.66666666666669</ele><time>2026-04-18T12:59:39.716Z</time></trkpt><trkpt lat="44.5459268" lon="10.6478166"><ele>224.83333333333334</ele><time>2026-04-18T12:59:42.716Z</time></trkpt><trkpt lat="44.5459787" lon="10.6477385"><ele>225.0</ele><time>2026-04-18T13:00:01.717Z</time></trkpt><trkpt lat="44.5460107" lon="10.647645"><ele>225.0</ele><time>2026-04-18T13:00:02.706Z</time></trkpt><trkpt lat="44.5460197" lon="10.6475266"><ele>225.0</ele><time>2026-04-18T13:00:03.703Z</time></trkpt><trkpt lat="44.5460274" lon="10.6473871"><ele>225.0</ele><time>2026-04-18T13:00:04.712Z</time></trkpt><trkpt lat="44.5460241" lon="10.6472359"><ele>225.0</ele><time>2026-04-18T13:00:05.713Z</time></trkpt><trkpt lat="44.5460473" lon="10.6470527"><ele>225.0</ele><time>2026-04-18T13:00:06.702Z</time></trkpt><trkpt lat="44.5460658" lon="10.6468409"><ele>225.0</ele><time>2026-04-18T13:00:07.697Z</time></trkpt><trkpt lat="44.5460766" lon="10.6466036"><ele>225.0</ele><time>2026-04-18T13:00:08.703Z</time></trkpt><trkpt lat="44.5461028" lon="10.6463296"><ele>225.0</ele><time>2026-04-18T13:00:09.714Z</time></trkpt><trkpt lat="44.5461022" lon="10.6460381"><ele>225.0</ele><time>2026-04-18T13:00:10.706Z</time></trkpt><trkpt lat="44.5460944" lon="10.6457402"><ele>225.0</ele><time>2026-04-18T13:00:11.722Z</time></trkpt><trkpt lat="44.5460856" lon="10.6454537"><ele>225.0</ele><time>2026-04-18T13:00:12.714Z</time></trkpt><trkpt lat="44.5460766" lon="10.6451753"><ele>223.33333333333331</ele><time>2026-04-18T13:00:13.709Z</time></trkpt><trkpt lat="44.5460745" lon="10.6449031"><ele>221.66666666666666</ele><time>2026-04-18T13:00:14.708Z</time></trkpt><trkpt lat="44.5460901" lon="10.6446417"><ele>220.0</ele><time>2026-04-18T13:00:15.716Z</time></trkpt><trkpt lat="44.5461152" lon="10.6443941"><ele>219.33333333333331</ele><time>2026-04-18T13:00:16.72Z</time></trkpt><trkpt lat="44.546172" lon="10.6441796"><ele>218.66666666666669</ele><time>2026-04-18T13:00:17.705Z</time></trkpt><trkpt lat="44.5462302" lon="10.6439865"><ele>218.0</ele><time>2026-04-18T13:00:18.718Z</time></trkpt><trkpt lat="44.5462722" lon="10.6437984"><ele>221.25</ele><time>2026-04-18T13:00:19.716Z</time></trkpt><trkpt lat="44.5462843" lon="10.643603"><ele>224.5</ele><time>2026-04-18T13:00:20.718Z</time></trkpt><trkpt lat="44.5462876" lon="10.643407"><ele>227.75</ele><time>2026-04-18T13:00:21.718Z</time></trkpt><trkpt lat="44.5462633" lon="10.6432171"><ele>231.0</ele><time>2026-04-18T13:00:22.706Z</time></trkpt><trkpt lat="44.5462342" lon="10.643028"><ele>228.25</ele><time>2026-04-18T13:00:23.709Z</time></trkpt><trkpt lat="44.5462056" lon="10.6428234"><ele>225.5</ele><time>2026-04-18T13:00:24.721Z</time></trkpt><trkpt lat="44.5462024" lon="10.6426159"><ele>222.75</ele><time>2026-04-18T13:00:25.701Z</time></trkpt><trkpt lat="44.5462056" lon="10.6424111"><ele>220.0</ele><time>2026-04-18T13:00:26.723Z</time></trkpt><trkpt lat="44.5461864" lon="10.6422069"><ele>220.0</ele><time>2026-04-18T13:00:27.716Z</time></trkpt><trkpt lat="44.5461614" lon="10.6420028"><ele>220.0</ele><time>2026-04-18T13:00:28.714Z</time></trkpt><trkpt lat="44.5461458" lon="10.6417959"><ele>220.0</ele><time>2026-04-18T13:00:29.721Z</time></trkpt><trkpt lat="44.5461373" lon="10.6415853"><ele>220.0</ele><time>2026-04-18T13:00:30.715Z</time></trkpt><trkpt lat="44.546144" lon="10.6413727"><ele>220.66666666666666</ele><time>2026-04-18T13:00:31.708Z</time></trkpt><trkpt lat="44.546171" lon="10.6411588"><ele>221.33333333333331</ele><time>2026-04-18T13:00:32.719Z</time></trkpt><trkpt lat="44.5462006" lon="10.6409458"><ele>222.0</ele><time>2026-04-18T13:00:33.713Z</time></trkpt><trkpt lat="44.546226" lon="10.6407416"><ele>225.33333333333331</ele><time>2026-04-18T13:00:34.716Z</time></trkpt><trkpt lat="44.5463002" lon="10.6405306"><ele>228.66666666666666</ele><time>2026-04-18T13:00:35.72Z</time></trkpt><trkpt lat="44.5463823" lon="10.640331"><ele>232.0</ele><time>2026-04-18T13:00:36.717Z</time></trkpt><trkpt lat="44.5464455" lon="10.6401444"><ele>232.0</ele><time>2026-04-18T13:00:37.713Z</time></trkpt><trkpt lat="44.5464932" lon="10.639944"><ele>232.0</ele><time>2026-04-18T13:00:38.712Z</time></trkpt><trkpt lat="44.54653" lon="10.6397389"><ele>232.0</ele><time>2026-04-18T13:00:39.712Z</time></trkpt><trkpt lat="44.546537" lon="10.6395341"><ele>232.0</ele><time>2026-04-18T13:00:40.723Z</time></trkpt><trkpt lat="44.5465312" lon="10.6393313"><ele>232.5</ele><time>2026-04-18T13:00:41.718Z</time></trkpt><trkpt lat="44.546521" lon="10.6391235"><ele>233.0</ele><time>2026-04-18T13:00:42.716Z</time></trkpt><trkpt lat="44.5465226" lon="10.6389192"><ele>233.5</ele><time>2026-04-18T13:00:43.706Z</time></trkpt><trkpt lat="44.5465148" lon="10.6387317"><ele>234.0</ele><time>2026-04-18T13:00:44.714Z</time></trkpt><trkpt lat="44.54652" lon="10.6385491"><ele>233.0</ele><time>2026-04-18T13:00:45.715Z</time></trkpt><trkpt lat="44.5465446" lon="10.6383609"><ele>232.0</ele><time>2026-04-18T13:00:46.716Z</time></trkpt><trkpt lat="44.5466097" lon="10.6381932"><ele>231.0</ele><time>2026-04-18T13:00:47.715Z</time></trkpt><trkpt lat="44.5466986" lon="10.638049"><ele>230.0</ele><time>2026-04-18T13:00:48.703Z</time></trkpt><trkpt lat="44.5467999" lon="10.6378964"><ele>232.25</ele><time>2026-04-18T13:00:49.72Z</time></trkpt><trkpt lat="44.5468885" lon="10.6377406"><ele>234.5</ele><time>2026-04-18T13:00:50.711Z</time></trkpt><trkpt lat="44.5469637" lon="10.6375723"><ele>236.75</ele><time>2026-04-18T13:00:51.721Z</time></trkpt><trkpt lat="44.5470206" lon="10.6374056"><ele>239.0</ele><time>2026-04-18T13:00:52.72Z</time></trkpt><trkpt lat="44.5470785" lon="10.6372301"><ele>239.0</ele><time>2026-04-18T13:00:53.702Z</time></trkpt><trkpt lat="44.5471392" lon="10.6370687"><ele>239.0</ele><time>2026-04-18T13:00:54.705Z</time></trkpt><trkpt lat="44.5472093" lon="10.6368906"><ele>239.0</ele><time>2026-04-18T13:00:55.712Z</time></trkpt><trkpt lat="44.547281" lon="10.6367189"><ele>239.0</ele><time>2026-04-18T13:00:56.717Z</time></trkpt><trkpt lat="44.5473395" lon="10.636564"><ele>237.75</ele><time>2026-04-18T13:00:57.716Z</time></trkpt><trkpt lat="44.5473809" lon="10.6364179"><ele>236.5</ele><time>2026-04-18T13:00:58.718Z</time></trkpt><trkpt lat="44.5474065" lon="10.6362486"><ele>235.25</ele><time>2026-04-18T13:00:59.71Z</time></trkpt><trkpt lat="44.5474213" lon="10.6360903"><ele>234.0</ele><time>2026-04-18T13:01:00.699Z</time></trkpt><trkpt lat="44.5474185" lon="10.6359058"><ele>233.25</ele><time>2026-04-18T13:01:01.713Z</time></trkpt><trkpt lat="44.5474072" lon="10.6357287"><ele>232.5</ele><time>2026-04-18T13:01:02.694Z</time></trkpt><trkpt lat="44.5474072" lon="10.6355447"><ele>231.75</ele><time>2026-04-18T13:01:03.717Z</time></trkpt><trkpt lat="44.5474272" lon="10.6353739"><ele>231.0</ele><time>2026-04-18T13:01:04.718Z</time></trkpt><trkpt lat="44.5474567" lon="10.6351769"><ele>231.0</ele><time>2026-04-18T13:01:05.71Z</time></trkpt><trkpt lat="44.5474455" lon="10.6350069"><ele>231.0</ele><time>2026-04-18T13:01:06.723Z</time></trkpt><trkpt lat="44.547419" lon="10.6348306"><ele>231.0</ele><time>2026-04-18T13:01:07.706Z</time></trkpt><trkpt lat="44.5473849" lon="10.634653"><ele>231.0</ele><time>2026-04-18T13:01:08.715Z</time></trkpt><trkpt lat="44.5473936" lon="10.6344687"><ele>230.5</ele><time>2026-04-18T13:01:09.719Z</time></trkpt><trkpt lat="44.5474131" lon="10.6342791"><ele>230.0</ele><time>2026-04-18T13:01:10.711Z</time></trkpt><trkpt lat="44.5474603" lon="10.6340899"><ele>229.5</ele><time>2026-04-18T13:01:11.711Z</time></trkpt><trkpt lat="44.5475492" lon="10.6339193"><ele>229.0</ele><time>2026-04-18T13:01:12.715Z</time></trkpt><trkpt lat="44.5476454" lon="10.6337383"><ele>226.33333333333331</ele><time>2026-04-18T13:01:13.711Z</time></trkpt><trkpt lat="44.5477221" lon="10.63354"><ele>223.66666666666669</ele><time>2026-04-18T13:01:14.707Z</time></trkpt><trkpt lat="44.5477909" lon="10.6333407"><ele>221.0</ele><time>2026-04-18T13:01:15.712Z</time></trkpt><trkpt lat="44.5478275" lon="10.6331376"><ele>221.0</ele><time>2026-04-18T13:01:16.707Z</time></trkpt><trkpt lat="44.5478608" lon="10.6329399"><ele>221.0</ele><time>2026-04-18T13:01:17.724Z</time></trkpt><trkpt lat="44.5478934" lon="10.632746"><ele>221.0</ele><time>2026-04-18T13:01:18.699Z</time></trkpt><trkpt lat="44.5479225" lon="10.6325525"><ele>221.0</ele><time>2026-04-18T13:01:19.707Z</time></trkpt><trkpt lat="44.5479419" lon="10.6323667"><ele>224.25</ele><time>2026-04-18T13:01:20.711Z</time></trkpt><trkpt lat="44.5479494" lon="10.6321863"><ele>227.5</ele><time>2026-04-18T13:01:21.696Z</time></trkpt><trkpt lat="44.5479771" lon="10.6320054"><ele>230.75</ele><time>2026-04-18T13:01:22.714Z</time></trkpt><trkpt lat="44.547986" lon="10.6318248"><ele>234.0</ele><time>2026-04-18T13:01:23.698Z</time></trkpt><trkpt lat="44.5479698" lon="10.6316398"><ele>234.0</ele><time>2026-04-18T13:01:24.718Z</time></trkpt><trkpt lat="44.5479299" lon="10.6314539"><ele>234.0</ele><time>2026-04-18T13:01:25.705Z</time></trkpt><trkpt lat="44.5478737" lon="10.6312854"><ele>234.0</ele><time>2026-04-18T13:01:26.713Z</time></trkpt><trkpt lat="44.5478159" lon="10.6311346"><ele>234.0</ele><time>2026-04-18T13:01:27.707Z</time></trkpt><trkpt lat="44.5477611" lon="10.6309912"><ele>231.79999999999998</ele><time>2026-04-18T13:01:28.695Z</time></trkpt><trkpt lat="44.5477042" lon="10.630851"><ele>229.59999999999997</ele><time>2026-04-18T13:01:29.702Z</time></trkpt><trkpt lat="44.5476486" lon="10.630731"><ele>227.4</ele><time>2026-04-18T13:01:30.712Z</time></trkpt><trkpt lat="44.5476061" lon="10.6306172"><ele>225.2</ele><time>2026-04-18T13:01:31.707Z</time></trkpt><trkpt lat="44.5475627" lon="10.6305057"><ele>223.0</ele><time>2026-04-18T13:01:32.717Z</time></trkpt><trkpt lat="44.5475071" lon="10.6303994"><ele>224.0</ele><time>2026-04-18T13:01:33.72Z</time></trkpt><trkpt lat="44.5474492" lon="10.6302913"><ele>225.0</ele><time>2026-04-18T13:01:34.705Z</time></trkpt><trkpt lat="44.5473884" lon="10.6301769"><ele>226.0</ele><time>2026-04-18T13:01:35.717Z</time></trkpt><trkpt lat="44.5473387" lon="10.6300491"><ele>227.0</ele><time>2026-04-18T13:01:36.711Z</time></trkpt><trkpt lat="44.5472991" lon="10.6299083"><ele>228.0</ele><time>2026-04-18T13:01:37.703Z</time></trkpt><trkpt lat="44.5472609" lon="10.6297733"><ele>228.0</ele><time>2026-04-18T13:01:38.697Z</time></trkpt><trkpt lat="44.5472264" lon="10.6296271"><ele>228.0</ele><time>2026-04-18T13:01:39.712Z</time></trkpt><trkpt lat="44.5472007" lon="10.6294765"><ele>228.0</ele><time>2026-04-18T13:01:40.721Z</time></trkpt><trkpt lat="44.5471772" lon="10.6293142"><ele>228.0</ele><time>2026-04-18T13:01:41.705Z</time></trkpt><trkpt lat="44.5471805" lon="10.6291445"><ele>228.25</ele><time>2026-04-18T13:01:42.7Z</time></trkpt><trkpt lat="44.5471872" lon="10.6289677"><ele>228.5</ele><time>2026-04-18T13:01:43.704Z</time></trkpt><trkpt lat="44.5472015" lon="10.628784"><ele>228.75</ele><time>2026-04-18T13:01:44.718Z</time></trkpt><trkpt lat="44.5472218" lon="10.6286026"><ele>229.0</ele><time>2026-04-18T13:01:45.719Z</time></trkpt><trkpt lat="44.5472433" lon="10.628419"><ele>229.5</ele><time>2026-04-18T13:01:46.702Z</time></trkpt><trkpt lat="44.5472469" lon="10.6282275"><ele>230.0</ele><time>2026-04-18T13:01:47.701Z</time></trkpt><trkpt lat="44.5472351" lon="10.6280378"><ele>230.5</ele><time>2026-04-18T13:01:48.697Z</time></trkpt><trkpt lat="44.5472202" lon="10.6278541"><ele>231.0</ele><time>2026-04-18T13:01:49.717Z</time></trkpt><trkpt lat="44.5471969" lon="10.6276684"><ele>231.25</ele><time>2026-04-18T13:01:50.719Z</time></trkpt><trkpt lat="44.5471564" lon="10.6274877"><ele>231.5</ele><time>2026-04-18T13:01:51.723Z</time></trkpt><trkpt lat="44.5470994" lon="10.6273074"><ele>231.75</ele><time>2026-04-18T13:01:52.712Z</time></trkpt><trkpt lat="44.5470326" lon="10.6271334"><ele>232.0</ele><time>2026-04-18T13:01:53.709Z</time></trkpt><trkpt lat="44.546965" lon="10.6269603"><ele>230.75</ele><time>2026-04-18T13:01:54.711Z</time></trkpt><trkpt lat="44.5469049" lon="10.6267849"><ele>229.5</ele><time>2026-04-18T13:01:55.703Z</time></trkpt><trkpt lat="44.5468379" lon="10.6266051"><ele>228.25</ele><time>2026-04-18T13:01:56.719Z</time></trkpt><trkpt lat="44.5467887" lon="10.6264043"><ele>227.0</ele><time>2026-04-18T13:01:57.715Z</time></trkpt><trkpt lat="44.5467328" lon="10.6262109"><ele>228.0</ele><time>2026-04-18T13:01:58.713Z</time></trkpt><trkpt lat="44.5466817" lon="10.6260101"><ele>229.0</ele><time>2026-04-18T13:01:59.719Z</time></trkpt><trkpt lat="44.5466212" lon="10.6258157"><ele>230.0</ele><time>2026-04-18T13:02:00.715Z</time></trkpt><trkpt lat="44.5465678" lon="10.6256218"><ele>230.0</ele><time>2026-04-18T13:02:01.714Z</time></trkpt><trkpt lat="44.5465132" lon="10.6254337"><ele>230.0</ele><time>2026-04-18T13:02:02.718Z</time></trkpt><trkpt lat="44.5464576" lon="10.6252572"><ele>230.0</ele><time>2026-04-18T13:02:03.723Z</time></trkpt><trkpt lat="44.5463931" lon="10.6250813"><ele>230.0</ele><time>2026-04-18T13:02:04.702Z</time></trkpt><trkpt lat="44.5463246" lon="10.6249131"><ele>230.0</ele><time>2026-04-18T13:02:05.707Z</time></trkpt><trkpt lat="44.546261" lon="10.6247447"><ele>230.0</ele><time>2026-04-18T13:02:06.701Z</time></trkpt><trkpt lat="44.546196" lon="10.6245724"><ele>230.0</ele><time>2026-04-18T13:02:07.708Z</time></trkpt><trkpt lat="44.546129" lon="10.6243907"><ele>230.0</ele><time>2026-04-18T13:02:08.696Z</time></trkpt><trkpt lat="44.5460603" lon="10.6242128"><ele>230.0</ele><time>2026-04-18T13:02:09.721Z</time></trkpt><trkpt lat="44.5459992" lon="10.6240356"><ele>230.0</ele><time>2026-04-18T13:02:10.713Z</time></trkpt><trkpt lat="44.5459307" lon="10.6238576"><ele>230.0</ele><time>2026-04-18T13:02:11.719Z</time></trkpt><trkpt lat="44.5458592" lon="10.6236836"><ele>230.0</ele><time>2026-04-18T13:02:12.701Z</time></trkpt><trkpt lat="44.5457813" lon="10.623524"><ele>230.0</ele><time>2026-04-18T13:02:13.719Z</time></trkpt><trkpt lat="44.545698" lon="10.6233666"><ele>230.0</ele><time>2026-04-18T13:02:14.716Z</time></trkpt><trkpt lat="44.5456053" lon="10.6232251"><ele>230.0</ele><time>2026-04-18T13:02:15.711Z</time></trkpt><trkpt lat="44.5455154" lon="10.6230923"><ele>230.0</ele><time>2026-04-18T13:02:16.715Z</time></trkpt><trkpt lat="44.5454277" lon="10.622977"><ele>229.8</ele><time>2026-04-18T13:02:17.71Z</time></trkpt><trkpt lat="44.5453461" lon="10.6228742"><ele>229.6</ele><time>2026-04-18T13:02:18.722Z</time></trkpt><trkpt lat="44.5452646" lon="10.622787"><ele>229.39999999999998</ele><time>2026-04-18T13:02:19.711Z</time></trkpt><trkpt lat="44.5451905" lon="10.6227056"><ele>229.2</ele><time>2026-04-18T13:02:20.711Z</time></trkpt><trkpt lat="44.5451247" lon="10.6226651"><ele>229.0</ele><time>2026-04-18T13:02:21.71Z</time></trkpt><trkpt lat="44.5450607" lon="10.6225993"><ele>228.99999999999997</ele><time>2026-04-18T13:02:22.702Z</time></trkpt><trkpt lat="44.5449948" lon="10.6225445"><ele>229.0</ele><time>2026-04-18T13:02:23.71Z</time></trkpt><trkpt lat="44.5449401" lon="10.6224832"><ele>229.0</ele><time>2026-04-18T13:02:24.711Z</time></trkpt><trkpt lat="44.5448897" lon="10.6224127"><ele>229.0</ele><time>2026-04-18T13:02:26.716Z</time></trkpt><trkpt lat="44.5448406" lon="10.6223424"><ele>228.99999999999997</ele><time>2026-04-18T13:02:29.713Z</time></trkpt><trkpt lat="44.5447493" lon="10.6222927"><ele>229.0</ele><time>2026-04-18T13:02:31.705Z</time></trkpt><trkpt lat="44.5446796" lon="10.6222401"><ele>229.0</ele><time>2026-04-18T13:02:32.709Z</time></trkpt><trkpt lat="44.5446025" lon="10.6221733"><ele>228.99999999999997</ele><time>2026-04-18T13:02:33.712Z</time></trkpt><trkpt lat="44.5445275" lon="10.6220835"><ele>228.99999999999997</ele><time>2026-04-18T13:02:34.704Z</time></trkpt><trkpt lat="44.5444498" lon="10.6219739"><ele>229.0</ele><time>2026-04-18T13:02:35.712Z</time></trkpt><trkpt lat="44.5443676" lon="10.6218671"><ele>229.0</ele><time>2026-04-18T13:02:36.706Z</time></trkpt><trkpt lat="44.5442793" lon="10.621764"><ele>229.25</ele><time>2026-04-18T13:02:37.713Z</time></trkpt><trkpt lat="44.5441964" lon="10.6216553"><ele>229.5</ele><time>2026-04-18T13:02:38.701Z</time></trkpt><trkpt lat="44.5441092" lon="10.6215443"><ele>229.75</ele><time>2026-04-18T13:02:39.717Z</time></trkpt><trkpt lat="44.5440198" lon="10.6214443"><ele>230.0</ele><time>2026-04-18T13:02:40.702Z</time></trkpt><trkpt lat="44.5439284" lon="10.621344"><ele>230.0</ele><time>2026-04-18T13:02:41.713Z</time></trkpt><trkpt lat="44.5438424" lon="10.6212615"><ele>230.0</ele><time>2026-04-18T13:02:42.711Z</time></trkpt><trkpt lat="44.5437612" lon="10.6211863"><ele>230.0</ele><time>2026-04-18T13:02:43.715Z</time></trkpt><trkpt lat="44.5436776" lon="10.6210882"><ele>230.0</ele><time>2026-04-18T13:02:44.714Z</time></trkpt><trkpt lat="44.5436029" lon="10.6210076"><ele>230.0</ele><time>2026-04-18T13:02:45.725Z</time></trkpt><trkpt lat="44.5435372" lon="10.6209135"><ele>229.8</ele><time>2026-04-18T13:02:46.718Z</time></trkpt><trkpt lat="44.5434636" lon="10.6208179"><ele>229.6</ele><time>2026-04-18T13:02:47.717Z</time></trkpt><trkpt lat="44.543377" lon="10.6207274"><ele>229.39999999999998</ele><time>2026-04-18T13:02:48.712Z</time></trkpt><trkpt lat="44.5432983" lon="10.6206509"><ele>229.2</ele><time>2026-04-18T13:02:49.703Z</time></trkpt><trkpt lat="44.5432251" lon="10.6205568"><ele>229.0</ele><time>2026-04-18T13:02:50.718Z</time></trkpt><trkpt lat="44.5431345" lon="10.62045"><ele>229.0</ele><time>2026-04-18T13:02:51.703Z</time></trkpt><trkpt lat="44.5430256" lon="10.620329"><ele>229.0</ele><time>2026-04-18T13:02:52.728Z</time></trkpt><trkpt lat="44.5429036" lon="10.620186"><ele>229.0</ele><time>2026-04-18T13:02:53.712Z</time></trkpt><trkpt lat="44.5427808" lon="10.6200497"><ele>229.33333333333331</ele><time>2026-04-18T13:02:54.711Z</time></trkpt><trkpt lat="44.5426589" lon="10.6199035"><ele>229.66666666666669</ele><time>2026-04-18T13:02:55.72Z</time></trkpt><trkpt lat="44.5425365" lon="10.6197583"><ele>230.0</ele><time>2026-04-18T13:02:56.722Z</time></trkpt><trkpt lat="44.5424245" lon="10.6195929"><ele>230.0</ele><time>2026-04-18T13:02:57.715Z</time></trkpt><trkpt lat="44.5423273" lon="10.6194061"><ele>230.0</ele><time>2026-04-18T13:02:58.719Z</time></trkpt><trkpt lat="44.542228" lon="10.6192149"><ele>230.0</ele><time>2026-04-18T13:02:59.718Z</time></trkpt><trkpt lat="44.5421306" lon="10.6190111"><ele>228.66666666666669</ele><time>2026-04-18T13:03:00.708Z</time></trkpt><trkpt lat="44.5420387" lon="10.6187936"><ele>227.33333333333331</ele><time>2026-04-18T13:03:01.704Z</time></trkpt><trkpt lat="44.5419488" lon="10.6185723"><ele>226.0</ele><time>2026-04-18T13:03:02.715Z</time></trkpt><trkpt lat="44.541862" lon="10.6183569"><ele>226.0</ele><time>2026-04-18T13:03:03.703Z</time></trkpt><trkpt lat="44.5417734" lon="10.6181501"><ele>226.0</ele><time>2026-04-18T13:03:04.717Z</time></trkpt><trkpt lat="44.541665" lon="10.6179694"><ele>226.0</ele><time>2026-04-18T13:03:05.714Z</time></trkpt><trkpt lat="44.5415584" lon="10.617806"><ele>226.66666666666666</ele><time>2026-04-18T13:03:06.723Z</time></trkpt><trkpt lat="44.5414004" lon="10.6177296"><ele>227.33333333333331</ele><time>2026-04-18T13:03:07.715Z</time></trkpt><trkpt lat="44.5412315" lon="10.6176912"><ele>228.0</ele><time>2026-04-18T13:03:08.72Z</time></trkpt><trkpt lat="44.5410591" lon="10.6177512"><ele>226.0</ele><time>2026-04-18T13:03:09.715Z</time></trkpt><trkpt lat="44.5408905" lon="10.617814"><ele>224.0</ele><time>2026-04-18T13:03:10.705Z</time></trkpt><trkpt lat="44.5407108" lon="10.6178921"><ele>222.0</ele><time>2026-04-18T13:03:11.724Z</time></trkpt><trkpt lat="44.540525" lon="10.6179674"><ele>223.66666666666669</ele><time>2026-04-18T13:03:12.708Z</time></trkpt><trkpt lat="44.5403398" lon="10.6180407"><ele>225.33333333333334</ele><time>2026-04-18T13:03:13.722Z</time></trkpt><trkpt lat="44.5401644" lon="10.618103"><ele>227.0</ele><time>2026-04-18T13:03:14.721Z</time></trkpt><trkpt lat="44.5399928" lon="10.6181546"><ele>227.0</ele><time>2026-04-18T13:03:15.711Z</time></trkpt><trkpt lat="44.5398167" lon="10.6181906"><ele>227.0</ele><time>2026-04-18T13:03:16.71Z</time></trkpt><trkpt lat="44.5396294" lon="10.6181603"><ele>227.0</ele><time>2026-04-18T13:03:17.708Z</time></trkpt><trkpt lat="44.5394529" lon="10.6180786"><ele>228.33333333333334</ele><time>2026-04-18T13:03:18.708Z</time></trkpt><trkpt lat="44.5392769" lon="10.617953"><ele>229.66666666666669</ele><time>2026-04-18T13:03:19.709Z</time></trkpt><trkpt lat="44.5391039" lon="10.6178035"><ele>231.0</ele><time>2026-04-18T13:03:20.725Z</time></trkpt><trkpt lat="44.5389328" lon="10.6176615"><ele>231.0</ele><time>2026-04-18T13:03:21.71Z</time></trkpt><trkpt lat="44.5387598" lon="10.6175599"><ele>231.0</ele><time>2026-04-18T13:03:22.714Z</time></trkpt><trkpt lat="44.5385824" lon="10.6174818"><ele>231.0</ele><time>2026-04-18T13:03:23.7Z</time></trkpt><trkpt lat="44.5384213" lon="10.6174063"><ele>232.0</ele><time>2026-04-18T13:03:24.694Z</time></trkpt><trkpt lat="44.5382722" lon="10.6172928"><ele>233.0</ele><time>2026-04-18T13:03:25.704Z</time></trkpt><trkpt lat="44.5381598" lon="10.6171061"><ele>234.0</ele><time>2026-04-18T13:03:26.693Z</time></trkpt><trkpt lat="44.53805" lon="10.616912"><ele>234.0</ele><time>2026-04-18T13:03:27.731Z</time></trkpt><trkpt lat="44.5379305" lon="10.6167278"><ele>234.0</ele><time>2026-04-18T13:03:28.715Z</time></trkpt><trkpt lat="44.5378026" lon="10.6165475"><ele>234.0</ele><time>2026-04-18T13:03:29.7Z</time></trkpt><trkpt lat="44.5376717" lon="10.6163636"><ele>234.66666666666669</ele><time>2026-04-18T13:03:30.696Z</time></trkpt><trkpt lat="44.5375419" lon="10.6161745"><ele>235.33333333333334</ele><time>2026-04-18T13:03:31.707Z</time></trkpt><trkpt lat="44.537423" lon="10.6159834"><ele>236.0</ele><time>2026-04-18T13:03:32.698Z</time></trkpt><trkpt lat="44.5373234" lon="10.6157934"><ele>236.0</ele><time>2026-04-18T13:03:33.698Z</time></trkpt><trkpt lat="44.5372298" lon="10.6156117"><ele>236.0</ele><time>2026-04-18T13:03:34.699Z</time></trkpt><trkpt lat="44.5371654" lon="10.6154026"><ele>236.0</ele><time>2026-04-18T13:03:35.714Z</time></trkpt><trkpt lat="44.5371387" lon="10.6151918"><ele>235.5</ele><time>2026-04-18T13:03:36.719Z</time></trkpt><trkpt lat="44.5371295" lon="10.6149821"><ele>235.0</ele><time>2026-04-18T13:03:37.716Z</time></trkpt><trkpt lat="44.5371092" lon="10.6147886"><ele>234.5</ele><time>2026-04-18T13:03:38.719Z</time></trkpt><trkpt lat="44.537056" lon="10.6145904"><ele>234.0</ele><time>2026-04-18T13:03:39.712Z</time></trkpt><trkpt lat="44.5369819" lon="10.6144032"><ele>239.0</ele><time>2026-04-18T13:03:40.721Z</time></trkpt><trkpt lat="44.5368663" lon="10.6142564"><ele>244.0</ele><time>2026-04-18T13:03:41.71Z</time></trkpt><trkpt lat="44.5367462" lon="10.6141048"><ele>249.0</ele><time>2026-04-18T13:03:42.719Z</time></trkpt><trkpt lat="44.5366233" lon="10.6139609"><ele>249.0</ele><time>2026-04-18T13:03:43.709Z</time></trkpt><trkpt lat="44.5364915" lon="10.6138342"><ele>249.0</ele><time>2026-04-18T13:03:44.707Z</time></trkpt><trkpt lat="44.5363388" lon="10.6137339"><ele>249.0</ele><time>2026-04-18T13:03:45.714Z</time></trkpt><trkpt lat="44.5361846" lon="10.6136361"><ele>249.25</ele><time>2026-04-18T13:03:46.703Z</time></trkpt><trkpt lat="44.5360405" lon="10.6135428"><ele>249.5</ele><time>2026-04-18T13:03:47.702Z</time></trkpt><trkpt lat="44.5359099" lon="10.6134581"><ele>249.75</ele><time>2026-04-18T13:03:48.71Z</time></trkpt><trkpt lat="44.5357912" lon="10.613418"><ele>250.0</ele><time>2026-04-18T13:03:49.717Z</time></trkpt><trkpt lat="44.5356958" lon="10.6133315"><ele>250.0</ele><time>2026-04-18T13:03:50.699Z</time></trkpt><trkpt lat="44.535605" lon="10.613201"><ele>250.0</ele><time>2026-04-18T13:03:51.709Z</time></trkpt><trkpt lat="44.5355102" lon="10.6130552"><ele>250.0</ele><time>2026-04-18T13:03:52.701Z</time></trkpt><trkpt lat="44.5354134" lon="10.6128819"><ele>250.0</ele><time>2026-04-18T13:03:53.716Z</time></trkpt><trkpt lat="44.5353151" lon="10.6127173"><ele>251.0</ele><time>2026-04-18T13:03:54.713Z</time></trkpt><trkpt lat="44.5351982" lon="10.612552"><ele>252.0</ele><time>2026-04-18T13:03:55.71Z</time></trkpt><trkpt lat="44.5350622" lon="10.6124061"><ele>253.0</ele><time>2026-04-18T13:03:56.714Z</time></trkpt><trkpt lat="44.5349298" lon="10.6122649"><ele>253.0</ele><time>2026-04-18T13:03:57.714Z</time></trkpt><trkpt lat="44.5347775" lon="10.6121417"><ele>253.0</ele><time>2026-04-18T13:03:58.713Z</time></trkpt><trkpt lat="44.5346312" lon="10.6119966"><ele>253.0</ele><time>2026-04-18T13:03:59.709Z</time></trkpt><trkpt lat="44.5344809" lon="10.6118612"><ele>250.66666666666666</ele><time>2026-04-18T13:04:00.71Z</time></trkpt><trkpt lat="44.534345" lon="10.6117066"><ele>248.33333333333331</ele><time>2026-04-18T13:04:01.716Z</time></trkpt><trkpt lat="44.5342439" lon="10.6115182"><ele>246.0</ele><time>2026-04-18T13:04:02.713Z</time></trkpt><trkpt lat="44.5341423" lon="10.6112932"><ele>245.66666666666669</ele><time>2026-04-18T13:04:03.712Z</time></trkpt><trkpt lat="44.5340834" lon="10.6110175"><ele>245.33333333333334</ele><time>2026-04-18T13:04:04.718Z</time></trkpt><trkpt lat="44.5340548" lon="10.6107052"><ele>245.0</ele><time>2026-04-18T13:04:05.714Z</time></trkpt><trkpt lat="44.5340254" lon="10.6103995"><ele>244.5</ele><time>2026-04-18T13:04:06.715Z</time></trkpt><trkpt lat="44.5340113" lon="10.6100803"><ele>244.0</ele><time>2026-04-18T13:04:07.715Z</time></trkpt><trkpt lat="44.5339956" lon="10.6097601"><ele>244.0</ele><time>2026-04-18T13:04:08.711Z</time></trkpt><trkpt lat="44.5339765" lon="10.6094373"><ele>244.0</ele><time>2026-04-18T13:04:09.706Z</time></trkpt><trkpt lat="44.5339558" lon="10.6091192"><ele>244.0</ele><time>2026-04-18T13:04:10.714Z</time></trkpt><trkpt lat="44.5339316" lon="10.6087994"><ele>244.0</ele><time>2026-04-18T13:04:11.703Z</time></trkpt><trkpt lat="44.5339135" lon="10.6084881"><ele>242.66666666666666</ele><time>2026-04-18T13:04:12.713Z</time></trkpt><trkpt lat="44.5338959" lon="10.6081901"><ele>241.33333333333331</ele><time>2026-04-18T13:04:13.717Z</time></trkpt><trkpt lat="44.5338794" lon="10.6079005"><ele>240.0</ele><time>2026-04-18T13:04:14.72Z</time></trkpt><trkpt lat="44.5338535" lon="10.607625"><ele>239.33333333333331</ele><time>2026-04-18T13:04:15.707Z</time></trkpt><trkpt lat="44.5338369" lon="10.6073393"><ele>238.66666666666666</ele><time>2026-04-18T13:04:16.72Z</time></trkpt><trkpt lat="44.5337864" lon="10.6070684"><ele>238.0</ele><time>2026-04-18T13:04:17.714Z</time></trkpt><trkpt lat="44.5337225" lon="10.606792"><ele>240.0</ele><time>2026-04-18T13:04:18.697Z</time></trkpt><trkpt lat="44.5336359" lon="10.6065146"><ele>242.0</ele><time>2026-04-18T13:04:19.714Z</time></trkpt><trkpt lat="44.5335448" lon="10.6062368"><ele>244.0</ele><time>2026-04-18T13:04:20.701Z</time></trkpt><trkpt lat="44.5334532" lon="10.6059548"><ele>244.0</ele><time>2026-04-18T13:04:21.712Z</time></trkpt><trkpt lat="44.5333707" lon="10.6056852"><ele>244.0</ele><time>2026-04-18T13:04:22.698Z</time></trkpt><trkpt lat="44.5332893" lon="10.6054234"><ele>244.0</ele><time>2026-04-18T13:04:23.703Z</time></trkpt><trkpt lat="44.5332127" lon="10.605176"><ele>244.66666666666666</ele><time>2026-04-18T13:04:24.698Z</time></trkpt><trkpt lat="44.5331403" lon="10.6049454"><ele>245.33333333333331</ele><time>2026-04-18T13:04:25.711Z</time></trkpt><trkpt lat="44.5330672" lon="10.6047244"><ele>246.0</ele><time>2026-04-18T13:04:26.707Z</time></trkpt><trkpt lat="44.5329914" lon="10.6045073"><ele>245.33333333333331</ele><time>2026-04-18T13:04:27.702Z</time></trkpt><trkpt lat="44.5328936" lon="10.6042969"><ele>244.66666666666666</ele><time>2026-04-18T13:04:28.71Z</time></trkpt><trkpt lat="44.5327728" lon="10.6040985"><ele>244.0</ele><time>2026-04-18T13:04:29.708Z</time></trkpt><trkpt lat="44.5326438" lon="10.6039036"><ele>246.0</ele><time>2026-04-18T13:04:30.712Z</time></trkpt><trkpt lat="44.5325109" lon="10.6037115"><ele>248.0</ele><time>2026-04-18T13:04:31.706Z</time></trkpt><trkpt lat="44.5323825" lon="10.6035209"><ele>250.0</ele><time>2026-04-18T13:04:32.7Z</time></trkpt><trkpt lat="44.5322627" lon="10.6033326"><ele>250.0</ele><time>2026-04-18T13:04:33.718Z</time></trkpt><trkpt lat="44.5321481" lon="10.6031367"><ele>250.0</ele><time>2026-04-18T13:04:34.705Z</time></trkpt><trkpt lat="44.5320444" lon="10.6029247"><ele>250.0</ele><time>2026-04-18T13:04:35.717Z</time></trkpt><trkpt lat="44.531939" lon="10.6027066"><ele>253.0</ele><time>2026-04-18T13:04:36.712Z</time></trkpt><trkpt lat="44.531856" lon="10.6024634"><ele>256.0</ele><time>2026-04-18T13:04:37.713Z</time></trkpt><trkpt lat="44.5317703" lon="10.6022126"><ele>259.0</ele><time>2026-04-18T13:04:38.712Z</time></trkpt><trkpt lat="44.53168" lon="10.601963"><ele>259.0</ele><time>2026-04-18T13:04:39.703Z</time></trkpt><trkpt lat="44.5315906" lon="10.6017136"><ele>259.0</ele><time>2026-04-18T13:04:40.701Z</time></trkpt><trkpt lat="44.531504" lon="10.6014719"><ele>259.0</ele><time>2026-04-18T13:04:41.716Z</time></trkpt><trkpt lat="44.5314194" lon="10.6012419"><ele>257.0</ele><time>2026-04-18T13:04:42.703Z</time></trkpt><trkpt lat="44.5313399" lon="10.6010236"><ele>255.0</ele><time>2026-04-18T13:04:43.715Z</time></trkpt><trkpt lat="44.5312582" lon="10.6008267"><ele>253.0</ele><time>2026-04-18T13:04:44.711Z</time></trkpt><trkpt lat="44.5311881" lon="10.6006294"><ele>253.25</ele><time>2026-04-18T13:04:45.708Z</time></trkpt><trkpt lat="44.5311325" lon="10.6004392"><ele>253.5</ele><time>2026-04-18T13:04:46.714Z</time></trkpt><trkpt lat="44.5311049" lon="10.600242"><ele>253.75</ele><time>2026-04-18T13:04:47.71Z</time></trkpt><trkpt lat="44.5310977" lon="10.6000497"><ele>254.0</ele><time>2026-04-18T13:04:48.712Z</time></trkpt><trkpt lat="44.5311056" lon="10.5998611"><ele>254.0</ele><time>2026-04-18T13:04:49.716Z</time></trkpt><trkpt lat="44.531124" lon="10.5996761"><ele>254.0</ele><time>2026-04-18T13:04:50.716Z</time></trkpt><trkpt lat="44.5311077" lon="10.5994986"><ele>254.0</ele><time>2026-04-18T13:04:51.701Z</time></trkpt><trkpt lat="44.5310314" lon="10.5993312"><ele>254.0</ele><time>2026-04-18T13:04:52.701Z</time></trkpt><trkpt lat="44.5309235" lon="10.5992112"><ele>254.5</ele><time>2026-04-18T13:04:53.697Z</time></trkpt><trkpt lat="44.5307872" lon="10.5991446"><ele>255.0</ele><time>2026-04-18T13:04:54.715Z</time></trkpt><trkpt lat="44.530637" lon="10.5991165"><ele>255.5</ele><time>2026-04-18T13:04:55.716Z</time></trkpt><trkpt lat="44.5304874" lon="10.5991087"><ele>256.0</ele><time>2026-04-18T13:04:56.703Z</time></trkpt><trkpt lat="44.5303493" lon="10.5991011"><ele>256.0</ele><time>2026-04-18T13:04:57.712Z</time></trkpt><trkpt lat="44.5302168" lon="10.5990809"><ele>256.0</ele><time>2026-04-18T13:04:58.708Z</time></trkpt><trkpt lat="44.5300818" lon="10.5990568"><ele>256.0</ele><time>2026-04-18T13:04:59.701Z</time></trkpt><trkpt lat="44.5299362" lon="10.599025"><ele>256.0</ele><time>2026-04-18T13:05:00.703Z</time></trkpt><trkpt lat="44.5298018" lon="10.5989649"><ele>256.0</ele><time>2026-04-18T13:05:01.713Z</time></trkpt><trkpt lat="44.5296656" lon="10.5988988"><ele>256.0</ele><time>2026-04-18T13:05:02.714Z</time></trkpt><trkpt lat="44.5295159" lon="10.5988332"><ele>256.0</ele><time>2026-04-18T13:05:03.711Z</time></trkpt><trkpt lat="44.5293625" lon="10.5987736"><ele>255.66666666666666</ele><time>2026-04-18T13:05:04.714Z</time></trkpt><trkpt lat="44.5292132" lon="10.598714"><ele>255.33333333333331</ele><time>2026-04-18T13:05:05.714Z</time></trkpt><trkpt lat="44.5290686" lon="10.5986553"><ele>255.0</ele><time>2026-04-18T13:05:06.712Z</time></trkpt><trkpt lat="44.5289239" lon="10.5985955"><ele>255.0</ele><time>2026-04-18T13:05:07.719Z</time></trkpt><trkpt lat="44.5287733" lon="10.5985356"><ele>255.0</ele><time>2026-04-18T13:05:08.722Z</time></trkpt><trkpt lat="44.5286261" lon="10.5984646"><ele>255.0</ele><time>2026-04-18T13:05:09.717Z</time></trkpt><trkpt lat="44.5284813" lon="10.5983795"><ele>256.3333333333333</ele><time>2026-04-18T13:05:10.698Z</time></trkpt><trkpt lat="44.5283363" lon="10.5982739"><ele>257.66666666666663</ele><time>2026-04-18T13:05:11.717Z</time></trkpt><trkpt lat="44.5281862" lon="10.5981584"><ele>259.0</ele><time>2026-04-18T13:05:12.699Z</time></trkpt><trkpt lat="44.5280356" lon="10.5980428"><ele>259.66666666666663</ele><time>2026-04-18T13:05:13.705Z</time></trkpt><trkpt lat="44.5278876" lon="10.5979261"><ele>260.3333333333333</ele><time>2026-04-18T13:05:14.706Z</time></trkpt><trkpt lat="44.527737" lon="10.5978242"><ele>261.0</ele><time>2026-04-18T13:05:15.713Z</time></trkpt><trkpt lat="44.5275837" lon="10.5977269"><ele>263.0</ele><time>2026-04-18T13:05:16.708Z</time></trkpt><trkpt lat="44.5274406" lon="10.5975972"><ele>265.0</ele><time>2026-04-18T13:05:17.704Z</time></trkpt><trkpt lat="44.5273029" lon="10.5974475"><ele>267.0</ele><time>2026-04-18T13:05:18.713Z</time></trkpt><trkpt lat="44.5271793" lon="10.5972815"><ele>266.0</ele><time>2026-04-18T13:05:19.721Z</time></trkpt><trkpt lat="44.5270492" lon="10.5971153"><ele>265.0</ele><time>2026-04-18T13:05:20.706Z</time></trkpt><trkpt lat="44.5269212" lon="10.5969501"><ele>264.0</ele><time>2026-04-18T13:05:21.707Z</time></trkpt><trkpt lat="44.5267977" lon="10.5967865"><ele>264.0</ele><time>2026-04-18T13:05:22.715Z</time></trkpt><trkpt lat="44.5266698" lon="10.5966285"><ele>264.0</ele><time>2026-04-18T13:05:23.711Z</time></trkpt><trkpt lat="44.5265483" lon="10.596477"><ele>264.0</ele><time>2026-04-18T13:05:24.706Z</time></trkpt><trkpt lat="44.5264314" lon="10.596331"><ele>264.0</ele><time>2026-04-18T13:05:25.709Z</time></trkpt><trkpt lat="44.5263121" lon="10.5961977"><ele>264.0</ele><time>2026-04-18T13:05:26.714Z</time></trkpt><trkpt lat="44.5261891" lon="10.5960684"><ele>264.0</ele><time>2026-04-18T13:05:27.696Z</time></trkpt><trkpt lat="44.5260541" lon="10.5959588"><ele>262.0</ele><time>2026-04-18T13:05:28.7Z</time></trkpt><trkpt lat="44.5259166" lon="10.5958546"><ele>260.0</ele><time>2026-04-18T13:05:29.709Z</time></trkpt><trkpt lat="44.5257726" lon="10.595758"><ele>258.0</ele><time>2026-04-18T13:05:30.715Z</time></trkpt><trkpt lat="44.5256313" lon="10.5956589"><ele>258.0</ele><time>2026-04-18T13:05:31.704Z</time></trkpt><trkpt lat="44.5254918" lon="10.5955573"><ele>258.0</ele><time>2026-04-18T13:05:32.718Z</time></trkpt><trkpt lat="44.525351" lon="10.5954571"><ele>258.0</ele><time>2026-04-18T13:05:33.707Z</time></trkpt><trkpt lat="44.5252108" lon="10.5953591"><ele>261.3333333333333</ele><time>2026-04-18T13:05:34.712Z</time></trkpt><trkpt lat="44.5250697" lon="10.5952682"><ele>264.66666666666663</ele><time>2026-04-18T13:05:35.71Z</time></trkpt><trkpt lat="44.5249221" lon="10.5951954"><ele>268.0</ele><time>2026-04-18T13:05:36.714Z</time></trkpt><trkpt lat="44.5247643" lon="10.5951583"><ele>268.0</ele><time>2026-04-18T13:05:37.705Z</time></trkpt><trkpt lat="44.52461" lon="10.5951343"><ele>268.0</ele><time>2026-04-18T13:05:38.707Z</time></trkpt><trkpt lat="44.524459" lon="10.5951418"><ele>268.0</ele><time>2026-04-18T13:05:39.712Z</time></trkpt><trkpt lat="44.5243009" lon="10.5951582"><ele>266.66666666666663</ele><time>2026-04-18T13:05:40.701Z</time></trkpt><trkpt lat="44.5241433" lon="10.5951772"><ele>265.3333333333333</ele><time>2026-04-18T13:05:41.708Z</time></trkpt><trkpt lat="44.5239949" lon="10.5952235"><ele>264.0</ele><time>2026-04-18T13:05:42.716Z</time></trkpt><trkpt lat="44.523849" lon="10.5952792"><ele>264.0</ele><time>2026-04-18T13:05:43.704Z</time></trkpt><trkpt lat="44.5237001" lon="10.5953349"><ele>264.0</ele><time>2026-04-18T13:05:44.711Z</time></trkpt><trkpt lat="44.5235604" lon="10.5953882"><ele>264.0</ele><time>2026-04-18T13:05:45.717Z</time></trkpt><trkpt lat="44.5234265" lon="10.5954448"><ele>264.0</ele><time>2026-04-18T13:05:46.712Z</time></trkpt><trkpt lat="44.5232956" lon="10.5954897"><ele>264.0</ele><time>2026-04-18T13:05:47.716Z</time></trkpt><trkpt lat="44.5231703" lon="10.595541"><ele>264.0</ele><time>2026-04-18T13:05:48.705Z</time></trkpt><trkpt lat="44.5230391" lon="10.595612"><ele>264.0</ele><time>2026-04-18T13:05:49.727Z</time></trkpt><trkpt lat="44.5229051" lon="10.595662"><ele>264.0</ele><time>2026-04-18T13:05:50.703Z</time></trkpt><trkpt lat="44.5227731" lon="10.5957084"><ele>265.0</ele><time>2026-04-18T13:05:51.715Z</time></trkpt><trkpt lat="44.5226331" lon="10.5957468"><ele>266.0</ele><time>2026-04-18T13:05:52.714Z</time></trkpt><trkpt lat="44.5224842" lon="10.5957715"><ele>267.0</ele><time>2026-04-18T13:05:53.712Z</time></trkpt><trkpt lat="44.5223295" lon="10.5957857"><ele>268.0</ele><time>2026-04-18T13:05:54.719Z</time></trkpt><trkpt lat="44.5221735" lon="10.5957837"><ele>270.0</ele><time>2026-04-18T13:05:55.712Z</time></trkpt><trkpt lat="44.5220309" lon="10.5957536"><ele>272.0</ele><time>2026-04-18T13:05:56.716Z</time></trkpt><trkpt lat="44.5218966" lon="10.5957278"><ele>274.0</ele><time>2026-04-18T13:05:57.718Z</time></trkpt><trkpt lat="44.5217671" lon="10.5957065"><ele>276.0</ele><time>2026-04-18T13:05:58.703Z</time></trkpt><trkpt lat="44.5216373" lon="10.5956812"><ele>276.0</ele><time>2026-04-18T13:05:59.704Z</time></trkpt><trkpt lat="44.5215015" lon="10.5956681"><ele>276.0</ele><time>2026-04-18T13:06:00.703Z</time></trkpt><trkpt lat="44.5213735" lon="10.59566"><ele>276.0</ele><time>2026-04-18T13:06:01.704Z</time></trkpt><trkpt lat="44.5212558" lon="10.5956629"><ele>276.0</ele><time>2026-04-18T13:06:02.714Z</time></trkpt><trkpt lat="44.5211257" lon="10.5956909"><ele>277.25</ele><time>2026-04-18T13:06:03.701Z</time></trkpt><trkpt lat="44.5209889" lon="10.5957189"><ele>278.5</ele><time>2026-04-18T13:06:04.701Z</time></trkpt><trkpt lat="44.5208355" lon="10.5957542"><ele>279.75</ele><time>2026-04-18T13:06:05.702Z</time></trkpt><trkpt lat="44.5206882" lon="10.59576"><ele>281.0</ele><time>2026-04-18T13:06:06.705Z</time></trkpt><trkpt lat="44.5205197" lon="10.5957963"><ele>280.25</ele><time>2026-04-18T13:06:07.711Z</time></trkpt><trkpt lat="44.5203706" lon="10.5957991"><ele>279.5</ele><time>2026-04-18T13:06:08.701Z</time></trkpt><trkpt lat="44.520219" lon="10.5958048"><ele>278.75</ele><time>2026-04-18T13:06:09.696Z</time></trkpt><trkpt lat="44.520078" lon="10.5957732"><ele>278.0</ele><time>2026-04-18T13:06:10.703Z</time></trkpt><trkpt lat="44.5199421" lon="10.5957079"><ele>278.0</ele><time>2026-04-18T13:06:11.702Z</time></trkpt><trkpt lat="44.5198242" lon="10.5955998"><ele>278.0</ele><time>2026-04-18T13:06:12.71Z</time></trkpt><trkpt lat="44.5197051" lon="10.5954806"><ele>278.0</ele><time>2026-04-18T13:06:13.718Z</time></trkpt><trkpt lat="44.519567" lon="10.595386"><ele>278.0</ele><time>2026-04-18T13:06:14.704Z</time></trkpt><trkpt lat="44.5194365" lon="10.5953074"><ele>279.2</ele><time>2026-04-18T13:06:15.712Z</time></trkpt><trkpt lat="44.5193331" lon="10.5952499"><ele>280.4</ele><time>2026-04-18T13:06:16.706Z</time></trkpt><trkpt lat="44.5192573" lon="10.5952053"><ele>281.59999999999997</ele><time>2026-04-18T13:06:17.71Z</time></trkpt><trkpt lat="44.5191628" lon="10.595152"><ele>282.8</ele><time>2026-04-18T13:06:19.708Z</time></trkpt><trkpt lat="44.5190267" lon="10.5951207"><ele>284.0</ele><time>2026-04-18T13:08:11.709Z</time></trkpt><trkpt lat="44.5188862" lon="10.595071"><ele>284.0</ele><time>2026-04-18T13:08:13.712Z</time></trkpt><trkpt lat="44.5187986" lon="10.5950223"><ele>284.0</ele><time>2026-04-18T13:08:14.715Z</time></trkpt><trkpt lat="44.5187014" lon="10.5949708"><ele>284.0</ele><time>2026-04-18T13:08:15.71Z</time></trkpt><trkpt lat="44.5185991" lon="10.594913"><ele>284.0</ele><time>2026-04-18T13:08:16.717Z</time></trkpt><trkpt lat="44.5184962" lon="10.5948422"><ele>284.0</ele><time>2026-04-18T13:08:17.713Z</time></trkpt><trkpt lat="44.5183929" lon="10.5947552"><ele>284.75</ele><time>2026-04-18T13:08:18.704Z</time></trkpt><trkpt lat="44.5182941" lon="10.5946505"><ele>285.5</ele><time>2026-04-18T13:08:19.712Z</time></trkpt><trkpt lat="44.5181991" lon="10.5945311"><ele>286.25</ele><time>2026-04-18T13:08:20.707Z</time></trkpt><trkpt lat="44.518129" lon="10.5943868"><ele>287.0</ele><time>2026-04-18T13:08:21.705Z</time></trkpt><trkpt lat="44.5180571" lon="10.5942358"><ele>287.0</ele><time>2026-04-18T13:08:22.708Z</time></trkpt><trkpt lat="44.5179836" lon="10.5940875"><ele>287.0</ele><time>2026-04-18T13:08:23.708Z</time></trkpt><trkpt lat="44.5179077" lon="10.5939454"><ele>287.0</ele><time>2026-04-18T13:08:24.703Z</time></trkpt><trkpt lat="44.517819" lon="10.5938167"><ele>287.0</ele><time>2026-04-18T13:08:25.713Z</time></trkpt><trkpt lat="44.5177267" lon="10.5937035"><ele>290.25</ele><time>2026-04-18T13:08:26.7Z</time></trkpt><trkpt lat="44.5176316" lon="10.593606"><ele>293.5</ele><time>2026-04-18T13:08:27.701Z</time></trkpt><trkpt lat="44.5175306" lon="10.5935239"><ele>296.75</ele><time>2026-04-18T13:08:28.705Z</time></trkpt><trkpt lat="44.5174203" lon="10.5934812"><ele>300.0</ele><time>2026-04-18T13:08:29.702Z</time></trkpt><trkpt lat="44.517311" lon="10.5934466"><ele>300.0</ele><time>2026-04-18T13:08:30.71Z</time></trkpt><trkpt lat="44.5171921" lon="10.5934654"><ele>300.0</ele><time>2026-04-18T13:08:31.709Z</time></trkpt><trkpt lat="44.517074" lon="10.5934888"><ele>300.0</ele><time>2026-04-18T13:08:32.711Z</time></trkpt><trkpt lat="44.5169649" lon="10.5935138"><ele>300.0</ele><time>2026-04-18T13:08:33.704Z</time></trkpt><trkpt lat="44.5168515" lon="10.5935338"><ele>298.75</ele><time>2026-04-18T13:08:34.711Z</time></trkpt><trkpt lat="44.516737" lon="10.5935356"><ele>297.5</ele><time>2026-04-18T13:08:35.7Z</time></trkpt><trkpt lat="44.5166267" lon="10.5934929"><ele>296.25</ele><time>2026-04-18T13:08:36.713Z</time></trkpt><trkpt lat="44.516511" lon="10.5934349"><ele>295.0</ele><time>2026-04-18T13:08:37.713Z</time></trkpt><trkpt lat="44.5163897" lon="10.5933705"><ele>295.0</ele><time>2026-04-18T13:08:38.725Z</time></trkpt><trkpt lat="44.5162575" lon="10.5932982"><ele>295.0</ele><time>2026-04-18T13:08:39.713Z</time></trkpt><trkpt lat="44.5161199" lon="10.5932254"><ele>295.0</ele><time>2026-04-18T13:08:40.702Z</time></trkpt><trkpt lat="44.5159771" lon="10.5931486"><ele>295.0</ele><time>2026-04-18T13:08:41.709Z</time></trkpt><trkpt lat="44.515829" lon="10.593069"><ele>295.0</ele><time>2026-04-18T13:08:42.701Z</time></trkpt><trkpt lat="44.5156776" lon="10.592989"><ele>295.0</ele><time>2026-04-18T13:08:43.703Z</time></trkpt><trkpt lat="44.5155244" lon="10.5929075"><ele>295.0</ele><time>2026-04-18T13:08:44.715Z</time></trkpt><trkpt lat="44.5153688" lon="10.5928213"><ele>295.0</ele><time>2026-04-18T13:08:45.712Z</time></trkpt><trkpt lat="44.515212" lon="10.5927268"><ele>295.0</ele><time>2026-04-18T13:08:46.713Z</time></trkpt><trkpt lat="44.5150506" lon="10.592623"><ele>295.0</ele><time>2026-04-18T13:08:47.712Z</time></trkpt><trkpt lat="44.5148867" lon="10.5925085"><ele>295.0</ele><time>2026-04-18T13:08:48.709Z</time></trkpt><trkpt lat="44.5147145" lon="10.5923804"><ele>295.0</ele><time>2026-04-18T13:08:49.709Z</time></trkpt><trkpt lat="44.5145417" lon="10.5922479"><ele>295.0</ele><time>2026-04-18T13:08:50.702Z</time></trkpt><trkpt lat="44.5143652" lon="10.5920987"><ele>293.66666666666663</ele><time>2026-04-18T13:08:51.72Z</time></trkpt><trkpt lat="44.5141892" lon="10.591928"><ele>292.3333333333333</ele><time>2026-04-18T13:08:52.702Z</time></trkpt><trkpt lat="44.5140065" lon="10.5917591"><ele>291.0</ele><time>2026-04-18T13:08:53.71Z</time></trkpt><trkpt lat="44.5138237" lon="10.5915876"><ele>289.5</ele><time>2026-04-18T13:08:54.709Z</time></trkpt><trkpt lat="44.513639" lon="10.5914043"><ele>288.0</ele><time>2026-04-18T13:08:55.711Z</time></trkpt><trkpt lat="44.5134548" lon="10.5912189"><ele>290.5</ele><time>2026-04-18T13:08:56.716Z</time></trkpt><trkpt lat="44.513269" lon="10.5910302"><ele>293.0</ele><time>2026-04-18T13:08:57.712Z</time></trkpt><trkpt lat="44.513081" lon="10.5908531"><ele>290.0</ele><time>2026-04-18T13:08:58.708Z</time></trkpt><trkpt lat="44.5128878" lon="10.5906752"><ele>287.0</ele><time>2026-04-18T13:08:59.71Z</time></trkpt><trkpt lat="44.5126909" lon="10.5904969"><ele>287.0</ele><time>2026-04-18T13:09:00.71Z</time></trkpt><trkpt lat="44.5124716" lon="10.5903436"><ele>287.0</ele><time>2026-04-18T13:09:01.695Z</time></trkpt><trkpt lat="44.512243" lon="10.5901983"><ele>288.5</ele><time>2026-04-18T13:09:02.717Z</time></trkpt><trkpt lat="44.5120029" lon="10.5900661"><ele>290.0</ele><time>2026-04-18T13:09:03.709Z</time></trkpt><trkpt lat="44.5117594" lon="10.5899234"><ele>290.0</ele><time>2026-04-18T13:09:04.719Z</time></trkpt><trkpt lat="44.5115102" lon="10.5897743"><ele>290.0</ele><time>2026-04-18T13:09:05.701Z</time></trkpt><trkpt lat="44.5112639" lon="10.5896294"><ele>291.5</ele><time>2026-04-18T13:09:06.71Z</time></trkpt><trkpt lat="44.5110225" lon="10.5894862"><ele>293.0</ele><time>2026-04-18T13:09:07.712Z</time></trkpt><trkpt lat="44.5107937" lon="10.589334"><ele>293.0</ele><time>2026-04-18T13:09:08.706Z</time></trkpt><trkpt lat="44.5105838" lon="10.5891904"><ele>293.0</ele><time>2026-04-18T13:09:09.697Z</time></trkpt><trkpt lat="44.5103821" lon="10.5890485"><ele>297.0</ele><time>2026-04-18T13:09:10.712Z</time></trkpt><trkpt lat="44.5101726" lon="10.5889181"><ele>301.0</ele><time>2026-04-18T13:09:11.7Z</time></trkpt><trkpt lat="44.5099568" lon="10.5888023"><ele>301.0</ele><time>2026-04-18T13:09:12.709Z</time></trkpt><trkpt lat="44.5097304" lon="10.5886986"><ele>301.0</ele><time>2026-04-18T13:09:13.712Z</time></trkpt><trkpt lat="44.5095093" lon="10.5886167"><ele>300.0</ele><time>2026-04-18T13:09:14.708Z</time></trkpt><trkpt lat="44.5092802" lon="10.5885474"><ele>299.0</ele><time>2026-04-18T13:09:15.706Z</time></trkpt><trkpt lat="44.5090686" lon="10.5884835"><ele>299.0</ele><time>2026-04-18T13:09:16.71Z</time></trkpt><trkpt lat="44.5088695" lon="10.5884355"><ele>299.0</ele><time>2026-04-18T13:09:17.708Z</time></trkpt><trkpt lat="44.5086882" lon="10.5883757"><ele>299.0</ele><time>2026-04-18T13:09:18.714Z</time></trkpt><trkpt lat="44.5085036" lon="10.5882941"><ele>299.6666666666667</ele><time>2026-04-18T13:09:19.714Z</time></trkpt><trkpt lat="44.5083238" lon="10.5881692"><ele>300.3333333333333</ele><time>2026-04-18T13:09:20.709Z</time></trkpt><trkpt lat="44.508158" lon="10.5880042"><ele>301.0</ele><time>2026-04-18T13:09:21.721Z</time></trkpt><trkpt lat="44.5080044" lon="10.5878036"><ele>302.66666666666663</ele><time>2026-04-18T13:09:22.714Z</time></trkpt><trkpt lat="44.5078553" lon="10.5875967"><ele>304.3333333333333</ele><time>2026-04-18T13:09:23.71Z</time></trkpt><trkpt lat="44.5077073" lon="10.5873892"><ele>306.0</ele><time>2026-04-18T13:09:24.708Z</time></trkpt><trkpt lat="44.5075463" lon="10.5872019"><ele>306.0</ele><time>2026-04-18T13:09:25.717Z</time></trkpt><trkpt lat="44.5073685" lon="10.5870465"><ele>306.0</ele><time>2026-04-18T13:09:26.709Z</time></trkpt><trkpt lat="44.5071752" lon="10.5869037"><ele>306.0</ele><time>2026-04-18T13:09:27.708Z</time></trkpt><trkpt lat="44.5069557" lon="10.5868103"><ele>305.5</ele><time>2026-04-18T13:09:28.714Z</time></trkpt><trkpt lat="44.506734" lon="10.5867395"><ele>305.0</ele><time>2026-04-18T13:09:29.709Z</time></trkpt><trkpt lat="44.5065133" lon="10.5866961"><ele>305.0</ele><time>2026-04-18T13:09:30.715Z</time></trkpt><trkpt lat="44.5062989" lon="10.5866813"><ele>305.0</ele><time>2026-04-18T13:09:31.706Z</time></trkpt><trkpt lat="44.5061" lon="10.5866374"><ele>305.0</ele><time>2026-04-18T13:09:32.712Z</time></trkpt><trkpt lat="44.5059191" lon="10.5865764"><ele>306.6666666666667</ele><time>2026-04-18T13:09:33.723Z</time></trkpt><trkpt lat="44.5057592" lon="10.5864974"><ele>308.3333333333333</ele><time>2026-04-18T13:09:34.717Z</time></trkpt><trkpt lat="44.5056217" lon="10.5863754"><ele>310.0</ele><time>2026-04-18T13:09:35.713Z</time></trkpt><trkpt lat="44.5055073" lon="10.5862191"><ele>308.66666666666663</ele><time>2026-04-18T13:09:36.72Z</time></trkpt><trkpt lat="44.5054164" lon="10.5860203"><ele>307.3333333333333</ele><time>2026-04-18T13:09:37.701Z</time></trkpt><trkpt lat="44.5053224" lon="10.5858008"><ele>306.0</ele><time>2026-04-18T13:09:38.728Z</time></trkpt><trkpt lat="44.5052539" lon="10.5855523"><ele>309.0</ele><time>2026-04-18T13:09:39.713Z</time></trkpt><trkpt lat="44.5051531" lon="10.5853216"><ele>312.0</ele><time>2026-04-18T13:09:40.704Z</time></trkpt><trkpt lat="44.5050312" lon="10.5851243"><ele>315.0</ele><time>2026-04-18T13:09:41.702Z</time></trkpt><trkpt lat="44.5048947" lon="10.5849435"><ele>315.0</ele><time>2026-04-18T13:09:42.708Z</time></trkpt><trkpt lat="44.5047165" lon="10.5848204"><ele>315.0</ele><time>2026-04-18T13:09:43.707Z</time></trkpt><trkpt lat="44.5045315" lon="10.5847455"><ele>315.0</ele><time>2026-04-18T13:09:44.713Z</time></trkpt><trkpt lat="44.5043699" lon="10.5846689"><ele>316.3333333333333</ele><time>2026-04-18T13:09:45.713Z</time></trkpt><trkpt lat="44.5042363" lon="10.5845534"><ele>317.66666666666663</ele><time>2026-04-18T13:09:46.718Z</time></trkpt><trkpt lat="44.5041305" lon="10.584389"><ele>319.0</ele><time>2026-04-18T13:09:47.709Z</time></trkpt><trkpt lat="44.5040103" lon="10.5842124"><ele>319.0</ele><time>2026-04-18T13:09:48.716Z</time></trkpt><trkpt lat="44.5039371" lon="10.5839669"><ele>319.0</ele><time>2026-04-18T13:09:49.704Z</time></trkpt><trkpt lat="44.5038214" lon="10.5837431"><ele>319.0</ele><time>2026-04-18T13:09:50.711Z</time></trkpt><trkpt lat="44.5036982" lon="10.5835327"><ele>317.66666666666663</ele><time>2026-04-18T13:09:51.723Z</time></trkpt><trkpt lat="44.5035434" lon="10.5833615"><ele>316.3333333333333</ele><time>2026-04-18T13:09:52.705Z</time></trkpt><trkpt lat="44.5033986" lon="10.583141"><ele>315.0</ele><time>2026-04-18T13:09:53.703Z</time></trkpt><trkpt lat="44.5032509" lon="10.5829128"><ele>320.5</ele><time>2026-04-18T13:09:54.712Z</time></trkpt><trkpt lat="44.5031095" lon="10.5826648"><ele>326.0</ele><time>2026-04-18T13:09:55.72Z</time></trkpt><trkpt lat="44.5029643" lon="10.5824168"><ele>326.0</ele><time>2026-04-18T13:09:56.707Z</time></trkpt><trkpt lat="44.5028185" lon="10.5821614"><ele>326.0</ele><time>2026-04-18T13:09:57.719Z</time></trkpt><trkpt lat="44.5026824" lon="10.581907"><ele>326.0</ele><time>2026-04-18T13:09:58.713Z</time></trkpt><trkpt lat="44.5025541" lon="10.5816716"><ele>326.0</ele><time>2026-04-18T13:09:59.699Z</time></trkpt><trkpt lat="44.5024128" lon="10.5814694"><ele>326.0</ele><time>2026-04-18T13:10:00.715Z</time></trkpt><trkpt lat="44.5022454" lon="10.5813052"><ele>327.0</ele><time>2026-04-18T13:10:01.715Z</time></trkpt><trkpt lat="44.5020639" lon="10.5811707"><ele>328.0</ele><time>2026-04-18T13:10:02.716Z</time></trkpt><trkpt lat="44.5018847" lon="10.5810336"><ele>329.0</ele><time>2026-04-18T13:10:03.711Z</time></trkpt><trkpt lat="44.5017195" lon="10.5808743"><ele>329.0</ele><time>2026-04-18T13:10:04.709Z</time></trkpt><trkpt lat="44.5015746" lon="10.58068"><ele>329.0</ele><time>2026-04-18T13:10:05.708Z</time></trkpt><trkpt lat="44.5014479" lon="10.5804532"><ele>329.0</ele><time>2026-04-18T13:10:06.714Z</time></trkpt><trkpt lat="44.5013186" lon="10.5802258"><ele>327.6666666666667</ele><time>2026-04-18T13:10:07.714Z</time></trkpt><trkpt lat="44.5011797" lon="10.5800032"><ele>326.3333333333333</ele><time>2026-04-18T13:10:08.7Z</time></trkpt><trkpt lat="44.5010408" lon="10.5797854"><ele>325.0</ele><time>2026-04-18T13:10:09.703Z</time></trkpt><trkpt lat="44.5008935" lon="10.5795867"><ele>329.0</ele><time>2026-04-18T13:10:10.694Z</time></trkpt><trkpt lat="44.500755" lon="10.5794135"><ele>333.0</ele><time>2026-04-18T13:10:11.717Z</time></trkpt><trkpt lat="44.5006105" lon="10.5792632"><ele>337.0</ele><time>2026-04-18T13:10:12.708Z</time></trkpt><trkpt lat="44.500489" lon="10.5790968"><ele>333.66666666666663</ele><time>2026-04-18T13:10:13.696Z</time></trkpt><trkpt lat="44.5003921" lon="10.5789014"><ele>330.3333333333333</ele><time>2026-04-18T13:10:14.708Z</time></trkpt><trkpt lat="44.5003352" lon="10.5786706"><ele>327.0</ele><time>2026-04-18T13:10:15.696Z</time></trkpt><trkpt lat="44.5002772" lon="10.5784448"><ele>327.0</ele><time>2026-04-18T13:10:16.707Z</time></trkpt><trkpt lat="44.5002228" lon="10.5781992"><ele>327.0</ele><time>2026-04-18T13:10:17.699Z</time></trkpt><trkpt lat="44.5001431" lon="10.5779676"><ele>327.0</ele><time>2026-04-18T13:10:18.707Z</time></trkpt><trkpt lat="44.5000431" lon="10.5777407"><ele>329.3333333333333</ele><time>2026-04-18T13:10:19.695Z</time></trkpt><trkpt lat="44.4999401" lon="10.5775207"><ele>331.66666666666663</ele><time>2026-04-18T13:10:20.709Z</time></trkpt><trkpt lat="44.4998474" lon="10.5772962"><ele>334.0</ele><time>2026-04-18T13:10:21.714Z</time></trkpt><trkpt lat="44.499759" lon="10.5770898"><ele>332.66666666666663</ele><time>2026-04-18T13:10:22.71Z</time></trkpt><trkpt lat="44.4996648" lon="10.5769014"><ele>331.3333333333333</ele><time>2026-04-18T13:10:23.717Z</time></trkpt><trkpt lat="44.4995569" lon="10.5767274"><ele>330.0</ele><time>2026-04-18T13:10:24.714Z</time></trkpt><trkpt lat="44.4994399" lon="10.5765735"><ele>330.0</ele><time>2026-04-18T13:10:25.7Z</time></trkpt><trkpt lat="44.4993094" lon="10.5764461"><ele>330.0</ele><time>2026-04-18T13:10:26.701Z</time></trkpt><trkpt lat="44.4991796" lon="10.5763402"><ele>330.0</ele><time>2026-04-18T13:10:27.702Z</time></trkpt><trkpt lat="44.4990481" lon="10.5762468"><ele>333.3333333333333</ele><time>2026-04-18T13:10:28.712Z</time></trkpt><trkpt lat="44.4989167" lon="10.5761618"><ele>336.66666666666663</ele><time>2026-04-18T13:10:29.714Z</time></trkpt><trkpt lat="44.4987751" lon="10.5761121"><ele>340.0</ele><time>2026-04-18T13:10:30.698Z</time></trkpt><trkpt lat="44.4986147" lon="10.5761105"><ele>341.0</ele><time>2026-04-18T13:10:31.716Z</time></trkpt><trkpt lat="44.4984407" lon="10.5761392"><ele>342.0</ele><time>2026-04-18T13:10:32.701Z</time></trkpt><trkpt lat="44.4982595" lon="10.5761825"><ele>343.0</ele><time>2026-04-18T13:10:33.709Z</time></trkpt><trkpt lat="44.4980763" lon="10.576222"><ele>339.0</ele><time>2026-04-18T13:10:34.707Z</time></trkpt><trkpt lat="44.4978981" lon="10.5762604"><ele>335.0</ele><time>2026-04-18T13:10:35.703Z</time></trkpt><trkpt lat="44.4977293" lon="10.576292"><ele>331.0</ele><time>2026-04-18T13:10:36.717Z</time></trkpt><trkpt lat="44.4975699" lon="10.5763189"><ele>331.0</ele><time>2026-04-18T13:10:37.71Z</time></trkpt><trkpt lat="44.4974093" lon="10.5763441"><ele>331.0</ele><time>2026-04-18T13:10:38.713Z</time></trkpt><trkpt lat="44.4972571" lon="10.5763662"><ele>331.0</ele><time>2026-04-18T13:10:39.706Z</time></trkpt><trkpt lat="44.4971095" lon="10.5763836"><ele>331.3333333333333</ele><time>2026-04-18T13:10:40.715Z</time></trkpt><trkpt lat="44.4969525" lon="10.5763831"><ele>331.6666666666667</ele><time>2026-04-18T13:10:41.697Z</time></trkpt><trkpt lat="44.496796" lon="10.5763548"><ele>332.0</ele><time>2026-04-18T13:10:42.715Z</time></trkpt><trkpt lat="44.4966381" lon="10.5763063"><ele>332.0</ele><time>2026-04-18T13:10:43.697Z</time></trkpt><trkpt lat="44.4964872" lon="10.576259"><ele>332.0</ele><time>2026-04-18T13:10:44.702Z</time></trkpt><trkpt lat="44.4963662" lon="10.5761987"><ele>332.0</ele><time>2026-04-18T13:10:45.707Z</time></trkpt><trkpt lat="44.4962419" lon="10.576117"><ele>332.0</ele><time>2026-04-18T13:10:46.698Z</time></trkpt><trkpt lat="44.4961217" lon="10.5760339"><ele>333.0</ele><time>2026-04-18T13:10:47.698Z</time></trkpt><trkpt lat="44.4960089" lon="10.5759199"><ele>334.0</ele><time>2026-04-18T13:10:48.703Z</time></trkpt><trkpt lat="44.4958985" lon="10.5758151"><ele>335.0</ele><time>2026-04-18T13:10:49.72Z</time></trkpt><trkpt lat="44.4957784" lon="10.5757461"><ele>336.0</ele><time>2026-04-18T13:10:50.714Z</time></trkpt><trkpt lat="44.4956506" lon="10.5757106"><ele>336.0</ele><time>2026-04-18T13:10:51.72Z</time></trkpt><trkpt lat="44.4955179" lon="10.5757057"><ele>336.0</ele><time>2026-04-18T13:10:52.696Z</time></trkpt><trkpt lat="44.4953846" lon="10.5757058"><ele>336.0</ele><time>2026-04-18T13:10:53.713Z</time></trkpt><trkpt lat="44.4952525" lon="10.5756996"><ele>336.0</ele><time>2026-04-18T13:10:54.697Z</time></trkpt><trkpt lat="44.4951227" lon="10.5756818"><ele>335.3333333333333</ele><time>2026-04-18T13:10:55.714Z</time></trkpt><trkpt lat="44.4949944" lon="10.5756092"><ele>334.66666666666663</ele><time>2026-04-18T13:10:56.698Z</time></trkpt><trkpt lat="44.4948607" lon="10.5755271"><ele>334.0</ele><time>2026-04-18T13:10:57.714Z</time></trkpt><trkpt lat="44.4947105" lon="10.5754082"><ele>335.0</ele><time>2026-04-18T13:10:58.713Z</time></trkpt><trkpt lat="44.4945273" lon="10.5752797"><ele>336.0</ele><time>2026-04-18T13:10:59.715Z</time></trkpt><trkpt lat="44.4943316" lon="10.5751433"><ele>337.0</ele><time>2026-04-18T13:11:00.716Z</time></trkpt><trkpt lat="44.4941305" lon="10.5750037"><ele>337.0</ele><time>2026-04-18T13:11:01.703Z</time></trkpt><trkpt lat="44.493924" lon="10.5748603"><ele>337.0</ele><time>2026-04-18T13:11:02.713Z</time></trkpt><trkpt lat="44.4937192" lon="10.5747127"><ele>336.5</ele><time>2026-04-18T13:11:03.708Z</time></trkpt><trkpt lat="44.4935157" lon="10.5745673"><ele>336.0</ele><time>2026-04-18T13:11:04.709Z</time></trkpt><trkpt lat="44.4933127" lon="10.5744232"><ele>337.0</ele><time>2026-04-18T13:11:05.709Z</time></trkpt><trkpt lat="44.4931209" lon="10.5742858"><ele>338.0</ele><time>2026-04-18T13:11:06.704Z</time></trkpt><trkpt lat="44.4929322" lon="10.574155"><ele>339.0</ele><time>2026-04-18T13:11:07.7Z</time></trkpt><trkpt lat="44.4927452" lon="10.574066"><ele>339.0</ele><time>2026-04-18T13:11:08.705Z</time></trkpt><trkpt lat="44.4925654" lon="10.5740252"><ele>339.0</ele><time>2026-04-18T13:11:09.71Z</time></trkpt><trkpt lat="44.4923821" lon="10.5740187"><ele>339.0</ele><time>2026-04-18T13:11:10.705Z</time></trkpt><trkpt lat="44.4921947" lon="10.5740592"><ele>339.0</ele><time>2026-04-18T13:11:11.704Z</time></trkpt><trkpt lat="44.4920052" lon="10.5740746"><ele>339.0</ele><time>2026-04-18T13:11:12.703Z</time></trkpt><trkpt lat="44.4918158" lon="10.5740614"><ele>339.0</ele><time>2026-04-18T13:11:13.699Z</time></trkpt><trkpt lat="44.4916441" lon="10.5739578"><ele>339.0</ele><time>2026-04-18T13:11:14.712Z</time></trkpt><trkpt lat="44.491455" lon="10.5738559"><ele>339.0</ele><time>2026-04-18T13:11:15.704Z</time></trkpt><trkpt lat="44.491255" lon="10.5737476"><ele>339.0</ele><time>2026-04-18T13:11:16.706Z</time></trkpt><trkpt lat="44.4910522" lon="10.5736348"><ele>341.0</ele><time>2026-04-18T13:11:17.715Z</time></trkpt><trkpt lat="44.4908546" lon="10.5735215"><ele>343.0</ele><time>2026-04-18T13:11:18.709Z</time></trkpt><trkpt lat="44.4906603" lon="10.573411"><ele>345.0</ele><time>2026-04-18T13:11:19.712Z</time></trkpt><trkpt lat="44.4904739" lon="10.5733071"><ele>342.6666666666667</ele><time>2026-04-18T13:11:20.698Z</time></trkpt><trkpt lat="44.4903079" lon="10.5732039"><ele>340.33333333333337</ele><time>2026-04-18T13:11:21.698Z</time></trkpt><trkpt lat="44.4901505" lon="10.5731148"><ele>338.0</ele><time>2026-04-18T13:11:22.712Z</time></trkpt><trkpt lat="44.4900219" lon="10.5729955"><ele>340.0</ele><time>2026-04-18T13:11:23.701Z</time></trkpt><trkpt lat="44.4899242" lon="10.5728248"><ele>342.0</ele><time>2026-04-18T13:11:24.711Z</time></trkpt><trkpt lat="44.4898498" lon="10.5726162"><ele>344.0</ele><time>2026-04-18T13:11:25.709Z</time></trkpt><trkpt lat="44.4898092" lon="10.5723725"><ele>344.0</ele><time>2026-04-18T13:11:26.709Z</time></trkpt><trkpt lat="44.4897898" lon="10.5721078"><ele>344.0</ele><time>2026-04-18T13:11:27.698Z</time></trkpt><trkpt lat="44.4897663" lon="10.5718321"><ele>344.0</ele><time>2026-04-18T13:11:28.71Z</time></trkpt><trkpt lat="44.489749" lon="10.5715509"><ele>346.33333333333337</ele><time>2026-04-18T13:11:29.707Z</time></trkpt><trkpt lat="44.4897426" lon="10.5712872"><ele>348.6666666666667</ele><time>2026-04-18T13:11:30.712Z</time></trkpt><trkpt lat="44.4897395" lon="10.571034"><ele>351.0</ele><time>2026-04-18T13:11:31.71Z</time></trkpt><trkpt lat="44.4897262" lon="10.5708032"><ele>351.75</ele><time>2026-04-18T13:11:32.704Z</time></trkpt><trkpt lat="44.4897008" lon="10.5706041"><ele>352.5</ele><time>2026-04-18T13:11:33.696Z</time></trkpt><trkpt lat="44.4896505" lon="10.5704358"><ele>353.25</ele><time>2026-04-18T13:11:34.696Z</time></trkpt><trkpt lat="44.4895649" lon="10.570306"><ele>354.0</ele><time>2026-04-18T13:11:35.713Z</time></trkpt><trkpt lat="44.4894478" lon="10.5702019"><ele>349.3333333333333</ele><time>2026-04-18T13:11:36.706Z</time></trkpt><trkpt lat="44.4893148" lon="10.5701016"><ele>344.66666666666663</ele><time>2026-04-18T13:11:37.692Z</time></trkpt><trkpt lat="44.4891695" lon="10.5700086"><ele>340.0</ele><time>2026-04-18T13:11:38.713Z</time></trkpt><trkpt lat="44.4890288" lon="10.569926"><ele>340.0</ele><time>2026-04-18T13:11:39.712Z</time></trkpt><trkpt lat="44.4888852" lon="10.5698943"><ele>340.0</ele><time>2026-04-18T13:11:40.708Z</time></trkpt><trkpt lat="44.4887379" lon="10.5699326"><ele>340.0</ele><time>2026-04-18T13:11:41.713Z</time></trkpt><trkpt lat="44.4885988" lon="10.5699995"><ele>340.0</ele><time>2026-04-18T13:11:42.697Z</time></trkpt><trkpt lat="44.4884789" lon="10.5701355"><ele>340.66666666666663</ele><time>2026-04-18T13:11:43.716Z</time></trkpt><trkpt lat="44.4883534" lon="10.5702863"><ele>341.3333333333333</ele><time>2026-04-18T13:11:44.705Z</time></trkpt><trkpt lat="44.4882215" lon="10.5704212"><ele>342.0</ele><time>2026-04-18T13:11:45.71Z</time></trkpt><trkpt lat="44.4880801" lon="10.5704907"><ele>340.0</ele><time>2026-04-18T13:11:46.712Z</time></trkpt><trkpt lat="44.487915" lon="10.5705022"><ele>338.0</ele><time>2026-04-18T13:11:47.698Z</time></trkpt><trkpt lat="44.487748" lon="10.5704492"><ele>336.0</ele><time>2026-04-18T13:11:48.713Z</time></trkpt><trkpt lat="44.4875726" lon="10.5703766"><ele>338.3333333333333</ele><time>2026-04-18T13:11:49.707Z</time></trkpt><trkpt lat="44.4874017" lon="10.5702403"><ele>340.66666666666663</ele><time>2026-04-18T13:11:50.696Z</time></trkpt><trkpt lat="44.487218" lon="10.5701113"><ele>343.0</ele><time>2026-04-18T13:11:51.709Z</time></trkpt><trkpt lat="44.4870317" lon="10.5699772"><ele>343.0</ele><time>2026-04-18T13:11:52.706Z</time></trkpt><trkpt lat="44.4868455" lon="10.5698411"><ele>343.0</ele><time>2026-04-18T13:11:53.706Z</time></trkpt><trkpt lat="44.486669" lon="10.5697131"><ele>343.0</ele><time>2026-04-18T13:11:54.708Z</time></trkpt><trkpt lat="44.4865005" lon="10.569591"><ele>343.66666666666663</ele><time>2026-04-18T13:11:55.692Z</time></trkpt><trkpt lat="44.4863322" lon="10.5694777"><ele>344.3333333333333</ele><time>2026-04-18T13:11:56.707Z</time></trkpt><trkpt lat="44.4861588" lon="10.5693684"><ele>345.0</ele><time>2026-04-18T13:11:57.707Z</time></trkpt><trkpt lat="44.4859857" lon="10.5692641"><ele>345.0</ele><time>2026-04-18T13:11:58.714Z</time></trkpt><trkpt lat="44.4858081" lon="10.5692076"><ele>345.0</ele><time>2026-04-18T13:11:59.705Z</time></trkpt><trkpt lat="44.4856374" lon="10.5691683"><ele>345.0</ele><time>2026-04-18T13:12:00.703Z</time></trkpt><trkpt lat="44.4854662" lon="10.5691118"><ele>344.3333333333333</ele><time>2026-04-18T13:12:01.704Z</time></trkpt><trkpt lat="44.4853177" lon="10.5690131"><ele>343.66666666666663</ele><time>2026-04-18T13:12:02.715Z</time></trkpt><trkpt lat="44.4851655" lon="10.5688998"><ele>343.0</ele><time>2026-04-18T13:12:03.703Z</time></trkpt><trkpt lat="44.485032" lon="10.5687344"><ele>343.66666666666663</ele><time>2026-04-18T13:12:04.712Z</time></trkpt><trkpt lat="44.4849024" lon="10.5685448"><ele>344.3333333333333</ele><time>2026-04-18T13:12:05.701Z</time></trkpt><trkpt lat="44.484793" lon="10.5683459"><ele>345.0</ele><time>2026-04-18T13:12:06.705Z</time></trkpt><trkpt lat="44.4846866" lon="10.5681388"><ele>345.0</ele><time>2026-04-18T13:12:07.707Z</time></trkpt><trkpt lat="44.4846121" lon="10.5679167"><ele>345.0</ele><time>2026-04-18T13:12:08.716Z</time></trkpt><trkpt lat="44.484584" lon="10.5676653"><ele>345.0</ele><time>2026-04-18T13:12:09.708Z</time></trkpt><trkpt lat="44.4845623" lon="10.5674174"><ele>345.3333333333333</ele><time>2026-04-18T13:12:10.717Z</time></trkpt><trkpt lat="44.4845464" lon="10.567155"><ele>345.66666666666663</ele><time>2026-04-18T13:12:11.699Z</time></trkpt><trkpt lat="44.4845079" lon="10.5669128"><ele>346.0</ele><time>2026-04-18T13:12:12.715Z</time></trkpt><trkpt lat="44.4844519" lon="10.5666777"><ele>346.0</ele><time>2026-04-18T13:12:13.698Z</time></trkpt><trkpt lat="44.4843528" lon="10.5664456"><ele>346.0</ele><time>2026-04-18T13:12:14.705Z</time></trkpt><trkpt lat="44.4842486" lon="10.566208"><ele>346.0</ele><time>2026-04-18T13:12:15.706Z</time></trkpt><trkpt lat="44.484138" lon="10.5659774"><ele>348.3333333333333</ele><time>2026-04-18T13:12:16.712Z</time></trkpt><trkpt lat="44.4840273" lon="10.5657514"><ele>350.6666666666667</ele><time>2026-04-18T13:12:17.713Z</time></trkpt><trkpt lat="44.4839209" lon="10.5655302"><ele>353.0</ele><time>2026-04-18T13:12:18.715Z</time></trkpt><trkpt lat="44.4838215" lon="10.5653113"><ele>353.33333333333337</ele><time>2026-04-18T13:12:19.721Z</time></trkpt><trkpt lat="44.4837202" lon="10.5650944"><ele>353.6666666666667</ele><time>2026-04-18T13:12:20.715Z</time></trkpt><trkpt lat="44.4836237" lon="10.5649012"><ele>354.0</ele><time>2026-04-18T13:12:21.703Z</time></trkpt><trkpt lat="44.4835367" lon="10.564688"><ele>355.3333333333333</ele><time>2026-04-18T13:12:22.699Z</time></trkpt><trkpt lat="44.4834572" lon="10.5644939"><ele>356.66666666666663</ele><time>2026-04-18T13:12:23.701Z</time></trkpt><trkpt lat="44.4833632" lon="10.5642963"><ele>358.0</ele><time>2026-04-18T13:12:24.714Z</time></trkpt><trkpt lat="44.4832712" lon="10.5641056"><ele>358.0</ele><time>2026-04-18T13:12:25.706Z</time></trkpt><trkpt lat="44.4831898" lon="10.5639291"><ele>358.0</ele><time>2026-04-18T13:12:26.715Z</time></trkpt><trkpt lat="44.4831038" lon="10.5637645"><ele>358.0</ele><time>2026-04-18T13:12:27.701Z</time></trkpt><trkpt lat="44.4830189" lon="10.5636052"><ele>358.0</ele><time>2026-04-18T13:12:28.714Z</time></trkpt><trkpt lat="44.4829263" lon="10.5634641"><ele>357.66666666666663</ele><time>2026-04-18T13:12:29.703Z</time></trkpt><trkpt lat="44.4828188" lon="10.5633222"><ele>357.3333333333333</ele><time>2026-04-18T13:12:30.698Z</time></trkpt><trkpt lat="44.4827015" lon="10.563189"><ele>357.0</ele><time>2026-04-18T13:12:31.714Z</time></trkpt><trkpt lat="44.4825721" lon="10.5630614"><ele>357.0</ele><time>2026-04-18T13:12:32.707Z</time></trkpt><trkpt lat="44.4824367" lon="10.5629318"><ele>357.0</ele><time>2026-04-18T13:12:33.719Z</time></trkpt><trkpt lat="44.482294" lon="10.5628"><ele>357.0</ele><time>2026-04-18T13:12:34.702Z</time></trkpt><trkpt lat="44.4821569" lon="10.5626617"><ele>357.0</ele><time>2026-04-18T13:12:35.716Z</time></trkpt><trkpt lat="44.4820282" lon="10.5625301"><ele>357.0</ele><time>2026-04-18T13:12:36.706Z</time></trkpt><trkpt lat="44.4818983" lon="10.5624012"><ele>357.0</ele><time>2026-04-18T13:12:37.709Z</time></trkpt><trkpt lat="44.4817753" lon="10.5622718"><ele>357.0</ele><time>2026-04-18T13:12:38.706Z</time></trkpt><trkpt lat="44.4816687" lon="10.562131"><ele>357.0</ele><time>2026-04-18T13:12:39.714Z</time></trkpt><trkpt lat="44.4815859" lon="10.561964"><ele>357.0</ele><time>2026-04-18T13:12:40.709Z</time></trkpt><trkpt lat="44.4815302" lon="10.5617657"><ele>357.0</ele><time>2026-04-18T13:12:41.712Z</time></trkpt><trkpt lat="44.4814851" lon="10.561556"><ele>358.6666666666667</ele><time>2026-04-18T13:12:42.703Z</time></trkpt><trkpt lat="44.4815234" lon="10.5613297"><ele>360.33333333333337</ele><time>2026-04-18T13:12:43.707Z</time></trkpt><trkpt lat="44.4815675" lon="10.561115"><ele>362.0</ele><time>2026-04-18T13:12:44.704Z</time></trkpt><trkpt lat="44.4816305" lon="10.5608894"><ele>362.0</ele><time>2026-04-18T13:12:45.702Z</time></trkpt><trkpt lat="44.4817021" lon="10.5606739"><ele>362.0</ele><time>2026-04-18T13:12:46.716Z</time></trkpt><trkpt lat="44.4817996" lon="10.5604791"><ele>362.0</ele><time>2026-04-18T13:12:47.707Z</time></trkpt><trkpt lat="44.4818937" lon="10.5602887"><ele>362.0</ele><time>2026-04-18T13:12:48.709Z</time></trkpt><trkpt lat="44.4819874" lon="10.5601032"><ele>362.0</ele><time>2026-04-18T13:12:49.715Z</time></trkpt><trkpt lat="44.4820507" lon="10.5599155"><ele>362.0</ele><time>2026-04-18T13:12:50.716Z</time></trkpt><trkpt lat="44.4820719" lon="10.5597261"><ele>362.0</ele><time>2026-04-18T13:12:51.698Z</time></trkpt><trkpt lat="44.482079" lon="10.5595259"><ele>362.6666666666667</ele><time>2026-04-18T13:12:52.723Z</time></trkpt><trkpt lat="44.4820438" lon="10.5593314"><ele>363.3333333333333</ele><time>2026-04-18T13:12:53.711Z</time></trkpt><trkpt lat="44.4819723" lon="10.5591396"><ele>364.0</ele><time>2026-04-18T13:12:54.708Z</time></trkpt><trkpt lat="44.4818708" lon="10.5589469"><ele>364.0</ele><time>2026-04-18T13:12:55.707Z</time></trkpt><trkpt lat="44.4817575" lon="10.5587589"><ele>364.0</ele><time>2026-04-18T13:12:56.71Z</time></trkpt><trkpt lat="44.481637" lon="10.5585655"><ele>364.0</ele><time>2026-04-18T13:12:57.713Z</time></trkpt><trkpt lat="44.4815162" lon="10.5583671"><ele>363.66666666666663</ele><time>2026-04-18T13:12:58.703Z</time></trkpt><trkpt lat="44.4813882" lon="10.5581561"><ele>363.3333333333333</ele><time>2026-04-18T13:12:59.711Z</time></trkpt><trkpt lat="44.4812407" lon="10.5579248"><ele>363.0</ele><time>2026-04-18T13:13:00.704Z</time></trkpt><trkpt lat="44.4810954" lon="10.5576695"><ele>363.0</ele><time>2026-04-18T13:13:01.703Z</time></trkpt><trkpt lat="44.4809553" lon="10.5574202"><ele>363.0</ele><time>2026-04-18T13:13:02.701Z</time></trkpt><trkpt lat="44.480831" lon="10.5571818"><ele>363.0</ele><time>2026-04-18T13:13:03.709Z</time></trkpt><trkpt lat="44.4807121" lon="10.5569679"><ele>363.3333333333333</ele><time>2026-04-18T13:13:04.705Z</time></trkpt><trkpt lat="44.4805855" lon="10.5567751"><ele>363.66666666666663</ele><time>2026-04-18T13:13:05.696Z</time></trkpt><trkpt lat="44.4804543" lon="10.5566023"><ele>364.0</ele><time>2026-04-18T13:13:06.697Z</time></trkpt><trkpt lat="44.4803253" lon="10.5564516"><ele>364.0</ele><time>2026-04-18T13:13:07.711Z</time></trkpt><trkpt lat="44.4802093" lon="10.5563086"><ele>364.0</ele><time>2026-04-18T13:13:08.698Z</time></trkpt><trkpt lat="44.480108" lon="10.556153"><ele>364.0</ele><time>2026-04-18T13:13:09.7Z</time></trkpt><trkpt lat="44.4800286" lon="10.555977"><ele>365.0</ele><time>2026-04-18T13:13:10.718Z</time></trkpt><trkpt lat="44.4799859" lon="10.5557859"><ele>366.0</ele><time>2026-04-18T13:13:11.703Z</time></trkpt><trkpt lat="44.4799746" lon="10.5555928"><ele>367.0</ele><time>2026-04-18T13:13:12.719Z</time></trkpt><trkpt lat="44.4799894" lon="10.5554001"><ele>368.0</ele><time>2026-04-18T13:13:13.717Z</time></trkpt><trkpt lat="44.4799887" lon="10.5552191"><ele>370.0</ele><time>2026-04-18T13:13:14.702Z</time></trkpt><trkpt lat="44.4799313" lon="10.555041"><ele>372.0</ele><time>2026-04-18T13:13:15.709Z</time></trkpt><trkpt lat="44.4798405" lon="10.5548676"><ele>374.0</ele><time>2026-04-18T13:13:16.717Z</time></trkpt><trkpt lat="44.4797434" lon="10.5546925"><ele>373.0</ele><time>2026-04-18T13:13:17.709Z</time></trkpt><trkpt lat="44.4796508" lon="10.5545157"><ele>372.0</ele><time>2026-04-18T13:13:18.703Z</time></trkpt><trkpt lat="44.4795594" lon="10.5543366"><ele>371.0</ele><time>2026-04-18T13:13:19.706Z</time></trkpt><trkpt lat="44.479496" lon="10.5541357"><ele>371.0</ele><time>2026-04-18T13:13:20.707Z</time></trkpt><trkpt lat="44.479464" lon="10.5539251"><ele>371.0</ele><time>2026-04-18T13:13:21.714Z</time></trkpt><trkpt lat="44.47946" lon="10.5537145"><ele>371.0</ele><time>2026-04-18T13:13:22.704Z</time></trkpt><trkpt lat="44.4794618" lon="10.5535053"><ele>371.6666666666667</ele><time>2026-04-18T13:13:23.715Z</time></trkpt><trkpt lat="44.4794653" lon="10.5532993"><ele>372.3333333333333</ele><time>2026-04-18T13:13:24.704Z</time></trkpt><trkpt lat="44.4794843" lon="10.5530917"><ele>373.0</ele><time>2026-04-18T13:13:25.71Z</time></trkpt><trkpt lat="44.4795351" lon="10.5528821"><ele>377.25</ele><time>2026-04-18T13:13:26.704Z</time></trkpt><trkpt lat="44.4796072" lon="10.5526888"><ele>381.5</ele><time>2026-04-18T13:13:27.704Z</time></trkpt><trkpt lat="44.4797025" lon="10.5525353"><ele>385.75</ele><time>2026-04-18T13:13:28.702Z</time></trkpt><trkpt lat="44.4797905" lon="10.5523972"><ele>390.0</ele><time>2026-04-18T13:13:29.698Z</time></trkpt><trkpt lat="44.4798522" lon="10.5522485"><ele>390.0</ele><time>2026-04-18T13:13:30.707Z</time></trkpt><trkpt lat="44.4798852" lon="10.5520771"><ele>390.0</ele><time>2026-04-18T13:13:31.711Z</time></trkpt><trkpt lat="44.4798816" lon="10.5519094"><ele>390.0</ele><time>2026-04-18T13:13:32.708Z</time></trkpt><trkpt lat="44.4798569" lon="10.5517477"><ele>390.0</ele><time>2026-04-18T13:13:33.719Z</time></trkpt><trkpt lat="44.4798322" lon="10.5515815"><ele>390.0</ele><time>2026-04-18T13:13:34.704Z</time></trkpt><trkpt lat="44.4798301" lon="10.5514184"><ele>390.0</ele><time>2026-04-18T13:13:35.713Z</time></trkpt><trkpt lat="44.4798552" lon="10.5512547"><ele>390.0</ele><time>2026-04-18T13:13:36.711Z</time></trkpt><trkpt lat="44.4798993" lon="10.5510827"><ele>390.0</ele><time>2026-04-18T13:13:37.714Z</time></trkpt><trkpt lat="44.4799383" lon="10.5509099"><ele>391.0</ele><time>2026-04-18T13:13:38.705Z</time></trkpt><trkpt lat="44.4799661" lon="10.5507205"><ele>392.0</ele><time>2026-04-18T13:13:39.712Z</time></trkpt><trkpt lat="44.4799808" lon="10.5505362"><ele>393.0</ele><time>2026-04-18T13:13:40.706Z</time></trkpt><trkpt lat="44.4799614" lon="10.5503543"><ele>394.0</ele><time>2026-04-18T13:13:41.709Z</time></trkpt><trkpt lat="44.4798849" lon="10.5501552"><ele>396.6666666666667</ele><time>2026-04-18T13:13:42.721Z</time></trkpt><trkpt lat="44.4797749" lon="10.5499315"><ele>399.33333333333337</ele><time>2026-04-18T13:13:43.708Z</time></trkpt><trkpt lat="44.479649" lon="10.5496668"><ele>402.0</ele><time>2026-04-18T13:13:44.71Z</time></trkpt><trkpt lat="44.4795335" lon="10.5493653"><ele>394.0</ele><time>2026-04-18T13:13:45.715Z</time></trkpt><trkpt lat="44.4794338" lon="10.5490674"><ele>386.0</ele><time>2026-04-18T13:13:46.711Z</time></trkpt><trkpt lat="44.4793638" lon="10.5487524"><ele>389.5</ele><time>2026-04-18T13:13:47.71Z</time></trkpt><trkpt lat="44.4793247" lon="10.5484178"><ele>393.0</ele><time>2026-04-18T13:13:48.722Z</time></trkpt><trkpt lat="44.4792963" lon="10.5480921"><ele>393.33333333333337</ele><time>2026-04-18T13:13:49.705Z</time></trkpt><trkpt lat="44.479277" lon="10.5477736"><ele>393.6666666666667</ele><time>2026-04-18T13:13:50.721Z</time></trkpt><trkpt lat="44.4792495" lon="10.5474854"><ele>394.0</ele><time>2026-04-18T13:13:51.703Z</time></trkpt><trkpt lat="44.4792019" lon="10.547227"><ele>395.0</ele><time>2026-04-18T13:13:52.707Z</time></trkpt><trkpt lat="44.4791471" lon="10.5469954"><ele>396.0</ele><time>2026-04-18T13:13:53.704Z</time></trkpt><trkpt lat="44.4791069" lon="10.5467719"><ele>397.0</ele><time>2026-04-18T13:13:54.701Z</time></trkpt><trkpt lat="44.4791172" lon="10.5465493"><ele>397.0</ele><time>2026-04-18T13:13:55.724Z</time></trkpt><trkpt lat="44.4791711" lon="10.5463358"><ele>397.0</ele><time>2026-04-18T13:13:56.713Z</time></trkpt><trkpt lat="44.4792296" lon="10.546126"><ele>397.0</ele><time>2026-04-18T13:13:57.705Z</time></trkpt><trkpt lat="44.4793205" lon="10.5459185"><ele>396.75</ele><time>2026-04-18T13:13:58.707Z</time></trkpt><trkpt lat="44.4794057" lon="10.5457394"><ele>396.5</ele><time>2026-04-18T13:13:59.716Z</time></trkpt><trkpt lat="44.4794762" lon="10.5455684"><ele>396.25</ele><time>2026-04-18T13:14:00.724Z</time></trkpt><trkpt lat="44.479524" lon="10.5453736"><ele>396.0</ele><time>2026-04-18T13:14:01.719Z</time></trkpt><trkpt lat="44.4795141" lon="10.5451758"><ele>399.0</ele><time>2026-04-18T13:14:02.72Z</time></trkpt><trkpt lat="44.4794534" lon="10.5449833"><ele>402.0</ele><time>2026-04-18T13:14:03.709Z</time></trkpt><trkpt lat="44.4793381" lon="10.5448116"><ele>405.0</ele><time>2026-04-18T13:14:04.719Z</time></trkpt><trkpt lat="44.4791818" lon="10.5446656"><ele>405.0</ele><time>2026-04-18T13:14:05.711Z</time></trkpt><trkpt lat="44.4789894" lon="10.5445472"><ele>405.0</ele><time>2026-04-18T13:14:06.718Z</time></trkpt><trkpt lat="44.4787816" lon="10.5444577"><ele>405.0</ele><time>2026-04-18T13:14:07.71Z</time></trkpt><trkpt lat="44.4785665" lon="10.5443843"><ele>404.33333333333337</ele><time>2026-04-18T13:14:08.714Z</time></trkpt><trkpt lat="44.4783577" lon="10.5443136"><ele>403.6666666666667</ele><time>2026-04-18T13:14:09.718Z</time></trkpt><trkpt lat="44.4781716" lon="10.5442349"><ele>403.0</ele><time>2026-04-18T13:14:10.712Z</time></trkpt><trkpt lat="44.4780118" lon="10.5441425"><ele>402.75</ele><time>2026-04-18T13:14:11.718Z</time></trkpt><trkpt lat="44.4778873" lon="10.5440223"><ele>402.5</ele><time>2026-04-18T13:14:12.708Z</time></trkpt><trkpt lat="44.477801" lon="10.543868"><ele>402.25</ele><time>2026-04-18T13:14:13.71Z</time></trkpt><trkpt lat="44.4777568" lon="10.543666"><ele>402.0</ele><time>2026-04-18T13:14:14.706Z</time></trkpt><trkpt lat="44.4777121" lon="10.5434416"><ele>402.0</ele><time>2026-04-18T13:14:15.708Z</time></trkpt><trkpt lat="44.4777042" lon="10.5431879"><ele>402.0</ele><time>2026-04-18T13:14:16.707Z</time></trkpt><trkpt lat="44.4777059" lon="10.5429116"><ele>402.0</ele><time>2026-04-18T13:14:17.714Z</time></trkpt><trkpt lat="44.4777178" lon="10.5426337"><ele>402.33333333333337</ele><time>2026-04-18T13:14:18.716Z</time></trkpt><trkpt lat="44.4777153" lon="10.5423783"><ele>402.6666666666667</ele><time>2026-04-18T13:14:19.717Z</time></trkpt><trkpt lat="44.477699" lon="10.5421425"><ele>403.0</ele><time>2026-04-18T13:14:20.714Z</time></trkpt><trkpt lat="44.4776543" lon="10.5419227"><ele>403.0</ele><time>2026-04-18T13:14:21.716Z</time></trkpt><trkpt lat="44.4775934" lon="10.5417054"><ele>403.0</ele><time>2026-04-18T13:14:22.711Z</time></trkpt><trkpt lat="44.4775016" lon="10.5414947"><ele>403.0</ele><time>2026-04-18T13:14:23.712Z</time></trkpt><trkpt lat="44.4774009" lon="10.5412743"><ele>406.0</ele><time>2026-04-18T13:14:24.709Z</time></trkpt><trkpt lat="44.4773075" lon="10.5410507"><ele>409.0</ele><time>2026-04-18T13:14:25.711Z</time></trkpt><trkpt lat="44.477218" lon="10.5408391"><ele>412.0</ele><time>2026-04-18T13:14:26.719Z</time></trkpt><trkpt lat="44.4771333" lon="10.540642"><ele>415.0</ele><time>2026-04-18T13:14:27.717Z</time></trkpt><trkpt lat="44.4770528" lon="10.5404617"><ele>418.0</ele><time>2026-04-18T13:14:28.721Z</time></trkpt><trkpt lat="44.477003" lon="10.5402787"><ele>421.0</ele><time>2026-04-18T13:14:29.71Z</time></trkpt><trkpt lat="44.4769903" lon="10.5400693"><ele>424.0</ele><time>2026-04-18T13:14:30.71Z</time></trkpt><trkpt lat="44.4769828" lon="10.5398528"><ele>424.0</ele><time>2026-04-18T13:14:31.708Z</time></trkpt><trkpt lat="44.4769551" lon="10.5396473"><ele>424.0</ele><time>2026-04-18T13:14:32.718Z</time></trkpt><trkpt lat="44.4768903" lon="10.5394503"><ele>424.0</ele><time>2026-04-18T13:14:33.699Z</time></trkpt><trkpt lat="44.4767798" lon="10.5392611"><ele>423.6666666666667</ele><time>2026-04-18T13:14:34.722Z</time></trkpt><trkpt lat="44.4766501" lon="10.5390783"><ele>423.33333333333337</ele><time>2026-04-18T13:14:35.71Z</time></trkpt><trkpt lat="44.4765043" lon="10.5389091"><ele>423.0</ele><time>2026-04-18T13:14:36.712Z</time></trkpt><trkpt lat="44.4763267" lon="10.5387978"><ele>430.33333333333337</ele><time>2026-04-18T13:14:37.714Z</time></trkpt><trkpt lat="44.4761367" lon="10.5387088"><ele>437.6666666666667</ele><time>2026-04-18T13:14:38.71Z</time></trkpt><trkpt lat="44.4759196" lon="10.538651"><ele>445.0</ele><time>2026-04-18T13:14:39.698Z</time></trkpt><trkpt lat="44.4756751" lon="10.5385856"><ele>441.0</ele><time>2026-04-18T13:14:40.714Z</time></trkpt><trkpt lat="44.475428" lon="10.5385173"><ele>437.0</ele><time>2026-04-18T13:14:41.717Z</time></trkpt><trkpt lat="44.4751904" lon="10.5384543"><ele>437.0</ele><time>2026-04-18T13:14:42.704Z</time></trkpt><trkpt lat="44.474966" lon="10.5384048"><ele>437.0</ele><time>2026-04-18T13:14:43.701Z</time></trkpt><trkpt lat="44.4747461" lon="10.5383842"><ele>437.0</ele><time>2026-04-18T13:14:44.713Z</time></trkpt><trkpt lat="44.4745304" lon="10.5383899"><ele>436.66666666666663</ele><time>2026-04-18T13:14:45.701Z</time></trkpt><trkpt lat="44.4743198" lon="10.5384106"><ele>436.33333333333337</ele><time>2026-04-18T13:14:46.707Z</time></trkpt><trkpt lat="44.4741281" lon="10.5384478"><ele>436.0</ele><time>2026-04-18T13:14:47.711Z</time></trkpt><trkpt lat="44.4739627" lon="10.5384875"><ele>436.0</ele><time>2026-04-18T13:14:48.713Z</time></trkpt><trkpt lat="44.4738181" lon="10.5385257"><ele>436.0</ele><time>2026-04-18T13:14:49.704Z</time></trkpt><trkpt lat="44.4736736" lon="10.538532"><ele>436.0</ele><time>2026-04-18T13:14:50.711Z</time></trkpt><trkpt lat="44.473546" lon="10.5384837"><ele>436.0</ele><time>2026-04-18T13:14:51.704Z</time></trkpt><trkpt lat="44.47344" lon="10.5383755"><ele>434.5</ele><time>2026-04-18T13:14:52.727Z</time></trkpt><trkpt lat="44.473364" lon="10.5382196"><ele>433.0</ele><time>2026-04-18T13:14:53.706Z</time></trkpt><trkpt lat="44.473331" lon="10.5380257"><ele>431.5</ele><time>2026-04-18T13:14:54.713Z</time></trkpt><trkpt lat="44.473338" lon="10.5378217"><ele>430.0</ele><time>2026-04-18T13:14:55.701Z</time></trkpt><trkpt lat="44.4733608" lon="10.5376152"><ele>433.0</ele><time>2026-04-18T13:14:56.711Z</time></trkpt><trkpt lat="44.4733848" lon="10.5374129"><ele>436.0</ele><time>2026-04-18T13:14:57.714Z</time></trkpt><trkpt lat="44.4733767" lon="10.5372256"><ele>439.0</ele><time>2026-04-18T13:14:58.713Z</time></trkpt><trkpt lat="44.4733351" lon="10.5370451"><ele>442.0</ele><time>2026-04-18T13:14:59.705Z</time></trkpt><trkpt lat="44.4732701" lon="10.5368691"><ele>440.33333333333337</ele><time>2026-04-18T13:15:00.703Z</time></trkpt><trkpt lat="44.4731662" lon="10.5367126"><ele>438.66666666666663</ele><time>2026-04-18T13:15:01.707Z</time></trkpt><trkpt lat="44.4730565" lon="10.5365639"><ele>437.0</ele><time>2026-04-18T13:15:02.698Z</time></trkpt><trkpt lat="44.472934" lon="10.5364381"><ele>437.0</ele><time>2026-04-18T13:15:03.707Z</time></trkpt><trkpt lat="44.472796" lon="10.5363359"><ele>437.0</ele><time>2026-04-18T13:15:04.715Z</time></trkpt><trkpt lat="44.4726402" lon="10.5362684"><ele>437.0</ele><time>2026-04-18T13:15:05.715Z</time></trkpt><trkpt lat="44.4724848" lon="10.536222"><ele>444.0</ele><time>2026-04-18T13:15:06.713Z</time></trkpt><trkpt lat="44.4723322" lon="10.5361817"><ele>451.0</ele><time>2026-04-18T13:15:07.718Z</time></trkpt><trkpt lat="44.4721824" lon="10.5361204"><ele>458.0</ele><time>2026-04-18T13:15:08.712Z</time></trkpt><trkpt lat="44.4720282" lon="10.5360605"><ele>458.0</ele><time>2026-04-18T13:15:09.71Z</time></trkpt><trkpt lat="44.4718705" lon="10.5359909"><ele>458.0</ele><time>2026-04-18T13:15:10.707Z</time></trkpt><trkpt lat="44.4717002" lon="10.5359347"><ele>458.0</ele><time>2026-04-18T13:15:11.719Z</time></trkpt><trkpt lat="44.4715392" lon="10.5358838"><ele>458.0</ele><time>2026-04-18T13:15:12.709Z</time></trkpt><trkpt lat="44.4713857" lon="10.5358361"><ele>458.0</ele><time>2026-04-18T13:15:13.707Z</time></trkpt><trkpt lat="44.4712459" lon="10.5357869"><ele>458.0</ele><time>2026-04-18T13:15:14.709Z</time></trkpt><trkpt lat="44.4711099" lon="10.5357396"><ele>458.0</ele><time>2026-04-18T13:15:15.701Z</time></trkpt><trkpt lat="44.470979" lon="10.5356937"><ele>455.75</ele><time>2026-04-18T13:15:16.711Z</time></trkpt><trkpt lat="44.4708594" lon="10.5356552"><ele>453.5</ele><time>2026-04-18T13:15:17.702Z</time></trkpt><trkpt lat="44.4707436" lon="10.5356208"><ele>451.25</ele><time>2026-04-18T13:15:18.722Z</time></trkpt><trkpt lat="44.4706397" lon="10.5355785"><ele>449.0</ele><time>2026-04-18T13:15:19.716Z</time></trkpt><trkpt lat="44.4705506" lon="10.5355022"><ele>449.0</ele><time>2026-04-18T13:15:20.713Z</time></trkpt><trkpt lat="44.4704742" lon="10.5353957"><ele>449.0</ele><time>2026-04-18T13:15:21.72Z</time></trkpt><trkpt lat="44.470415" lon="10.5352667"><ele>449.0</ele><time>2026-04-18T13:15:22.72Z</time></trkpt><trkpt lat="44.4703859" lon="10.5351223"><ele>449.0</ele><time>2026-04-18T13:15:23.717Z</time></trkpt><trkpt lat="44.4703763" lon="10.5349779"><ele>449.0</ele><time>2026-04-18T13:15:24.706Z</time></trkpt><trkpt lat="44.4703814" lon="10.5348335"><ele>449.0</ele><time>2026-04-18T13:15:25.714Z</time></trkpt><trkpt lat="44.4704217" lon="10.5346919"><ele>449.0</ele><time>2026-04-18T13:15:26.714Z</time></trkpt><trkpt lat="44.4704878" lon="10.5345601"><ele>449.0</ele><time>2026-04-18T13:15:27.718Z</time></trkpt><trkpt lat="44.4705582" lon="10.5344227"><ele>449.0</ele><time>2026-04-18T13:15:28.702Z</time></trkpt><trkpt lat="44.4706063" lon="10.5342843"><ele>449.0</ele><time>2026-04-18T13:15:29.716Z</time></trkpt><trkpt lat="44.4706292" lon="10.5341328"><ele>449.0</ele><time>2026-04-18T13:15:30.7Z</time></trkpt><trkpt lat="44.4706132" lon="10.5339978"><ele>449.0</ele><time>2026-04-18T13:15:31.72Z</time></trkpt><trkpt lat="44.4705684" lon="10.5338662"><ele>449.0</ele><time>2026-04-18T13:15:32.711Z</time></trkpt><trkpt lat="44.4705096" lon="10.5337276"><ele>449.0</ele><time>2026-04-18T13:15:33.711Z</time></trkpt><trkpt lat="44.4704506" lon="10.5335849"><ele>453.25</ele><time>2026-04-18T13:15:34.699Z</time></trkpt><trkpt lat="44.4703971" lon="10.5334291"><ele>457.5</ele><time>2026-04-18T13:15:35.712Z</time></trkpt><trkpt lat="44.4703628" lon="10.5332611"><ele>461.75</ele><time>2026-04-18T13:15:36.712Z</time></trkpt><trkpt lat="44.4703614" lon="10.5330783"><ele>466.0</ele><time>2026-04-18T13:15:37.712Z</time></trkpt><trkpt lat="44.470369" lon="10.5328936"><ele>463.5</ele><time>2026-04-18T13:15:38.713Z</time></trkpt><trkpt lat="44.4704218" lon="10.5327089"><ele>461.0</ele><time>2026-04-18T13:15:39.715Z</time></trkpt><trkpt lat="44.4704861" lon="10.5325335"><ele>458.5</ele><time>2026-04-18T13:15:40.717Z</time></trkpt><trkpt lat="44.4705526" lon="10.5323675"><ele>456.0</ele><time>2026-04-18T13:15:41.698Z</time></trkpt><trkpt lat="44.4706361" lon="10.5321916"><ele>454.25</ele><time>2026-04-18T13:15:42.716Z</time></trkpt><trkpt lat="44.4707139" lon="10.5320183"><ele>452.5</ele><time>2026-04-18T13:15:43.715Z</time></trkpt><trkpt lat="44.4707822" lon="10.5318499"><ele>450.75</ele><time>2026-04-18T13:15:44.698Z</time></trkpt><trkpt lat="44.4708596" lon="10.5316801"><ele>449.0</ele><time>2026-04-18T13:15:45.711Z</time></trkpt><trkpt lat="44.4709321" lon="10.5315155"><ele>449.0</ele><time>2026-04-18T13:15:46.714Z</time></trkpt><trkpt lat="44.4709724" lon="10.5313408"><ele>449.0</ele><time>2026-04-18T13:15:47.719Z</time></trkpt><trkpt lat="44.4709986" lon="10.5311663"><ele>449.0</ele><time>2026-04-18T13:15:48.704Z</time></trkpt><trkpt lat="44.4710074" lon="10.530987"><ele>449.0</ele><time>2026-04-18T13:15:49.726Z</time></trkpt><trkpt lat="44.4709795" lon="10.5308197"><ele>449.75</ele><time>2026-04-18T13:15:50.719Z</time></trkpt><trkpt lat="44.4709204" lon="10.5306596"><ele>450.5</ele><time>2026-04-18T13:15:51.725Z</time></trkpt><trkpt lat="44.4708441" lon="10.5305088"><ele>451.25</ele><time>2026-04-18T13:15:52.707Z</time></trkpt><trkpt lat="44.4707565" lon="10.5303572"><ele>452.0</ele><time>2026-04-18T13:15:53.724Z</time></trkpt><trkpt lat="44.4706749" lon="10.5302037"><ele>452.5</ele><time>2026-04-18T13:15:54.715Z</time></trkpt><trkpt lat="44.4706098" lon="10.5300436"><ele>453.0</ele><time>2026-04-18T13:15:55.712Z</time></trkpt><trkpt lat="44.4705707" lon="10.529869"><ele>453.5</ele><time>2026-04-18T13:15:56.709Z</time></trkpt><trkpt lat="44.4705602" lon="10.5296852"><ele>454.0</ele><time>2026-04-18T13:15:57.712Z</time></trkpt><trkpt lat="44.4705735" lon="10.5294956"><ele>455.0</ele><time>2026-04-18T13:15:58.711Z</time></trkpt><trkpt lat="44.4705843" lon="10.5293024"><ele>456.0</ele><time>2026-04-18T13:15:59.722Z</time></trkpt><trkpt lat="44.4705876" lon="10.529117"><ele>457.0</ele><time>2026-04-18T13:16:00.724Z</time></trkpt><trkpt lat="44.4706278" lon="10.5289255"><ele>458.0</ele><time>2026-04-18T13:16:01.709Z</time></trkpt><trkpt lat="44.4706878" lon="10.528734"><ele>457.25</ele><time>2026-04-18T13:16:02.711Z</time></trkpt><trkpt lat="44.4707521" lon="10.5285488"><ele>456.5</ele><time>2026-04-18T13:16:03.706Z</time></trkpt><trkpt lat="44.4708053" lon="10.5283657"><ele>455.75</ele><time>2026-04-18T13:16:04.708Z</time></trkpt><trkpt lat="44.4708349" lon="10.5281795"><ele>455.0</ele><time>2026-04-18T13:16:05.711Z</time></trkpt><trkpt lat="44.470829" lon="10.5279778"><ele>454.66666666666663</ele><time>2026-04-18T13:16:06.699Z</time></trkpt><trkpt lat="44.4707886" lon="10.5277811"><ele>454.33333333333337</ele><time>2026-04-18T13:16:07.701Z</time></trkpt><trkpt lat="44.4707132" lon="10.5275959"><ele>454.0</ele><time>2026-04-18T13:16:08.717Z</time></trkpt><trkpt lat="44.4706276" lon="10.5274153"><ele>454.0</ele><time>2026-04-18T13:16:09.702Z</time></trkpt><trkpt lat="44.470533" lon="10.5272261"><ele>454.0</ele><time>2026-04-18T13:16:10.722Z</time></trkpt><trkpt lat="44.4704468" lon="10.5270299"><ele>454.0</ele><time>2026-04-18T13:16:11.71Z</time></trkpt><trkpt lat="44.4703567" lon="10.5268316"><ele>455.0</ele><time>2026-04-18T13:16:12.698Z</time></trkpt><trkpt lat="44.4702705" lon="10.5266285"><ele>456.0</ele><time>2026-04-18T13:16:13.711Z</time></trkpt><trkpt lat="44.4701971" lon="10.526416"><ele>457.0</ele><time>2026-04-18T13:16:14.709Z</time></trkpt><trkpt lat="44.4701587" lon="10.5261865"><ele>457.0</ele><time>2026-04-18T13:16:15.719Z</time></trkpt><trkpt lat="44.4701326" lon="10.5259653"><ele>457.0</ele><time>2026-04-18T13:16:16.716Z</time></trkpt><trkpt lat="44.4701024" lon="10.5257501"><ele>457.0</ele><time>2026-04-18T13:16:17.713Z</time></trkpt><trkpt lat="44.470074" lon="10.5255596"><ele>456.5</ele><time>2026-04-18T13:16:18.726Z</time></trkpt><trkpt lat="44.4700231" lon="10.5253817"><ele>456.0</ele><time>2026-04-18T13:16:19.715Z</time></trkpt><trkpt lat="44.4699503" lon="10.5252115"><ele>455.5</ele><time>2026-04-18T13:16:20.708Z</time></trkpt><trkpt lat="44.4698632" lon="10.525042"><ele>455.0</ele><time>2026-04-18T13:16:21.721Z</time></trkpt><trkpt lat="44.4697714" lon="10.524872"><ele>455.0</ele><time>2026-04-18T13:16:22.719Z</time></trkpt><trkpt lat="44.4697081" lon="10.5246705"><ele>455.0</ele><time>2026-04-18T13:16:23.713Z</time></trkpt><trkpt lat="44.4696676" lon="10.5244498"><ele>455.0</ele><time>2026-04-18T13:16:24.711Z</time></trkpt><trkpt lat="44.4696395" lon="10.5242345"><ele>456.0</ele><time>2026-04-18T13:16:25.72Z</time></trkpt><trkpt lat="44.4696052" lon="10.524026"><ele>457.0</ele><time>2026-04-18T13:16:26.714Z</time></trkpt><trkpt lat="44.4695573" lon="10.523814"><ele>458.0</ele><time>2026-04-18T13:16:27.715Z</time></trkpt><trkpt lat="44.4694651" lon="10.5236004"><ele>458.0</ele><time>2026-04-18T13:16:28.709Z</time></trkpt><trkpt lat="44.4693406" lon="10.5233608"><ele>458.0</ele><time>2026-04-18T13:16:29.723Z</time></trkpt><trkpt lat="44.4691873" lon="10.5230775"><ele>458.5</ele><time>2026-04-18T13:16:30.72Z</time></trkpt><trkpt lat="44.4690081" lon="10.5227467"><ele>459.0</ele><time>2026-04-18T13:16:31.725Z</time></trkpt><trkpt lat="44.4688326" lon="10.5223976"><ele>462.5</ele><time>2026-04-18T13:16:32.696Z</time></trkpt><trkpt lat="44.4686484" lon="10.5220349"><ele>466.0</ele><time>2026-04-18T13:16:33.718Z</time></trkpt><trkpt lat="44.4684602" lon="10.521685"><ele>466.0</ele><time>2026-04-18T13:16:34.703Z</time></trkpt><trkpt lat="44.4682688" lon="10.5213294"><ele>466.0</ele><time>2026-04-18T13:16:35.714Z</time></trkpt><trkpt lat="44.4680885" lon="10.520992"><ele>465.0</ele><time>2026-04-18T13:16:36.715Z</time></trkpt><trkpt lat="44.4679233" lon="10.5206837"><ele>464.0</ele><time>2026-04-18T13:16:37.723Z</time></trkpt><trkpt lat="44.4677724" lon="10.5203984"><ele>464.0</ele><time>2026-04-18T13:16:38.716Z</time></trkpt><trkpt lat="44.4676313" lon="10.5201189"><ele>464.0</ele><time>2026-04-18T13:16:39.716Z</time></trkpt><trkpt lat="44.4675144" lon="10.5198189"><ele>466.5</ele><time>2026-04-18T13:16:40.704Z</time></trkpt><trkpt lat="44.4674041" lon="10.5194859"><ele>469.0</ele><time>2026-04-18T13:16:41.72Z</time></trkpt><trkpt lat="44.4672985" lon="10.5191583"><ele>469.0</ele><time>2026-04-18T13:16:42.718Z</time></trkpt><trkpt lat="44.4672082" lon="10.5188547"><ele>469.0</ele><time>2026-04-18T13:16:43.724Z</time></trkpt><trkpt lat="44.4671338" lon="10.5185787"><ele>469.0</ele><time>2026-04-18T13:16:44.704Z</time></trkpt><trkpt lat="44.4670702" lon="10.5182968"><ele>469.0</ele><time>2026-04-18T13:16:45.718Z</time></trkpt><trkpt lat="44.4670354" lon="10.517991"><ele>469.0</ele><time>2026-04-18T13:16:46.719Z</time></trkpt><trkpt lat="44.4669995" lon="10.5177046"><ele>469.0</ele><time>2026-04-18T13:16:47.715Z</time></trkpt><trkpt lat="44.4669761" lon="10.5173944"><ele>469.0</ele><time>2026-04-18T13:16:48.722Z</time></trkpt><trkpt lat="44.4669486" lon="10.5171162"><ele>469.0</ele><time>2026-04-18T13:16:49.723Z</time></trkpt><trkpt lat="44.4669097" lon="10.5168389"><ele>469.0</ele><time>2026-04-18T13:16:50.719Z</time></trkpt><trkpt lat="44.4668794" lon="10.516578"><ele>469.6666666666667</ele><time>2026-04-18T13:16:51.714Z</time></trkpt><trkpt lat="44.466852" lon="10.5163295"><ele>470.33333333333337</ele><time>2026-04-18T13:16:52.707Z</time></trkpt><trkpt lat="44.4668214" lon="10.5160992"><ele>471.0</ele><time>2026-04-18T13:16:53.72Z</time></trkpt><trkpt lat="44.4667898" lon="10.5158893"><ele>471.5</ele><time>2026-04-18T13:16:54.703Z</time></trkpt><trkpt lat="44.4667557" lon="10.5156918"><ele>472.0</ele><time>2026-04-18T13:16:55.703Z</time></trkpt><trkpt lat="44.4667262" lon="10.515512"><ele>472.5</ele><time>2026-04-18T13:16:56.71Z</time></trkpt><trkpt lat="44.4666977" lon="10.5153449"><ele>473.0</ele><time>2026-04-18T13:16:57.719Z</time></trkpt><trkpt lat="44.4666797" lon="10.5151859"><ele>473.5</ele><time>2026-04-18T13:16:58.721Z</time></trkpt><trkpt lat="44.4666429" lon="10.5150235"><ele>474.0</ele><time>2026-04-18T13:16:59.718Z</time></trkpt><trkpt lat="44.4665905" lon="10.5148677"><ele>474.5</ele><time>2026-04-18T13:17:00.711Z</time></trkpt><trkpt lat="44.4665973" lon="10.5147174"><ele>475.0</ele><time>2026-04-18T13:17:01.704Z</time></trkpt><trkpt lat="44.4666475" lon="10.5145733"><ele>477.25</ele><time>2026-04-18T13:17:02.717Z</time></trkpt><trkpt lat="44.4667447" lon="10.5144582"><ele>479.5</ele><time>2026-04-18T13:17:03.712Z</time></trkpt><trkpt lat="44.466869" lon="10.5143557"><ele>481.75</ele><time>2026-04-18T13:17:04.703Z</time></trkpt><trkpt lat="44.466979" lon="10.5142535"><ele>484.0</ele><time>2026-04-18T13:17:05.72Z</time></trkpt><trkpt lat="44.4670886" lon="10.5141025"><ele>483.33333333333337</ele><time>2026-04-18T13:17:06.713Z</time></trkpt><trkpt lat="44.467182" lon="10.513885"><ele>482.66666666666663</ele><time>2026-04-18T13:17:07.699Z</time></trkpt><trkpt lat="44.4672797" lon="10.5136485"><ele>482.0</ele><time>2026-04-18T13:17:08.714Z</time></trkpt><trkpt lat="44.4673803" lon="10.5133999"><ele>485.66666666666663</ele><time>2026-04-18T13:17:09.715Z</time></trkpt><trkpt lat="44.467485" lon="10.5131715"><ele>489.33333333333337</ele><time>2026-04-18T13:17:10.715Z</time></trkpt><trkpt lat="44.4675855" lon="10.512948"><ele>493.0</ele><time>2026-04-18T13:17:11.705Z</time></trkpt><trkpt lat="44.4676551" lon="10.5127459"><ele>497.0</ele><time>2026-04-18T13:17:12.721Z</time></trkpt><trkpt lat="44.4677121" lon="10.5125307"><ele>501.0</ele><time>2026-04-18T13:17:13.711Z</time></trkpt><trkpt lat="44.4677218" lon="10.5122666"><ele>505.0</ele><time>2026-04-18T13:17:14.7Z</time></trkpt><trkpt lat="44.4677308" lon="10.5119881"><ele>507.33333333333337</ele><time>2026-04-18T13:17:15.712Z</time></trkpt><trkpt lat="44.4677356" lon="10.5116915"><ele>509.66666666666663</ele><time>2026-04-18T13:17:16.714Z</time></trkpt><trkpt lat="44.467746" lon="10.511379"><ele>512.0</ele><time>2026-04-18T13:17:17.718Z</time></trkpt><trkpt lat="44.4677568" lon="10.5110702"><ele>514.5</ele><time>2026-04-18T13:17:18.704Z</time></trkpt><trkpt lat="44.4677713" lon="10.5107572"><ele>517.0</ele><time>2026-04-18T13:17:19.703Z</time></trkpt><trkpt lat="44.4677782" lon="10.5104325"><ele>518.5</ele><time>2026-04-18T13:17:20.708Z</time></trkpt><trkpt lat="44.4677698" lon="10.5100951"><ele>520.0</ele><time>2026-04-18T13:17:21.711Z</time></trkpt><trkpt lat="44.4677696" lon="10.509742"><ele>522.0</ele><time>2026-04-18T13:17:22.715Z</time></trkpt><trkpt lat="44.4677602" lon="10.5093753"><ele>524.0</ele><time>2026-04-18T13:17:23.714Z</time></trkpt><trkpt lat="44.4677428" lon="10.5090008"><ele>525.0</ele><time>2026-04-18T13:17:24.707Z</time></trkpt><trkpt lat="44.4677273" lon="10.5086354"><ele>526.0</ele><time>2026-04-18T13:17:25.704Z</time></trkpt><trkpt lat="44.4677205" lon="10.5082746"><ele>526.0</ele><time>2026-04-18T13:17:26.702Z</time></trkpt><trkpt lat="44.4677278" lon="10.5079396"><ele>526.0</ele><time>2026-04-18T13:17:27.711Z</time></trkpt><trkpt lat="44.4677413" lon="10.5076409"><ele>529.3333333333334</ele><time>2026-04-18T13:17:28.718Z</time></trkpt><trkpt lat="44.4677537" lon="10.5073668"><ele>532.6666666666666</ele><time>2026-04-18T13:17:29.721Z</time></trkpt><trkpt lat="44.4677445" lon="10.5071061"><ele>536.0</ele><time>2026-04-18T13:17:30.716Z</time></trkpt><trkpt lat="44.4677066" lon="10.5068491"><ele>539.6666666666666</ele><time>2026-04-18T13:17:31.704Z</time></trkpt><trkpt lat="44.467632" lon="10.5066093"><ele>543.3333333333334</ele><time>2026-04-18T13:17:32.712Z</time></trkpt><trkpt lat="44.4675266" lon="10.5063666"><ele>547.0</ele><time>2026-04-18T13:17:33.71Z</time></trkpt><trkpt lat="44.4674175" lon="10.5060972"><ele>547.3333333333334</ele><time>2026-04-18T13:17:34.715Z</time></trkpt><trkpt lat="44.4673817" lon="10.5058169"><ele>547.6666666666666</ele><time>2026-04-18T13:17:35.705Z</time></trkpt><trkpt lat="44.4673645" lon="10.5055362"><ele>548.0</ele><time>2026-04-18T13:17:36.725Z</time></trkpt><trkpt lat="44.4673336" lon="10.5052566"><ele>548.0</ele><time>2026-04-18T13:17:37.708Z</time></trkpt><trkpt lat="44.4672739" lon="10.5049906"><ele>548.0</ele><time>2026-04-18T13:17:38.707Z</time></trkpt><trkpt lat="44.4671991" lon="10.5047349"><ele>548.0</ele><time>2026-04-18T13:17:39.72Z</time></trkpt><trkpt lat="44.4671191" lon="10.5044845"><ele>554.3333333333333</ele><time>2026-04-18T13:17:40.705Z</time></trkpt><trkpt lat="44.4670497" lon="10.5042481"><ele>560.6666666666666</ele><time>2026-04-18T13:17:41.713Z</time></trkpt><trkpt lat="44.467003" lon="10.5040087"><ele>567.0</ele><time>2026-04-18T13:17:42.699Z</time></trkpt><trkpt lat="44.4669803" lon="10.5037511"><ele>569.0</ele><time>2026-04-18T13:17:43.714Z</time></trkpt><trkpt lat="44.4669821" lon="10.5034751"><ele>571.0</ele><time>2026-04-18T13:17:44.704Z</time></trkpt><trkpt lat="44.466968" lon="10.5031956"><ele>573.0</ele><time>2026-04-18T13:17:45.711Z</time></trkpt><trkpt lat="44.4669997" lon="10.5028849"><ele>574.0</ele><time>2026-04-18T13:17:46.718Z</time></trkpt><trkpt lat="44.4670201" lon="10.5026034"><ele>575.0</ele><time>2026-04-18T13:17:47.712Z</time></trkpt><trkpt lat="44.4670338" lon="10.5023302"><ele>576.0</ele><time>2026-04-18T13:17:48.723Z</time></trkpt><trkpt lat="44.4670607" lon="10.5020642"><ele>575.3333333333334</ele><time>2026-04-18T13:17:49.708Z</time></trkpt><trkpt lat="44.4670972" lon="10.5017979"><ele>574.6666666666667</ele><time>2026-04-18T13:17:50.712Z</time></trkpt><trkpt lat="44.4671446" lon="10.5015332"><ele>574.0</ele><time>2026-04-18T13:17:51.721Z</time></trkpt><trkpt lat="44.4671825" lon="10.5012483"><ele>574.0</ele><time>2026-04-18T13:17:52.705Z</time></trkpt><trkpt lat="44.4672153" lon="10.5009609"><ele>574.0</ele><time>2026-04-18T13:17:53.719Z</time></trkpt><trkpt lat="44.4672425" lon="10.5006534"><ele>574.0</ele><time>2026-04-18T13:17:54.713Z</time></trkpt><trkpt lat="44.4672851" lon="10.5003319"><ele>575.0</ele><time>2026-04-18T13:17:55.707Z</time></trkpt><trkpt lat="44.4673279" lon="10.5000193"><ele>576.0</ele><time>2026-04-18T13:17:56.705Z</time></trkpt><trkpt lat="44.4673747" lon="10.4997025"><ele>577.0</ele><time>2026-04-18T13:17:57.708Z</time></trkpt><trkpt lat="44.4674179" lon="10.4994012"><ele>578.0</ele><time>2026-04-18T13:17:58.709Z</time></trkpt><trkpt lat="44.4674662" lon="10.499133"><ele>579.0</ele><time>2026-04-18T13:17:59.709Z</time></trkpt><trkpt lat="44.4675163" lon="10.4988929"><ele>577.0</ele><time>2026-04-18T13:18:00.715Z</time></trkpt><trkpt lat="44.4675987" lon="10.4986654"><ele>575.0</ele><time>2026-04-18T13:18:01.712Z</time></trkpt><trkpt lat="44.4677086" lon="10.4984344"><ele>573.0</ele><time>2026-04-18T13:18:02.718Z</time></trkpt><trkpt lat="44.4678306" lon="10.4982329"><ele>573.0</ele><time>2026-04-18T13:18:03.716Z</time></trkpt><trkpt lat="44.4679257" lon="10.4980403"><ele>573.0</ele><time>2026-04-18T13:18:04.713Z</time></trkpt><trkpt lat="44.4679934" lon="10.4978487"><ele>573.0</ele><time>2026-04-18T13:18:05.708Z</time></trkpt><trkpt lat="44.4680559" lon="10.4976634"><ele>576.3333333333334</ele><time>2026-04-18T13:18:06.715Z</time></trkpt><trkpt lat="44.4681392" lon="10.4974932"><ele>579.6666666666667</ele><time>2026-04-18T13:18:07.717Z</time></trkpt><trkpt lat="44.46825" lon="10.4972984"><ele>583.0</ele><time>2026-04-18T13:18:08.718Z</time></trkpt><trkpt lat="44.4683715" lon="10.4970906"><ele>585.0</ele><time>2026-04-18T13:18:09.714Z</time></trkpt><trkpt lat="44.4684958" lon="10.4968665"><ele>587.0</ele><time>2026-04-18T13:18:10.705Z</time></trkpt><trkpt lat="44.4686035" lon="10.4966366"><ele>589.0</ele><time>2026-04-18T13:18:11.713Z</time></trkpt><trkpt lat="44.4686813" lon="10.4963953"><ele>590.0</ele><time>2026-04-18T13:18:12.711Z</time></trkpt><trkpt lat="44.4687148" lon="10.4961289"><ele>591.0</ele><time>2026-04-18T13:18:13.719Z</time></trkpt><trkpt lat="44.468721" lon="10.4958755"><ele>592.0</ele><time>2026-04-18T13:18:14.713Z</time></trkpt><trkpt lat="44.4687217" lon="10.4956022"><ele>592.3333333333334</ele><time>2026-04-18T13:18:15.711Z</time></trkpt><trkpt lat="44.46876" lon="10.495329"><ele>592.6666666666666</ele><time>2026-04-18T13:18:16.713Z</time></trkpt><trkpt lat="44.4688451" lon="10.4950738"><ele>593.0</ele><time>2026-04-18T13:18:17.712Z</time></trkpt><trkpt lat="44.4689183" lon="10.4948292"><ele>596.0</ele><time>2026-04-18T13:18:18.71Z</time></trkpt><trkpt lat="44.4689742" lon="10.4946259"><ele>599.0</ele><time>2026-04-18T13:18:19.713Z</time></trkpt><trkpt lat="44.4690692" lon="10.4944425"><ele>602.0</ele><time>2026-04-18T13:18:20.706Z</time></trkpt><trkpt lat="44.4691803" lon="10.4942588"><ele>604.6666666666666</ele><time>2026-04-18T13:18:21.703Z</time></trkpt><trkpt lat="44.4693306" lon="10.4941062"><ele>607.3333333333334</ele><time>2026-04-18T13:18:22.715Z</time></trkpt><trkpt lat="44.4694987" lon="10.4939366"><ele>610.0</ele><time>2026-04-18T13:18:23.725Z</time></trkpt><trkpt lat="44.4696367" lon="10.4937478"><ele>616.0</ele><time>2026-04-18T13:18:24.703Z</time></trkpt><trkpt lat="44.4697482" lon="10.4935725"><ele>622.0</ele><time>2026-04-18T13:18:25.72Z</time></trkpt><trkpt lat="44.4698572" lon="10.4934147"><ele>628.0</ele><time>2026-04-18T13:18:26.723Z</time></trkpt><trkpt lat="44.4699728" lon="10.4932937"><ele>628.0</ele><time>2026-04-18T13:18:27.71Z</time></trkpt><trkpt lat="44.4700479" lon="10.4931698"><ele>628.0</ele><time>2026-04-18T13:18:28.713Z</time></trkpt><trkpt lat="44.4700725" lon="10.4930331"><ele>628.0</ele><time>2026-04-18T13:18:29.714Z</time></trkpt><trkpt lat="44.4701071" lon="10.4929234"><ele>628.0</ele><time>2026-04-18T13:18:30.706Z</time></trkpt><trkpt lat="44.4700432" lon="10.4927884"><ele>628.0</ele><time>2026-04-18T13:18:31.703Z</time></trkpt><trkpt lat="44.469964" lon="10.4926501"><ele>629.0</ele><time>2026-04-18T13:18:32.712Z</time></trkpt><trkpt lat="44.4698267" lon="10.4925025"><ele>630.0</ele><time>2026-04-18T13:18:33.709Z</time></trkpt><trkpt lat="44.4697106" lon="10.4923871"><ele>631.0</ele><time>2026-04-18T13:18:34.705Z</time></trkpt><trkpt lat="44.4695797" lon="10.492282"><ele>631.0</ele><time>2026-04-18T13:18:35.705Z</time></trkpt><trkpt lat="44.4694641" lon="10.4921378"><ele>631.0</ele><time>2026-04-18T13:18:36.708Z</time></trkpt><trkpt lat="44.4693698" lon="10.4919856"><ele>631.0</ele><time>2026-04-18T13:18:37.719Z</time></trkpt><trkpt lat="44.4693167" lon="10.4918061"><ele>631.0</ele><time>2026-04-18T13:18:38.705Z</time></trkpt><trkpt lat="44.4692559" lon="10.4916439"><ele>634.2</ele><time>2026-04-18T13:18:39.707Z</time></trkpt><trkpt lat="44.4692239" lon="10.4914969"><ele>637.4000000000001</ele><time>2026-04-18T13:18:40.705Z</time></trkpt><trkpt lat="44.4692291" lon="10.4913601"><ele>640.6</ele><time>2026-04-18T13:18:41.701Z</time></trkpt><trkpt lat="44.4692273" lon="10.49126"><ele>643.8000000000001</ele><time>2026-04-18T13:18:42.717Z</time></trkpt><trkpt lat="44.4693378" lon="10.4912222"><ele>647.0</ele><time>2026-04-18T13:18:43.711Z</time></trkpt><trkpt lat="44.4694325" lon="10.4912745"><ele>647.0</ele><time>2026-04-18T13:18:44.703Z</time></trkpt><trkpt lat="44.4695257" lon="10.4914049"><ele>647.0</ele><time>2026-04-18T13:18:45.704Z</time></trkpt><trkpt lat="44.4695719" lon="10.4915647"><ele>647.0</ele><time>2026-04-18T13:18:46.714Z</time></trkpt><trkpt lat="44.4696031" lon="10.4917506"><ele>647.0</ele><time>2026-04-18T13:18:47.718Z</time></trkpt><trkpt lat="44.4696671" lon="10.4919161"><ele>647.6666666666666</ele><time>2026-04-18T13:18:48.718Z</time></trkpt><trkpt lat="44.4697726" lon="10.4920849"><ele>648.3333333333334</ele><time>2026-04-18T13:18:49.701Z</time></trkpt><trkpt lat="44.4699081" lon="10.4921966"><ele>649.0</ele><time>2026-04-18T13:18:50.719Z</time></trkpt><trkpt lat="44.4700567" lon="10.4922762"><ele>649.0</ele><time>2026-04-18T13:18:51.707Z</time></trkpt><trkpt lat="44.4702325" lon="10.4923498"><ele>649.0</ele><time>2026-04-18T13:18:52.716Z</time></trkpt><trkpt lat="44.4704133" lon="10.4923674"><ele>649.0</ele><time>2026-04-18T13:18:53.704Z</time></trkpt><trkpt lat="44.4705753" lon="10.4923263"><ele>651.6666666666667</ele><time>2026-04-18T13:18:54.708Z</time></trkpt><trkpt lat="44.4707393" lon="10.4922288"><ele>654.3333333333334</ele><time>2026-04-18T13:18:55.699Z</time></trkpt><trkpt lat="44.4709019" lon="10.4921207"><ele>657.0</ele><time>2026-04-18T13:18:56.705Z</time></trkpt><trkpt lat="44.471048" lon="10.4919826"><ele>661.5</ele><time>2026-04-18T13:18:57.713Z</time></trkpt><trkpt lat="44.4711698" lon="10.4918375"><ele>666.0</ele><time>2026-04-18T13:18:58.722Z</time></trkpt><trkpt lat="44.4712906" lon="10.4916775"><ele>670.5</ele><time>2026-04-18T13:18:59.716Z</time></trkpt><trkpt lat="44.4713764" lon="10.4915621"><ele>675.0</ele><time>2026-04-18T13:19:00.716Z</time></trkpt><trkpt lat="44.4714528" lon="10.4915142"><ele>675.75</ele><time>2026-04-18T13:19:01.708Z</time></trkpt><trkpt lat="44.4715494" lon="10.4914922"><ele>676.5</ele><time>2026-04-18T13:19:02.714Z</time></trkpt><trkpt lat="44.4716822" lon="10.4915617"><ele>677.25</ele><time>2026-04-18T13:19:03.719Z</time></trkpt><trkpt lat="44.4718115" lon="10.4916581"><ele>678.0</ele><time>2026-04-18T13:19:04.709Z</time></trkpt><trkpt lat="44.4719078" lon="10.4918075"><ele>678.0</ele><time>2026-04-18T13:19:05.719Z</time></trkpt><trkpt lat="44.471989" lon="10.4919085"><ele>678.0</ele><time>2026-04-18T13:19:06.705Z</time></trkpt><trkpt lat="44.4720539" lon="10.4920053"><ele>678.0</ele><time>2026-04-18T13:19:07.711Z</time></trkpt><trkpt lat="44.4721313" lon="10.4920654"><ele>678.0</ele><time>2026-04-18T13:19:08.706Z</time></trkpt><trkpt lat="44.4722116" lon="10.4920907"><ele>678.0</ele><time>2026-04-18T13:19:09.71Z</time></trkpt><trkpt lat="44.472279" lon="10.4921018"><ele>678.0</ele><time>2026-04-18T13:19:10.72Z</time></trkpt><trkpt lat="44.4723759" lon="10.4921006"><ele>681.0</ele><time>2026-04-18T13:19:12.711Z</time></trkpt><trkpt lat="44.472418" lon="10.4919601"><ele>684.0</ele><time>2026-04-18T13:19:14.698Z</time></trkpt><trkpt lat="44.4723979" lon="10.4918395"><ele>687.0</ele><time>2026-04-18T13:19:15.711Z</time></trkpt><trkpt lat="44.4723776" lon="10.4917244"><ele>690.0</ele><time>2026-04-18T13:19:16.705Z</time></trkpt><trkpt lat="44.4723237" lon="10.4916005"><ele>693.0</ele><time>2026-04-18T13:19:17.708Z</time></trkpt><trkpt lat="44.4722695" lon="10.4914807"><ele>693.0</ele><time>2026-04-18T13:19:18.71Z</time></trkpt><trkpt lat="44.4722142" lon="10.4913839"><ele>693.0</ele><time>2026-04-18T13:19:19.709Z</time></trkpt><trkpt lat="44.4721554" lon="10.4912733"><ele>693.0</ele><time>2026-04-18T13:19:20.72Z</time></trkpt><trkpt lat="44.4721114" lon="10.4911519"><ele>693.0</ele><time>2026-04-18T13:19:21.716Z</time></trkpt><trkpt lat="44.472086" lon="10.4910199"><ele>693.0</ele><time>2026-04-18T13:19:22.705Z</time></trkpt><trkpt lat="44.4720699" lon="10.4908801"><ele>694.4</ele><time>2026-04-18T13:19:23.708Z</time></trkpt><trkpt lat="44.472132" lon="10.4907349"><ele>695.8</ele><time>2026-04-18T13:19:25.714Z</time></trkpt><trkpt lat="44.4722151" lon="10.4906741"><ele>697.2</ele><time>2026-04-18T13:19:27.725Z</time></trkpt><trkpt lat="44.47229" lon="10.4906465"><ele>698.6</ele><time>2026-04-18T13:19:29.709Z</time></trkpt><trkpt lat="44.472317" lon="10.4905662"><ele>700.0</ele><time>2026-04-18T13:19:31.705Z</time></trkpt><trkpt lat="44.4722484" lon="10.4904592"><ele>700.0</ele><time>2026-04-18T13:19:33.704Z</time></trkpt><trkpt lat="44.4721595" lon="10.4904275"><ele>700.0</ele><time>2026-04-18T13:19:34.708Z</time></trkpt><trkpt lat="44.4720491" lon="10.4903965"><ele>700.0</ele><time>2026-04-18T13:19:35.713Z</time></trkpt><trkpt lat="44.4719133" lon="10.4903571"><ele>700.0</ele><time>2026-04-18T13:19:36.713Z</time></trkpt><trkpt lat="44.4717599" lon="10.4902871"><ele>698.0</ele><time>2026-04-18T13:19:37.724Z</time></trkpt><trkpt lat="44.4715932" lon="10.4902097"><ele>696.0</ele><time>2026-04-18T13:19:38.713Z</time></trkpt><trkpt lat="44.4714139" lon="10.4901356"><ele>694.0</ele><time>2026-04-18T13:19:39.716Z</time></trkpt><trkpt lat="44.4712038" lon="10.490034"><ele>693.6666666666667</ele><time>2026-04-18T13:19:40.705Z</time></trkpt><trkpt lat="44.4709964" lon="10.4899484"><ele>693.3333333333334</ele><time>2026-04-18T13:19:41.71Z</time></trkpt><trkpt lat="44.4708115" lon="10.4898607"><ele>693.0</ele><time>2026-04-18T13:19:42.722Z</time></trkpt><trkpt lat="44.4706248" lon="10.4897755"><ele>693.0</ele><time>2026-04-18T13:19:43.714Z</time></trkpt><trkpt lat="44.4704473" lon="10.4896991"><ele>693.0</ele><time>2026-04-18T13:19:44.716Z</time></trkpt><trkpt lat="44.4702705" lon="10.4896239"><ele>693.0</ele><time>2026-04-18T13:19:45.705Z</time></trkpt><trkpt lat="44.4700948" lon="10.4895355"><ele>694.6666666666666</ele><time>2026-04-18T13:19:46.715Z</time></trkpt><trkpt lat="44.4699177" lon="10.4894347"><ele>696.3333333333333</ele><time>2026-04-18T13:19:47.726Z</time></trkpt><trkpt lat="44.4697179" lon="10.4893361"><ele>698.0</ele><time>2026-04-18T13:19:48.71Z</time></trkpt><trkpt lat="44.4695019" lon="10.4892108"><ele>698.0</ele><time>2026-04-18T13:19:49.717Z</time></trkpt><trkpt lat="44.469296" lon="10.4890936"><ele>698.0</ele><time>2026-04-18T13:19:50.715Z</time></trkpt><trkpt lat="44.4690924" lon="10.4889866"><ele>698.0</ele><time>2026-04-18T13:19:51.72Z</time></trkpt><trkpt lat="44.4689054" lon="10.4888864"><ele>698.3333333333333</ele><time>2026-04-18T13:19:52.707Z</time></trkpt><trkpt lat="44.4687163" lon="10.4888053"><ele>698.6666666666666</ele><time>2026-04-18T13:19:53.721Z</time></trkpt><trkpt lat="44.4685561" lon="10.4886846"><ele>699.0</ele><time>2026-04-18T13:19:54.722Z</time></trkpt><trkpt lat="44.4684188" lon="10.4885472"><ele>699.0</ele><time>2026-04-18T13:19:55.714Z</time></trkpt><trkpt lat="44.4683022" lon="10.4883909"><ele>699.0</ele><time>2026-04-18T13:19:56.722Z</time></trkpt><trkpt lat="44.4682151" lon="10.4882173"><ele>699.0</ele><time>2026-04-18T13:19:57.705Z</time></trkpt><trkpt lat="44.4681417" lon="10.4880653"><ele>699.0</ele><time>2026-04-18T13:19:58.707Z</time></trkpt><trkpt lat="44.4680753" lon="10.4879"><ele>698.0</ele><time>2026-04-18T13:19:59.715Z</time></trkpt><trkpt lat="44.4680021" lon="10.4877558"><ele>697.0</ele><time>2026-04-18T13:20:00.707Z</time></trkpt><trkpt lat="44.4679205" lon="10.4876204"><ele>696.0</ele><time>2026-04-18T13:20:01.722Z</time></trkpt><trkpt lat="44.4678259" lon="10.4874991"><ele>695.0</ele><time>2026-04-18T13:20:02.723Z</time></trkpt><trkpt lat="44.4677386" lon="10.4873818"><ele>695.0</ele><time>2026-04-18T13:20:03.708Z</time></trkpt><trkpt lat="44.4676343" lon="10.487284"><ele>695.0</ele><time>2026-04-18T13:20:04.707Z</time></trkpt><trkpt lat="44.467518" lon="10.4871971"><ele>695.0</ele><time>2026-04-18T13:20:05.713Z</time></trkpt><trkpt lat="44.4673833" lon="10.4871478"><ele>695.0</ele><time>2026-04-18T13:20:06.71Z</time></trkpt><trkpt lat="44.4672286" lon="10.4871356"><ele>694.3333333333333</ele><time>2026-04-18T13:20:07.72Z</time></trkpt><trkpt lat="44.4670362" lon="10.4871354"><ele>693.6666666666666</ele><time>2026-04-18T13:20:08.725Z</time></trkpt><trkpt lat="44.4668153" lon="10.487126"><ele>693.0</ele><time>2026-04-18T13:20:09.712Z</time></trkpt><trkpt lat="44.4665818" lon="10.487096"><ele>697.5</ele><time>2026-04-18T13:20:10.704Z</time></trkpt><trkpt lat="44.4663339" lon="10.4870836"><ele>702.0</ele><time>2026-04-18T13:20:11.713Z</time></trkpt><trkpt lat="44.4660921" lon="10.4870665"><ele>702.0</ele><time>2026-04-18T13:20:12.711Z</time></trkpt><trkpt lat="44.4658572" lon="10.4870447"><ele>702.0</ele><time>2026-04-18T13:20:13.716Z</time></trkpt><trkpt lat="44.4656326" lon="10.4870264"><ele>700.6666666666666</ele><time>2026-04-18T13:20:14.717Z</time></trkpt><trkpt lat="44.4654126" lon="10.4870235"><ele>699.3333333333333</ele><time>2026-04-18T13:20:15.721Z</time></trkpt><trkpt lat="44.4652103" lon="10.4869996"><ele>698.0</ele><time>2026-04-18T13:20:16.723Z</time></trkpt><trkpt lat="44.4650059" lon="10.4869491"><ele>698.0</ele><time>2026-04-18T13:20:17.725Z</time></trkpt><trkpt lat="44.4648227" lon="10.4868506"><ele>698.0</ele><time>2026-04-18T13:20:18.719Z</time></trkpt><trkpt lat="44.4646444" lon="10.4867603"><ele>698.0</ele><time>2026-04-18T13:20:19.718Z</time></trkpt><trkpt lat="44.4644782" lon="10.486694"><ele>695.3333333333333</ele><time>2026-04-18T13:20:20.715Z</time></trkpt><trkpt lat="44.4643283" lon="10.4866111"><ele>692.6666666666666</ele><time>2026-04-18T13:20:21.719Z</time></trkpt><trkpt lat="44.4641921" lon="10.4865004"><ele>690.0</ele><time>2026-04-18T13:20:22.718Z</time></trkpt><trkpt lat="44.4640759" lon="10.4863526"><ele>692.6666666666666</ele><time>2026-04-18T13:20:23.716Z</time></trkpt><trkpt lat="44.4639758" lon="10.4861437"><ele>695.3333333333333</ele><time>2026-04-18T13:20:24.709Z</time></trkpt><trkpt lat="44.4638857" lon="10.4858908"><ele>698.0</ele><time>2026-04-18T13:20:25.715Z</time></trkpt><trkpt lat="44.4637974" lon="10.4856022"><ele>693.3333333333333</ele><time>2026-04-18T13:20:26.706Z</time></trkpt><trkpt lat="44.4637334" lon="10.4852947"><ele>688.6666666666666</ele><time>2026-04-18T13:20:27.712Z</time></trkpt><trkpt lat="44.463668" lon="10.4850043"><ele>684.0</ele><time>2026-04-18T13:20:28.704Z</time></trkpt><trkpt lat="44.4636091" lon="10.4847397"><ele>686.3333333333334</ele><time>2026-04-18T13:20:29.715Z</time></trkpt><trkpt lat="44.4635646" lon="10.484481"><ele>688.6666666666667</ele><time>2026-04-18T13:20:30.714Z</time></trkpt><trkpt lat="44.4635426" lon="10.4842259"><ele>691.0</ele><time>2026-04-18T13:20:31.718Z</time></trkpt><trkpt lat="44.4635502" lon="10.4839847"><ele>690.3333333333334</ele><time>2026-04-18T13:20:32.722Z</time></trkpt><trkpt lat="44.4635638" lon="10.4837502"><ele>689.6666666666666</ele><time>2026-04-18T13:20:33.711Z</time></trkpt><trkpt lat="44.4635832" lon="10.4835325"><ele>689.0</ele><time>2026-04-18T13:20:34.718Z</time></trkpt><trkpt lat="44.4635998" lon="10.4833209"><ele>689.0</ele><time>2026-04-18T13:20:35.708Z</time></trkpt><trkpt lat="44.4635827" lon="10.4831201"><ele>689.0</ele><time>2026-04-18T13:20:36.701Z</time></trkpt><trkpt lat="44.4635263" lon="10.4829346"><ele>689.0</ele><time>2026-04-18T13:20:37.713Z</time></trkpt><trkpt lat="44.4634435" lon="10.4827686"><ele>689.0</ele><time>2026-04-18T13:20:38.718Z</time></trkpt><trkpt lat="44.4633173" lon="10.4826287"><ele>689.6666666666666</ele><time>2026-04-18T13:20:39.701Z</time></trkpt><trkpt lat="44.4631583" lon="10.4825279"><ele>690.3333333333334</ele><time>2026-04-18T13:20:40.718Z</time></trkpt><trkpt lat="44.4629797" lon="10.4824209"><ele>691.0</ele><time>2026-04-18T13:20:41.706Z</time></trkpt><trkpt lat="44.4627974" lon="10.4822867"><ele>691.0</ele><time>2026-04-18T13:20:42.721Z</time></trkpt><trkpt lat="44.46262" lon="10.4820992"><ele>691.0</ele><time>2026-04-18T13:20:43.718Z</time></trkpt><trkpt lat="44.46243" lon="10.4818861"><ele>690.5</ele><time>2026-04-18T13:20:44.713Z</time></trkpt><trkpt lat="44.4622397" lon="10.4816779"><ele>690.0</ele><time>2026-04-18T13:20:45.706Z</time></trkpt><trkpt lat="44.4620817" lon="10.4814655"><ele>688.0</ele><time>2026-04-18T13:20:46.701Z</time></trkpt><trkpt lat="44.4619527" lon="10.4812525"><ele>686.0</ele><time>2026-04-18T13:20:47.71Z</time></trkpt><trkpt lat="44.4618465" lon="10.4810263"><ele>684.0</ele><time>2026-04-18T13:20:48.711Z</time></trkpt><trkpt lat="44.4617732" lon="10.4807848"><ele>684.0</ele><time>2026-04-18T13:20:49.714Z</time></trkpt><trkpt lat="44.4617189" lon="10.4805367"><ele>684.0</ele><time>2026-04-18T13:20:50.716Z</time></trkpt><trkpt lat="44.4617074" lon="10.4802707"><ele>684.0</ele><time>2026-04-18T13:20:51.707Z</time></trkpt><trkpt lat="44.4617426" lon="10.4800034"><ele>684.6666666666666</ele><time>2026-04-18T13:20:52.712Z</time></trkpt><trkpt lat="44.4617542" lon="10.4797393"><ele>685.3333333333333</ele><time>2026-04-18T13:20:53.707Z</time></trkpt><trkpt lat="44.4617956" lon="10.4794751"><ele>686.0</ele><time>2026-04-18T13:20:54.716Z</time></trkpt><trkpt lat="44.4618404" lon="10.4792093"><ele>684.6666666666666</ele><time>2026-04-18T13:20:55.713Z</time></trkpt><trkpt lat="44.461883" lon="10.4789608"><ele>683.3333333333334</ele><time>2026-04-18T13:20:56.699Z</time></trkpt><trkpt lat="44.4619167" lon="10.4787193"><ele>682.0</ele><time>2026-04-18T13:20:57.704Z</time></trkpt><trkpt lat="44.461943" lon="10.4784889"><ele>681.3333333333334</ele><time>2026-04-18T13:20:58.704Z</time></trkpt><trkpt lat="44.4619359" lon="10.4782599"><ele>680.6666666666666</ele><time>2026-04-18T13:20:59.709Z</time></trkpt><trkpt lat="44.4618814" lon="10.4780356"><ele>680.0</ele><time>2026-04-18T13:21:00.713Z</time></trkpt><trkpt lat="44.4618194" lon="10.4778381"><ele>681.6666666666666</ele><time>2026-04-18T13:21:01.72Z</time></trkpt><trkpt lat="44.4617709" lon="10.4776365"><ele>683.3333333333334</ele><time>2026-04-18T13:21:02.711Z</time></trkpt><trkpt lat="44.4617503" lon="10.4774234"><ele>685.0</ele><time>2026-04-18T13:21:03.721Z</time></trkpt><trkpt lat="44.4617306" lon="10.4772193"><ele>685.6666666666667</ele><time>2026-04-18T13:21:04.713Z</time></trkpt><trkpt lat="44.4617583" lon="10.4770013"><ele>686.3333333333334</ele><time>2026-04-18T13:21:05.7Z</time></trkpt><trkpt lat="44.461814" lon="10.4767871"><ele>687.0</ele><time>2026-04-18T13:21:06.704Z</time></trkpt><trkpt lat="44.4618849" lon="10.4765756"><ele>687.0</ele><time>2026-04-18T13:21:07.721Z</time></trkpt><trkpt lat="44.4619565" lon="10.4763622"><ele>687.0</ele><time>2026-04-18T13:21:08.715Z</time></trkpt><trkpt lat="44.4620317" lon="10.4761425"><ele>687.0</ele><time>2026-04-18T13:21:09.714Z</time></trkpt><trkpt lat="44.4620826" lon="10.4759027"><ele>687.3333333333334</ele><time>2026-04-18T13:21:10.713Z</time></trkpt><trkpt lat="44.4621263" lon="10.4756538"><ele>687.6666666666667</ele><time>2026-04-18T13:21:11.707Z</time></trkpt><trkpt lat="44.4621492" lon="10.4754076"><ele>688.0</ele><time>2026-04-18T13:21:12.717Z</time></trkpt><trkpt lat="44.4621567" lon="10.4751656"><ele>689.0</ele><time>2026-04-18T13:21:13.722Z</time></trkpt><trkpt lat="44.4621623" lon="10.4749342"><ele>690.0</ele><time>2026-04-18T13:21:14.709Z</time></trkpt><trkpt lat="44.4621578" lon="10.474701"><ele>691.0</ele><time>2026-04-18T13:21:15.722Z</time></trkpt><trkpt lat="44.4621447" lon="10.4744817"><ele>691.0</ele><time>2026-04-18T13:21:16.723Z</time></trkpt><trkpt lat="44.4621259" lon="10.4742738"><ele>691.0</ele><time>2026-04-18T13:21:17.719Z</time></trkpt><trkpt lat="44.4620903" lon="10.4740693"><ele>691.0</ele><time>2026-04-18T13:21:18.716Z</time></trkpt><trkpt lat="44.4620584" lon="10.4738686"><ele>691.0</ele><time>2026-04-18T13:21:19.717Z</time></trkpt><trkpt lat="44.4620182" lon="10.4736633"><ele>687.0</ele><time>2026-04-18T13:21:20.702Z</time></trkpt><trkpt lat="44.4619894" lon="10.4734646"><ele>683.0</ele><time>2026-04-18T13:21:21.721Z</time></trkpt><trkpt lat="44.4619642" lon="10.4732712"><ele>679.0</ele><time>2026-04-18T13:21:22.715Z</time></trkpt><trkpt lat="44.4619438" lon="10.4730748"><ele>675.0</ele><time>2026-04-18T13:21:23.723Z</time></trkpt><trkpt lat="44.4619221" lon="10.4728539"><ele>675.0</ele><time>2026-04-18T13:21:24.721Z</time></trkpt><trkpt lat="44.4619292" lon="10.4726485"><ele>675.0</ele><time>2026-04-18T13:21:25.723Z</time></trkpt><trkpt lat="44.4619569" lon="10.4724393"><ele>675.0</ele><time>2026-04-18T13:21:26.716Z</time></trkpt><trkpt lat="44.461987" lon="10.4722335"><ele>675.0</ele><time>2026-04-18T13:21:27.721Z</time></trkpt><trkpt lat="44.4620566" lon="10.4720466"><ele>680.6666666666666</ele><time>2026-04-18T13:21:28.707Z</time></trkpt><trkpt lat="44.4621356" lon="10.4718504"><ele>686.3333333333333</ele><time>2026-04-18T13:21:29.708Z</time></trkpt><trkpt lat="44.4622341" lon="10.4716544"><ele>692.0</ele><time>2026-04-18T13:21:30.711Z</time></trkpt><trkpt lat="44.4623398" lon="10.4714618"><ele>688.0</ele><time>2026-04-18T13:21:31.722Z</time></trkpt><trkpt lat="44.4624399" lon="10.4712667"><ele>684.0</ele><time>2026-04-18T13:21:32.703Z</time></trkpt><trkpt lat="44.4625366" lon="10.4710695"><ele>680.0</ele><time>2026-04-18T13:21:33.711Z</time></trkpt><trkpt lat="44.4626219" lon="10.4708661"><ele>680.0</ele><time>2026-04-18T13:21:34.704Z</time></trkpt><trkpt lat="44.4627056" lon="10.4706694"><ele>680.0</ele><time>2026-04-18T13:21:35.717Z</time></trkpt><trkpt lat="44.4627868" lon="10.4704847"><ele>680.0</ele><time>2026-04-18T13:21:36.698Z</time></trkpt><trkpt lat="44.4628618" lon="10.4703033"><ele>677.0</ele><time>2026-04-18T13:21:37.702Z</time></trkpt><trkpt lat="44.4629397" lon="10.4701251"><ele>674.0</ele><time>2026-04-18T13:21:38.723Z</time></trkpt><trkpt lat="44.463016" lon="10.4699416"><ele>671.0</ele><time>2026-04-18T13:21:39.714Z</time></trkpt><trkpt lat="44.4630876" lon="10.469756"><ele>673.6666666666666</ele><time>2026-04-18T13:21:40.711Z</time></trkpt><trkpt lat="44.4631705" lon="10.4695813"><ele>676.3333333333334</ele><time>2026-04-18T13:21:41.717Z</time></trkpt><trkpt lat="44.4632534" lon="10.469399"><ele>679.0</ele><time>2026-04-18T13:21:42.716Z</time></trkpt><trkpt lat="44.4633299" lon="10.4691992"><ele>679.0</ele><time>2026-04-18T13:21:43.704Z</time></trkpt><trkpt lat="44.4633846" lon="10.4689817"><ele>679.0</ele><time>2026-04-18T13:21:44.709Z</time></trkpt><trkpt lat="44.4634339" lon="10.4687611"><ele>679.0</ele><time>2026-04-18T13:21:45.708Z</time></trkpt><trkpt lat="44.4634949" lon="10.4685493"><ele>677.3333333333334</ele><time>2026-04-18T13:21:46.709Z</time></trkpt><trkpt lat="44.4635509" lon="10.4683464"><ele>675.6666666666666</ele><time>2026-04-18T13:21:47.722Z</time></trkpt><trkpt lat="44.4635837" lon="10.4681339"><ele>674.0</ele><time>2026-04-18T13:21:48.709Z</time></trkpt><trkpt lat="44.4636089" lon="10.4679223"><ele>673.3333333333333</ele><time>2026-04-18T13:21:49.714Z</time></trkpt><trkpt lat="44.4636015" lon="10.4676942"><ele>672.6666666666666</ele><time>2026-04-18T13:21:50.717Z</time></trkpt><trkpt lat="44.4635573" lon="10.4674705"><ele>672.0</ele><time>2026-04-18T13:21:51.712Z</time></trkpt><trkpt lat="44.4635116" lon="10.4672457"><ele>672.6666666666666</ele><time>2026-04-18T13:21:52.708Z</time></trkpt><trkpt lat="44.4634583" lon="10.4670426"><ele>673.3333333333333</ele><time>2026-04-18T13:21:53.722Z</time></trkpt><trkpt lat="44.4633959" lon="10.4668411"><ele>674.0</ele><time>2026-04-18T13:21:54.712Z</time></trkpt><trkpt lat="44.4633288" lon="10.4666466"><ele>674.0</ele><time>2026-04-18T13:21:55.723Z</time></trkpt><trkpt lat="44.4632544" lon="10.4664596"><ele>674.0</ele><time>2026-04-18T13:21:56.711Z</time></trkpt><trkpt lat="44.4631688" lon="10.4662757"><ele>674.0</ele><time>2026-04-18T13:21:57.716Z</time></trkpt><trkpt lat="44.4630745" lon="10.4660996"><ele>676.0</ele><time>2026-04-18T13:21:58.71Z</time></trkpt><trkpt lat="44.4629701" lon="10.4659409"><ele>678.0</ele><time>2026-04-18T13:21:59.71Z</time></trkpt><trkpt lat="44.4628514" lon="10.4657981"><ele>680.0</ele><time>2026-04-18T13:22:00.706Z</time></trkpt><trkpt lat="44.4627383" lon="10.4656636"><ele>678.0</ele><time>2026-04-18T13:22:01.717Z</time></trkpt><trkpt lat="44.4626373" lon="10.4655323"><ele>676.0</ele><time>2026-04-18T13:22:02.706Z</time></trkpt><trkpt lat="44.4625411" lon="10.4654069"><ele>674.0</ele><time>2026-04-18T13:22:03.71Z</time></trkpt><trkpt lat="44.462444" lon="10.4652922"><ele>672.0</ele><time>2026-04-18T13:22:04.706Z</time></trkpt><trkpt lat="44.4623571" lon="10.4651805"><ele>672.0</ele><time>2026-04-18T13:22:05.714Z</time></trkpt><trkpt lat="44.4622853" lon="10.4650618"><ele>672.0</ele><time>2026-04-18T13:22:06.712Z</time></trkpt><trkpt lat="44.4622392" lon="10.4649446"><ele>672.0</ele><time>2026-04-18T13:22:07.707Z</time></trkpt><trkpt lat="44.4622086" lon="10.4648397"><ele>672.0</ele><time>2026-04-18T13:22:08.715Z</time></trkpt><trkpt lat="44.4622829" lon="10.4647054"><ele>672.0</ele><time>2026-04-18T13:22:10.716Z</time></trkpt><trkpt lat="44.4623485" lon="10.4646808"><ele>672.0</ele><time>2026-04-18T13:22:11.714Z</time></trkpt><trkpt lat="44.4624163" lon="10.4646722"><ele>672.0</ele><time>2026-04-18T13:22:14.707Z</time></trkpt><trkpt lat="44.4624929" lon="10.4647606"><ele>672.0</ele><time>2026-04-18T13:22:16.714Z</time></trkpt><trkpt lat="44.4625218" lon="10.4648653"><ele>672.0</ele><time>2026-04-18T13:22:17.709Z</time></trkpt><trkpt lat="44.4625614" lon="10.4649896"><ele>672.0</ele><time>2026-04-18T13:22:18.702Z</time></trkpt><trkpt lat="44.4626069" lon="10.4651294"><ele>672.0</ele><time>2026-04-18T13:22:19.714Z</time></trkpt><trkpt lat="44.4626577" lon="10.4652734"><ele>672.0</ele><time>2026-04-18T13:22:20.709Z</time></trkpt><trkpt lat="44.4627213" lon="10.4654136"><ele>672.0</ele><time>2026-04-18T13:22:21.713Z</time></trkpt><trkpt lat="44.4628083" lon="10.4655522"><ele>672.0</ele><time>2026-04-18T13:22:22.716Z</time></trkpt><trkpt lat="44.4629198" lon="10.4656514"><ele>674.0</ele><time>2026-04-18T13:22:23.7Z</time></trkpt><trkpt lat="44.4630256" lon="10.4657272"><ele>676.0</ele><time>2026-04-18T13:22:24.704Z</time></trkpt><trkpt lat="44.4631704" lon="10.4657754"><ele>678.0</ele><time>2026-04-18T13:22:25.714Z</time></trkpt><trkpt lat="44.463318" lon="10.4658115"><ele>680.0</ele><time>2026-04-18T13:22:26.707Z</time></trkpt><trkpt lat="44.4634727" lon="10.4658467"><ele>680.0</ele><time>2026-04-18T13:22:27.716Z</time></trkpt><trkpt lat="44.4636111" lon="10.4658646"><ele>680.0</ele><time>2026-04-18T13:22:28.706Z</time></trkpt><trkpt lat="44.4637385" lon="10.4658761"><ele>680.0</ele><time>2026-04-18T13:22:29.715Z</time></trkpt><trkpt lat="44.4638667" lon="10.4658901"><ele>680.0</ele><time>2026-04-18T13:22:30.709Z</time></trkpt><trkpt lat="44.4639788" lon="10.4658879"><ele>681.2</ele><time>2026-04-18T13:22:31.709Z</time></trkpt><trkpt lat="44.4640903" lon="10.4658806"><ele>682.4</ele><time>2026-04-18T13:22:32.723Z</time></trkpt><trkpt lat="44.4641915" lon="10.46589"><ele>683.5999999999999</ele><time>2026-04-18T13:22:33.704Z</time></trkpt><trkpt lat="44.4643011" lon="10.4659285"><ele>684.8</ele><time>2026-04-18T13:22:34.713Z</time></trkpt><trkpt lat="44.4644155" lon="10.4659892"><ele>686.0</ele><time>2026-04-18T13:22:35.717Z</time></trkpt><trkpt lat="44.4645466" lon="10.4660647"><ele>686.4</ele><time>2026-04-18T13:22:36.708Z</time></trkpt><trkpt lat="44.46467" lon="10.4661072"><ele>686.8</ele><time>2026-04-18T13:22:37.713Z</time></trkpt><trkpt lat="44.4647735" lon="10.4661336"><ele>687.1999999999999</ele><time>2026-04-18T13:22:38.704Z</time></trkpt><trkpt lat="44.4648538" lon="10.4661348"><ele>687.5999999999999</ele><time>2026-04-18T13:22:39.706Z</time></trkpt><trkpt lat="44.4649438" lon="10.4661309"><ele>688.0</ele><time>2026-04-18T13:22:40.712Z</time></trkpt><trkpt lat="44.4650187" lon="10.4661042"><ele>688.0</ele><time>2026-04-18T13:22:41.715Z</time></trkpt><trkpt lat="44.4651079" lon="10.466068"><ele>688.0</ele><time>2026-04-18T13:22:42.712Z</time></trkpt><trkpt lat="44.465207" lon="10.4660261"><ele>688.0</ele><time>2026-04-18T13:22:43.699Z</time></trkpt><trkpt lat="44.4652908" lon="10.465987"><ele>688.0</ele><time>2026-04-18T13:22:44.709Z</time></trkpt><trkpt lat="44.4653967" lon="10.4659372"><ele>688.0</ele><time>2026-04-18T13:22:45.712Z</time></trkpt><trkpt lat="44.4654997" lon="10.4658881"><ele>689.0</ele><time>2026-04-18T13:22:46.711Z</time></trkpt><trkpt lat="44.465603" lon="10.4658384"><ele>690.0</ele><time>2026-04-18T13:22:47.709Z</time></trkpt><trkpt lat="44.4657207" lon="10.4657973"><ele>691.0</ele><time>2026-04-18T13:22:48.71Z</time></trkpt><trkpt lat="44.4658527" lon="10.465768"><ele>692.0</ele><time>2026-04-18T13:22:49.715Z</time></trkpt><trkpt lat="44.4659849" lon="10.4657475"><ele>692.0</ele><time>2026-04-18T13:22:50.711Z</time></trkpt><trkpt lat="44.4661181" lon="10.4657322"><ele>692.0</ele><time>2026-04-18T13:22:51.703Z</time></trkpt><trkpt lat="44.4662491" lon="10.4657084"><ele>692.0</ele><time>2026-04-18T13:22:52.715Z</time></trkpt><trkpt lat="44.4663853" lon="10.4656645"><ele>692.0</ele><time>2026-04-18T13:22:53.716Z</time></trkpt><trkpt lat="44.4665193" lon="10.4655966"><ele>692.0</ele><time>2026-04-18T13:22:54.721Z</time></trkpt><trkpt lat="44.4666572" lon="10.4655465"><ele>692.0</ele><time>2026-04-18T13:22:55.707Z</time></trkpt><trkpt lat="44.4667978" lon="10.4655009"><ele>692.0</ele><time>2026-04-18T13:22:56.709Z</time></trkpt><trkpt lat="44.4669342" lon="10.4654312"><ele>692.0</ele><time>2026-04-18T13:22:57.699Z</time></trkpt><trkpt lat="44.4670775" lon="10.4653829"><ele>691.6666666666666</ele><time>2026-04-18T13:22:58.709Z</time></trkpt><trkpt lat="44.4672324" lon="10.4653365"><ele>691.3333333333334</ele><time>2026-04-18T13:22:59.701Z</time></trkpt><trkpt lat="44.4673879" lon="10.4653012"><ele>691.0</ele><time>2026-04-18T13:23:00.715Z</time></trkpt><trkpt lat="44.4675443" lon="10.4652629"><ele>691.0</ele><time>2026-04-18T13:23:01.709Z</time></trkpt><trkpt lat="44.4676971" lon="10.465224"><ele>691.0</ele><time>2026-04-18T13:23:02.723Z</time></trkpt><trkpt lat="44.467848" lon="10.4651807"><ele>691.0</ele><time>2026-04-18T13:23:03.714Z</time></trkpt><trkpt lat="44.4679971" lon="10.4651508"><ele>692.0</ele><time>2026-04-18T13:23:04.714Z</time></trkpt><trkpt lat="44.4681432" lon="10.4650754"><ele>693.0</ele><time>2026-04-18T13:23:05.712Z</time></trkpt><trkpt lat="44.4682673" lon="10.4649901"><ele>694.0</ele><time>2026-04-18T13:23:06.703Z</time></trkpt><trkpt lat="44.4683878" lon="10.4649292"><ele>695.0</ele><time>2026-04-18T13:23:07.707Z</time></trkpt><trkpt lat="44.468511" lon="10.4648867"><ele>695.0</ele><time>2026-04-18T13:23:08.701Z</time></trkpt><trkpt lat="44.4686472" lon="10.4648526"><ele>695.0</ele><time>2026-04-18T13:23:09.7Z</time></trkpt><trkpt lat="44.4687875" lon="10.4648245"><ele>695.0</ele><time>2026-04-18T13:23:10.701Z</time></trkpt><trkpt lat="44.4689326" lon="10.4647943"><ele>695.0</ele><time>2026-04-18T13:23:11.717Z</time></trkpt><trkpt lat="44.4690862" lon="10.4647526"><ele>694.6666666666666</ele><time>2026-04-18T13:23:12.7Z</time></trkpt><trkpt lat="44.4692285" lon="10.4646998"><ele>694.3333333333334</ele><time>2026-04-18T13:23:13.701Z</time></trkpt><trkpt lat="44.4693857" lon="10.4646504"><ele>694.0</ele><time>2026-04-18T13:23:14.71Z</time></trkpt><trkpt lat="44.4695385" lon="10.464592"><ele>698.6666666666667</ele><time>2026-04-18T13:23:15.71Z</time></trkpt><trkpt lat="44.4696924" lon="10.4645497"><ele>703.3333333333334</ele><time>2026-04-18T13:23:16.706Z</time></trkpt><trkpt lat="44.4698594" lon="10.4645079"><ele>708.0</ele><time>2026-04-18T13:23:17.701Z</time></trkpt><trkpt lat="44.4700396" lon="10.4644757"><ele>708.0</ele><time>2026-04-18T13:23:18.705Z</time></trkpt><trkpt lat="44.4702155" lon="10.4644426"><ele>708.0</ele><time>2026-04-18T13:23:19.699Z</time></trkpt><trkpt lat="44.4703828" lon="10.4644062"><ele>708.0</ele><time>2026-04-18T13:23:20.71Z</time></trkpt><trkpt lat="44.4705244" lon="10.464365"><ele>708.75</ele><time>2026-04-18T13:23:21.697Z</time></trkpt><trkpt lat="44.4706597" lon="10.4643255"><ele>709.5</ele><time>2026-04-18T13:23:22.721Z</time></trkpt><trkpt lat="44.4707948" lon="10.4642817"><ele>710.25</ele><time>2026-04-18T13:23:23.714Z</time></trkpt><trkpt lat="44.4709126" lon="10.4642181"><ele>711.0</ele><time>2026-04-18T13:23:24.719Z</time></trkpt><trkpt lat="44.4710244" lon="10.4640987"><ele>711.0</ele><time>2026-04-18T13:23:25.706Z</time></trkpt><trkpt lat="44.4711385" lon="10.4639647"><ele>711.0</ele><time>2026-04-18T13:23:26.7Z</time></trkpt><trkpt lat="44.4712747" lon="10.4637741"><ele>711.0</ele><time>2026-04-18T13:23:27.716Z</time></trkpt><trkpt lat="44.471398" lon="10.4635876"><ele>710.6666666666666</ele><time>2026-04-18T13:23:28.711Z</time></trkpt><trkpt lat="44.471521" lon="10.4634201"><ele>710.3333333333333</ele><time>2026-04-18T13:23:29.712Z</time></trkpt><trkpt lat="44.4716304" lon="10.463267"><ele>710.0</ele><time>2026-04-18T13:23:30.7Z</time></trkpt><trkpt lat="44.4717394" lon="10.4631148"><ele>710.0</ele><time>2026-04-18T13:23:31.699Z</time></trkpt><trkpt lat="44.4718271" lon="10.4629596"><ele>710.0</ele><time>2026-04-18T13:23:32.713Z</time></trkpt><trkpt lat="44.471898" lon="10.4627348"><ele>710.0</ele><time>2026-04-18T13:23:33.702Z</time></trkpt><trkpt lat="44.471956" lon="10.4624882"><ele>710.6666666666666</ele><time>2026-04-18T13:23:34.715Z</time></trkpt><trkpt lat="44.4720144" lon="10.4622272"><ele>711.3333333333334</ele><time>2026-04-18T13:23:35.699Z</time></trkpt><trkpt lat="44.4720744" lon="10.4619553"><ele>712.0</ele><time>2026-04-18T13:23:36.714Z</time></trkpt><trkpt lat="44.4721391" lon="10.4616768"><ele>712.0</ele><time>2026-04-18T13:23:37.711Z</time></trkpt><trkpt lat="44.4721985" lon="10.4614205"><ele>712.0</ele><time>2026-04-18T13:23:38.711Z</time></trkpt><trkpt lat="44.4722644" lon="10.4611626"><ele>712.0</ele><time>2026-04-18T13:23:39.713Z</time></trkpt><trkpt lat="44.4723216" lon="10.460925"><ele>713.5</ele><time>2026-04-18T13:23:40.699Z</time></trkpt><trkpt lat="44.4723799" lon="10.4607324"><ele>715.0</ele><time>2026-04-18T13:23:41.719Z</time></trkpt><trkpt lat="44.4724353" lon="10.4605747"><ele>716.5</ele><time>2026-04-18T13:23:42.711Z</time></trkpt><trkpt lat="44.4725042" lon="10.4604399"><ele>718.0</ele><time>2026-04-18T13:23:43.7Z</time></trkpt><trkpt lat="44.4725819" lon="10.4603085"><ele>719.0</ele><time>2026-04-18T13:23:44.702Z</time></trkpt><trkpt lat="44.4726779" lon="10.4601897"><ele>720.0</ele><time>2026-04-18T13:23:45.716Z</time></trkpt><trkpt lat="44.4727874" lon="10.4600937"><ele>721.0</ele><time>2026-04-18T13:23:46.71Z</time></trkpt><trkpt lat="44.4728868" lon="10.4600356"><ele>722.0</ele><time>2026-04-18T13:23:47.699Z</time></trkpt><trkpt lat="44.4730264" lon="10.4600053"><ele>723.0</ele><time>2026-04-18T13:23:48.709Z</time></trkpt><trkpt lat="44.4731445" lon="10.4599409"><ele>724.0</ele><time>2026-04-18T13:23:49.7Z</time></trkpt><trkpt lat="44.4732339" lon="10.4598314"><ele>725.0</ele><time>2026-04-18T13:23:50.71Z</time></trkpt><trkpt lat="44.4732943" lon="10.459706"><ele>726.0</ele><time>2026-04-18T13:23:51.703Z</time></trkpt><trkpt lat="44.4733789" lon="10.4595724"><ele>723.0</ele><time>2026-04-18T13:23:52.705Z</time></trkpt><trkpt lat="44.4733966" lon="10.459402"><ele>720.0</ele><time>2026-04-18T13:23:53.7Z</time></trkpt><trkpt lat="44.4734165" lon="10.4592395"><ele>717.0</ele><time>2026-04-18T13:23:54.712Z</time></trkpt><trkpt lat="44.4734683" lon="10.4590838"><ele>714.0</ele><time>2026-04-18T13:23:55.699Z</time></trkpt><trkpt lat="44.473551" lon="10.4589375"><ele>714.0</ele><time>2026-04-18T13:23:56.707Z</time></trkpt><trkpt lat="44.4736614" lon="10.4588276"><ele>714.0</ele><time>2026-04-18T13:23:57.705Z</time></trkpt><trkpt lat="44.4737756" lon="10.4587098"><ele>714.0</ele><time>2026-04-18T13:23:58.699Z</time></trkpt><trkpt lat="44.4739095" lon="10.4585766"><ele>714.0</ele><time>2026-04-18T13:23:59.697Z</time></trkpt><trkpt lat="44.4740104" lon="10.4584003"><ele>715.0</ele><time>2026-04-18T13:24:00.718Z</time></trkpt><trkpt lat="44.4741069" lon="10.4582397"><ele>716.0</ele><time>2026-04-18T13:24:01.707Z</time></trkpt><trkpt lat="44.4742153" lon="10.4581335"><ele>717.0</ele><time>2026-04-18T13:24:02.702Z</time></trkpt><trkpt lat="44.4743056" lon="10.4579892"><ele>718.0</ele><time>2026-04-18T13:24:03.714Z</time></trkpt><trkpt lat="44.4743691" lon="10.457804"><ele>717.75</ele><time>2026-04-18T13:24:04.712Z</time></trkpt><trkpt lat="44.4744393" lon="10.4576419"><ele>717.5</ele><time>2026-04-18T13:24:05.716Z</time></trkpt><trkpt lat="44.4745377" lon="10.4575098"><ele>717.25</ele><time>2026-04-18T13:24:06.714Z</time></trkpt><trkpt lat="44.4746436" lon="10.457378"><ele>717.0</ele><time>2026-04-18T13:24:07.716Z</time></trkpt><trkpt lat="44.474722" lon="10.4572131"><ele>712.0</ele><time>2026-04-18T13:24:08.711Z</time></trkpt><trkpt lat="44.4748146" lon="10.4570113"><ele>707.0</ele><time>2026-04-18T13:24:09.699Z</time></trkpt><trkpt lat="44.4749065" lon="10.4568194"><ele>702.0</ele><time>2026-04-18T13:24:10.713Z</time></trkpt><trkpt lat="44.4749926" lon="10.4566473"><ele>702.0</ele><time>2026-04-18T13:24:11.701Z</time></trkpt><trkpt lat="44.4750808" lon="10.4565015"><ele>702.0</ele><time>2026-04-18T13:24:12.702Z</time></trkpt><trkpt lat="44.4751788" lon="10.4563862"><ele>702.0</ele><time>2026-04-18T13:24:13.71Z</time></trkpt><trkpt lat="44.4752939" lon="10.4562928"><ele>702.0</ele><time>2026-04-18T13:24:14.712Z</time></trkpt><trkpt lat="44.4754237" lon="10.4562205"><ele>700.75</ele><time>2026-04-18T13:24:15.713Z</time></trkpt><trkpt lat="44.4755762" lon="10.4561724"><ele>699.5</ele><time>2026-04-18T13:24:16.715Z</time></trkpt><trkpt lat="44.4757199" lon="10.4561373"><ele>698.25</ele><time>2026-04-18T13:24:17.712Z</time></trkpt><trkpt lat="44.4758627" lon="10.4561027"><ele>697.0</ele><time>2026-04-18T13:24:18.712Z</time></trkpt><trkpt lat="44.4759983" lon="10.4560565"><ele>697.0</ele><time>2026-04-18T13:24:19.71Z</time></trkpt><trkpt lat="44.4761188" lon="10.4559915"><ele>697.0</ele><time>2026-04-18T13:24:20.714Z</time></trkpt><trkpt lat="44.4762387" lon="10.4559337"><ele>697.0</ele><time>2026-04-18T13:24:21.701Z</time></trkpt><trkpt lat="44.4763351" lon="10.4558315"><ele>697.0</ele><time>2026-04-18T13:24:22.703Z</time></trkpt><trkpt lat="44.4764041" lon="10.4556664"><ele>696.25</ele><time>2026-04-18T13:24:23.697Z</time></trkpt><trkpt lat="44.4764782" lon="10.4555049"><ele>695.5</ele><time>2026-04-18T13:24:24.72Z</time></trkpt><trkpt lat="44.4765443" lon="10.4553805"><ele>694.75</ele><time>2026-04-18T13:24:25.71Z</time></trkpt><trkpt lat="44.4766181" lon="10.4552663"><ele>694.0</ele><time>2026-04-18T13:24:26.71Z</time></trkpt><trkpt lat="44.4767208" lon="10.4551799"><ele>694.0</ele><time>2026-04-18T13:24:27.697Z</time></trkpt><trkpt lat="44.4768487" lon="10.4551405"><ele>694.0</ele><time>2026-04-18T13:24:28.72Z</time></trkpt><trkpt lat="44.476991" lon="10.4550851"><ele>694.0</ele><time>2026-04-18T13:24:29.716Z</time></trkpt><trkpt lat="44.4771283" lon="10.4550161"><ele>694.0</ele><time>2026-04-18T13:24:30.701Z</time></trkpt><trkpt lat="44.4772524" lon="10.4549396"><ele>694.75</ele><time>2026-04-18T13:24:31.705Z</time></trkpt><trkpt lat="44.4773726" lon="10.4548614"><ele>695.5</ele><time>2026-04-18T13:24:32.705Z</time></trkpt><trkpt lat="44.4774973" lon="10.4547941"><ele>696.25</ele><time>2026-04-18T13:24:33.707Z</time></trkpt><trkpt lat="44.4776329" lon="10.4547383"><ele>697.0</ele><time>2026-04-18T13:24:34.715Z</time></trkpt><trkpt lat="44.477771" lon="10.4546846"><ele>697.0</ele><time>2026-04-18T13:24:35.714Z</time></trkpt><trkpt lat="44.4779057" lon="10.4546264"><ele>697.0</ele><time>2026-04-18T13:24:36.715Z</time></trkpt><trkpt lat="44.4780396" lon="10.4545627"><ele>697.0</ele><time>2026-04-18T13:24:37.703Z</time></trkpt><trkpt lat="44.4781479" lon="10.4544464"><ele>697.0</ele><time>2026-04-18T13:24:38.711Z</time></trkpt><trkpt lat="44.4782402" lon="10.4543545"><ele>695.0</ele><time>2026-04-18T13:24:39.717Z</time></trkpt><trkpt lat="44.4783252" lon="10.4542652"><ele>693.0</ele><time>2026-04-18T13:24:40.707Z</time></trkpt><trkpt lat="44.478406" lon="10.4541883"><ele>691.0</ele><time>2026-04-18T13:24:41.72Z</time></trkpt><trkpt lat="44.4784917" lon="10.4541487"><ele>689.0</ele><time>2026-04-18T13:24:42.717Z</time></trkpt><trkpt lat="44.4785778" lon="10.4540929"><ele>687.0</ele><time>2026-04-18T13:24:43.714Z</time></trkpt><trkpt lat="44.4786507" lon="10.4540261"><ele>687.0</ele><time>2026-04-18T13:24:44.717Z</time></trkpt><trkpt lat="44.4786863" lon="10.4539013"><ele>687.0</ele><time>2026-04-18T13:24:45.718Z</time></trkpt><trkpt lat="44.4787281" lon="10.4537486"><ele>687.0</ele><time>2026-04-18T13:24:46.701Z</time></trkpt><trkpt lat="44.4787432" lon="10.4536112"><ele>687.0</ele><time>2026-04-18T13:24:47.72Z</time></trkpt><trkpt lat="44.4787653" lon="10.4534868"><ele>687.0</ele><time>2026-04-18T13:24:48.715Z</time></trkpt><trkpt lat="44.4788204" lon="10.4533658"><ele>687.2</ele><time>2026-04-18T13:24:49.711Z</time></trkpt><trkpt lat="44.4788864" lon="10.4532376"><ele>687.4000000000001</ele><time>2026-04-18T13:24:50.718Z</time></trkpt><trkpt lat="44.4789664" lon="10.4531175"><ele>687.5999999999999</ele><time>2026-04-18T13:24:51.703Z</time></trkpt><trkpt lat="44.4790386" lon="10.4530156"><ele>687.8</ele><time>2026-04-18T13:24:52.719Z</time></trkpt><trkpt lat="44.4790963" lon="10.4529229"><ele>688.0</ele><time>2026-04-18T13:24:53.705Z</time></trkpt><trkpt lat="44.4791621" lon="10.452828"><ele>688.0</ele><time>2026-04-18T13:24:54.714Z</time></trkpt><trkpt lat="44.4792384" lon="10.4527565"><ele>688.0</ele><time>2026-04-18T13:24:55.72Z</time></trkpt><trkpt lat="44.4793447" lon="10.4526879"><ele>688.0</ele><time>2026-04-18T13:24:56.715Z</time></trkpt><trkpt lat="44.4794598" lon="10.4526265"><ele>688.0</ele><time>2026-04-18T13:24:57.702Z</time></trkpt><trkpt lat="44.479583" lon="10.4525696"><ele>687.5</ele><time>2026-04-18T13:24:58.711Z</time></trkpt><trkpt lat="44.4796939" lon="10.4525052"><ele>687.0</ele><time>2026-04-18T13:24:59.701Z</time></trkpt><trkpt lat="44.4797811" lon="10.4523784"><ele>686.5</ele><time>2026-04-18T13:25:00.719Z</time></trkpt><trkpt lat="44.4798632" lon="10.452233"><ele>686.0</ele><time>2026-04-18T13:25:01.71Z</time></trkpt><trkpt lat="44.4799387" lon="10.4520956"><ele>686.0</ele><time>2026-04-18T13:25:02.707Z</time></trkpt><trkpt lat="44.4800204" lon="10.4519833"><ele>686.0</ele><time>2026-04-18T13:25:03.701Z</time></trkpt><trkpt lat="44.4801288" lon="10.4519081"><ele>686.0</ele><time>2026-04-18T13:25:04.696Z</time></trkpt><trkpt lat="44.4802427" lon="10.4518585"><ele>686.0</ele><time>2026-04-18T13:25:05.707Z</time></trkpt><trkpt lat="44.4803645" lon="10.4518269"><ele>692.25</ele><time>2026-04-18T13:25:06.706Z</time></trkpt><trkpt lat="44.4805075" lon="10.4517909"><ele>698.5</ele><time>2026-04-18T13:25:07.7Z</time></trkpt><trkpt lat="44.4806443" lon="10.4517331"><ele>704.75</ele><time>2026-04-18T13:25:08.702Z</time></trkpt><trkpt lat="44.4807511" lon="10.4516261"><ele>711.0</ele><time>2026-04-18T13:25:09.701Z</time></trkpt><trkpt lat="44.4808624" lon="10.4515241"><ele>711.0</ele><time>2026-04-18T13:25:10.699Z</time></trkpt><trkpt lat="44.4810041" lon="10.4514435"><ele>711.0</ele><time>2026-04-18T13:25:11.711Z</time></trkpt><trkpt lat="44.4811505" lon="10.4513694"><ele>711.0</ele><time>2026-04-18T13:25:12.714Z</time></trkpt><trkpt lat="44.4812765" lon="10.4513382"><ele>711.0</ele><time>2026-04-18T13:25:13.708Z</time></trkpt><trkpt lat="44.4813905" lon="10.4513199"><ele>713.1999999999999</ele><time>2026-04-18T13:25:14.702Z</time></trkpt><trkpt lat="44.4814995" lon="10.4513038"><ele>715.4</ele><time>2026-04-18T13:25:15.699Z</time></trkpt><trkpt lat="44.4816049" lon="10.4512822"><ele>717.6</ele><time>2026-04-18T13:25:16.717Z</time></trkpt><trkpt lat="44.4817054" lon="10.451271"><ele>719.8</ele><time>2026-04-18T13:25:17.706Z</time></trkpt><trkpt lat="44.4818121" lon="10.4513257"><ele>722.0</ele><time>2026-04-18T13:25:18.703Z</time></trkpt><trkpt lat="44.4819468" lon="10.4513821"><ele>722.0</ele><time>2026-04-18T13:25:19.704Z</time></trkpt><trkpt lat="44.482058" lon="10.4513392"><ele>722.0</ele><time>2026-04-18T13:25:20.708Z</time></trkpt><trkpt lat="44.48217" lon="10.4512887"><ele>722.0</ele><time>2026-04-18T13:25:21.711Z</time></trkpt><trkpt lat="44.4822611" lon="10.4511738"><ele>722.0</ele><time>2026-04-18T13:25:22.7Z</time></trkpt><trkpt lat="44.482353" lon="10.4511011"><ele>721.2</ele><time>2026-04-18T13:25:23.715Z</time></trkpt><trkpt lat="44.482442" lon="10.4510448"><ele>720.4000000000001</ele><time>2026-04-18T13:25:24.711Z</time></trkpt><trkpt lat="44.4825421" lon="10.4510499"><ele>719.5999999999999</ele><time>2026-04-18T13:25:25.709Z</time></trkpt><trkpt lat="44.4826533" lon="10.4510847"><ele>718.8</ele><time>2026-04-18T13:25:26.707Z</time></trkpt><trkpt lat="44.4827522" lon="10.4511094"><ele>718.0</ele><time>2026-04-18T13:25:27.711Z</time></trkpt><trkpt lat="44.4828325" lon="10.4511049"><ele>718.0</ele><time>2026-04-18T13:25:28.711Z</time></trkpt><trkpt lat="44.4829513" lon="10.4510026"><ele>718.0</ele><time>2026-04-18T13:25:30.698Z</time></trkpt><trkpt lat="44.4828734" lon="10.4508795"><ele>718.0</ele><time>2026-04-18T13:25:32.701Z</time></trkpt><trkpt lat="44.4827854" lon="10.4508676"><ele>718.0</ele><time>2026-04-18T13:25:33.702Z</time></trkpt><trkpt lat="44.482689" lon="10.4508548"><ele>718.0</ele><time>2026-04-18T13:25:34.708Z</time></trkpt><trkpt lat="44.4826028" lon="10.4508173"><ele>718.0</ele><time>2026-04-18T13:25:35.706Z</time></trkpt><trkpt lat="44.4825273" lon="10.4507459"><ele>718.0</ele><time>2026-04-18T13:25:36.718Z</time></trkpt><trkpt lat="44.4824562" lon="10.4506662"><ele>718.0</ele><time>2026-04-18T13:25:37.704Z</time></trkpt><trkpt lat="44.4824372" lon="10.4505218"><ele>718.0</ele><time>2026-04-18T13:25:38.699Z</time></trkpt><trkpt lat="44.4824643" lon="10.4503814"><ele>718.0</ele><time>2026-04-18T13:25:39.706Z</time></trkpt><trkpt lat="44.4825245" lon="10.4502701"><ele>717.5</ele><time>2026-04-18T13:25:40.706Z</time></trkpt><trkpt lat="44.4825915" lon="10.4501607"><ele>717.0</ele><time>2026-04-18T13:25:41.702Z</time></trkpt><trkpt lat="44.4826892" lon="10.4500706"><ele>716.5</ele><time>2026-04-18T13:25:42.707Z</time></trkpt><trkpt lat="44.4827786" lon="10.4499535"><ele>716.0</ele><time>2026-04-18T13:25:43.702Z</time></trkpt><trkpt lat="44.4828253" lon="10.4498023"><ele>716.0</ele><time>2026-04-18T13:25:44.716Z</time></trkpt><trkpt lat="44.4828642" lon="10.4496357"><ele>716.0</ele><time>2026-04-18T13:25:45.698Z</time></trkpt><trkpt lat="44.4829047" lon="10.4494735"><ele>716.0</ele><time>2026-04-18T13:25:46.717Z</time></trkpt><trkpt lat="44.4829591" lon="10.4493627"><ele>716.0</ele><time>2026-04-18T13:25:47.703Z</time></trkpt><trkpt lat="44.4830306" lon="10.4492771"><ele>716.0</ele><time>2026-04-18T13:25:48.695Z</time></trkpt><trkpt lat="44.4831061" lon="10.4491894"><ele>718.0</ele><time>2026-04-18T13:25:49.711Z</time></trkpt><trkpt lat="44.4831957" lon="10.4491784"><ele>720.0</ele><time>2026-04-18T13:25:50.709Z</time></trkpt><trkpt lat="44.4832832" lon="10.4491504"><ele>722.0</ele><time>2026-04-18T13:25:51.713Z</time></trkpt><trkpt lat="44.483376" lon="10.4490866"><ele>724.0</ele><time>2026-04-18T13:25:52.702Z</time></trkpt><trkpt lat="44.4834747" lon="10.4489979"><ele>726.0</ele><time>2026-04-18T13:25:53.717Z</time></trkpt><trkpt lat="44.4835698" lon="10.4488781"><ele>724.25</ele><time>2026-04-18T13:25:54.712Z</time></trkpt><trkpt lat="44.483663" lon="10.4487521"><ele>722.5</ele><time>2026-04-18T13:25:55.719Z</time></trkpt><trkpt lat="44.4837339" lon="10.4485898"><ele>720.75</ele><time>2026-04-18T13:25:56.715Z</time></trkpt><trkpt lat="44.483799" lon="10.4484611"><ele>719.0</ele><time>2026-04-18T13:25:57.719Z</time></trkpt><trkpt lat="44.483867" lon="10.4483378"><ele>723.0</ele><time>2026-04-18T13:25:58.71Z</time></trkpt><trkpt lat="44.4839441" lon="10.448239"><ele>727.0</ele><time>2026-04-18T13:25:59.711Z</time></trkpt><trkpt lat="44.4840257" lon="10.4481688"><ele>731.0</ele><time>2026-04-18T13:26:00.714Z</time></trkpt><trkpt lat="44.484111" lon="10.4481168"><ele>735.0</ele><time>2026-04-18T13:26:01.697Z</time></trkpt><trkpt lat="44.4841992" lon="10.4480836"><ele>739.0</ele><time>2026-04-18T13:26:02.698Z</time></trkpt><trkpt lat="44.4842853" lon="10.4480507"><ele>739.0</ele><time>2026-04-18T13:26:03.702Z</time></trkpt><trkpt lat="44.484367" lon="10.4480157"><ele>739.0</ele><time>2026-04-18T13:26:04.701Z</time></trkpt><trkpt lat="44.4844485" lon="10.4479745"><ele>739.0</ele><time>2026-04-18T13:26:05.721Z</time></trkpt><trkpt lat="44.4845215" lon="10.4479263"><ele>739.0</ele><time>2026-04-18T13:26:06.704Z</time></trkpt><trkpt lat="44.4845939" lon="10.4478427"><ele>739.0</ele><time>2026-04-18T13:26:07.707Z</time></trkpt><trkpt lat="44.4846584" lon="10.4477265"><ele>738.5</ele><time>2026-04-18T13:26:08.712Z</time></trkpt><trkpt lat="44.4847271" lon="10.4475769"><ele>738.0</ele><time>2026-04-18T13:26:09.7Z</time></trkpt><trkpt lat="44.4847949" lon="10.4473919"><ele>737.5</ele><time>2026-04-18T13:26:10.716Z</time></trkpt><trkpt lat="44.4848642" lon="10.4472091"><ele>737.0</ele><time>2026-04-18T13:26:11.719Z</time></trkpt><trkpt lat="44.4849293" lon="10.4470087"><ele>737.0</ele><time>2026-04-18T13:26:12.713Z</time></trkpt><trkpt lat="44.4849845" lon="10.4467906"><ele>737.0</ele><time>2026-04-18T13:26:13.715Z</time></trkpt><trkpt lat="44.485033" lon="10.4465619"><ele>737.0</ele><time>2026-04-18T13:26:14.716Z</time></trkpt><trkpt lat="44.4850831" lon="10.4463373"><ele>738.6666666666666</ele><time>2026-04-18T13:26:15.703Z</time></trkpt><trkpt lat="44.4851318" lon="10.446108"><ele>740.3333333333334</ele><time>2026-04-18T13:26:16.717Z</time></trkpt><trkpt lat="44.4851776" lon="10.4458939"><ele>742.0</ele><time>2026-04-18T13:26:17.712Z</time></trkpt><trkpt lat="44.4852402" lon="10.4456933"><ele>742.0</ele><time>2026-04-18T13:26:18.71Z</time></trkpt><trkpt lat="44.4853056" lon="10.4455048"><ele>742.0</ele><time>2026-04-18T13:26:19.703Z</time></trkpt><trkpt lat="44.4853947" lon="10.4453259"><ele>742.0</ele><time>2026-04-18T13:26:20.716Z</time></trkpt><trkpt lat="44.4855079" lon="10.4451582"><ele>736.3333333333334</ele><time>2026-04-18T13:26:21.708Z</time></trkpt><trkpt lat="44.4856348" lon="10.4449838"><ele>730.6666666666666</ele><time>2026-04-18T13:26:22.722Z</time></trkpt><trkpt lat="44.48578" lon="10.4448423"><ele>725.0</ele><time>2026-04-18T13:26:23.719Z</time></trkpt><trkpt lat="44.4859227" lon="10.4447066"><ele>725.0</ele><time>2026-04-18T13:26:24.714Z</time></trkpt><trkpt lat="44.4860677" lon="10.4446317"><ele>725.0</ele><time>2026-04-18T13:26:25.721Z</time></trkpt><trkpt lat="44.4862103" lon="10.4445722"><ele>725.0</ele><time>2026-04-18T13:26:26.721Z</time></trkpt><trkpt lat="44.4863398" lon="10.4445134"><ele>725.0</ele><time>2026-04-18T13:26:27.714Z</time></trkpt><trkpt lat="44.4864589" lon="10.4444423"><ele>725.25</ele><time>2026-04-18T13:26:28.71Z</time></trkpt><trkpt lat="44.4865422" lon="10.4443258"><ele>725.5</ele><time>2026-04-18T13:26:29.714Z</time></trkpt><trkpt lat="44.486609" lon="10.4441647"><ele>725.75</ele><time>2026-04-18T13:26:30.704Z</time></trkpt><trkpt lat="44.4866728" lon="10.4440007"><ele>726.0</ele><time>2026-04-18T13:26:31.717Z</time></trkpt><trkpt lat="44.4867557" lon="10.4438306"><ele>729.6666666666666</ele><time>2026-04-18T13:26:32.701Z</time></trkpt><trkpt lat="44.486857" lon="10.4436502"><ele>733.3333333333333</ele><time>2026-04-18T13:26:33.708Z</time></trkpt><trkpt lat="44.4869632" lon="10.4434669"><ele>737.0</ele><time>2026-04-18T13:26:34.706Z</time></trkpt><trkpt lat="44.4870747" lon="10.443255"><ele>727.6666666666666</ele><time>2026-04-18T13:26:35.717Z</time></trkpt><trkpt lat="44.4871805" lon="10.4430495"><ele>718.3333333333334</ele><time>2026-04-18T13:26:36.722Z</time></trkpt><trkpt lat="44.4872763" lon="10.4428361"><ele>709.0</ele><time>2026-04-18T13:26:37.715Z</time></trkpt><trkpt lat="44.487371" lon="10.4426302"><ele>709.0</ele><time>2026-04-18T13:26:38.713Z</time></trkpt><trkpt lat="44.4874565" lon="10.4424266"><ele>709.0</ele><time>2026-04-18T13:26:39.721Z</time></trkpt><trkpt lat="44.4875386" lon="10.442231"><ele>709.0</ele><time>2026-04-18T13:26:40.719Z</time></trkpt><trkpt lat="44.4876069" lon="10.4420353"><ele>710.5</ele><time>2026-04-18T13:26:41.723Z</time></trkpt><trkpt lat="44.487661" lon="10.4418412"><ele>712.0</ele><time>2026-04-18T13:26:42.719Z</time></trkpt><trkpt lat="44.4877266" lon="10.4416659"><ele>713.5</ele><time>2026-04-18T13:26:43.713Z</time></trkpt><trkpt lat="44.4877896" lon="10.441515"><ele>715.0</ele><time>2026-04-18T13:26:44.708Z</time></trkpt><trkpt lat="44.4878881" lon="10.4414037"><ele>712.5</ele><time>2026-04-18T13:26:45.716Z</time></trkpt><trkpt lat="44.4879983" lon="10.441327"><ele>710.0</ele><time>2026-04-18T13:26:46.718Z</time></trkpt><trkpt lat="44.4880977" lon="10.4412267"><ele>707.5</ele><time>2026-04-18T13:26:47.711Z</time></trkpt><trkpt lat="44.4881814" lon="10.441101"><ele>705.0</ele><time>2026-04-18T13:26:48.709Z</time></trkpt><trkpt lat="44.4882619" lon="10.4409676"><ele>705.0</ele><time>2026-04-18T13:26:49.715Z</time></trkpt><trkpt lat="44.4883295" lon="10.4408059"><ele>705.0</ele><time>2026-04-18T13:26:50.706Z</time></trkpt><trkpt lat="44.4884137" lon="10.4406756"><ele>705.0</ele><time>2026-04-18T13:26:51.702Z</time></trkpt><trkpt lat="44.488516" lon="10.4406017"><ele>705.0</ele><time>2026-04-18T13:26:52.707Z</time></trkpt><trkpt lat="44.4886367" lon="10.4406026"><ele>705.0</ele><time>2026-04-18T13:26:53.713Z</time></trkpt><trkpt lat="44.4887554" lon="10.4406274"><ele>705.0</ele><time>2026-04-18T13:26:54.707Z</time></trkpt><trkpt lat="44.4888735" lon="10.4407319"><ele>705.0</ele><time>2026-04-18T13:26:55.707Z</time></trkpt><trkpt lat="44.488983" lon="10.4408274"><ele>705.0</ele><time>2026-04-18T13:26:56.705Z</time></trkpt><trkpt lat="44.4890943" lon="10.4409271"><ele>703.6</ele><time>2026-04-18T13:26:57.723Z</time></trkpt><trkpt lat="44.4892018" lon="10.4410071"><ele>702.2</ele><time>2026-04-18T13:26:58.711Z</time></trkpt><trkpt lat="44.4893208" lon="10.4410491"><ele>700.8</ele><time>2026-04-18T13:26:59.718Z</time></trkpt><trkpt lat="44.489416" lon="10.4410935"><ele>699.4</ele><time>2026-04-18T13:27:00.71Z</time></trkpt><trkpt lat="44.4894851" lon="10.4411411"><ele>698.0</ele><time>2026-04-18T13:27:01.719Z</time></trkpt><trkpt lat="44.4895301" lon="10.4412149"><ele>694.2</ele><time>2026-04-18T13:27:02.71Z</time></trkpt><trkpt lat="44.4895621" lon="10.4413135"><ele>690.4</ele><time>2026-04-18T13:27:03.718Z</time></trkpt><trkpt lat="44.4895296" lon="10.4414155"><ele>686.6</ele><time>2026-04-18T13:27:04.708Z</time></trkpt><trkpt lat="44.489381" lon="10.441455"><ele>682.8000000000001</ele><time>2026-04-18T13:27:06.707Z</time></trkpt><trkpt lat="44.4892769" lon="10.4414316"><ele>679.0</ele><time>2026-04-18T13:27:07.714Z</time></trkpt><trkpt lat="44.4891693" lon="10.4413902"><ele>679.0</ele><time>2026-04-18T13:27:08.702Z</time></trkpt><trkpt lat="44.4890619" lon="10.4413525"><ele>679.0</ele><time>2026-04-18T13:27:09.711Z</time></trkpt><trkpt lat="44.488963" lon="10.4413395"><ele>679.0</ele><time>2026-04-18T13:27:10.713Z</time></trkpt><trkpt lat="44.4888638" lon="10.4413994"><ele>679.0</ele><time>2026-04-18T13:27:11.715Z</time></trkpt><trkpt lat="44.4887856" lon="10.4414594"><ele>679.0</ele><time>2026-04-18T13:27:12.701Z</time></trkpt><trkpt lat="44.4887546" lon="10.4416002"><ele>681.0</ele><time>2026-04-18T13:27:13.709Z</time></trkpt><trkpt lat="44.4887279" lon="10.4417506"><ele>683.0</ele><time>2026-04-18T13:27:14.706Z</time></trkpt><trkpt lat="44.4887086" lon="10.4419239"><ele>685.0</ele><time>2026-04-18T13:27:15.717Z</time></trkpt><trkpt lat="44.4886951" lon="10.4420921"><ele>687.0</ele><time>2026-04-18T13:27:16.704Z</time></trkpt><trkpt lat="44.4886818" lon="10.4422599"><ele>687.0</ele><time>2026-04-18T13:27:17.71Z</time></trkpt><trkpt lat="44.4886706" lon="10.4424222"><ele>687.0</ele><time>2026-04-18T13:27:18.718Z</time></trkpt><trkpt lat="44.4886626" lon="10.442592"><ele>687.0</ele><time>2026-04-18T13:27:19.715Z</time></trkpt><trkpt lat="44.4886636" lon="10.4427711"><ele>687.0</ele><time>2026-04-18T13:27:20.716Z</time></trkpt><trkpt lat="44.4886758" lon="10.4429506"><ele>684.25</ele><time>2026-04-18T13:27:21.708Z</time></trkpt><trkpt lat="44.4886769" lon="10.4431265"><ele>681.5</ele><time>2026-04-18T13:27:22.718Z</time></trkpt><trkpt lat="44.4886715" lon="10.44329"><ele>678.75</ele><time>2026-04-18T13:27:23.707Z</time></trkpt><trkpt lat="44.4886538" lon="10.4434397"><ele>676.0</ele><time>2026-04-18T13:27:24.707Z</time></trkpt><trkpt lat="44.488614" lon="10.4435807"><ele>676.0</ele><time>2026-04-18T13:27:25.718Z</time></trkpt><trkpt lat="44.4885654" lon="10.4437231"><ele>676.0</ele><time>2026-04-18T13:27:26.709Z</time></trkpt><trkpt lat="44.4885074" lon="10.4438609"><ele>676.0</ele><time>2026-04-18T13:27:27.72Z</time></trkpt><trkpt lat="44.4884578" lon="10.4439898"><ele>676.0</ele><time>2026-04-18T13:27:28.705Z</time></trkpt><trkpt lat="44.4884211" lon="10.4441164"><ele>676.0</ele><time>2026-04-18T13:27:29.706Z</time></trkpt><trkpt lat="44.4883992" lon="10.444237"><ele>674.1666666666667</ele><time>2026-04-18T13:27:30.706Z</time></trkpt><trkpt lat="44.4883994" lon="10.44435"><ele>672.3333333333334</ele><time>2026-04-18T13:27:31.722Z</time></trkpt><trkpt lat="44.48844" lon="10.4444495"><ele>670.5</ele><time>2026-04-18T13:27:32.716Z</time></trkpt><trkpt lat="44.4885067" lon="10.4445133"><ele>668.6666666666666</ele><time>2026-04-18T13:27:33.702Z</time></trkpt><trkpt lat="44.4885976" lon="10.4445442"><ele>666.8333333333333</ele><time>2026-04-18T13:27:34.704Z</time></trkpt><trkpt lat="44.4887061" lon="10.4445561"><ele>665.0</ele><time>2026-04-18T13:27:35.699Z</time></trkpt><trkpt lat="44.4888323" lon="10.4445666"><ele>662.5</ele><time>2026-04-18T13:27:36.706Z</time></trkpt><trkpt lat="44.4889743" lon="10.4445803"><ele>660.0</ele><time>2026-04-18T13:27:37.716Z</time></trkpt><trkpt lat="44.4891168" lon="10.4445909"><ele>657.5</ele><time>2026-04-18T13:27:38.714Z</time></trkpt><trkpt lat="44.4892495" lon="10.4445948"><ele>655.0</ele><time>2026-04-18T13:27:39.702Z</time></trkpt><trkpt lat="44.4893709" lon="10.4445973"><ele>655.0</ele><time>2026-04-18T13:27:40.719Z</time></trkpt><trkpt lat="44.4894921" lon="10.4445998"><ele>655.0</ele><time>2026-04-18T13:27:41.712Z</time></trkpt><trkpt lat="44.4896179" lon="10.4445938"><ele>655.0</ele><time>2026-04-18T13:27:42.707Z</time></trkpt><trkpt lat="44.4897444" lon="10.4445775"><ele>655.0</ele><time>2026-04-18T13:27:43.716Z</time></trkpt><trkpt lat="44.4898576" lon="10.4445369"><ele>654.75</ele><time>2026-04-18T13:27:44.708Z</time></trkpt><trkpt lat="44.4899752" lon="10.4444709"><ele>654.5</ele><time>2026-04-18T13:27:45.717Z</time></trkpt><trkpt lat="44.4900909" lon="10.4443854"><ele>654.25</ele><time>2026-04-18T13:27:46.714Z</time></trkpt><trkpt lat="44.4902139" lon="10.4442887"><ele>654.0</ele><time>2026-04-18T13:27:47.707Z</time></trkpt><trkpt lat="44.4903413" lon="10.4441828"><ele>654.3333333333334</ele><time>2026-04-18T13:27:48.703Z</time></trkpt><trkpt lat="44.4904745" lon="10.444072"><ele>654.6666666666667</ele><time>2026-04-18T13:27:49.713Z</time></trkpt><trkpt lat="44.4906058" lon="10.4439526"><ele>655.0</ele><time>2026-04-18T13:27:50.709Z</time></trkpt><trkpt lat="44.4907349" lon="10.4438483"><ele>654.5</ele><time>2026-04-18T13:27:51.714Z</time></trkpt><trkpt lat="44.4908513" lon="10.4437589"><ele>654.0</ele><time>2026-04-18T13:27:52.702Z</time></trkpt><trkpt lat="44.4909512" lon="10.443682"><ele>653.5</ele><time>2026-04-18T13:27:53.698Z</time></trkpt><trkpt lat="44.4910549" lon="10.4436096"><ele>653.0</ele><time>2026-04-18T13:27:54.712Z</time></trkpt><trkpt lat="44.4911569" lon="10.4435326"><ele>656.0</ele><time>2026-04-18T13:27:55.709Z</time></trkpt><trkpt lat="44.4912578" lon="10.4434404"><ele>659.0</ele><time>2026-04-18T13:27:56.71Z</time></trkpt><trkpt lat="44.4913599" lon="10.4433314"><ele>662.0</ele><time>2026-04-18T13:27:57.715Z</time></trkpt><trkpt lat="44.4914629" lon="10.4432081"><ele>665.0</ele><time>2026-04-18T13:27:58.697Z</time></trkpt><trkpt lat="44.4915721" lon="10.4430831"><ele>665.0</ele><time>2026-04-18T13:27:59.703Z</time></trkpt><trkpt lat="44.491648" lon="10.4429662"><ele>665.0</ele><time>2026-04-18T13:28:00.72Z</time></trkpt><trkpt lat="44.4917192" lon="10.4428422"><ele>665.0</ele><time>2026-04-18T13:28:01.71Z</time></trkpt><trkpt lat="44.4917763" lon="10.4427408"><ele>665.0</ele><time>2026-04-18T13:28:02.701Z</time></trkpt><trkpt lat="44.4918316" lon="10.4426538"><ele>665.0</ele><time>2026-04-18T13:28:03.712Z</time></trkpt><trkpt lat="44.4918988" lon="10.4426395"><ele>666.0</ele><time>2026-04-18T13:28:04.714Z</time></trkpt><trkpt lat="44.4919873" lon="10.4426515"><ele>667.0</ele><time>2026-04-18T13:28:05.708Z</time></trkpt><trkpt lat="44.4920878" lon="10.4427244"><ele>668.0</ele><time>2026-04-18T13:28:06.713Z</time></trkpt><trkpt lat="44.4922046" lon="10.44281"><ele>669.0</ele><time>2026-04-18T13:28:07.709Z</time></trkpt><trkpt lat="44.4923103" lon="10.4428908"><ele>669.0</ele><time>2026-04-18T13:28:08.703Z</time></trkpt><trkpt lat="44.4924092" lon="10.4429254"><ele>669.0</ele><time>2026-04-18T13:28:09.713Z</time></trkpt><trkpt lat="44.4925184" lon="10.442908"><ele>669.0</ele><time>2026-04-18T13:28:10.711Z</time></trkpt><trkpt lat="44.4926276" lon="10.4428346"><ele>669.0</ele><time>2026-04-18T13:28:11.714Z</time></trkpt><trkpt lat="44.4927199" lon="10.4427117"><ele>669.0</ele><time>2026-04-18T13:28:12.712Z</time></trkpt><trkpt lat="44.492763" lon="10.4425737"><ele>669.0</ele><time>2026-04-18T13:28:13.705Z</time></trkpt><trkpt lat="44.4928041" lon="10.4424017"><ele>669.0</ele><time>2026-04-18T13:28:14.712Z</time></trkpt><trkpt lat="44.492779" lon="10.4422128"><ele>669.0</ele><time>2026-04-18T13:28:15.709Z</time></trkpt><trkpt lat="44.4927197" lon="10.4420354"><ele>669.0</ele><time>2026-04-18T13:28:16.706Z</time></trkpt><trkpt lat="44.4926547" lon="10.4418932"><ele>669.0</ele><time>2026-04-18T13:28:17.708Z</time></trkpt><trkpt lat="44.4925656" lon="10.4417833"><ele>669.0</ele><time>2026-04-18T13:28:18.704Z</time></trkpt><trkpt lat="44.492473" lon="10.4416942"><ele>669.0</ele><time>2026-04-18T13:28:19.713Z</time></trkpt><trkpt lat="44.4923952" lon="10.4416677"><ele>669.0</ele><time>2026-04-18T13:28:20.702Z</time></trkpt><trkpt lat="44.4923381" lon="10.4416288"><ele>669.0</ele><time>2026-04-18T13:28:21.715Z</time></trkpt><trkpt lat="44.4923453" lon="10.4415249"><ele>669.0</ele><time>2026-04-18T13:28:22.715Z</time></trkpt><trkpt lat="44.4923482" lon="10.4414313"><ele>669.0</ele><time>2026-04-18T13:28:23.713Z</time></trkpt><trkpt lat="44.4924054" lon="10.4413504"><ele>669.0</ele><time>2026-04-18T13:28:24.707Z</time></trkpt><trkpt lat="44.492482" lon="10.4412071"><ele>669.0</ele><time>2026-04-18T13:28:25.708Z</time></trkpt><trkpt lat="44.4925517" lon="10.4410605"><ele>668.6</ele><time>2026-04-18T13:28:26.717Z</time></trkpt><trkpt lat="44.4926138" lon="10.4409252"><ele>668.2</ele><time>2026-04-18T13:28:27.695Z</time></trkpt><trkpt lat="44.4926794" lon="10.4408236"><ele>667.8000000000001</ele><time>2026-04-18T13:28:28.709Z</time></trkpt><trkpt lat="44.492771" lon="10.4407828"><ele>667.4000000000001</ele><time>2026-04-18T13:28:29.705Z</time></trkpt><trkpt lat="44.4928729" lon="10.4407976"><ele>667.0</ele><time>2026-04-18T13:28:30.699Z</time></trkpt><trkpt lat="44.4929875" lon="10.4408669"><ele>667.0</ele><time>2026-04-18T13:28:31.709Z</time></trkpt><trkpt lat="44.493101" lon="10.4409014"><ele>667.0</ele><time>2026-04-18T13:28:32.714Z</time></trkpt><trkpt lat="44.4932023" lon="10.4409007"><ele>667.0</ele><time>2026-04-18T13:28:33.707Z</time></trkpt><trkpt lat="44.4932982" lon="10.4408428"><ele>667.0</ele><time>2026-04-18T13:28:34.72Z</time></trkpt><trkpt lat="44.4933772" lon="10.4407159"><ele>667.0</ele><time>2026-04-18T13:28:35.716Z</time></trkpt><trkpt lat="44.4934441" lon="10.4406079"><ele>667.0</ele><time>2026-04-18T13:28:36.708Z</time></trkpt><trkpt lat="44.4935217" lon="10.440569"><ele>667.0</ele><time>2026-04-18T13:28:37.7Z</time></trkpt><trkpt lat="44.4936051" lon="10.4405462"><ele>667.0</ele><time>2026-04-18T13:28:38.704Z</time></trkpt><trkpt lat="44.4936964" lon="10.4405851"><ele>667.0</ele><time>2026-04-18T13:28:39.71Z</time></trkpt><trkpt lat="44.4937821" lon="10.4405695"><ele>667.0</ele><time>2026-04-18T13:28:40.713Z</time></trkpt><trkpt lat="44.4938424" lon="10.4405103"><ele>667.0</ele><time>2026-04-18T13:28:41.704Z</time></trkpt><trkpt lat="44.4939021" lon="10.4404457"><ele>669.5</ele><time>2026-04-18T13:28:42.717Z</time></trkpt><trkpt lat="44.4939014" lon="10.4403273"><ele>672.0</ele><time>2026-04-18T13:28:43.712Z</time></trkpt><trkpt lat="44.4938303" lon="10.440203"><ele>674.5</ele><time>2026-04-18T13:28:44.711Z</time></trkpt><trkpt lat="44.4937624" lon="10.4400539"><ele>677.0</ele><time>2026-04-18T13:28:45.698Z</time></trkpt><trkpt lat="44.4937141" lon="10.4398848"><ele>672.6</ele><time>2026-04-18T13:28:46.701Z</time></trkpt><trkpt lat="44.4936931" lon="10.4397172"><ele>668.2</ele><time>2026-04-18T13:28:47.707Z</time></trkpt><trkpt lat="44.4936752" lon="10.4395381"><ele>663.8</ele><time>2026-04-18T13:28:48.712Z</time></trkpt><trkpt lat="44.4936588" lon="10.4393976"><ele>659.4</ele><time>2026-04-18T13:28:49.71Z</time></trkpt><trkpt lat="44.4936759" lon="10.4392642"><ele>655.0</ele><time>2026-04-18T13:28:50.702Z</time></trkpt><trkpt lat="44.493693" lon="10.4391497"><ele>653.5</ele><time>2026-04-18T13:28:51.715Z</time></trkpt><trkpt lat="44.4937332" lon="10.4390145"><ele>652.0</ele><time>2026-04-18T13:28:52.714Z</time></trkpt><trkpt lat="44.4937934" lon="10.4388876"><ele>650.5</ele><time>2026-04-18T13:28:53.699Z</time></trkpt><trkpt lat="44.4938701" lon="10.438751"><ele>649.0</ele><time>2026-04-18T13:28:54.705Z</time></trkpt><trkpt lat="44.4939447" lon="10.4386151"><ele>653.25</ele><time>2026-04-18T13:28:55.716Z</time></trkpt><trkpt lat="44.4939884" lon="10.438463"><ele>657.5</ele><time>2026-04-18T13:28:56.719Z</time></trkpt><trkpt lat="44.4940124" lon="10.4382887"><ele>661.75</ele><time>2026-04-18T13:28:57.709Z</time></trkpt><trkpt lat="44.4940257" lon="10.4381333"><ele>666.0</ele><time>2026-04-18T13:28:58.708Z</time></trkpt><trkpt lat="44.4940326" lon="10.4379961"><ele>663.8</ele><time>2026-04-18T13:28:59.706Z</time></trkpt><trkpt lat="44.4940457" lon="10.4378627"><ele>661.5999999999999</ele><time>2026-04-18T13:29:00.707Z</time></trkpt><trkpt lat="44.4941035" lon="10.4377492"><ele>659.4</ele><time>2026-04-18T13:29:01.705Z</time></trkpt><trkpt lat="44.4941787" lon="10.4376548"><ele>657.2</ele><time>2026-04-18T13:29:02.706Z</time></trkpt><trkpt lat="44.4942566" lon="10.4375567"><ele>655.0</ele><time>2026-04-18T13:29:03.712Z</time></trkpt><trkpt lat="44.4943454" lon="10.4374491"><ele>655.0</ele><time>2026-04-18T13:29:04.697Z</time></trkpt><trkpt lat="44.4944253" lon="10.43729"><ele>655.0</ele><time>2026-04-18T13:29:05.719Z</time></trkpt><trkpt lat="44.4944897" lon="10.4371409"><ele>655.0</ele><time>2026-04-18T13:29:06.697Z</time></trkpt><trkpt lat="44.4945566" lon="10.436984"><ele>655.0</ele><time>2026-04-18T13:29:07.712Z</time></trkpt><trkpt lat="44.4946226" lon="10.4368708"><ele>656.0</ele><time>2026-04-18T13:29:08.698Z</time></trkpt><trkpt lat="44.4946891" lon="10.4367616"><ele>657.0</ele><time>2026-04-18T13:29:09.701Z</time></trkpt><trkpt lat="44.494788" lon="10.4367084"><ele>658.0</ele><time>2026-04-18T13:29:10.714Z</time></trkpt><trkpt lat="44.4948905" lon="10.4366396"><ele>659.0</ele><time>2026-04-18T13:29:11.699Z</time></trkpt><trkpt lat="44.4950083" lon="10.436572"><ele>660.0</ele><time>2026-04-18T13:29:12.712Z</time></trkpt><trkpt lat="44.495134" lon="10.4364985"><ele>660.0</ele><time>2026-04-18T13:29:13.706Z</time></trkpt><trkpt lat="44.4952662" lon="10.4364514"><ele>660.0</ele><time>2026-04-18T13:29:14.714Z</time></trkpt><trkpt lat="44.495368" lon="10.4363742"><ele>660.0</ele><time>2026-04-18T13:29:15.706Z</time></trkpt><trkpt lat="44.4954569" lon="10.4363015"><ele>660.0</ele><time>2026-04-18T13:29:16.711Z</time></trkpt><trkpt lat="44.4955337" lon="10.4362031"><ele>659.2</ele><time>2026-04-18T13:29:17.705Z</time></trkpt><trkpt lat="44.495593" lon="10.4360925"><ele>658.4</ele><time>2026-04-18T13:29:18.709Z</time></trkpt><trkpt lat="44.4956666" lon="10.4360099"><ele>657.5999999999999</ele><time>2026-04-18T13:29:19.706Z</time></trkpt><trkpt lat="44.4957557" lon="10.435965"><ele>656.8</ele><time>2026-04-18T13:29:20.705Z</time></trkpt><trkpt lat="44.4958566" lon="10.4359559"><ele>656.0</ele><time>2026-04-18T13:29:21.71Z</time></trkpt><trkpt lat="44.495966" lon="10.4359645"><ele>656.0</ele><time>2026-04-18T13:29:22.699Z</time></trkpt><trkpt lat="44.4960996" lon="10.4359799"><ele>656.0</ele><time>2026-04-18T13:29:23.711Z</time></trkpt><trkpt lat="44.4962428" lon="10.4359962"><ele>656.0</ele><time>2026-04-18T13:29:24.705Z</time></trkpt><trkpt lat="44.4963796" lon="10.4360069"><ele>656.0</ele><time>2026-04-18T13:29:25.714Z</time></trkpt><trkpt lat="44.4965123" lon="10.4359939"><ele>652.0</ele><time>2026-04-18T13:29:26.704Z</time></trkpt><trkpt lat="44.4966443" lon="10.4359573"><ele>648.0</ele><time>2026-04-18T13:29:27.711Z</time></trkpt><trkpt lat="44.4967578" lon="10.4359042"><ele>644.0</ele><time>2026-04-18T13:29:28.709Z</time></trkpt><trkpt lat="44.4968655" lon="10.4358506"><ele>640.0</ele><time>2026-04-18T13:29:29.715Z</time></trkpt><trkpt lat="44.4969767" lon="10.4358176"><ele>640.25</ele><time>2026-04-18T13:29:30.711Z</time></trkpt><trkpt lat="44.4970992" lon="10.4358116"><ele>640.5</ele><time>2026-04-18T13:29:31.713Z</time></trkpt><trkpt lat="44.4972194" lon="10.4358072"><ele>640.75</ele><time>2026-04-18T13:29:32.711Z</time></trkpt><trkpt lat="44.4973352" lon="10.4358059"><ele>641.0</ele><time>2026-04-18T13:29:33.704Z</time></trkpt><trkpt lat="44.4974332" lon="10.4357563"><ele>641.0</ele><time>2026-04-18T13:29:34.702Z</time></trkpt><trkpt lat="44.497529" lon="10.4357035"><ele>641.0</ele><time>2026-04-18T13:29:35.713Z</time></trkpt><trkpt lat="44.4975876" lon="10.4355833"><ele>641.0</ele><time>2026-04-18T13:29:36.712Z</time></trkpt><trkpt lat="44.4976365" lon="10.4354577"><ele>641.0</ele><time>2026-04-18T13:29:37.712Z</time></trkpt><trkpt lat="44.4976875" lon="10.4353352"><ele>641.0</ele><time>2026-04-18T13:29:38.706Z</time></trkpt><trkpt lat="44.4977612" lon="10.4352419"><ele>638.5999999999999</ele><time>2026-04-18T13:29:39.705Z</time></trkpt><trkpt lat="44.497841" lon="10.4352027"><ele>636.1999999999999</ele><time>2026-04-18T13:29:40.716Z</time></trkpt><trkpt lat="44.4979181" lon="10.4352315"><ele>633.8</ele><time>2026-04-18T13:29:41.716Z</time></trkpt><trkpt lat="44.4979901" lon="10.4353103"><ele>631.4</ele><time>2026-04-18T13:29:42.708Z</time></trkpt><trkpt lat="44.4980556" lon="10.4354363"><ele>629.0</ele><time>2026-04-18T13:29:43.704Z</time></trkpt><trkpt lat="44.498126" lon="10.4355786"><ele>628.25</ele><time>2026-04-18T13:29:44.711Z</time></trkpt><trkpt lat="44.4981872" lon="10.4357239"><ele>627.5</ele><time>2026-04-18T13:29:45.716Z</time></trkpt><trkpt lat="44.498239" lon="10.4358723"><ele>626.75</ele><time>2026-04-18T13:29:46.706Z</time></trkpt><trkpt lat="44.4982733" lon="10.4360234"><ele>626.0</ele><time>2026-04-18T13:29:47.709Z</time></trkpt><trkpt lat="44.498307" lon="10.4361709"><ele>627.2</ele><time>2026-04-18T13:29:48.713Z</time></trkpt><trkpt lat="44.498326" lon="10.4363165"><ele>628.4000000000001</ele><time>2026-04-18T13:29:49.714Z</time></trkpt><trkpt lat="44.4983333" lon="10.4364671"><ele>629.6</ele><time>2026-04-18T13:29:50.707Z</time></trkpt><trkpt lat="44.4983409" lon="10.4366202"><ele>630.8000000000001</ele><time>2026-04-18T13:29:51.721Z</time></trkpt><trkpt lat="44.4983507" lon="10.436771"><ele>632.0</ele><time>2026-04-18T13:29:52.715Z</time></trkpt><trkpt lat="44.4983571" lon="10.4369235"><ele>632.0</ele><time>2026-04-18T13:29:53.706Z</time></trkpt><trkpt lat="44.4983644" lon="10.4370807"><ele>632.0</ele><time>2026-04-18T13:29:54.715Z</time></trkpt><trkpt lat="44.4983719" lon="10.437239"><ele>632.0</ele><time>2026-04-18T13:29:55.718Z</time></trkpt><trkpt lat="44.4983796" lon="10.437393"><ele>632.0</ele><time>2026-04-18T13:29:56.718Z</time></trkpt><trkpt lat="44.4983854" lon="10.4375406"><ele>632.0</ele><time>2026-04-18T13:29:57.718Z</time></trkpt><trkpt lat="44.4983864" lon="10.4376869"><ele>631.6</ele><time>2026-04-18T13:29:58.714Z</time></trkpt><trkpt lat="44.4983891" lon="10.4378369"><ele>631.2</ele><time>2026-04-18T13:29:59.708Z</time></trkpt><trkpt lat="44.4983823" lon="10.4379863"><ele>630.8</ele><time>2026-04-18T13:30:00.705Z</time></trkpt><trkpt lat="44.4983701" lon="10.4381328"><ele>630.4</ele><time>2026-04-18T13:30:01.708Z</time></trkpt><trkpt lat="44.4983532" lon="10.4382767"><ele>630.0</ele><time>2026-04-18T13:30:02.707Z</time></trkpt><trkpt lat="44.4983257" lon="10.4384128"><ele>628.5</ele><time>2026-04-18T13:30:03.711Z</time></trkpt><trkpt lat="44.4982885" lon="10.4385426"><ele>627.0</ele><time>2026-04-18T13:30:04.715Z</time></trkpt><trkpt lat="44.4982508" lon="10.4386593"><ele>625.5</ele><time>2026-04-18T13:30:05.713Z</time></trkpt><trkpt lat="44.4982296" lon="10.4387651"><ele>624.0</ele><time>2026-04-18T13:30:06.715Z</time></trkpt><trkpt lat="44.4982334" lon="10.4388694"><ele>622.5</ele><time>2026-04-18T13:30:07.71Z</time></trkpt><trkpt lat="44.4982683" lon="10.4389636"><ele>621.0</ele><time>2026-04-18T13:30:08.711Z</time></trkpt><trkpt lat="44.4983332" lon="10.439027"><ele>619.8</ele><time>2026-04-18T13:30:09.702Z</time></trkpt><trkpt lat="44.4984021" lon="10.4390948"><ele>618.6</ele><time>2026-04-18T13:30:10.707Z</time></trkpt><trkpt lat="44.4985032" lon="10.4390926"><ele>617.4</ele><time>2026-04-18T13:30:11.713Z</time></trkpt><trkpt lat="44.4986166" lon="10.4390727"><ele>616.2</ele><time>2026-04-18T13:30:12.717Z</time></trkpt><trkpt lat="44.4987358" lon="10.4390519"><ele>615.0</ele><time>2026-04-18T13:30:13.694Z</time></trkpt><trkpt lat="44.4988514" lon="10.4390315"><ele>610.75</ele><time>2026-04-18T13:30:14.713Z</time></trkpt><trkpt lat="44.4989636" lon="10.4390121"><ele>606.5</ele><time>2026-04-18T13:30:15.699Z</time></trkpt><trkpt lat="44.4990788" lon="10.4389826"><ele>602.25</ele><time>2026-04-18T13:30:16.725Z</time></trkpt><trkpt lat="44.4991925" lon="10.4389346"><ele>598.0</ele><time>2026-04-18T13:30:17.717Z</time></trkpt><trkpt lat="44.4992966" lon="10.4388626"><ele>599.0</ele><time>2026-04-18T13:30:18.723Z</time></trkpt><trkpt lat="44.4993838" lon="10.43876"><ele>600.0</ele><time>2026-04-18T13:30:19.701Z</time></trkpt><trkpt lat="44.4994501" lon="10.4386349"><ele>601.0</ele><time>2026-04-18T13:30:20.705Z</time></trkpt><trkpt lat="44.499498" lon="10.4384903"><ele>602.0</ele><time>2026-04-18T13:30:21.711Z</time></trkpt><trkpt lat="44.4995309" lon="10.4383333"><ele>602.0</ele><time>2026-04-18T13:30:22.715Z</time></trkpt><trkpt lat="44.4995615" lon="10.4381707"><ele>602.0</ele><time>2026-04-18T13:30:23.721Z</time></trkpt><trkpt lat="44.4995931" lon="10.4380054"><ele>602.0</ele><time>2026-04-18T13:30:24.705Z</time></trkpt><trkpt lat="44.4996336" lon="10.4378563"><ele>602.0</ele><time>2026-04-18T13:30:25.711Z</time></trkpt><trkpt lat="44.4996838" lon="10.4377155"><ele>598.5</ele><time>2026-04-18T13:30:26.707Z</time></trkpt><trkpt lat="44.4997378" lon="10.4375669"><ele>595.0</ele><time>2026-04-18T13:30:27.713Z</time></trkpt><trkpt lat="44.4998039" lon="10.437425"><ele>591.5</ele><time>2026-04-18T13:30:28.712Z</time></trkpt><trkpt lat="44.4998727" lon="10.4372775"><ele>588.0</ele><time>2026-04-18T13:30:29.719Z</time></trkpt><trkpt lat="44.499946" lon="10.4371324"><ele>588.0</ele><time>2026-04-18T13:30:30.712Z</time></trkpt><trkpt lat="44.50002" lon="10.4369906"><ele>588.0</ele><time>2026-04-18T13:30:31.713Z</time></trkpt><trkpt lat="44.5000957" lon="10.4368527"><ele>588.0</ele><time>2026-04-18T13:30:32.721Z</time></trkpt><trkpt lat="44.5001677" lon="10.4367214"><ele>588.0</ele><time>2026-04-18T13:30:33.717Z</time></trkpt><trkpt lat="44.5002366" lon="10.4365914"><ele>588.0</ele><time>2026-04-18T13:30:34.705Z</time></trkpt><trkpt lat="44.5003016" lon="10.4364744"><ele>588.0</ele><time>2026-04-18T13:30:35.724Z</time></trkpt><trkpt lat="44.5003692" lon="10.4363537"><ele>588.0</ele><time>2026-04-18T13:30:36.7Z</time></trkpt><trkpt lat="44.5004368" lon="10.4362313"><ele>588.0</ele><time>2026-04-18T13:30:37.707Z</time></trkpt><trkpt lat="44.5005097" lon="10.4361213"><ele>588.0</ele><time>2026-04-18T13:30:38.716Z</time></trkpt><trkpt lat="44.5005921" lon="10.4360336"><ele>585.5</ele><time>2026-04-18T13:30:39.706Z</time></trkpt><trkpt lat="44.5006827" lon="10.4359388"><ele>583.0</ele><time>2026-04-18T13:30:40.723Z</time></trkpt><trkpt lat="44.5007739" lon="10.4358468"><ele>580.5</ele><time>2026-04-18T13:30:41.719Z</time></trkpt><trkpt lat="44.5008658" lon="10.4357551"><ele>578.0</ele><time>2026-04-18T13:30:42.709Z</time></trkpt><trkpt lat="44.50096" lon="10.4356617"><ele>578.0</ele><time>2026-04-18T13:30:43.705Z</time></trkpt><trkpt lat="44.5010487" lon="10.4355757"><ele>578.0</ele><time>2026-04-18T13:30:44.713Z</time></trkpt><trkpt lat="44.5011357" lon="10.4354914"><ele>578.0</ele><time>2026-04-18T13:30:45.716Z</time></trkpt><trkpt lat="44.5012205" lon="10.4354032"><ele>578.0</ele><time>2026-04-18T13:30:46.716Z</time></trkpt><trkpt lat="44.5013087" lon="10.4353103"><ele>578.0</ele><time>2026-04-18T13:30:47.719Z</time></trkpt><trkpt lat="44.5014041" lon="10.4352222"><ele>575.25</ele><time>2026-04-18T13:30:48.715Z</time></trkpt><trkpt lat="44.501503" lon="10.4351412"><ele>572.5</ele><time>2026-04-18T13:30:49.713Z</time></trkpt><trkpt lat="44.5016065" lon="10.4350689"><ele>569.75</ele><time>2026-04-18T13:30:50.704Z</time></trkpt><trkpt lat="44.5017226" lon="10.435008"><ele>567.0</ele><time>2026-04-18T13:30:51.712Z</time></trkpt><trkpt lat="44.5018466" lon="10.4349435"><ele>567.0</ele><time>2026-04-18T13:30:52.711Z</time></trkpt><trkpt lat="44.5019824" lon="10.4348992"><ele>567.0</ele><time>2026-04-18T13:30:53.724Z</time></trkpt><trkpt lat="44.5021202" lon="10.4348575"><ele>567.0</ele><time>2026-04-18T13:30:54.716Z</time></trkpt><trkpt lat="44.5022598" lon="10.4348199"><ele>567.0</ele><time>2026-04-18T13:30:55.713Z</time></trkpt><trkpt lat="44.5023944" lon="10.4347776"><ele>565.25</ele><time>2026-04-18T13:30:56.724Z</time></trkpt><trkpt lat="44.502529" lon="10.434735"><ele>563.5</ele><time>2026-04-18T13:30:57.713Z</time></trkpt><trkpt lat="44.5026562" lon="10.434662"><ele>561.75</ele><time>2026-04-18T13:30:58.699Z</time></trkpt><trkpt lat="44.5027782" lon="10.4345769"><ele>560.0</ele><time>2026-04-18T13:30:59.71Z</time></trkpt><trkpt lat="44.5028919" lon="10.4345001"><ele>559.75</ele><time>2026-04-18T13:31:00.72Z</time></trkpt><trkpt lat="44.5029984" lon="10.4344224"><ele>559.5</ele><time>2026-04-18T13:31:01.701Z</time></trkpt><trkpt lat="44.5030946" lon="10.4343416"><ele>559.25</ele><time>2026-04-18T13:31:02.714Z</time></trkpt><trkpt lat="44.5031829" lon="10.4342325"><ele>559.0</ele><time>2026-04-18T13:31:03.712Z</time></trkpt><trkpt lat="44.5032634" lon="10.4340976"><ele>559.0</ele><time>2026-04-18T13:31:04.718Z</time></trkpt><trkpt lat="44.5033447" lon="10.4339653"><ele>559.0</ele><time>2026-04-18T13:31:05.708Z</time></trkpt><trkpt lat="44.5033993" lon="10.4338098"><ele>559.0</ele><time>2026-04-18T13:31:06.712Z</time></trkpt><trkpt lat="44.5034407" lon="10.43366"><ele>559.0</ele><time>2026-04-18T13:31:07.7Z</time></trkpt><trkpt lat="44.5034801" lon="10.4335329"><ele>556.8333333333334</ele><time>2026-04-18T13:31:08.716Z</time></trkpt><trkpt lat="44.5035273" lon="10.4334481"><ele>554.6666666666667</ele><time>2026-04-18T13:31:09.712Z</time></trkpt><trkpt lat="44.5035915" lon="10.4334015"><ele>552.5</ele><time>2026-04-18T13:31:10.71Z</time></trkpt><trkpt lat="44.5036724" lon="10.4334058"><ele>550.3333333333334</ele><time>2026-04-18T13:31:11.705Z</time></trkpt><trkpt lat="44.503764" lon="10.4334127"><ele>548.1666666666666</ele><time>2026-04-18T13:31:12.712Z</time></trkpt><trkpt lat="44.5038725" lon="10.433482"><ele>546.0</ele><time>2026-04-18T13:31:13.703Z</time></trkpt><trkpt lat="44.5039931" lon="10.4335621"><ele>546.0</ele><time>2026-04-18T13:31:14.712Z</time></trkpt><trkpt lat="44.5041243" lon="10.4336204"><ele>546.0</ele><time>2026-04-18T13:31:15.712Z</time></trkpt><trkpt lat="44.5042551" lon="10.4336773"><ele>546.0</ele><time>2026-04-18T13:31:16.704Z</time></trkpt><trkpt lat="44.5043872" lon="10.4337073"><ele>546.0</ele><time>2026-04-18T13:31:17.696Z</time></trkpt><trkpt lat="44.5045005" lon="10.433733"><ele>545.5</ele><time>2026-04-18T13:31:18.704Z</time></trkpt><trkpt lat="44.5045997" lon="10.4337736"><ele>545.0</ele><time>2026-04-18T13:31:19.704Z</time></trkpt><trkpt lat="44.5046864" lon="10.4338418"><ele>544.5</ele><time>2026-04-18T13:31:20.71Z</time></trkpt><trkpt lat="44.5047506" lon="10.4339265"><ele>544.0</ele><time>2026-04-18T13:31:21.715Z</time></trkpt><trkpt lat="44.5047952" lon="10.4340001"><ele>543.5</ele><time>2026-04-18T13:31:22.706Z</time></trkpt><trkpt lat="44.5048546" lon="10.4340889"><ele>543.0</ele><time>2026-04-18T13:31:24.702Z</time></trkpt><trkpt lat="44.5049088" lon="10.4340202"><ele>543.0</ele><time>2026-04-18T13:31:27.72Z</time></trkpt><trkpt lat="44.5048965" lon="10.4339143"><ele>543.0</ele><time>2026-04-18T13:31:29.716Z</time></trkpt><trkpt lat="44.504859" lon="10.4337408"><ele>543.0</ele><time>2026-04-18T13:31:31.713Z</time></trkpt><trkpt lat="44.5048277" lon="10.4336493"><ele>543.0</ele><time>2026-04-18T13:31:32.72Z</time></trkpt><trkpt lat="44.5047857" lon="10.4335632"><ele>543.0</ele><time>2026-04-18T13:31:33.714Z</time></trkpt><trkpt lat="44.5047381" lon="10.433468"><ele>543.0</ele><time>2026-04-18T13:31:34.717Z</time></trkpt><trkpt lat="44.5046834" lon="10.4333841"><ele>543.5</ele><time>2026-04-18T13:31:35.717Z</time></trkpt><trkpt lat="44.5046268" lon="10.4332948"><ele>544.0</ele><time>2026-04-18T13:31:36.713Z</time></trkpt><trkpt lat="44.5045714" lon="10.4332071"><ele>544.5</ele><time>2026-04-18T13:31:37.713Z</time></trkpt><trkpt lat="44.5045124" lon="10.4331246"><ele>545.0</ele><time>2026-04-18T13:31:38.712Z</time></trkpt><trkpt lat="44.5044588" lon="10.4330522"><ele>545.5</ele><time>2026-04-18T13:31:39.711Z</time></trkpt><trkpt lat="44.5043889" lon="10.4329441"><ele>546.0</ele><time>2026-04-18T13:31:41.722Z</time></trkpt><trkpt lat="44.5044179" lon="10.432846"><ele>544.0</ele><time>2026-04-18T13:31:43.711Z</time></trkpt><trkpt lat="44.5045017" lon="10.4328129"><ele>542.0</ele><time>2026-04-18T13:31:45.708Z</time></trkpt><trkpt lat="44.5045669" lon="10.4328539"><ele>540.0</ele><time>2026-04-18T13:31:46.7Z</time></trkpt><trkpt lat="44.5046581" lon="10.4329124"><ele>538.0</ele><time>2026-04-18T13:31:47.712Z</time></trkpt><trkpt lat="44.504758" lon="10.432974"><ele>536.0</ele><time>2026-04-18T13:31:48.71Z</time></trkpt><trkpt lat="44.5048455" lon="10.4330298"><ele>535.0</ele><time>2026-04-18T13:31:49.722Z</time></trkpt><trkpt lat="44.504917" lon="10.4330785"><ele>534.0</ele><time>2026-04-18T13:31:50.715Z</time></trkpt><trkpt lat="44.5049807" lon="10.4331147"><ele>533.0</ele><time>2026-04-18T13:31:51.722Z</time></trkpt><trkpt lat="44.5050746" lon="10.4331352"><ele>532.0</ele><time>2026-04-18T13:31:53.699Z</time></trkpt><trkpt lat="44.505135" lon="10.433076"><ele>531.0</ele><time>2026-04-18T13:31:55.705Z</time></trkpt><trkpt lat="44.505143" lon="10.4329479"><ele>530.0</ele><time>2026-04-18T13:31:57.708Z</time></trkpt><trkpt lat="44.5051136" lon="10.432847"><ele>528.0</ele><time>2026-04-18T13:31:58.698Z</time></trkpt><trkpt lat="44.5050798" lon="10.4327439"><ele>526.0</ele><time>2026-04-18T13:31:59.721Z</time></trkpt><trkpt lat="44.5050363" lon="10.4326409"><ele>524.0</ele><time>2026-04-18T13:32:00.721Z</time></trkpt><trkpt lat="44.5050066" lon="10.4325307"><ele>522.0</ele><time>2026-04-18T13:32:01.704Z</time></trkpt><trkpt lat="44.5049905" lon="10.432406"><ele>520.0</ele><time>2026-04-18T13:32:02.705Z</time></trkpt><trkpt lat="44.5049877" lon="10.4322742"><ele>518.0</ele><time>2026-04-18T13:32:03.718Z</time></trkpt><trkpt lat="44.504994" lon="10.4321419"><ele>515.6666666666666</ele><time>2026-04-18T13:32:04.7Z</time></trkpt><trkpt lat="44.5050039" lon="10.4320244"><ele>513.3333333333333</ele><time>2026-04-18T13:32:05.712Z</time></trkpt><trkpt lat="44.5050128" lon="10.4319279"><ele>511.0</ele><time>2026-04-18T13:32:06.709Z</time></trkpt><trkpt lat="44.5050713" lon="10.431791"><ele>508.66666666666663</ele><time>2026-04-18T13:32:08.71Z</time></trkpt><trkpt lat="44.5051298" lon="10.4317507"><ele>506.3333333333333</ele><time>2026-04-18T13:32:09.714Z</time></trkpt><trkpt lat="44.505199" lon="10.4317203"><ele>504.0</ele><time>2026-04-18T13:32:10.717Z</time></trkpt><trkpt lat="44.5052725" lon="10.4316875"><ele>504.0</ele><time>2026-04-18T13:32:11.713Z</time></trkpt><trkpt lat="44.5053453" lon="10.431639"><ele>504.0</ele><time>2026-04-18T13:32:12.715Z</time></trkpt><trkpt lat="44.5054154" lon="10.4315706"><ele>504.0</ele><time>2026-04-18T13:32:13.702Z</time></trkpt><trkpt lat="44.505484" lon="10.4314825"><ele>504.0</ele><time>2026-04-18T13:32:14.715Z</time></trkpt><trkpt lat="44.5055488" lon="10.431383"><ele>504.0</ele><time>2026-04-18T13:32:15.72Z</time></trkpt><trkpt lat="44.5056131" lon="10.4312841"><ele>500.4</ele><time>2026-04-18T13:32:16.717Z</time></trkpt><trkpt lat="44.5056757" lon="10.431168"><ele>496.79999999999995</ele><time>2026-04-18T13:32:17.704Z</time></trkpt><trkpt lat="44.5057356" lon="10.4310549"><ele>493.20000000000005</ele><time>2026-04-18T13:32:18.722Z</time></trkpt><trkpt lat="44.5057875" lon="10.4309419"><ele>489.6</ele><time>2026-04-18T13:32:19.706Z</time></trkpt><trkpt lat="44.5058396" lon="10.4308304"><ele>486.0</ele><time>2026-04-18T13:32:20.716Z</time></trkpt><trkpt lat="44.5058848" lon="10.4307331"><ele>486.0</ele><time>2026-04-18T13:32:21.71Z</time></trkpt><trkpt lat="44.5059196" lon="10.430648"><ele>486.0</ele><time>2026-04-18T13:32:22.71Z</time></trkpt><trkpt lat="44.5059513" lon="10.4305611"><ele>486.0</ele><time>2026-04-18T13:32:23.712Z</time></trkpt><trkpt lat="44.5059886" lon="10.4304613"><ele>486.0</ele><time>2026-04-18T13:32:24.725Z</time></trkpt><trkpt lat="44.5060238" lon="10.430342"><ele>486.0</ele><time>2026-04-18T13:32:25.72Z</time></trkpt><trkpt lat="44.5060576" lon="10.430224"><ele>486.0</ele><time>2026-04-18T13:32:26.725Z</time></trkpt><trkpt lat="44.5060917" lon="10.4301037"><ele>483.6</ele><time>2026-04-18T13:32:27.712Z</time></trkpt><trkpt lat="44.5061317" lon="10.4299842"><ele>481.20000000000005</ele><time>2026-04-18T13:32:28.699Z</time></trkpt><trkpt lat="44.5061808" lon="10.4298645"><ele>478.79999999999995</ele><time>2026-04-18T13:32:29.706Z</time></trkpt><trkpt lat="44.5062314" lon="10.4297426"><ele>476.4</ele><time>2026-04-18T13:32:30.721Z</time></trkpt><trkpt lat="44.5062838" lon="10.4296323"><ele>474.0</ele><time>2026-04-18T13:32:31.719Z</time></trkpt><trkpt lat="44.5063305" lon="10.4295284"><ele>473.6</ele><time>2026-04-18T13:32:32.699Z</time></trkpt><trkpt lat="44.5063783" lon="10.4294214"><ele>473.2</ele><time>2026-04-18T13:32:33.701Z</time></trkpt><trkpt lat="44.5064158" lon="10.4293042"><ele>472.80000000000007</ele><time>2026-04-18T13:32:34.712Z</time></trkpt><trkpt lat="44.5064479" lon="10.429175"><ele>472.40000000000003</ele><time>2026-04-18T13:32:35.721Z</time></trkpt><trkpt lat="44.5064716" lon="10.4290215"><ele>472.0</ele><time>2026-04-18T13:32:36.716Z</time></trkpt><trkpt lat="44.5064936" lon="10.428864"><ele>470.6</ele><time>2026-04-18T13:32:37.699Z</time></trkpt><trkpt lat="44.5065146" lon="10.4287174"><ele>469.20000000000005</ele><time>2026-04-18T13:32:38.717Z</time></trkpt><trkpt lat="44.5065394" lon="10.4285864"><ele>467.8</ele><time>2026-04-18T13:32:39.715Z</time></trkpt><trkpt lat="44.5065658" lon="10.4284574"><ele>466.4</ele><time>2026-04-18T13:32:40.715Z</time></trkpt><trkpt lat="44.5066033" lon="10.4283395"><ele>465.0</ele><time>2026-04-18T13:32:41.706Z</time></trkpt><trkpt lat="44.5066424" lon="10.4282193"><ele>465.0</ele><time>2026-04-18T13:32:42.715Z</time></trkpt><trkpt lat="44.5066909" lon="10.4281098"><ele>465.0</ele><time>2026-04-18T13:32:43.698Z</time></trkpt><trkpt lat="44.5067457" lon="10.4280157"><ele>465.0</ele><time>2026-04-18T13:32:44.718Z</time></trkpt><trkpt lat="44.5068121" lon="10.4279325"><ele>465.0</ele><time>2026-04-18T13:32:45.713Z</time></trkpt><trkpt lat="44.5068896" lon="10.4278651"><ele>465.0</ele><time>2026-04-18T13:32:46.711Z</time></trkpt><trkpt lat="44.5069713" lon="10.4278164"><ele>465.0</ele><time>2026-04-18T13:32:47.722Z</time></trkpt><trkpt lat="44.507051" lon="10.4277837"><ele>462.0</ele><time>2026-04-18T13:32:48.711Z</time></trkpt><trkpt lat="44.507119" lon="10.4277539"><ele>459.0</ele><time>2026-04-18T13:32:49.711Z</time></trkpt><trkpt lat="44.5072039" lon="10.4276513"><ele>456.0</ele><time>2026-04-18T13:32:51.717Z</time></trkpt><trkpt lat="44.507218" lon="10.427474"><ele>453.0</ele><time>2026-04-18T13:32:53.704Z</time></trkpt><trkpt lat="44.5072077" lon="10.4273615"><ele>450.0</ele><time>2026-04-18T13:32:54.708Z</time></trkpt><trkpt lat="44.5071892" lon="10.4272514"><ele>450.0</ele><time>2026-04-18T13:32:55.71Z</time></trkpt><trkpt lat="44.5071722" lon="10.4271531"><ele>450.0</ele><time>2026-04-18T13:32:56.694Z</time></trkpt><trkpt lat="44.5071366" lon="10.4270793"><ele>450.0</ele><time>2026-04-18T13:32:57.696Z</time></trkpt><trkpt lat="44.5070392" lon="10.4269906"><ele>450.0</ele><time>2026-04-18T13:32:59.698Z</time></trkpt><trkpt lat="44.5069655" lon="10.4270144"><ele>450.0</ele><time>2026-04-18T13:33:00.702Z</time></trkpt><trkpt lat="44.5068921" lon="10.4270396"><ele>450.0</ele><time>2026-04-18T13:33:01.717Z</time></trkpt><trkpt lat="44.5068317" lon="10.4271083"><ele>449.8333333333333</ele><time>2026-04-18T13:33:02.699Z</time></trkpt><trkpt lat="44.5067858" lon="10.4272106"><ele>449.66666666666663</ele><time>2026-04-18T13:33:03.708Z</time></trkpt><trkpt lat="44.5067448" lon="10.4273187"><ele>449.5</ele><time>2026-04-18T13:33:04.709Z</time></trkpt><trkpt lat="44.5067119" lon="10.4274163"><ele>449.3333333333333</ele><time>2026-04-18T13:33:05.71Z</time></trkpt><trkpt lat="44.5066657" lon="10.4275121"><ele>449.16666666666663</ele><time>2026-04-18T13:33:06.711Z</time></trkpt><trkpt lat="44.5066231" lon="10.4275846"><ele>449.0</ele><time>2026-04-18T13:33:07.705Z</time></trkpt><trkpt lat="44.5065725" lon="10.42764"><ele>448.99999999999994</ele><time>2026-04-18T13:33:08.715Z</time></trkpt><trkpt lat="44.5064812" lon="10.4277179"><ele>449.0</ele><time>2026-04-18T13:33:10.722Z</time></trkpt><trkpt lat="44.5064403" lon="10.4276124"><ele>449.0</ele><time>2026-04-18T13:33:12.72Z</time></trkpt><trkpt lat="44.5065108" lon="10.427504"><ele>449.0</ele><time>2026-04-18T13:33:14.704Z</time></trkpt><trkpt lat="44.506563" lon="10.4274474"><ele>448.99999999999994</ele><time>2026-04-18T13:33:15.72Z</time></trkpt><trkpt lat="44.5066104" lon="10.4273755"><ele>449.0</ele><time>2026-04-18T13:33:16.709Z</time></trkpt><trkpt lat="44.506645" lon="10.427286"><ele>449.0</ele><time>2026-04-18T13:33:17.715Z</time></trkpt><trkpt lat="44.5066654" lon="10.427184"><ele>448.99999999999994</ele><time>2026-04-18T13:33:18.698Z</time></trkpt><trkpt lat="44.5066814" lon="10.4270813"><ele>449.0</ele><time>2026-04-18T13:33:19.713Z</time></trkpt><trkpt lat="44.5066957" lon="10.4269824"><ele>449.0</ele><time>2026-04-18T13:33:20.714Z</time></trkpt><trkpt lat="44.5067129" lon="10.4268877"><ele>448.99999999999994</ele><time>2026-04-18T13:33:21.714Z</time></trkpt><trkpt lat="44.5067225" lon="10.4267914"><ele>449.0</ele><time>2026-04-18T13:33:22.719Z</time></trkpt><trkpt lat="44.5067421" lon="10.4266916"><ele>449.0</ele><time>2026-04-18T13:33:23.725Z</time></trkpt><trkpt lat="44.506784" lon="10.4266149"><ele>446.4285714285714</ele><time>2026-04-18T13:33:24.713Z</time></trkpt><trkpt lat="44.5068307" lon="10.4265534"><ele>443.8571428571428</ele><time>2026-04-18T13:33:25.708Z</time></trkpt><trkpt lat="44.5068842" lon="10.4264748"><ele>441.2857142857143</ele><time>2026-04-18T13:33:26.721Z</time></trkpt><trkpt lat="44.506933" lon="10.4264028"><ele>438.71428571428567</ele><time>2026-04-18T13:33:27.717Z</time></trkpt><trkpt lat="44.5069823" lon="10.4263427"><ele>436.1428571428571</ele><time>2026-04-18T13:33:28.717Z</time></trkpt><trkpt lat="44.5070557" lon="10.4262453"><ele>433.57142857142856</ele><time>2026-04-18T13:33:30.706Z</time></trkpt><trkpt lat="44.507106" lon="10.4261792"><ele>431.0</ele><time>2026-04-18T13:33:32.72Z</time></trkpt><trkpt lat="44.507164" lon="10.42613"><ele>430.99999999999994</ele><time>2026-04-18T13:33:35.706Z</time></trkpt><trkpt lat="44.507231" lon="10.4261136"><ele>431.0</ele><time>2026-04-18T13:33:48.72Z</time></trkpt><trkpt lat="44.507265" lon="10.4260254"><ele>431.0</ele><time>2026-04-18T13:34:02.718Z</time></trkpt><trkpt lat="44.5071941" lon="10.4260843"><ele>431.0</ele><time>2026-04-18T13:34:06.719Z</time></trkpt><trkpt lat="44.507105" lon="10.426198"><ele>430.99999999999994</ele><time>2026-04-18T13:34:08.722Z</time></trkpt><trkpt lat="44.5070452" lon="10.4262708"><ele>431.0</ele><time>2026-04-18T13:34:09.706Z</time></trkpt><trkpt lat="44.5069869" lon="10.4263432"><ele>430.99999999999994</ele><time>2026-04-18T13:34:10.713Z</time></trkpt><trkpt lat="44.5069249" lon="10.4264181"><ele>431.0</ele><time>2026-04-18T13:34:11.721Z</time></trkpt><trkpt lat="44.5068643" lon="10.4264969"><ele>431.0</ele><time>2026-04-18T13:34:12.696Z</time></trkpt><trkpt lat="44.5068109" lon="10.4265863"><ele>431.0</ele><time>2026-04-18T13:34:13.72Z</time></trkpt><trkpt lat="44.5067671" lon="10.4266864"><ele>430.99999999999994</ele><time>2026-04-18T13:34:14.709Z</time></trkpt><trkpt lat="44.5067271" lon="10.4267744"><ele>431.0</ele><time>2026-04-18T13:34:15.707Z</time></trkpt><trkpt lat="44.5066861" lon="10.426869"><ele>430.99999999999994</ele><time>2026-04-18T13:34:16.715Z</time></trkpt><trkpt lat="44.506673" lon="10.4269881"><ele>431.0</ele><time>2026-04-18T13:34:17.704Z</time></trkpt><trkpt lat="44.5066602" lon="10.4271072"><ele>431.0</ele><time>2026-04-18T13:34:18.715Z</time></trkpt><trkpt lat="44.5066346" lon="10.4272238"><ele>431.0</ele><time>2026-04-18T13:34:19.707Z</time></trkpt><trkpt lat="44.5065993" lon="10.4273327"><ele>430.99999999999994</ele><time>2026-04-18T13:34:20.714Z</time></trkpt><trkpt lat="44.506555" lon="10.4274193"><ele>431.0</ele><time>2026-04-18T13:34:21.716Z</time></trkpt><trkpt lat="44.5065167" lon="10.4274916"><ele>433.99999999999994</ele><time>2026-04-18T13:34:22.712Z</time></trkpt><trkpt lat="44.5064502" lon="10.4276001"><ele>437.0</ele><time>2026-04-18T13:34:24.706Z</time></trkpt><trkpt lat="44.5064818" lon="10.427696"><ele>440.0</ele><time>2026-04-18T13:34:26.706Z</time></trkpt><trkpt lat="44.5065969" lon="10.4276868"><ele>443.0</ele><time>2026-04-18T13:34:28.701Z</time></trkpt><trkpt lat="44.5066543" lon="10.4276433"><ele>445.99999999999994</ele><time>2026-04-18T13:34:29.707Z</time></trkpt><trkpt lat="44.5067051" lon="10.4275763"><ele>449.0</ele><time>2026-04-18T13:34:30.699Z</time></trkpt><trkpt lat="44.5067421" lon="10.4274808"><ele>448.99999999999994</ele><time>2026-04-18T13:34:31.716Z</time></trkpt><trkpt lat="44.5067667" lon="10.4273882"><ele>449.0</ele><time>2026-04-18T13:34:32.726Z</time></trkpt><trkpt lat="44.506793" lon="10.4272887"><ele>449.0</ele><time>2026-04-18T13:34:33.713Z</time></trkpt><trkpt lat="44.5068584" lon="10.4271273"><ele>449.0</ele><time>2026-04-18T13:34:35.703Z</time></trkpt><trkpt lat="44.5069024" lon="10.4270586"><ele>448.99999999999994</ele><time>2026-04-18T13:34:36.707Z</time></trkpt><trkpt lat="44.5069614" lon="10.4270193"><ele>449.0</ele><time>2026-04-18T13:34:37.707Z</time></trkpt><trkpt lat="44.5070289" lon="10.4270152"><ele>449.16666666666663</ele><time>2026-04-18T13:34:38.716Z</time></trkpt><trkpt lat="44.5071383" lon="10.4270911"><ele>449.3333333333333</ele><time>2026-04-18T13:34:40.717Z</time></trkpt><trkpt lat="44.5071757" lon="10.4271718"><ele>449.5</ele><time>2026-04-18T13:34:41.701Z</time></trkpt><trkpt lat="44.5072035" lon="10.4272582"><ele>449.66666666666663</ele><time>2026-04-18T13:34:42.718Z</time></trkpt><trkpt lat="44.5072233" lon="10.4273532"><ele>449.8333333333333</ele><time>2026-04-18T13:34:43.713Z</time></trkpt><trkpt lat="44.5072349" lon="10.4274549"><ele>450.0</ele><time>2026-04-18T13:34:44.715Z</time></trkpt><trkpt lat="44.5072382" lon="10.4275456"><ele>450.0</ele><time>2026-04-18T13:34:45.701Z</time></trkpt><trkpt lat="44.5072277" lon="10.4276333"><ele>450.0</ele><time>2026-04-18T13:34:46.717Z</time></trkpt><trkpt lat="44.5071637" lon="10.4277628"><ele>450.0</ele><time>2026-04-18T13:34:48.717Z</time></trkpt><trkpt lat="44.507108" lon="10.4278071"><ele>450.0</ele><time>2026-04-18T13:34:49.723Z</time></trkpt><trkpt lat="44.5070241" lon="10.4278362"><ele>450.0</ele><time>2026-04-18T13:34:50.717Z</time></trkpt><trkpt lat="44.5069399" lon="10.4278666"><ele>450.0</ele><time>2026-04-18T13:34:51.702Z</time></trkpt><trkpt lat="44.5068584" lon="10.4279359"><ele>453.0</ele><time>2026-04-18T13:34:52.714Z</time></trkpt><trkpt lat="44.5067834" lon="10.4280216"><ele>456.0</ele><time>2026-04-18T13:34:53.703Z</time></trkpt><trkpt lat="44.5067173" lon="10.4281174"><ele>459.0</ele><time>2026-04-18T13:34:54.7Z</time></trkpt><trkpt lat="44.5066611" lon="10.4282244"><ele>462.0</ele><time>2026-04-18T13:34:55.713Z</time></trkpt><trkpt lat="44.5066159" lon="10.4283448"><ele>465.0</ele><time>2026-04-18T13:34:56.721Z</time></trkpt><trkpt lat="44.5065783" lon="10.4284756"><ele>465.0</ele><time>2026-04-18T13:34:57.713Z</time></trkpt><trkpt lat="44.5065394" lon="10.4286135"><ele>465.0</ele><time>2026-04-18T13:34:58.723Z</time></trkpt><trkpt lat="44.5065081" lon="10.4287643"><ele>465.0</ele><time>2026-04-18T13:34:59.719Z</time></trkpt><trkpt lat="44.5064759" lon="10.4289291"><ele>465.0</ele><time>2026-04-18T13:35:00.719Z</time></trkpt><trkpt lat="44.5064445" lon="10.429091"><ele>466.0</ele><time>2026-04-18T13:35:01.713Z</time></trkpt><trkpt lat="44.5064105" lon="10.4292526"><ele>467.0</ele><time>2026-04-18T13:35:02.72Z</time></trkpt><trkpt lat="44.5063719" lon="10.4294093"><ele>468.0</ele><time>2026-04-18T13:35:03.716Z</time></trkpt><trkpt lat="44.5063219" lon="10.4295576"><ele>469.0</ele><time>2026-04-18T13:35:04.703Z</time></trkpt><trkpt lat="44.506259" lon="10.4296916"><ele>470.0</ele><time>2026-04-18T13:35:05.712Z</time></trkpt><trkpt lat="44.5061886" lon="10.4298137"><ele>471.0</ele><time>2026-04-18T13:35:06.703Z</time></trkpt><trkpt lat="44.5061224" lon="10.4299385"><ele>472.0</ele><time>2026-04-18T13:35:07.705Z</time></trkpt><trkpt lat="44.5060749" lon="10.4300737"><ele>473.0</ele><time>2026-04-18T13:35:08.716Z</time></trkpt><trkpt lat="44.5060424" lon="10.4302151"><ele>474.0</ele><time>2026-04-18T13:35:09.705Z</time></trkpt><trkpt lat="44.5060075" lon="10.4303586"><ele>476.4</ele><time>2026-04-18T13:35:10.721Z</time></trkpt><trkpt lat="44.5059652" lon="10.4304946"><ele>478.79999999999995</ele><time>2026-04-18T13:35:11.716Z</time></trkpt><trkpt lat="44.5059159" lon="10.430626"><ele>481.20000000000005</ele><time>2026-04-18T13:35:12.718Z</time></trkpt><trkpt lat="44.5058636" lon="10.4307561"><ele>483.6</ele><time>2026-04-18T13:35:13.722Z</time></trkpt><trkpt lat="44.5058078" lon="10.4308849"><ele>486.0</ele><time>2026-04-18T13:35:14.715Z</time></trkpt><trkpt lat="44.505746" lon="10.4310125"><ele>486.0</ele><time>2026-04-18T13:35:15.71Z</time></trkpt><trkpt lat="44.5056799" lon="10.4311415"><ele>486.0</ele><time>2026-04-18T13:35:16.719Z</time></trkpt><trkpt lat="44.505611" lon="10.4312698"><ele>486.0</ele><time>2026-04-18T13:35:17.722Z</time></trkpt><trkpt lat="44.5055406" lon="10.431393"><ele>486.0</ele><time>2026-04-18T13:35:18.717Z</time></trkpt><trkpt lat="44.5054697" lon="10.4315055"><ele>486.0</ele><time>2026-04-18T13:35:19.71Z</time></trkpt><trkpt lat="44.5053932" lon="10.4316007"><ele>489.0</ele><time>2026-04-18T13:35:20.708Z</time></trkpt><trkpt lat="44.505307" lon="10.4316736"><ele>492.0</ele><time>2026-04-18T13:35:21.714Z</time></trkpt><trkpt lat="44.5052156" lon="10.4317218"><ele>495.0</ele><time>2026-04-18T13:35:22.703Z</time></trkpt><trkpt lat="44.505129" lon="10.4317573"><ele>498.0</ele><time>2026-04-18T13:35:23.723Z</time></trkpt><trkpt lat="44.5050612" lon="10.4317948"><ele>501.0</ele><time>2026-04-18T13:35:24.718Z</time></trkpt><trkpt lat="44.5050045" lon="10.4318422"><ele>504.0</ele><time>2026-04-18T13:35:25.714Z</time></trkpt><trkpt lat="44.5049765" lon="10.4319308"><ele>504.0</ele><time>2026-04-18T13:35:26.713Z</time></trkpt><trkpt lat="44.504964" lon="10.4320465"><ele>504.0</ele><time>2026-04-18T13:35:27.722Z</time></trkpt><trkpt lat="44.5049523" lon="10.4321718"><ele>504.0</ele><time>2026-04-18T13:35:28.718Z</time></trkpt><trkpt lat="44.5049511" lon="10.4323174"><ele>504.0</ele><time>2026-04-18T13:35:29.71Z</time></trkpt><trkpt lat="44.5049598" lon="10.4324602"><ele>504.0</ele><time>2026-04-18T13:35:30.7Z</time></trkpt><trkpt lat="44.5049849" lon="10.4325892"><ele>506.3333333333333</ele><time>2026-04-18T13:35:31.702Z</time></trkpt><trkpt lat="44.5050278" lon="10.4327024"><ele>508.66666666666663</ele><time>2026-04-18T13:35:32.719Z</time></trkpt><trkpt lat="44.5050771" lon="10.4328032"><ele>511.0</ele><time>2026-04-18T13:35:33.717Z</time></trkpt><trkpt lat="44.5051144" lon="10.4328957"><ele>513.3333333333333</ele><time>2026-04-18T13:35:34.714Z</time></trkpt><trkpt lat="44.5051332" lon="10.4329819"><ele>515.6666666666666</ele><time>2026-04-18T13:35:35.713Z</time></trkpt><trkpt lat="44.505119" lon="10.433115"><ele>518.0</ele><time>2026-04-18T13:35:37.71Z</time></trkpt><trkpt lat="44.5050477" lon="10.4331482"><ele>518.0</ele><time>2026-04-18T13:35:39.707Z</time></trkpt><trkpt lat="44.50492" lon="10.433086"><ele>518.0</ele><time>2026-04-18T13:35:41.704Z</time></trkpt><trkpt lat="44.5048358" lon="10.4330305"><ele>518.0</ele><time>2026-04-18T13:35:42.711Z</time></trkpt><trkpt lat="44.5047453" lon="10.4329699"><ele>518.0</ele><time>2026-04-18T13:35:43.712Z</time></trkpt><trkpt lat="44.5046539" lon="10.4329131"><ele>518.0</ele><time>2026-04-18T13:35:44.704Z</time></trkpt><trkpt lat="44.5045731" lon="10.432863"><ele>521.6</ele><time>2026-04-18T13:35:45.716Z</time></trkpt><trkpt lat="44.5045076" lon="10.4328243"><ele>525.1999999999999</ele><time>2026-04-18T13:35:46.72Z</time></trkpt><trkpt lat="44.5044109" lon="10.432789"><ele>528.8</ele><time>2026-04-18T13:35:48.717Z</time></trkpt><trkpt lat="44.5043945" lon="10.432904"><ele>532.4</ele><time>2026-04-18T13:35:50.71Z</time></trkpt><trkpt lat="44.5044802" lon="10.4330572"><ele>536.0</ele><time>2026-04-18T13:35:52.725Z</time></trkpt><trkpt lat="44.5045424" lon="10.4331375"><ele>534.8</ele><time>2026-04-18T13:35:53.715Z</time></trkpt><trkpt lat="44.5046074" lon="10.4332299"><ele>533.6</ele><time>2026-04-18T13:35:54.715Z</time></trkpt><trkpt lat="44.5046735" lon="10.4333306"><ele>532.4</ele><time>2026-04-18T13:35:55.701Z</time></trkpt><trkpt lat="44.5047383" lon="10.4334337"><ele>531.2</ele><time>2026-04-18T13:35:56.716Z</time></trkpt><trkpt lat="44.5047961" lon="10.4335404"><ele>530.0</ele><time>2026-04-18T13:35:57.705Z</time></trkpt><trkpt lat="44.5048445" lon="10.4336488"><ele>530.0</ele><time>2026-04-18T13:35:58.712Z</time></trkpt><trkpt lat="44.5048784" lon="10.4337541"><ele>530.0</ele><time>2026-04-18T13:35:59.71Z</time></trkpt><trkpt lat="44.5049019" lon="10.4338522"><ele>530.0</ele><time>2026-04-18T13:36:00.721Z</time></trkpt><trkpt lat="44.5049148" lon="10.4339957"><ele>530.0</ele><time>2026-04-18T13:36:02.701Z</time></trkpt><trkpt lat="44.5049234" lon="10.4340852"><ele>530.0</ele><time>2026-04-18T13:36:04.712Z</time></trkpt><trkpt lat="44.5049402" lon="10.4341793"><ele>530.0</ele><time>2026-04-18T13:36:06.704Z</time></trkpt><trkpt lat="44.5049742" lon="10.4343373"><ele>531.8571428571428</ele><time>2026-04-18T13:36:08.714Z</time></trkpt><trkpt lat="44.5050087" lon="10.4344226"><ele>533.7142857142857</ele><time>2026-04-18T13:36:09.716Z</time></trkpt><trkpt lat="44.5050487" lon="10.4345016"><ele>535.5714285714286</ele><time>2026-04-18T13:36:10.706Z</time></trkpt><trkpt lat="44.5050949" lon="10.4345752"><ele>537.4285714285713</ele><time>2026-04-18T13:36:11.713Z</time></trkpt><trkpt lat="44.5051466" lon="10.4346314"><ele>539.2857142857142</ele><time>2026-04-18T13:36:12.721Z</time></trkpt><trkpt lat="44.5052018" lon="10.4346818"><ele>541.1428571428571</ele><time>2026-04-18T13:36:13.718Z</time></trkpt><trkpt lat="44.5052588" lon="10.4347267"><ele>543.0</ele><time>2026-04-18T13:36:14.71Z</time></trkpt><trkpt lat="44.5053171" lon="10.4347671"><ele>543.1428571428571</ele><time>2026-04-18T13:36:15.705Z</time></trkpt><trkpt lat="44.5053742" lon="10.4348069"><ele>543.2857142857142</ele><time>2026-04-18T13:36:16.716Z</time></trkpt><trkpt lat="44.5054339" lon="10.4348427"><ele>543.4285714285713</ele><time>2026-04-18T13:36:17.726Z</time></trkpt><trkpt lat="44.5054948" lon="10.4348713"><ele>543.5714285714286</ele><time>2026-04-18T13:36:18.717Z</time></trkpt><trkpt lat="44.5055585" lon="10.4349002"><ele>543.7142857142857</ele><time>2026-04-18T13:36:19.705Z</time></trkpt><trkpt lat="44.5056296" lon="10.4349346"><ele>543.8571428571428</ele><time>2026-04-18T13:36:20.718Z</time></trkpt><trkpt lat="44.5057056" lon="10.4349821"><ele>544.0</ele><time>2026-04-18T13:36:21.723Z</time></trkpt><trkpt lat="44.5057816" lon="10.435042"><ele>541.6666666666667</ele><time>2026-04-18T13:36:22.72Z</time></trkpt><trkpt lat="44.5058564" lon="10.4351039"><ele>539.3333333333334</ele><time>2026-04-18T13:36:23.714Z</time></trkpt><trkpt lat="44.5059325" lon="10.4351612"><ele>537.0</ele><time>2026-04-18T13:36:24.708Z</time></trkpt><trkpt lat="44.5060156" lon="10.4352153"><ele>534.6666666666666</ele><time>2026-04-18T13:36:25.72Z</time></trkpt><trkpt lat="44.5061013" lon="10.4352653"><ele>532.3333333333333</ele><time>2026-04-18T13:36:26.709Z</time></trkpt><trkpt lat="44.5061832" lon="10.4353119"><ele>530.0</ele><time>2026-04-18T13:36:27.718Z</time></trkpt><trkpt lat="44.5062634" lon="10.4353612"><ele>529.1666666666666</ele><time>2026-04-18T13:36:28.722Z</time></trkpt><trkpt lat="44.5063385" lon="10.435414"><ele>528.3333333333333</ele><time>2026-04-18T13:36:29.715Z</time></trkpt><trkpt lat="44.5064064" lon="10.4354649"><ele>527.5</ele><time>2026-04-18T13:36:30.702Z</time></trkpt><trkpt lat="44.5064724" lon="10.4355236"><ele>526.6666666666666</ele><time>2026-04-18T13:36:31.705Z</time></trkpt><trkpt lat="44.50653" lon="10.435597"><ele>525.8333333333334</ele><time>2026-04-18T13:36:32.707Z</time></trkpt><trkpt lat="44.506579" lon="10.4356837"><ele>525.0</ele><time>2026-04-18T13:36:33.708Z</time></trkpt><trkpt lat="44.5066259" lon="10.4357713"><ele>525.0</ele><time>2026-04-18T13:36:34.71Z</time></trkpt><trkpt lat="44.5066431" lon="10.4358778"><ele>525.0</ele><time>2026-04-18T13:36:35.721Z</time></trkpt><trkpt lat="44.5066598" lon="10.4359845"><ele>525.0</ele><time>2026-04-18T13:36:36.713Z</time></trkpt><trkpt lat="44.5066842" lon="10.436091"><ele>525.0</ele><time>2026-04-18T13:36:37.714Z</time></trkpt><trkpt lat="44.5067084" lon="10.4361904"><ele>525.0</ele><time>2026-04-18T13:36:38.699Z</time></trkpt><trkpt lat="44.506754" lon="10.4362768"><ele>525.0</ele><time>2026-04-18T13:36:39.718Z</time></trkpt><trkpt lat="44.5068137" lon="10.4363405"><ele>524.3333333333334</ele><time>2026-04-18T13:36:40.708Z</time></trkpt><trkpt lat="44.5068814" lon="10.4363914"><ele>523.6666666666666</ele><time>2026-04-18T13:36:41.715Z</time></trkpt><trkpt lat="44.5069486" lon="10.4364387"><ele>523.0</ele><time>2026-04-18T13:36:42.721Z</time></trkpt><trkpt lat="44.5070243" lon="10.4364806"><ele>522.3333333333333</ele><time>2026-04-18T13:36:43.709Z</time></trkpt><trkpt lat="44.5070972" lon="10.4365258"><ele>521.6666666666666</ele><time>2026-04-18T13:36:44.706Z</time></trkpt><trkpt lat="44.5071711" lon="10.4365711"><ele>521.0</ele><time>2026-04-18T13:36:45.72Z</time></trkpt><trkpt lat="44.5072482" lon="10.4366155"><ele>521.0</ele><time>2026-04-18T13:36:46.718Z</time></trkpt><trkpt lat="44.5073212" lon="10.4366605"><ele>521.0</ele><time>2026-04-18T13:36:47.716Z</time></trkpt><trkpt lat="44.5073938" lon="10.4367022"><ele>521.0</ele><time>2026-04-18T13:36:48.705Z</time></trkpt><trkpt lat="44.5074654" lon="10.4367453"><ele>521.0</ele><time>2026-04-18T13:36:49.712Z</time></trkpt><trkpt lat="44.5075407" lon="10.4367866"><ele>521.0</ele><time>2026-04-18T13:36:50.721Z</time></trkpt><trkpt lat="44.5076158" lon="10.4368344"><ele>521.0</ele><time>2026-04-18T13:36:51.714Z</time></trkpt><trkpt lat="44.5076899" lon="10.4368939"><ele>521.0</ele><time>2026-04-18T13:36:52.708Z</time></trkpt><trkpt lat="44.5077599" lon="10.4369572"><ele>521.0</ele><time>2026-04-18T13:36:53.713Z</time></trkpt><trkpt lat="44.5078287" lon="10.4370091"><ele>521.0</ele><time>2026-04-18T13:36:54.701Z</time></trkpt><trkpt lat="44.5078985" lon="10.4370382"><ele>521.0</ele><time>2026-04-18T13:36:55.719Z</time></trkpt><trkpt lat="44.5079709" lon="10.4370458"><ele>521.0</ele><time>2026-04-18T13:36:56.714Z</time></trkpt><trkpt lat="44.5080437" lon="10.4370359"><ele>521.0</ele><time>2026-04-18T13:36:57.705Z</time></trkpt><trkpt lat="44.5081145" lon="10.4370103"><ele>519.8333333333333</ele><time>2026-04-18T13:36:58.715Z</time></trkpt><trkpt lat="44.5081879" lon="10.4369812"><ele>518.6666666666666</ele><time>2026-04-18T13:36:59.711Z</time></trkpt><trkpt lat="44.5082461" lon="10.4369151"><ele>517.5</ele><time>2026-04-18T13:37:00.722Z</time></trkpt><trkpt lat="44.5083015" lon="10.4368288"><ele>516.3333333333334</ele><time>2026-04-18T13:37:01.715Z</time></trkpt><trkpt lat="44.5083561" lon="10.4367335"><ele>515.1666666666667</ele><time>2026-04-18T13:37:02.714Z</time></trkpt><trkpt lat="44.5084108" lon="10.4366421"><ele>514.0</ele><time>2026-04-18T13:37:03.714Z</time></trkpt><trkpt lat="44.5084706" lon="10.4365551"><ele>514.0</ele><time>2026-04-18T13:37:04.713Z</time></trkpt><trkpt lat="44.5085386" lon="10.4364771"><ele>514.0</ele><time>2026-04-18T13:37:05.727Z</time></trkpt><trkpt lat="44.5086147" lon="10.4364154"><ele>514.0</ele><time>2026-04-18T13:37:06.709Z</time></trkpt><trkpt lat="44.5086944" lon="10.4363675"><ele>514.0</ele><time>2026-04-18T13:37:07.711Z</time></trkpt><trkpt lat="44.5087759" lon="10.4363241"><ele>514.0</ele><time>2026-04-18T13:37:08.716Z</time></trkpt><trkpt lat="44.508859" lon="10.4362814"><ele>514.0</ele><time>2026-04-18T13:37:09.71Z</time></trkpt><trkpt lat="44.5089424" lon="10.4362427"><ele>511.6666666666667</ele><time>2026-04-18T13:37:10.714Z</time></trkpt><trkpt lat="44.5090256" lon="10.4362038"><ele>509.33333333333337</ele><time>2026-04-18T13:37:11.72Z</time></trkpt><trkpt lat="44.5091109" lon="10.4361655"><ele>507.0</ele><time>2026-04-18T13:37:12.71Z</time></trkpt><trkpt lat="44.5091942" lon="10.436133"><ele>504.66666666666663</ele><time>2026-04-18T13:37:13.705Z</time></trkpt><trkpt lat="44.5092768" lon="10.4361097"><ele>502.3333333333333</ele><time>2026-04-18T13:37:14.717Z</time></trkpt><trkpt lat="44.5093659" lon="10.4360986"><ele>500.0</ele><time>2026-04-18T13:37:15.707Z</time></trkpt><trkpt lat="44.5094569" lon="10.4361049"><ele>499.99999999999994</ele><time>2026-04-18T13:37:16.719Z</time></trkpt><trkpt lat="44.5095438" lon="10.4361121"><ele>500.0</ele><time>2026-04-18T13:37:17.729Z</time></trkpt><trkpt lat="44.5096196" lon="10.4361431"><ele>500.0</ele><time>2026-04-18T13:37:18.712Z</time></trkpt><trkpt lat="44.5096934" lon="10.4361717"><ele>500.0</ele><time>2026-04-18T13:37:19.717Z</time></trkpt><trkpt lat="44.5097658" lon="10.4361855"><ele>499.99999999999994</ele><time>2026-04-18T13:37:20.704Z</time></trkpt><trkpt lat="44.5098364" lon="10.4361919"><ele>500.0</ele><time>2026-04-18T13:37:21.711Z</time></trkpt><trkpt lat="44.5098927" lon="10.4361251"><ele>499.16666666666663</ele><time>2026-04-18T13:37:22.715Z</time></trkpt><trkpt lat="44.5099351" lon="10.4360388"><ele>498.3333333333333</ele><time>2026-04-18T13:37:23.713Z</time></trkpt><trkpt lat="44.5099756" lon="10.435944"><ele>497.5</ele><time>2026-04-18T13:37:24.702Z</time></trkpt><trkpt lat="44.5100255" lon="10.4358557"><ele>496.66666666666663</ele><time>2026-04-18T13:37:25.717Z</time></trkpt><trkpt lat="44.5100887" lon="10.4357826"><ele>495.8333333333333</ele><time>2026-04-18T13:37:26.713Z</time></trkpt><trkpt lat="44.5101617" lon="10.4357287"><ele>495.0</ele><time>2026-04-18T13:37:27.72Z</time></trkpt><trkpt lat="44.5102371" lon="10.4356734"><ele>495.0</ele><time>2026-04-18T13:37:28.711Z</time></trkpt><trkpt lat="44.5103245" lon="10.4356441"><ele>495.0</ele><time>2026-04-18T13:37:29.718Z</time></trkpt><trkpt lat="44.5104139" lon="10.435625"><ele>495.0</ele><time>2026-04-18T13:37:30.716Z</time></trkpt><trkpt lat="44.5104968" lon="10.4356096"><ele>495.0</ele><time>2026-04-18T13:37:31.722Z</time></trkpt><trkpt lat="44.5105726" lon="10.4356404"><ele>495.0</ele><time>2026-04-18T13:37:32.722Z</time></trkpt><trkpt lat="44.5106483" lon="10.4356723"><ele>495.0</ele><time>2026-04-18T13:37:33.705Z</time></trkpt><trkpt lat="44.5107243" lon="10.4357016"><ele>494.0</ele><time>2026-04-18T13:37:34.739Z</time></trkpt><trkpt lat="44.5107981" lon="10.4356646"><ele>493.0</ele><time>2026-04-18T13:37:35.699Z</time></trkpt><trkpt lat="44.5108659" lon="10.435595"><ele>492.0</ele><time>2026-04-18T13:37:36.717Z</time></trkpt><trkpt lat="44.5109271" lon="10.4355038"><ele>491.0</ele><time>2026-04-18T13:37:37.727Z</time></trkpt><trkpt lat="44.5109929" lon="10.435409"><ele>490.0</ele><time>2026-04-18T13:37:38.714Z</time></trkpt><trkpt lat="44.5110651" lon="10.4353218"><ele>489.0</ele><time>2026-04-18T13:37:39.71Z</time></trkpt><trkpt lat="44.5111407" lon="10.4352519"><ele>487.4</ele><time>2026-04-18T13:37:40.723Z</time></trkpt><trkpt lat="44.5112208" lon="10.4352082"><ele>485.79999999999995</ele><time>2026-04-18T13:37:41.709Z</time></trkpt><trkpt lat="44.5113064" lon="10.4351964"><ele>484.20000000000005</ele><time>2026-04-18T13:37:42.708Z</time></trkpt><trkpt lat="44.5114009" lon="10.4352171"><ele>482.6</ele><time>2026-04-18T13:37:43.717Z</time></trkpt><trkpt lat="44.5114913" lon="10.4352396"><ele>481.0</ele><time>2026-04-18T13:37:44.722Z</time></trkpt><trkpt lat="44.5115765" lon="10.4352897"><ele>480.50000000000006</ele><time>2026-04-18T13:37:45.714Z</time></trkpt><trkpt lat="44.5116577" lon="10.4353415"><ele>480.0</ele><time>2026-04-18T13:37:46.712Z</time></trkpt><trkpt lat="44.5117398" lon="10.4353463"><ele>479.5</ele><time>2026-04-18T13:37:47.72Z</time></trkpt><trkpt lat="44.5118194" lon="10.4353148"><ele>479.0</ele><time>2026-04-18T13:37:48.704Z</time></trkpt><trkpt lat="44.5118966" lon="10.4352585"><ele>478.50000000000006</ele><time>2026-04-18T13:37:49.709Z</time></trkpt><trkpt lat="44.5119696" lon="10.4352015"><ele>478.0</ele><time>2026-04-18T13:37:50.701Z</time></trkpt><trkpt lat="44.5120411" lon="10.4351387"><ele>477.33333333333337</ele><time>2026-04-18T13:37:51.7Z</time></trkpt><trkpt lat="44.5121164" lon="10.4350952"><ele>476.6666666666667</ele><time>2026-04-18T13:37:52.708Z</time></trkpt><trkpt lat="44.5121948" lon="10.4350819"><ele>476.0</ele><time>2026-04-18T13:37:53.718Z</time></trkpt><trkpt lat="44.5122783" lon="10.4350951"><ele>475.33333333333337</ele><time>2026-04-18T13:37:54.718Z</time></trkpt><trkpt lat="44.5123678" lon="10.4351239"><ele>474.6666666666667</ele><time>2026-04-18T13:37:55.723Z</time></trkpt><trkpt lat="44.5124615" lon="10.4351626"><ele>474.0</ele><time>2026-04-18T13:37:56.718Z</time></trkpt><trkpt lat="44.5125576" lon="10.4352049"><ele>474.0</ele><time>2026-04-18T13:37:57.72Z</time></trkpt><trkpt lat="44.5126541" lon="10.435246"><ele>474.0</ele><time>2026-04-18T13:37:58.727Z</time></trkpt><trkpt lat="44.5127494" lon="10.4352835"><ele>474.0</ele><time>2026-04-18T13:37:59.718Z</time></trkpt><trkpt lat="44.5128453" lon="10.4353014"><ele>474.0</ele><time>2026-04-18T13:38:00.704Z</time></trkpt><trkpt lat="44.5129367" lon="10.4353092"><ele>474.0</ele><time>2026-04-18T13:38:01.725Z</time></trkpt><trkpt lat="44.5130249" lon="10.4353111"><ele>473.0</ele><time>2026-04-18T13:38:02.721Z</time></trkpt><trkpt lat="44.513105" lon="10.4353064"><ele>472.0</ele><time>2026-04-18T13:38:03.705Z</time></trkpt><trkpt lat="44.5131701" lon="10.4352838"><ele>471.0</ele><time>2026-04-18T13:38:04.713Z</time></trkpt><trkpt lat="44.5132386" lon="10.435154"><ele>470.0</ele><time>2026-04-18T13:38:06.713Z</time></trkpt><trkpt lat="44.5132218" lon="10.4349692"><ele>469.0</ele><time>2026-04-18T13:38:08.718Z</time></trkpt><trkpt lat="44.5131654" lon="10.4348682"><ele>469.0</ele><time>2026-04-18T13:38:09.711Z</time></trkpt><trkpt lat="44.513108" lon="10.4347654"><ele>469.0</ele><time>2026-04-18T13:38:10.716Z</time></trkpt><trkpt lat="44.5130424" lon="10.4346748"><ele>469.0</ele><time>2026-04-18T13:38:11.716Z</time></trkpt><trkpt lat="44.5129844" lon="10.4345908"><ele>469.0</ele><time>2026-04-18T13:38:12.707Z</time></trkpt><trkpt lat="44.5129398" lon="10.4345116"><ele>469.0</ele><time>2026-04-18T13:38:13.707Z</time></trkpt><trkpt lat="44.5128865" lon="10.4343651"><ele>467.2</ele><time>2026-04-18T13:38:15.711Z</time></trkpt><trkpt lat="44.5129574" lon="10.4342783"><ele>465.4</ele><time>2026-04-18T13:38:17.709Z</time></trkpt><trkpt lat="44.5130722" lon="10.4343459"><ele>463.6</ele><time>2026-04-18T13:38:19.704Z</time></trkpt><trkpt lat="44.5131244" lon="10.4344311"><ele>461.8</ele><time>2026-04-18T13:38:20.718Z</time></trkpt><trkpt lat="44.5131857" lon="10.434515"><ele>460.0</ele><time>2026-04-18T13:38:21.703Z</time></trkpt><trkpt lat="44.5132579" lon="10.4345837"><ele>459.00000000000006</ele><time>2026-04-18T13:38:22.726Z</time></trkpt><trkpt lat="44.5133307" lon="10.4346472"><ele>458.0</ele><time>2026-04-18T13:38:23.717Z</time></trkpt><trkpt lat="44.5134165" lon="10.4346789"><ele>457.0</ele><time>2026-04-18T13:38:24.708Z</time></trkpt><trkpt lat="44.5135043" lon="10.4347116"><ele>456.0</ele><time>2026-04-18T13:38:25.715Z</time></trkpt><trkpt lat="44.513594" lon="10.4347473"><ele>455.00000000000006</ele><time>2026-04-18T13:38:26.701Z</time></trkpt><trkpt lat="44.5136793" lon="10.4347748"><ele>454.0</ele><time>2026-04-18T13:38:27.704Z</time></trkpt><trkpt lat="44.5137647" lon="10.4347868"><ele>454.00000000000006</ele><time>2026-04-18T13:38:28.705Z</time></trkpt><trkpt lat="44.513848" lon="10.4347765"><ele>454.0</ele><time>2026-04-18T13:38:29.709Z</time></trkpt><trkpt lat="44.5139336" lon="10.4347618"><ele>454.0</ele><time>2026-04-18T13:38:30.71Z</time></trkpt><trkpt lat="44.5140135" lon="10.4347147"><ele>454.0</ele><time>2026-04-18T13:38:31.72Z</time></trkpt><trkpt lat="44.5140935" lon="10.4346968"><ele>454.00000000000006</ele><time>2026-04-18T13:38:32.718Z</time></trkpt><trkpt lat="44.5141731" lon="10.4347166"><ele>454.0</ele><time>2026-04-18T13:38:33.72Z</time></trkpt><trkpt lat="44.5142545" lon="10.4347362"><ele>454.00000000000006</ele><time>2026-04-18T13:38:34.715Z</time></trkpt><trkpt lat="44.5143303" lon="10.4348074"><ele>454.0</ele><time>2026-04-18T13:38:35.713Z</time></trkpt><trkpt lat="44.5144043" lon="10.4348826"><ele>454.0</ele><time>2026-04-18T13:38:36.709Z</time></trkpt><trkpt lat="44.5144813" lon="10.4349401"><ele>454.0</ele><time>2026-04-18T13:38:37.714Z</time></trkpt><trkpt lat="44.5145605" lon="10.4349739"><ele>454.00000000000006</ele><time>2026-04-18T13:38:38.711Z</time></trkpt><trkpt lat="44.5146465" lon="10.4349825"><ele>454.0</ele><time>2026-04-18T13:38:39.703Z</time></trkpt><trkpt lat="44.5147333" lon="10.4349733"><ele>452.00000000000006</ele><time>2026-04-18T13:38:40.724Z</time></trkpt><trkpt lat="44.5148207" lon="10.4349681"><ele>450.0</ele><time>2026-04-18T13:38:41.723Z</time></trkpt><trkpt lat="44.5149041" lon="10.4349866"><ele>448.0</ele><time>2026-04-18T13:38:42.709Z</time></trkpt><trkpt lat="44.5149801" lon="10.4350042"><ele>446.0</ele><time>2026-04-18T13:38:43.709Z</time></trkpt><trkpt lat="44.5150336" lon="10.4350838"><ele>444.00000000000006</ele><time>2026-04-18T13:38:44.717Z</time></trkpt><trkpt lat="44.5150623" lon="10.4351854"><ele>442.0</ele><time>2026-04-18T13:38:45.711Z</time></trkpt><trkpt lat="44.5150697" lon="10.435276"><ele>442.0</ele><time>2026-04-18T13:38:46.726Z</time></trkpt><trkpt lat="44.515064" lon="10.4353907"><ele>442.00000000000006</ele><time>2026-04-18T13:38:48.718Z</time></trkpt><trkpt lat="44.5151043" lon="10.4354847"><ele>442.00000000000006</ele><time>2026-04-18T13:40:04.716Z</time></trkpt><trkpt lat="44.5152185" lon="10.4354868"><ele>442.0</ele><time>2026-04-18T13:40:06.718Z</time></trkpt><trkpt lat="44.5153027" lon="10.4354446"><ele>442.0</ele><time>2026-04-18T13:40:07.726Z</time></trkpt><trkpt lat="44.515389" lon="10.4353936"><ele>439.25</ele><time>2026-04-18T13:40:08.718Z</time></trkpt><trkpt lat="44.5154828" lon="10.435345"><ele>436.5</ele><time>2026-04-18T13:40:09.712Z</time></trkpt><trkpt lat="44.5155882" lon="10.4352973"><ele>433.75</ele><time>2026-04-18T13:40:10.71Z</time></trkpt><trkpt lat="44.5157058" lon="10.4352389"><ele>431.0</ele><time>2026-04-18T13:40:11.702Z</time></trkpt><trkpt lat="44.5158318" lon="10.4351529"><ele>431.0</ele><time>2026-04-18T13:40:12.702Z</time></trkpt><trkpt lat="44.5159555" lon="10.4350472"><ele>431.0</ele><time>2026-04-18T13:40:13.705Z</time></trkpt><trkpt lat="44.516076" lon="10.4349418"><ele>431.0</ele><time>2026-04-18T13:40:14.704Z</time></trkpt><trkpt lat="44.516179" lon="10.4348268"><ele>431.0</ele><time>2026-04-18T13:40:15.719Z</time></trkpt><trkpt lat="44.5162754" lon="10.4347149"><ele>430.20000000000005</ele><time>2026-04-18T13:40:16.714Z</time></trkpt><trkpt lat="44.5163761" lon="10.4346347"><ele>429.40000000000003</ele><time>2026-04-18T13:40:17.722Z</time></trkpt><trkpt lat="44.5164724" lon="10.4345804"><ele>428.6</ele><time>2026-04-18T13:40:18.71Z</time></trkpt><trkpt lat="44.5165638" lon="10.4345252"><ele>427.8</ele><time>2026-04-18T13:40:19.712Z</time></trkpt><trkpt lat="44.516645" lon="10.4344512"><ele>427.0</ele><time>2026-04-18T13:40:20.718Z</time></trkpt><trkpt lat="44.5167069" lon="10.4343451"><ele>427.0</ele><time>2026-04-18T13:40:21.702Z</time></trkpt><trkpt lat="44.5167652" lon="10.4342131"><ele>427.00000000000006</ele><time>2026-04-18T13:40:22.702Z</time></trkpt><trkpt lat="44.5168154" lon="10.4340807"><ele>427.00000000000006</ele><time>2026-04-18T13:40:23.706Z</time></trkpt><trkpt lat="44.516864" lon="10.4339796"><ele>427.0</ele><time>2026-04-18T13:40:24.702Z</time></trkpt><trkpt lat="44.5169246" lon="10.4339173"><ele>427.0</ele><time>2026-04-18T13:40:25.719Z</time></trkpt><trkpt lat="44.5169969" lon="10.4338998"><ele>427.40000000000003</ele><time>2026-04-18T13:40:26.717Z</time></trkpt><trkpt lat="44.5170807" lon="10.4339279"><ele>427.80000000000007</ele><time>2026-04-18T13:40:27.703Z</time></trkpt><trkpt lat="44.5171631" lon="10.4339576"><ele>428.2</ele><time>2026-04-18T13:40:28.703Z</time></trkpt><trkpt lat="44.5172491" lon="10.4340033"><ele>428.6</ele><time>2026-04-18T13:40:29.713Z</time></trkpt><trkpt lat="44.5173697" lon="10.4339955"><ele>429.0</ele><time>2026-04-18T13:40:30.712Z</time></trkpt><trkpt lat="44.5174875" lon="10.4339812"><ele>429.0</ele><time>2026-04-18T13:40:31.719Z</time></trkpt><trkpt lat="44.5176013" lon="10.4339637"><ele>429.0</ele><time>2026-04-18T13:40:32.718Z</time></trkpt><trkpt lat="44.5177167" lon="10.4339272"><ele>429.0</ele><time>2026-04-18T13:40:33.702Z</time></trkpt><trkpt lat="44.5178276" lon="10.4338737"><ele>429.0</ele><time>2026-04-18T13:40:34.712Z</time></trkpt><trkpt lat="44.5179221" lon="10.4338161"><ele>428.3333333333333</ele><time>2026-04-18T13:40:35.72Z</time></trkpt><trkpt lat="44.5180079" lon="10.4337678"><ele>427.66666666666663</ele><time>2026-04-18T13:40:36.715Z</time></trkpt><trkpt lat="44.5180851" lon="10.4337444"><ele>427.0</ele><time>2026-04-18T13:40:37.702Z</time></trkpt><trkpt lat="44.5181507" lon="10.4337729"><ele>426.3333333333333</ele><time>2026-04-18T13:40:38.701Z</time></trkpt><trkpt lat="44.5182279" lon="10.4338849"><ele>425.66666666666663</ele><time>2026-04-18T13:40:40.717Z</time></trkpt><trkpt lat="44.5182602" lon="10.4339916"><ele>425.0</ele><time>2026-04-18T13:40:41.718Z</time></trkpt><trkpt lat="44.518318" lon="10.4340787"><ele>425.0</ele><time>2026-04-18T13:40:42.709Z</time></trkpt><trkpt lat="44.5184075" lon="10.434087"><ele>425.0</ele><time>2026-04-18T13:40:43.707Z</time></trkpt><trkpt lat="44.5184971" lon="10.4340968"><ele>425.0</ele><time>2026-04-18T13:40:44.715Z</time></trkpt><trkpt lat="44.5185905" lon="10.4340919"><ele>425.0</ele><time>2026-04-18T13:40:45.708Z</time></trkpt><trkpt lat="44.5186884" lon="10.4341228"><ele>425.0</ele><time>2026-04-18T13:40:46.701Z</time></trkpt><trkpt lat="44.5187904" lon="10.4341785"><ele>421.5</ele><time>2026-04-18T13:40:47.709Z</time></trkpt><trkpt lat="44.5189041" lon="10.4342506"><ele>418.0</ele><time>2026-04-18T13:40:48.717Z</time></trkpt><trkpt lat="44.5190134" lon="10.434333"><ele>414.5</ele><time>2026-04-18T13:40:49.718Z</time></trkpt><trkpt lat="44.5191145" lon="10.4344253"><ele>411.0</ele><time>2026-04-18T13:40:50.718Z</time></trkpt><trkpt lat="44.5191997" lon="10.4345259"><ele>413.6</ele><time>2026-04-18T13:40:51.711Z</time></trkpt><trkpt lat="44.5192652" lon="10.434641"><ele>416.20000000000005</ele><time>2026-04-18T13:40:52.716Z</time></trkpt><trkpt lat="44.5193234" lon="10.4347673"><ele>418.79999999999995</ele><time>2026-04-18T13:40:53.707Z</time></trkpt><trkpt lat="44.5193943" lon="10.4348867"><ele>421.4</ele><time>2026-04-18T13:40:54.708Z</time></trkpt><trkpt lat="44.5194638" lon="10.4349973"><ele>424.0</ele><time>2026-04-18T13:40:55.723Z</time></trkpt><trkpt lat="44.5195505" lon="10.4350509"><ele>422.0</ele><time>2026-04-18T13:40:56.715Z</time></trkpt><trkpt lat="44.519638" lon="10.4350511"><ele>420.0</ele><time>2026-04-18T13:40:57.715Z</time></trkpt><trkpt lat="44.5197175" lon="10.434989"><ele>418.0</ele><time>2026-04-18T13:40:58.708Z</time></trkpt><trkpt lat="44.5198045" lon="10.4349159"><ele>416.0</ele><time>2026-04-18T13:40:59.721Z</time></trkpt><trkpt lat="44.5198823" lon="10.4348345"><ele>414.0</ele><time>2026-04-18T13:41:00.705Z</time></trkpt><trkpt lat="44.5199542" lon="10.4347652"><ele>414.0</ele><time>2026-04-18T13:41:01.718Z</time></trkpt><trkpt lat="44.520068" lon="10.4347639"><ele>414.0</ele><time>2026-04-18T13:41:02.712Z</time></trkpt><trkpt lat="44.5201988" lon="10.4347574"><ele>414.0</ele><time>2026-04-18T13:41:03.72Z</time></trkpt><trkpt lat="44.5203392" lon="10.4347381"><ele>414.0</ele><time>2026-04-18T13:41:04.708Z</time></trkpt><trkpt lat="44.5204745" lon="10.4347113"><ele>413.0</ele><time>2026-04-18T13:41:05.707Z</time></trkpt><trkpt lat="44.5206023" lon="10.4346841"><ele>412.0</ele><time>2026-04-18T13:41:06.718Z</time></trkpt><trkpt lat="44.5207244" lon="10.4346605"><ele>411.0</ele><time>2026-04-18T13:41:07.699Z</time></trkpt><trkpt lat="44.5208368" lon="10.4346426"><ele>410.0</ele><time>2026-04-18T13:41:08.701Z</time></trkpt><trkpt lat="44.5209479" lon="10.434649"><ele>410.0</ele><time>2026-04-18T13:41:09.707Z</time></trkpt><trkpt lat="44.5210633" lon="10.4346561"><ele>410.0</ele><time>2026-04-18T13:41:10.716Z</time></trkpt><trkpt lat="44.5211738" lon="10.4346814"><ele>410.0</ele><time>2026-04-18T13:41:11.721Z</time></trkpt><trkpt lat="44.5212746" lon="10.4347092"><ele>410.0</ele><time>2026-04-18T13:41:12.708Z</time></trkpt><trkpt lat="44.5213675" lon="10.4347449"><ele>410.0</ele><time>2026-04-18T13:41:13.701Z</time></trkpt><trkpt lat="44.5214511" lon="10.4347944"><ele>407.66666666666663</ele><time>2026-04-18T13:41:14.712Z</time></trkpt><trkpt lat="44.5215194" lon="10.434852"><ele>405.3333333333333</ele><time>2026-04-18T13:41:15.717Z</time></trkpt><trkpt lat="44.5215849" lon="10.4349004"><ele>403.0</ele><time>2026-04-18T13:41:16.709Z</time></trkpt><trkpt lat="44.5216482" lon="10.4349136"><ele>400.66666666666663</ele><time>2026-04-18T13:41:17.713Z</time></trkpt><trkpt lat="44.5217461" lon="10.4348052"><ele>398.3333333333333</ele><time>2026-04-18T13:41:19.712Z</time></trkpt><trkpt lat="44.5217674" lon="10.4346939"><ele>396.0</ele><time>2026-04-18T13:41:20.727Z</time></trkpt><trkpt lat="44.5217822" lon="10.4345533"><ele>394.5</ele><time>2026-04-18T13:41:21.702Z</time></trkpt><trkpt lat="44.521798" lon="10.4343989"><ele>393.0</ele><time>2026-04-18T13:41:22.698Z</time></trkpt><trkpt lat="44.5218137" lon="10.4342118"><ele>391.5</ele><time>2026-04-18T13:41:23.705Z</time></trkpt><trkpt lat="44.5218309" lon="10.4340197"><ele>390.0</ele><time>2026-04-18T13:41:24.702Z</time></trkpt><trkpt lat="44.5218472" lon="10.4338427"><ele>389.5</ele><time>2026-04-18T13:41:25.716Z</time></trkpt><trkpt lat="44.5218612" lon="10.4336908"><ele>389.0</ele><time>2026-04-18T13:41:26.718Z</time></trkpt><trkpt lat="44.5218738" lon="10.4335602"><ele>388.5</ele><time>2026-04-18T13:41:27.717Z</time></trkpt><trkpt lat="44.5218844" lon="10.4334606"><ele>388.0</ele><time>2026-04-18T13:41:28.709Z</time></trkpt><trkpt lat="44.5218958" lon="10.43334"><ele>387.5</ele><time>2026-04-18T13:41:30.701Z</time></trkpt><trkpt lat="44.5218883" lon="10.4332375"><ele>387.0</ele><time>2026-04-18T13:41:53.705Z</time></trkpt><trkpt lat="44.521978" lon="10.4331669"><ele>387.0</ele><time>2026-04-18T13:41:58.7Z</time></trkpt><trkpt lat="44.5220497" lon="10.4331618"><ele>387.0</ele><time>2026-04-18T13:41:59.711Z</time></trkpt><trkpt lat="44.5221359" lon="10.4331704"><ele>387.0</ele><time>2026-04-18T13:42:00.723Z</time></trkpt><trkpt lat="44.5222367" lon="10.4331925"><ele>387.0</ele><time>2026-04-18T13:42:01.719Z</time></trkpt><trkpt lat="44.52234" lon="10.4332327"><ele>387.0</ele><time>2026-04-18T13:42:02.719Z</time></trkpt><trkpt lat="44.5224389" lon="10.4332869"><ele>389.40000000000003</ele><time>2026-04-18T13:42:03.702Z</time></trkpt><trkpt lat="44.5225339" lon="10.4333436"><ele>391.8</ele><time>2026-04-18T13:42:04.7Z</time></trkpt><trkpt lat="44.5226302" lon="10.4333934"><ele>394.2</ele><time>2026-04-18T13:42:05.713Z</time></trkpt><trkpt lat="44.52273" lon="10.4334354"><ele>396.6</ele><time>2026-04-18T13:42:06.712Z</time></trkpt><trkpt lat="44.5228293" lon="10.433465"><ele>399.0</ele><time>2026-04-18T13:42:07.713Z</time></trkpt><trkpt lat="44.5229211" lon="10.4334919"><ele>400.79999999999995</ele><time>2026-04-18T13:42:08.715Z</time></trkpt><trkpt lat="44.523012" lon="10.4334786"><ele>402.59999999999997</ele><time>2026-04-18T13:42:09.722Z</time></trkpt><trkpt lat="44.5231039" lon="10.433438"><ele>404.4</ele><time>2026-04-18T13:42:10.718Z</time></trkpt><trkpt lat="44.5231911" lon="10.433385"><ele>406.2</ele><time>2026-04-18T13:42:11.702Z</time></trkpt><trkpt lat="44.523259" lon="10.4333072"><ele>408.0</ele><time>2026-04-18T13:42:12.719Z</time></trkpt><trkpt lat="44.5232998" lon="10.433201"><ele>408.0</ele><time>2026-04-18T13:42:13.715Z</time></trkpt><trkpt lat="44.5233097" lon="10.4330744"><ele>408.0</ele><time>2026-04-18T13:42:14.715Z</time></trkpt><trkpt lat="44.5232905" lon="10.4329508"><ele>408.0</ele><time>2026-04-18T13:42:15.719Z</time></trkpt><trkpt lat="44.5232468" lon="10.4328563"><ele>408.0</ele><time>2026-04-18T13:42:16.703Z</time></trkpt><trkpt lat="44.52318" lon="10.4328045"><ele>408.0</ele><time>2026-04-18T13:42:17.714Z</time></trkpt><trkpt lat="44.5231047" lon="10.432816"><ele>408.0</ele><time>2026-04-18T13:42:18.711Z</time></trkpt><trkpt lat="44.5230308" lon="10.4328626"><ele>408.5</ele><time>2026-04-18T13:42:19.702Z</time></trkpt><trkpt lat="44.5229525" lon="10.4328924"><ele>409.0</ele><time>2026-04-18T13:42:20.701Z</time></trkpt><trkpt lat="44.5228773" lon="10.432879"><ele>409.5</ele><time>2026-04-18T13:42:21.706Z</time></trkpt><trkpt lat="44.5228174" lon="10.432817"><ele>410.0</ele><time>2026-04-18T13:42:22.717Z</time></trkpt><trkpt lat="44.522792" lon="10.4327314"><ele>410.5</ele><time>2026-04-18T13:42:23.701Z</time></trkpt><trkpt lat="44.5228636" lon="10.4326059"><ele>411.0</ele><time>2026-04-18T13:42:25.717Z</time></trkpt><trkpt lat="44.5229483" lon="10.4324874"><ele>411.0</ele><time>2026-04-18T13:42:27.714Z</time></trkpt><trkpt lat="44.5229337" lon="10.4324008"><ele>411.0</ele><time>2026-04-18T13:42:28.72Z</time></trkpt><trkpt lat="44.5229182" lon="10.4323148"><ele>411.0</ele><time>2026-04-18T13:42:29.701Z</time></trkpt><trkpt lat="44.522883" lon="10.4321685"><ele>411.0</ele><time>2026-04-18T13:42:31.716Z</time></trkpt><trkpt lat="44.5229617" lon="10.4320659"><ele>411.0</ele><time>2026-04-18T13:42:33.717Z</time></trkpt><trkpt lat="44.5230488" lon="10.4320659"><ele>411.0</ele><time>2026-04-18T13:42:34.723Z</time></trkpt><trkpt lat="44.5231429" lon="10.4320291"><ele>416.0</ele><time>2026-04-18T13:42:35.716Z</time></trkpt><trkpt lat="44.5232415" lon="10.4319294"><ele>421.0</ele><time>2026-04-18T13:42:36.718Z</time></trkpt><trkpt lat="44.5233246" lon="10.431786"><ele>426.0</ele><time>2026-04-18T13:42:37.722Z</time></trkpt><trkpt lat="44.5233808" lon="10.4316242"><ele>431.0</ele><time>2026-04-18T13:42:38.718Z</time></trkpt><trkpt lat="44.5234076" lon="10.4314853"><ele>430.99999999999994</ele><time>2026-04-18T13:42:39.706Z</time></trkpt><trkpt lat="44.5234135" lon="10.4313584"><ele>431.0</ele><time>2026-04-18T13:42:40.714Z</time></trkpt><trkpt lat="44.523415" lon="10.4312462"><ele>431.0</ele><time>2026-04-18T13:42:41.714Z</time></trkpt><trkpt lat="44.5233597" lon="10.4311588"><ele>431.0</ele><time>2026-04-18T13:42:42.715Z</time></trkpt><trkpt lat="44.5233043" lon="10.4310775"><ele>430.99999999999994</ele><time>2026-04-18T13:42:43.709Z</time></trkpt><trkpt lat="44.5232401" lon="10.4310085"><ele>431.0</ele><time>2026-04-18T13:42:44.719Z</time></trkpt><trkpt lat="44.5232035" lon="10.4309114"><ele>432.3333333333333</ele><time>2026-04-18T13:42:45.705Z</time></trkpt><trkpt lat="44.5232004" lon="10.4307913"><ele>433.66666666666663</ele><time>2026-04-18T13:42:46.727Z</time></trkpt><trkpt lat="44.523226" lon="10.430667"><ele>435.0</ele><time>2026-04-18T13:42:47.703Z</time></trkpt><trkpt lat="44.523246" lon="10.4305466"><ele>436.33333333333337</ele><time>2026-04-18T13:42:48.717Z</time></trkpt><trkpt lat="44.5232418" lon="10.4304372"><ele>437.6666666666667</ele><time>2026-04-18T13:42:49.715Z</time></trkpt><trkpt lat="44.5232139" lon="10.4303491"><ele>439.0</ele><time>2026-04-18T13:42:50.705Z</time></trkpt><trkpt lat="44.5231624" lon="10.4302882"><ele>439.6</ele><time>2026-04-18T13:42:51.722Z</time></trkpt><trkpt lat="44.5230868" lon="10.4302587"><ele>440.2</ele><time>2026-04-18T13:42:52.703Z</time></trkpt><trkpt lat="44.5229951" lon="10.4302502"><ele>440.80000000000007</ele><time>2026-04-18T13:42:53.709Z</time></trkpt><trkpt lat="44.5228941" lon="10.4302424"><ele>441.40000000000003</ele><time>2026-04-18T13:42:54.715Z</time></trkpt><trkpt lat="44.5227905" lon="10.4302307"><ele>442.0</ele><time>2026-04-18T13:42:55.704Z</time></trkpt><trkpt lat="44.5226972" lon="10.4302142"><ele>443.33333333333337</ele><time>2026-04-18T13:42:56.717Z</time></trkpt><trkpt lat="44.5226203" lon="10.4301804"><ele>444.6666666666667</ele><time>2026-04-18T13:42:57.711Z</time></trkpt><trkpt lat="44.5225713" lon="10.4301138"><ele>446.0</ele><time>2026-04-18T13:42:58.715Z</time></trkpt><trkpt lat="44.5225254" lon="10.4300483"><ele>447.33333333333337</ele><time>2026-04-18T13:42:59.7Z</time></trkpt><trkpt lat="44.5225211" lon="10.4299481"><ele>448.6666666666667</ele><time>2026-04-18T13:43:00.712Z</time></trkpt><trkpt lat="44.5225546" lon="10.4298228"><ele>450.0</ele><time>2026-04-18T13:43:01.707Z</time></trkpt><trkpt lat="44.5225879" lon="10.4296677"><ele>451.75</ele><time>2026-04-18T13:43:02.707Z</time></trkpt><trkpt lat="44.5226251" lon="10.4294908"><ele>453.5</ele><time>2026-04-18T13:43:03.716Z</time></trkpt><trkpt lat="44.5226608" lon="10.4293184"><ele>455.25</ele><time>2026-04-18T13:43:04.701Z</time></trkpt><trkpt lat="44.5226865" lon="10.4291636"><ele>457.0</ele><time>2026-04-18T13:43:05.712Z</time></trkpt><trkpt lat="44.5227078" lon="10.429034"><ele>457.00000000000006</ele><time>2026-04-18T13:43:06.717Z</time></trkpt><trkpt lat="44.5227059" lon="10.4289205"><ele>457.0</ele><time>2026-04-18T13:43:07.718Z</time></trkpt><trkpt lat="44.5226511" lon="10.4288379"><ele>457.0</ele><time>2026-04-18T13:43:08.702Z</time></trkpt><trkpt lat="44.5225746" lon="10.4287909"><ele>457.0</ele><time>2026-04-18T13:43:09.717Z</time></trkpt><trkpt lat="44.5225046" lon="10.4287428"><ele>457.00000000000006</ele><time>2026-04-18T13:43:10.713Z</time></trkpt><trkpt lat="44.5224616" lon="10.4286662"><ele>457.0</ele><time>2026-04-18T13:43:11.707Z</time></trkpt><trkpt lat="44.5224566" lon="10.4285663"><ele>458.8</ele><time>2026-04-18T13:43:12.728Z</time></trkpt><trkpt lat="44.5224856" lon="10.4284558"><ele>460.6</ele><time>2026-04-18T13:43:13.721Z</time></trkpt><trkpt lat="44.5225371" lon="10.4283509"><ele>462.40000000000003</ele><time>2026-04-18T13:43:14.705Z</time></trkpt><trkpt lat="44.522588" lon="10.4282275"><ele>464.20000000000005</ele><time>2026-04-18T13:43:15.723Z</time></trkpt><trkpt lat="44.522638" lon="10.428102"><ele>466.0</ele><time>2026-04-18T13:43:16.707Z</time></trkpt><trkpt lat="44.5226797" lon="10.4279555"><ele>466.75</ele><time>2026-04-18T13:43:17.714Z</time></trkpt><trkpt lat="44.5227213" lon="10.4278067"><ele>467.5</ele><time>2026-04-18T13:43:18.716Z</time></trkpt><trkpt lat="44.5227617" lon="10.4276596"><ele>468.25</ele><time>2026-04-18T13:43:19.713Z</time></trkpt><trkpt lat="44.5228014" lon="10.4275062"><ele>469.0</ele><time>2026-04-18T13:43:20.716Z</time></trkpt><trkpt lat="44.5228415" lon="10.4273412"><ele>469.0</ele><time>2026-04-18T13:43:21.714Z</time></trkpt><trkpt lat="44.5228865" lon="10.4271624"><ele>469.0</ele><time>2026-04-18T13:43:22.725Z</time></trkpt><trkpt lat="44.522939" lon="10.4269623"><ele>469.0</ele><time>2026-04-18T13:43:23.721Z</time></trkpt><trkpt lat="44.5229956" lon="10.4267572"><ele>469.0</ele><time>2026-04-18T13:43:24.706Z</time></trkpt><trkpt lat="44.5230486" lon="10.4265576"><ele>471.25</ele><time>2026-04-18T13:43:25.718Z</time></trkpt><trkpt lat="44.5230969" lon="10.4263696"><ele>473.5</ele><time>2026-04-18T13:43:26.717Z</time></trkpt><trkpt lat="44.5231401" lon="10.426201"><ele>475.75</ele><time>2026-04-18T13:43:27.725Z</time></trkpt><trkpt lat="44.5231696" lon="10.426047"><ele>478.0</ele><time>2026-04-18T13:43:28.717Z</time></trkpt><trkpt lat="44.5231643" lon="10.4259004"><ele>480.0</ele><time>2026-04-18T13:43:29.721Z</time></trkpt><trkpt lat="44.523128" lon="10.4257633"><ele>481.99999999999994</ele><time>2026-04-18T13:43:30.718Z</time></trkpt><trkpt lat="44.5231152" lon="10.4256451"><ele>483.99999999999994</ele><time>2026-04-18T13:43:31.714Z</time></trkpt><trkpt lat="44.523135" lon="10.4255327"><ele>486.0</ele><time>2026-04-18T13:43:32.711Z</time></trkpt><trkpt lat="44.5231834" lon="10.4254314"><ele>488.0</ele><time>2026-04-18T13:43:33.719Z</time></trkpt><trkpt lat="44.5232421" lon="10.42533"><ele>489.79999999999995</ele><time>2026-04-18T13:43:34.718Z</time></trkpt><trkpt lat="44.5232957" lon="10.4252193"><ele>491.59999999999997</ele><time>2026-04-18T13:43:35.719Z</time></trkpt><trkpt lat="44.5233387" lon="10.4250955"><ele>493.40000000000003</ele><time>2026-04-18T13:43:36.729Z</time></trkpt><trkpt lat="44.5233597" lon="10.4249608"><ele>495.20000000000005</ele><time>2026-04-18T13:43:37.722Z</time></trkpt><trkpt lat="44.5233583" lon="10.4248033"><ele>497.0</ele><time>2026-04-18T13:43:38.724Z</time></trkpt><trkpt lat="44.5233562" lon="10.4246386"><ele>499.25</ele><time>2026-04-18T13:43:39.709Z</time></trkpt><trkpt lat="44.5233501" lon="10.4244659"><ele>501.5</ele><time>2026-04-18T13:43:40.712Z</time></trkpt><trkpt lat="44.5233542" lon="10.4242967"><ele>503.75</ele><time>2026-04-18T13:43:41.724Z</time></trkpt><trkpt lat="44.523366" lon="10.4241343"><ele>506.0</ele><time>2026-04-18T13:43:42.716Z</time></trkpt><trkpt lat="44.5233879" lon="10.423981"><ele>506.0</ele><time>2026-04-18T13:43:43.72Z</time></trkpt><trkpt lat="44.5234358" lon="10.4238495"><ele>506.0</ele><time>2026-04-18T13:43:44.717Z</time></trkpt><trkpt lat="44.5234838" lon="10.4237166"><ele>506.0</ele><time>2026-04-18T13:43:45.725Z</time></trkpt><trkpt lat="44.5235639" lon="10.4236224"><ele>506.0</ele><time>2026-04-18T13:43:46.709Z</time></trkpt><trkpt lat="44.5236451" lon="10.4235184"><ele>506.0</ele><time>2026-04-18T13:43:47.711Z</time></trkpt><trkpt lat="44.5237076" lon="10.4233722"><ele>506.0</ele><time>2026-04-18T13:43:48.716Z</time></trkpt><trkpt lat="44.5237332" lon="10.4231917"><ele>506.0</ele><time>2026-04-18T13:43:49.717Z</time></trkpt><trkpt lat="44.5237433" lon="10.423016"><ele>506.0</ele><time>2026-04-18T13:43:50.708Z</time></trkpt><trkpt lat="44.5237525" lon="10.4228596"><ele>506.0</ele><time>2026-04-18T13:43:51.704Z</time></trkpt><trkpt lat="44.5237881" lon="10.4227372"><ele>508.4</ele><time>2026-04-18T13:43:52.716Z</time></trkpt><trkpt lat="44.5238215" lon="10.4226342"><ele>510.8</ele><time>2026-04-18T13:43:53.725Z</time></trkpt><trkpt lat="44.5238945" lon="10.4225857"><ele>513.1999999999999</ele><time>2026-04-18T13:43:54.713Z</time></trkpt><trkpt lat="44.5239927" lon="10.4225947"><ele>515.6</ele><time>2026-04-18T13:43:55.706Z</time></trkpt><trkpt lat="44.5240996" lon="10.4226517"><ele>518.0</ele><time>2026-04-18T13:43:56.701Z</time></trkpt><trkpt lat="44.5242077" lon="10.4227293"><ele>518.0</ele><time>2026-04-18T13:43:57.701Z</time></trkpt><trkpt lat="44.5243104" lon="10.4227909"><ele>518.0</ele><time>2026-04-18T13:43:58.703Z</time></trkpt><trkpt lat="44.5244022" lon="10.4228438"><ele>518.0</ele><time>2026-04-18T13:43:59.718Z</time></trkpt><trkpt lat="44.5244847" lon="10.422861"><ele>518.0</ele><time>2026-04-18T13:44:00.712Z</time></trkpt><trkpt lat="44.5245629" lon="10.4228499"><ele>518.0</ele><time>2026-04-18T13:44:01.71Z</time></trkpt><trkpt lat="44.5246419" lon="10.4227588"><ele>517.75</ele><time>2026-04-18T13:44:02.71Z</time></trkpt><trkpt lat="44.5247241" lon="10.4226579"><ele>517.5</ele><time>2026-04-18T13:44:03.713Z</time></trkpt><trkpt lat="44.5248098" lon="10.4225463"><ele>517.25</ele><time>2026-04-18T13:44:04.709Z</time></trkpt><trkpt lat="44.5248897" lon="10.4224346"><ele>517.0</ele><time>2026-04-18T13:44:05.713Z</time></trkpt><trkpt lat="44.5249664" lon="10.4223164"><ele>517.0</ele><time>2026-04-18T13:44:06.715Z</time></trkpt><trkpt lat="44.5250243" lon="10.4221984"><ele>517.0</ele><time>2026-04-18T13:44:07.722Z</time></trkpt><trkpt lat="44.5250542" lon="10.422044"><ele>517.0</ele><time>2026-04-18T13:44:08.704Z</time></trkpt><trkpt lat="44.5250518" lon="10.4218656"><ele>517.0</ele><time>2026-04-18T13:44:09.724Z</time></trkpt><trkpt lat="44.5250471" lon="10.4216852"><ele>519.5</ele><time>2026-04-18T13:44:10.701Z</time></trkpt><trkpt lat="44.5250421" lon="10.42151"><ele>522.0</ele><time>2026-04-18T13:44:11.704Z</time></trkpt><trkpt lat="44.5250376" lon="10.4213468"><ele>524.5</ele><time>2026-04-18T13:44:12.716Z</time></trkpt><trkpt lat="44.5250418" lon="10.4211984"><ele>527.0</ele><time>2026-04-18T13:44:13.708Z</time></trkpt><trkpt lat="44.5250417" lon="10.421053"><ele>527.8000000000001</ele><time>2026-04-18T13:44:14.704Z</time></trkpt><trkpt lat="44.5250207" lon="10.420912"><ele>528.6</ele><time>2026-04-18T13:44:15.715Z</time></trkpt><trkpt lat="44.5249734" lon="10.4207873"><ele>529.4000000000001</ele><time>2026-04-18T13:44:16.721Z</time></trkpt><trkpt lat="44.52493" lon="10.4206729"><ele>530.2</ele><time>2026-04-18T13:44:17.711Z</time></trkpt><trkpt lat="44.5248849" lon="10.4205683"><ele>531.0</ele><time>2026-04-18T13:44:18.724Z</time></trkpt><trkpt lat="44.5248492" lon="10.420475"><ele>532.8</ele><time>2026-04-18T13:44:19.715Z</time></trkpt><trkpt lat="44.5248424" lon="10.4203561"><ele>534.6</ele><time>2026-04-18T13:44:20.718Z</time></trkpt><trkpt lat="44.5248804" lon="10.4202579"><ele>536.4</ele><time>2026-04-18T13:44:21.715Z</time></trkpt><trkpt lat="44.5249602" lon="10.420159"><ele>538.2</ele><time>2026-04-18T13:44:22.725Z</time></trkpt><trkpt lat="44.5250413" lon="10.4200471"><ele>540.0</ele><time>2026-04-18T13:44:23.71Z</time></trkpt><trkpt lat="44.5251293" lon="10.4199298"><ele>540.0</ele><time>2026-04-18T13:44:24.718Z</time></trkpt><trkpt lat="44.5251835" lon="10.4197757"><ele>540.0</ele><time>2026-04-18T13:44:25.715Z</time></trkpt><trkpt lat="44.525232" lon="10.4196202"><ele>540.0</ele><time>2026-04-18T13:44:26.721Z</time></trkpt><trkpt lat="44.5252771" lon="10.4194829"><ele>540.0</ele><time>2026-04-18T13:44:27.725Z</time></trkpt><trkpt lat="44.5253234" lon="10.4193512"><ele>540.0</ele><time>2026-04-18T13:44:28.708Z</time></trkpt><trkpt lat="44.525398" lon="10.4192449"><ele>540.0</ele><time>2026-04-18T13:44:29.725Z</time></trkpt><trkpt lat="44.5255016" lon="10.4191872"><ele>540.0</ele><time>2026-04-18T13:44:30.706Z</time></trkpt><trkpt lat="44.5256014" lon="10.4191088"><ele>540.0</ele><time>2026-04-18T13:44:31.707Z</time></trkpt><trkpt lat="44.5256615" lon="10.4189904"><ele>540.0</ele><time>2026-04-18T13:44:32.715Z</time></trkpt><trkpt lat="44.5256815" lon="10.4188228"><ele>542.0</ele><time>2026-04-18T13:44:33.717Z</time></trkpt><trkpt lat="44.525682" lon="10.4186636"><ele>544.0</ele><time>2026-04-18T13:44:34.706Z</time></trkpt><trkpt lat="44.5256808" lon="10.4185061"><ele>546.0</ele><time>2026-04-18T13:44:35.705Z</time></trkpt><trkpt lat="44.5256914" lon="10.4183817"><ele>548.0</ele><time>2026-04-18T13:44:36.717Z</time></trkpt><trkpt lat="44.5257362" lon="10.4182855"><ele>550.0</ele><time>2026-04-18T13:44:37.716Z</time></trkpt><trkpt lat="44.5258047" lon="10.4182053"><ele>550.0</ele><time>2026-04-18T13:44:38.723Z</time></trkpt><trkpt lat="44.5259024" lon="10.4181569"><ele>550.0</ele><time>2026-04-18T13:44:39.716Z</time></trkpt><trkpt lat="44.5259999" lon="10.4181025"><ele>550.0</ele><time>2026-04-18T13:44:40.704Z</time></trkpt><trkpt lat="44.5260929" lon="10.4180273"><ele>550.0</ele><time>2026-04-18T13:44:41.706Z</time></trkpt><trkpt lat="44.5261724" lon="10.4179115"><ele>550.0</ele><time>2026-04-18T13:44:42.726Z</time></trkpt><trkpt lat="44.5262434" lon="10.4177647"><ele>551.75</ele><time>2026-04-18T13:44:43.718Z</time></trkpt><trkpt lat="44.5263093" lon="10.4176215"><ele>553.5</ele><time>2026-04-18T13:44:44.719Z</time></trkpt><trkpt lat="44.5263858" lon="10.4174764"><ele>555.25</ele><time>2026-04-18T13:44:45.726Z</time></trkpt><trkpt lat="44.5264696" lon="10.4173474"><ele>557.0</ele><time>2026-04-18T13:44:46.712Z</time></trkpt><trkpt lat="44.5265671" lon="10.4172269"><ele>560.5</ele><time>2026-04-18T13:44:47.717Z</time></trkpt><trkpt lat="44.526676" lon="10.4171186"><ele>564.0</ele><time>2026-04-18T13:44:48.726Z</time></trkpt><trkpt lat="44.5267915" lon="10.4170143"><ele>567.5</ele><time>2026-04-18T13:44:49.726Z</time></trkpt><trkpt lat="44.5269076" lon="10.41691"><ele>571.0</ele><time>2026-04-18T13:44:50.718Z</time></trkpt><trkpt lat="44.5270177" lon="10.41682"><ele>570.4</ele><time>2026-04-18T13:44:51.717Z</time></trkpt><trkpt lat="44.5271216" lon="10.4167515"><ele>569.8</ele><time>2026-04-18T13:44:52.718Z</time></trkpt><trkpt lat="44.5272232" lon="10.4167181"><ele>569.1999999999999</ele><time>2026-04-18T13:44:53.713Z</time></trkpt><trkpt lat="44.527318" lon="10.4166912"><ele>568.6</ele><time>2026-04-18T13:44:54.709Z</time></trkpt><trkpt lat="44.5273947" lon="10.4167544"><ele>568.0</ele><time>2026-04-18T13:44:55.723Z</time></trkpt><trkpt lat="44.5274448" lon="10.4168544"><ele>568.0</ele><time>2026-04-18T13:44:56.719Z</time></trkpt><trkpt lat="44.5274884" lon="10.4169656"><ele>568.0</ele><time>2026-04-18T13:44:57.723Z</time></trkpt><trkpt lat="44.5275369" lon="10.4170772"><ele>568.0</ele><time>2026-04-18T13:44:58.706Z</time></trkpt><trkpt lat="44.527624" lon="10.4171345"><ele>568.0</ele><time>2026-04-18T13:44:59.709Z</time></trkpt><trkpt lat="44.5277327" lon="10.4171444"><ele>568.0</ele><time>2026-04-18T13:45:00.707Z</time></trkpt><trkpt lat="44.5278513" lon="10.4171207"><ele>569.75</ele><time>2026-04-18T13:45:01.705Z</time></trkpt><trkpt lat="44.5279759" lon="10.4170836"><ele>571.5</ele><time>2026-04-18T13:45:02.722Z</time></trkpt><trkpt lat="44.5281057" lon="10.4170506"><ele>573.25</ele><time>2026-04-18T13:45:03.703Z</time></trkpt><trkpt lat="44.5282361" lon="10.4170184"><ele>575.0</ele><time>2026-04-18T13:45:04.716Z</time></trkpt><trkpt lat="44.5283697" lon="10.4170001"><ele>575.0</ele><time>2026-04-18T13:45:05.719Z</time></trkpt><trkpt lat="44.5284919" lon="10.4169777"><ele>575.0</ele><time>2026-04-18T13:45:06.706Z</time></trkpt><trkpt lat="44.5286124" lon="10.416939"><ele>575.0</ele><time>2026-04-18T13:45:07.71Z</time></trkpt><trkpt lat="44.5287313" lon="10.4168998"><ele>575.0</ele><time>2026-04-18T13:45:08.708Z</time></trkpt><trkpt lat="44.5288406" lon="10.4168337"><ele>575.5</ele><time>2026-04-18T13:45:09.709Z</time></trkpt><trkpt lat="44.5289439" lon="10.4167557"><ele>576.0</ele><time>2026-04-18T13:45:10.704Z</time></trkpt><trkpt lat="44.5290396" lon="10.4166651"><ele>576.5</ele><time>2026-04-18T13:45:11.723Z</time></trkpt><trkpt lat="44.5291421" lon="10.4165692"><ele>577.0</ele><time>2026-04-18T13:45:12.712Z</time></trkpt><trkpt lat="44.5292455" lon="10.4164698"><ele>577.0</ele><time>2026-04-18T13:45:13.721Z</time></trkpt><trkpt lat="44.5293495" lon="10.4163646"><ele>577.0</ele><time>2026-04-18T13:45:14.728Z</time></trkpt><trkpt lat="44.5294503" lon="10.4162621"><ele>577.0</ele><time>2026-04-18T13:45:15.723Z</time></trkpt><trkpt lat="44.5295471" lon="10.4161652"><ele>577.0</ele><time>2026-04-18T13:45:16.717Z</time></trkpt><trkpt lat="44.5296382" lon="10.4160685"><ele>579.0</ele><time>2026-04-18T13:45:17.714Z</time></trkpt><trkpt lat="44.5297284" lon="10.4159734"><ele>581.0</ele><time>2026-04-18T13:45:18.718Z</time></trkpt><trkpt lat="44.5298176" lon="10.4158774"><ele>583.0</ele><time>2026-04-18T13:45:19.706Z</time></trkpt><trkpt lat="44.5299028" lon="10.4157873"><ele>585.0</ele><time>2026-04-18T13:45:20.719Z</time></trkpt><trkpt lat="44.5299844" lon="10.4157083"><ele>587.0</ele><time>2026-04-18T13:45:21.715Z</time></trkpt><trkpt lat="44.5300578" lon="10.4156375"><ele>587.0</ele><time>2026-04-18T13:45:22.708Z</time></trkpt><trkpt lat="44.5301244" lon="10.4155707"><ele>587.0</ele><time>2026-04-18T13:45:23.707Z</time></trkpt><trkpt lat="44.5301844" lon="10.4155068"><ele>587.0</ele><time>2026-04-18T13:45:24.72Z</time></trkpt><trkpt lat="44.530237" lon="10.4154486"><ele>587.0</ele><time>2026-04-18T13:45:25.703Z</time></trkpt><trkpt lat="44.530313" lon="10.41535"><ele>587.0</ele><time>2026-04-18T13:45:27.709Z</time></trkpt><trkpt lat="44.5303409" lon="10.4152606"><ele>587.0</ele><time>2026-04-18T13:45:30.724Z</time></trkpt><trkpt lat="44.530264" lon="10.4151839"><ele>587.4</ele><time>2026-04-18T13:45:33.709Z</time></trkpt><trkpt lat="44.5301933" lon="10.4151747"><ele>587.8000000000001</ele><time>2026-04-18T13:45:34.706Z</time></trkpt><trkpt lat="44.5301001" lon="10.4151657"><ele>588.2</ele><time>2026-04-18T13:45:35.713Z</time></trkpt><trkpt lat="44.5299907" lon="10.4151608"><ele>588.6</ele><time>2026-04-18T13:45:36.715Z</time></trkpt><trkpt lat="44.529876" lon="10.4151855"><ele>589.0</ele><time>2026-04-18T13:45:37.713Z</time></trkpt><trkpt lat="44.5297628" lon="10.4152495"><ele>589.0</ele><time>2026-04-18T13:45:38.711Z</time></trkpt><trkpt lat="44.5296493" lon="10.4153377"><ele>589.0</ele><time>2026-04-18T13:45:39.718Z</time></trkpt><trkpt lat="44.529534" lon="10.4154384"><ele>589.0</ele><time>2026-04-18T13:45:40.706Z</time></trkpt><trkpt lat="44.5294248" lon="10.4155326"><ele>589.0</ele><time>2026-04-18T13:45:41.709Z</time></trkpt><trkpt lat="44.5293253" lon="10.4156164"><ele>589.4</ele><time>2026-04-18T13:45:42.717Z</time></trkpt><trkpt lat="44.5292347" lon="10.4156932"><ele>589.8</ele><time>2026-04-18T13:45:43.71Z</time></trkpt><trkpt lat="44.5291522" lon="10.4157564"><ele>590.2</ele><time>2026-04-18T13:45:44.728Z</time></trkpt><trkpt lat="44.5290721" lon="10.4158046"><ele>590.6</ele><time>2026-04-18T13:45:45.703Z</time></trkpt><trkpt lat="44.5289929" lon="10.4158324"><ele>591.0</ele><time>2026-04-18T13:45:46.727Z</time></trkpt><trkpt lat="44.5289135" lon="10.4158558"><ele>591.0</ele><time>2026-04-18T13:45:47.705Z</time></trkpt><trkpt lat="44.5288256" lon="10.415834"><ele>591.0</ele><time>2026-04-18T13:45:48.7Z</time></trkpt><trkpt lat="44.5287351" lon="10.4157952"><ele>591.0</ele><time>2026-04-18T13:45:49.708Z</time></trkpt><trkpt lat="44.5286455" lon="10.4157346"><ele>591.0</ele><time>2026-04-18T13:45:50.716Z</time></trkpt><trkpt lat="44.5285533" lon="10.4156583"><ele>591.0</ele><time>2026-04-18T13:45:51.723Z</time></trkpt><trkpt lat="44.5284576" lon="10.4155863"><ele>590.8</ele><time>2026-04-18T13:45:52.718Z</time></trkpt><trkpt lat="44.5283562" lon="10.4155259"><ele>590.6</ele><time>2026-04-18T13:45:53.716Z</time></trkpt><trkpt lat="44.5282508" lon="10.4154864"><ele>590.4</ele><time>2026-04-18T13:45:54.701Z</time></trkpt><trkpt lat="44.5281446" lon="10.4154598"><ele>590.2</ele><time>2026-04-18T13:45:55.713Z</time></trkpt><trkpt lat="44.5280429" lon="10.4154273"><ele>590.0</ele><time>2026-04-18T13:45:56.704Z</time></trkpt><trkpt lat="44.5279465" lon="10.4153768"><ele>593.0</ele><time>2026-04-18T13:45:57.718Z</time></trkpt><trkpt lat="44.5278584" lon="10.4153095"><ele>596.0</ele><time>2026-04-18T13:45:58.707Z</time></trkpt><trkpt lat="44.5277704" lon="10.4152408"><ele>599.0</ele><time>2026-04-18T13:45:59.714Z</time></trkpt><trkpt lat="44.5276729" lon="10.4151918"><ele>602.0</ele><time>2026-04-18T13:46:00.71Z</time></trkpt><trkpt lat="44.5275725" lon="10.415162"><ele>605.0</ele><time>2026-04-18T13:46:01.715Z</time></trkpt><trkpt lat="44.527469" lon="10.4151408"><ele>605.0</ele><time>2026-04-18T13:46:02.71Z</time></trkpt><trkpt lat="44.5273656" lon="10.4151194"><ele>605.0</ele><time>2026-04-18T13:46:03.707Z</time></trkpt><trkpt lat="44.5272613" lon="10.4150955"><ele>605.0</ele><time>2026-04-18T13:46:04.699Z</time></trkpt><trkpt lat="44.5271553" lon="10.4150457"><ele>605.0</ele><time>2026-04-18T13:46:05.717Z</time></trkpt><trkpt lat="44.5270608" lon="10.4149561"><ele>605.0</ele><time>2026-04-18T13:46:06.706Z</time></trkpt><trkpt lat="44.5269664" lon="10.4148593"><ele>606.25</ele><time>2026-04-18T13:46:07.704Z</time></trkpt><trkpt lat="44.526883" lon="10.414731"><ele>607.5</ele><time>2026-04-18T13:46:08.701Z</time></trkpt><trkpt lat="44.5267968" lon="10.4146015"><ele>608.75</ele><time>2026-04-18T13:46:09.706Z</time></trkpt><trkpt lat="44.5267052" lon="10.4144749"><ele>610.0</ele><time>2026-04-18T13:46:10.716Z</time></trkpt><trkpt lat="44.5266115" lon="10.4143584"><ele>610.0</ele><time>2026-04-18T13:46:11.72Z</time></trkpt><trkpt lat="44.5265168" lon="10.4142604"><ele>610.0</ele><time>2026-04-18T13:46:12.716Z</time></trkpt><trkpt lat="44.5264195" lon="10.4141869"><ele>610.0</ele><time>2026-04-18T13:46:13.709Z</time></trkpt><trkpt lat="44.5263122" lon="10.4141423"><ele>610.0</ele><time>2026-04-18T13:46:14.711Z</time></trkpt><trkpt lat="44.5262023" lon="10.4140993"><ele>609.5</ele><time>2026-04-18T13:46:15.721Z</time></trkpt><trkpt lat="44.5260843" lon="10.4140967"><ele>609.0</ele><time>2026-04-18T13:46:16.699Z</time></trkpt><trkpt lat="44.5259668" lon="10.4141059"><ele>608.5</ele><time>2026-04-18T13:46:17.724Z</time></trkpt><trkpt lat="44.5258544" lon="10.4141129"><ele>608.0</ele><time>2026-04-18T13:46:18.712Z</time></trkpt><trkpt lat="44.5257456" lon="10.4140968"><ele>608.0</ele><time>2026-04-18T13:46:19.718Z</time></trkpt><trkpt lat="44.5256388" lon="10.4140623"><ele>608.0</ele><time>2026-04-18T13:46:20.719Z</time></trkpt><trkpt lat="44.5255291" lon="10.4140283"><ele>608.0</ele><time>2026-04-18T13:46:21.714Z</time></trkpt><trkpt lat="44.5254286" lon="10.4139949"><ele>608.0</ele><time>2026-04-18T13:46:22.716Z</time></trkpt><trkpt lat="44.5253261" lon="10.4139884"><ele>608.0</ele><time>2026-04-18T13:46:23.707Z</time></trkpt><trkpt lat="44.5252194" lon="10.4140135"><ele>608.75</ele><time>2026-04-18T13:46:24.712Z</time></trkpt><trkpt lat="44.525107" lon="10.4140836"><ele>609.5</ele><time>2026-04-18T13:46:25.714Z</time></trkpt><trkpt lat="44.5249893" lon="10.414141"><ele>610.25</ele><time>2026-04-18T13:46:26.715Z</time></trkpt><trkpt lat="44.5248765" lon="10.4141901"><ele>611.0</ele><time>2026-04-18T13:46:27.709Z</time></trkpt><trkpt lat="44.5247663" lon="10.4142392"><ele>611.0</ele><time>2026-04-18T13:46:28.711Z</time></trkpt><trkpt lat="44.5246563" lon="10.4142617"><ele>611.0</ele><time>2026-04-18T13:46:29.71Z</time></trkpt><trkpt lat="44.5245495" lon="10.414254"><ele>611.0</ele><time>2026-04-18T13:46:30.719Z</time></trkpt><trkpt lat="44.5244491" lon="10.4142495"><ele>611.0</ele><time>2026-04-18T13:46:31.717Z</time></trkpt><trkpt lat="44.5243551" lon="10.4142742"><ele>611.0</ele><time>2026-04-18T13:46:32.729Z</time></trkpt><trkpt lat="44.5242645" lon="10.4143085"><ele>609.75</ele><time>2026-04-18T13:46:33.715Z</time></trkpt><trkpt lat="44.5241954" lon="10.4144192"><ele>608.5</ele><time>2026-04-18T13:46:34.721Z</time></trkpt><trkpt lat="44.5241463" lon="10.4145617"><ele>607.25</ele><time>2026-04-18T13:46:35.722Z</time></trkpt><trkpt lat="44.5240876" lon="10.4147162"><ele>606.0</ele><time>2026-04-18T13:46:36.711Z</time></trkpt><trkpt lat="44.5240209" lon="10.4148757"><ele>606.0</ele><time>2026-04-18T13:46:37.718Z</time></trkpt><trkpt lat="44.5239618" lon="10.4150268"><ele>606.0</ele><time>2026-04-18T13:46:38.726Z</time></trkpt><trkpt lat="44.5239121" lon="10.4151776"><ele>606.0</ele><time>2026-04-18T13:46:39.725Z</time></trkpt><trkpt lat="44.5238777" lon="10.4153317"><ele>606.0</ele><time>2026-04-18T13:46:40.727Z</time></trkpt><trkpt lat="44.5238482" lon="10.4154749"><ele>607.0</ele><time>2026-04-18T13:46:41.706Z</time></trkpt><trkpt lat="44.5238181" lon="10.415606"><ele>608.0</ele><time>2026-04-18T13:46:42.708Z</time></trkpt><trkpt lat="44.5237812" lon="10.4157262"><ele>609.0</ele><time>2026-04-18T13:46:43.732Z</time></trkpt><trkpt lat="44.5237229" lon="10.4158167"><ele>610.0</ele><time>2026-04-18T13:46:44.724Z</time></trkpt><trkpt lat="44.5236432" lon="10.4158676"><ele>611.0</ele><time>2026-04-18T13:46:45.719Z</time></trkpt><trkpt lat="44.5235517" lon="10.4158729"><ele>611.0</ele><time>2026-04-18T13:46:46.72Z</time></trkpt><trkpt lat="44.5234519" lon="10.4158497"><ele>611.0</ele><time>2026-04-18T13:46:47.716Z</time></trkpt><trkpt lat="44.5233494" lon="10.4158277"><ele>611.0</ele><time>2026-04-18T13:46:48.719Z</time></trkpt><trkpt lat="44.5232401" lon="10.4158419"><ele>611.0</ele><time>2026-04-18T13:46:49.716Z</time></trkpt><trkpt lat="44.5231307" lon="10.4158925"><ele>611.0</ele><time>2026-04-18T13:46:50.714Z</time></trkpt><trkpt lat="44.5230274" lon="10.4159764"><ele>611.0</ele><time>2026-04-18T13:46:51.72Z</time></trkpt><trkpt lat="44.5229247" lon="10.4160608"><ele>611.0</ele><time>2026-04-18T13:46:52.713Z</time></trkpt><trkpt lat="44.5228297" lon="10.4161668"><ele>611.0</ele><time>2026-04-18T13:46:53.717Z</time></trkpt><trkpt lat="44.5227297" lon="10.4162694"><ele>611.0</ele><time>2026-04-18T13:46:54.707Z</time></trkpt><trkpt lat="44.5226314" lon="10.4163554"><ele>610.0</ele><time>2026-04-18T13:46:55.717Z</time></trkpt><trkpt lat="44.5225371" lon="10.4164167"><ele>609.0</ele><time>2026-04-18T13:46:56.709Z</time></trkpt><trkpt lat="44.5224386" lon="10.4164537"><ele>608.0</ele><time>2026-04-18T13:46:57.706Z</time></trkpt><trkpt lat="44.5223387" lon="10.4164536"><ele>607.0</ele><time>2026-04-18T13:46:58.731Z</time></trkpt><trkpt lat="44.5222339" lon="10.4164504"><ele>606.0</ele><time>2026-04-18T13:46:59.716Z</time></trkpt><trkpt lat="44.522136" lon="10.4163738"><ele>607.25</ele><time>2026-04-18T13:47:00.715Z</time></trkpt><trkpt lat="44.5220397" lon="10.4162792"><ele>608.5</ele><time>2026-04-18T13:47:01.705Z</time></trkpt><trkpt lat="44.5219451" lon="10.4161813"><ele>609.75</ele><time>2026-04-18T13:47:02.72Z</time></trkpt><trkpt lat="44.5218495" lon="10.4160774"><ele>611.0</ele><time>2026-04-18T13:47:03.705Z</time></trkpt><trkpt lat="44.5217523" lon="10.4159783"><ele>611.0</ele><time>2026-04-18T13:47:04.717Z</time></trkpt><trkpt lat="44.5216575" lon="10.4158807"><ele>611.0</ele><time>2026-04-18T13:47:05.71Z</time></trkpt><trkpt lat="44.5215652" lon="10.4157831"><ele>611.0</ele><time>2026-04-18T13:47:06.707Z</time></trkpt><trkpt lat="44.5214729" lon="10.4156865"><ele>611.0</ele><time>2026-04-18T13:47:07.707Z</time></trkpt><trkpt lat="44.5213825" lon="10.4155905"><ele>611.0</ele><time>2026-04-18T13:47:08.712Z</time></trkpt><trkpt lat="44.5212935" lon="10.4154936"><ele>611.0</ele><time>2026-04-18T13:47:09.704Z</time></trkpt><trkpt lat="44.521207" lon="10.4153939"><ele>611.0</ele><time>2026-04-18T13:47:10.711Z</time></trkpt><trkpt lat="44.521122" lon="10.4152934"><ele>611.0</ele><time>2026-04-18T13:47:11.725Z</time></trkpt><trkpt lat="44.5210372" lon="10.4151932"><ele>611.0</ele><time>2026-04-18T13:47:12.715Z</time></trkpt><trkpt lat="44.5209531" lon="10.4150911"><ele>610.8</ele><time>2026-04-18T13:47:13.722Z</time></trkpt><trkpt lat="44.5208678" lon="10.4149919"><ele>610.6</ele><time>2026-04-18T13:47:14.704Z</time></trkpt><trkpt lat="44.5207825" lon="10.4148908"><ele>610.4</ele><time>2026-04-18T13:47:15.715Z</time></trkpt><trkpt lat="44.5207042" lon="10.4147844"><ele>610.2</ele><time>2026-04-18T13:47:16.721Z</time></trkpt><trkpt lat="44.5206314" lon="10.4146636"><ele>610.0</ele><time>2026-04-18T13:47:17.716Z</time></trkpt><trkpt lat="44.5205692" lon="10.4145316"><ele>608.75</ele><time>2026-04-18T13:47:18.712Z</time></trkpt><trkpt lat="44.5205135" lon="10.4143927"><ele>607.5</ele><time>2026-04-18T13:47:19.726Z</time></trkpt><trkpt lat="44.5204585" lon="10.414247"><ele>606.25</ele><time>2026-04-18T13:47:20.718Z</time></trkpt><trkpt lat="44.520409" lon="10.4140964"><ele>605.0</ele><time>2026-04-18T13:47:21.719Z</time></trkpt><trkpt lat="44.5203615" lon="10.413947"><ele>607.8</ele><time>2026-04-18T13:47:22.723Z</time></trkpt><trkpt lat="44.5203279" lon="10.4137989"><ele>610.6</ele><time>2026-04-18T13:47:23.709Z</time></trkpt><trkpt lat="44.5203014" lon="10.4136598"><ele>613.4</ele><time>2026-04-18T13:47:24.709Z</time></trkpt><trkpt lat="44.5202777" lon="10.4135371"><ele>616.2</ele><time>2026-04-18T13:47:25.712Z</time></trkpt><trkpt lat="44.5202446" lon="10.4134397"><ele>619.0</ele><time>2026-04-18T13:47:26.707Z</time></trkpt><trkpt lat="44.5201927" lon="10.4133731"><ele>619.0</ele><time>2026-04-18T13:47:27.712Z</time></trkpt><trkpt lat="44.5201422" lon="10.4133115"><ele>619.0</ele><time>2026-04-18T13:47:28.71Z</time></trkpt><trkpt lat="44.5200612" lon="10.4133292"><ele>619.0</ele><time>2026-04-18T13:47:29.705Z</time></trkpt><trkpt lat="44.5199764" lon="10.413407"><ele>619.0</ele><time>2026-04-18T13:47:30.717Z</time></trkpt><trkpt lat="44.5198831" lon="10.4135067"><ele>619.0</ele><time>2026-04-18T13:47:31.722Z</time></trkpt><trkpt lat="44.5197849" lon="10.4136112"><ele>619.0</ele><time>2026-04-18T13:47:32.724Z</time></trkpt><trkpt lat="44.5196787" lon="10.4137019"><ele>619.0</ele><time>2026-04-18T13:47:33.721Z</time></trkpt><trkpt lat="44.5195753" lon="10.4137935"><ele>619.0</ele><time>2026-04-18T13:47:34.714Z</time></trkpt><trkpt lat="44.5194758" lon="10.4138708"><ele>619.0</ele><time>2026-04-18T13:47:35.716Z</time></trkpt><trkpt lat="44.5193736" lon="10.4139308"><ele>617.75</ele><time>2026-04-18T13:47:36.711Z</time></trkpt><trkpt lat="44.5192711" lon="10.4139863"><ele>616.5</ele><time>2026-04-18T13:47:37.714Z</time></trkpt><trkpt lat="44.5191602" lon="10.4140068"><ele>615.25</ele><time>2026-04-18T13:47:38.708Z</time></trkpt><trkpt lat="44.5190419" lon="10.4140291"><ele>614.0</ele><time>2026-04-18T13:47:39.716Z</time></trkpt><trkpt lat="44.5189208" lon="10.4140684"><ele>614.0</ele><time>2026-04-18T13:47:40.718Z</time></trkpt><trkpt lat="44.5188041" lon="10.4141225"><ele>614.0</ele><time>2026-04-18T13:47:41.708Z</time></trkpt><trkpt lat="44.51869" lon="10.4141546"><ele>614.0</ele><time>2026-04-18T13:47:42.712Z</time></trkpt><trkpt lat="44.5185778" lon="10.414166"><ele>614.0</ele><time>2026-04-18T13:47:43.721Z</time></trkpt><trkpt lat="44.5184687" lon="10.4141685"><ele>614.1666666666666</ele><time>2026-04-18T13:47:44.72Z</time></trkpt><trkpt lat="44.5183789" lon="10.4141693"><ele>614.3333333333333</ele><time>2026-04-18T13:47:45.704Z</time></trkpt><trkpt lat="44.5183029" lon="10.4141719"><ele>614.5</ele><time>2026-04-18T13:47:46.711Z</time></trkpt><trkpt lat="44.51821" lon="10.4141632"><ele>614.6666666666666</ele><time>2026-04-18T13:47:48.72Z</time></trkpt><trkpt lat="44.5181452" lon="10.414144"><ele>614.8333333333334</ele><time>2026-04-18T13:47:50.728Z</time></trkpt><trkpt lat="44.5180654" lon="10.4141082"><ele>615.0</ele><time>2026-04-18T13:47:53.719Z</time></trkpt><trkpt lat="44.5180087" lon="10.4140386"><ele>615.0</ele><time>2026-04-18T13:47:55.723Z</time></trkpt><trkpt lat="44.517937" lon="10.4139146"><ele>615.0</ele><time>2026-04-18T13:47:57.718Z</time></trkpt><trkpt lat="44.5178874" lon="10.4138443"><ele>615.0</ele><time>2026-04-18T13:47:58.733Z</time></trkpt><trkpt lat="44.5178347" lon="10.4137718"><ele>615.0</ele><time>2026-04-18T13:47:59.725Z</time></trkpt><trkpt lat="44.5177815" lon="10.4137042"><ele>615.0</ele><time>2026-04-18T13:48:00.727Z</time></trkpt><trkpt lat="44.5177338" lon="10.4136353"><ele>615.0</ele><time>2026-04-18T13:48:01.711Z</time></trkpt><trkpt lat="44.5176505" lon="10.4135338"><ele>613.8333333333334</ele><time>2026-04-18T13:48:03.73Z</time></trkpt><trkpt lat="44.5175624" lon="10.4135228"><ele>612.6666666666666</ele><time>2026-04-18T13:48:05.711Z</time></trkpt><trkpt lat="44.5175114" lon="10.4135913"><ele>611.5</ele><time>2026-04-18T13:48:07.713Z</time></trkpt><trkpt lat="44.5174908" lon="10.4137255"><ele>610.3333333333333</ele><time>2026-04-18T13:48:09.708Z</time></trkpt><trkpt lat="44.5174902" lon="10.4138156"><ele>609.1666666666666</ele><time>2026-04-18T13:48:10.721Z</time></trkpt><trkpt lat="44.5174922" lon="10.4139134"><ele>608.0</ele><time>2026-04-18T13:48:11.724Z</time></trkpt><trkpt lat="44.5174967" lon="10.4140166"><ele>606.4</ele><time>2026-04-18T13:48:12.721Z</time></trkpt><trkpt lat="44.5175017" lon="10.4141147"><ele>604.8</ele><time>2026-04-18T13:48:13.714Z</time></trkpt><trkpt lat="44.5175081" lon="10.4142853"><ele>603.2</ele><time>2026-04-18T13:48:15.723Z</time></trkpt><trkpt lat="44.517509" lon="10.4144458"><ele>601.6</ele><time>2026-04-18T13:48:17.723Z</time></trkpt><trkpt lat="44.5175042" lon="10.4145992"><ele>600.0</ele><time>2026-04-18T13:48:19.727Z</time></trkpt><trkpt lat="44.5175035" lon="10.4147474"><ele>598.25</ele><time>2026-04-18T13:48:21.717Z</time></trkpt><trkpt lat="44.5174892" lon="10.4149057"><ele>596.5</ele><time>2026-04-18T13:48:23.721Z</time></trkpt><trkpt lat="44.5174559" lon="10.4150725"><ele>594.75</ele><time>2026-04-18T13:48:25.709Z</time></trkpt><trkpt lat="44.5174139" lon="10.4152373"><ele>593.0</ele><time>2026-04-18T13:48:27.72Z</time></trkpt><trkpt lat="44.5173731" lon="10.4153955"><ele>591.4</ele><time>2026-04-18T13:48:29.706Z</time></trkpt><trkpt lat="44.5173634" lon="10.415557"><ele>589.8</ele><time>2026-04-18T13:48:31.729Z</time></trkpt><trkpt lat="44.5173583" lon="10.4157294"><ele>588.2</ele><time>2026-04-18T13:48:33.725Z</time></trkpt><trkpt lat="44.5173375" lon="10.415895"><ele>586.6</ele><time>2026-04-18T13:48:35.717Z</time></trkpt><trkpt lat="44.5173265" lon="10.415985"><ele>585.0</ele><time>2026-04-18T13:48:36.715Z</time></trkpt><trkpt lat="44.5173141" lon="10.4160812"><ele>585.0</ele><time>2026-04-18T13:48:37.704Z</time></trkpt><trkpt lat="44.5173006" lon="10.4161823"><ele>585.0</ele><time>2026-04-18T13:48:38.714Z</time></trkpt><trkpt lat="44.5172866" lon="10.4162856"><ele>585.0</ele><time>2026-04-18T13:48:39.723Z</time></trkpt><trkpt lat="44.5172721" lon="10.4163867"><ele>585.0</ele><time>2026-04-18T13:48:40.712Z</time></trkpt><trkpt lat="44.5172577" lon="10.4164831"><ele>585.0</ele><time>2026-04-18T13:48:41.729Z</time></trkpt><trkpt lat="44.5172421" lon="10.4165767"><ele>585.0</ele><time>2026-04-18T13:48:42.724Z</time></trkpt><trkpt lat="44.5172234" lon="10.4166732"><ele>585.0</ele><time>2026-04-18T13:48:43.712Z</time></trkpt><trkpt lat="44.5172032" lon="10.416769"><ele>583.8333333333334</ele><time>2026-04-18T13:48:44.731Z</time></trkpt><trkpt lat="44.5171832" lon="10.4168647"><ele>582.6666666666666</ele><time>2026-04-18T13:48:45.723Z</time></trkpt><trkpt lat="44.517167" lon="10.4169614"><ele>581.5</ele><time>2026-04-18T13:48:46.716Z</time></trkpt><trkpt lat="44.5171557" lon="10.4170536"><ele>580.3333333333333</ele><time>2026-04-18T13:48:47.72Z</time></trkpt><trkpt lat="44.5171527" lon="10.4172208"><ele>579.1666666666666</ele><time>2026-04-18T13:48:49.713Z</time></trkpt><trkpt lat="44.5171695" lon="10.4173684"><ele>578.0</ele><time>2026-04-18T13:48:51.717Z</time></trkpt><trkpt lat="44.5171847" lon="10.4174995"><ele>576.5</ele><time>2026-04-18T13:48:53.72Z</time></trkpt><trkpt lat="44.5171854" lon="10.4176164"><ele>575.0</ele><time>2026-04-18T13:48:55.723Z</time></trkpt><trkpt lat="44.517155" lon="10.4176961"><ele>573.5</ele><time>2026-04-18T13:48:57.719Z</time></trkpt><trkpt lat="44.5170971" lon="10.4177317"><ele>572.0</ele><time>2026-04-18T13:49:00.716Z</time></trkpt><trkpt lat="44.5170209" lon="10.417728"><ele>570.5</ele><time>2026-04-18T13:49:02.715Z</time></trkpt><trkpt lat="44.5169175" lon="10.4177057"><ele>569.0</ele><time>2026-04-18T13:49:04.716Z</time></trkpt><trkpt lat="44.5168098" lon="10.4176804"><ele>566.6</ele><time>2026-04-18T13:49:06.725Z</time></trkpt><trkpt lat="44.5166929" lon="10.417664"><ele>564.2</ele><time>2026-04-18T13:49:08.722Z</time></trkpt><trkpt lat="44.5165853" lon="10.4176649"><ele>561.8000000000001</ele><time>2026-04-18T13:49:10.711Z</time></trkpt><trkpt lat="44.5164956" lon="10.4177101"><ele>559.4</ele><time>2026-04-18T13:49:12.705Z</time></trkpt><trkpt lat="44.5164431" lon="10.4178259"><ele>557.0</ele><time>2026-04-18T13:49:14.718Z</time></trkpt><trkpt lat="44.5164412" lon="10.417967"><ele>555.2</ele><time>2026-04-18T13:49:16.725Z</time></trkpt><trkpt lat="44.5164895" lon="10.4180871"><ele>553.4000000000001</ele><time>2026-04-18T13:49:18.728Z</time></trkpt><trkpt lat="44.516579" lon="10.4181885"><ele>551.5999999999999</ele><time>2026-04-18T13:49:20.721Z</time></trkpt><trkpt lat="44.5166281" lon="10.418247"><ele>549.8</ele><time>2026-04-18T13:49:21.72Z</time></trkpt><trkpt lat="44.5167112" lon="10.4183735"><ele>548.0</ele><time>2026-04-18T13:49:23.709Z</time></trkpt><trkpt lat="44.5167501" lon="10.4184433"><ele>548.0</ele><time>2026-04-18T13:49:24.713Z</time></trkpt><trkpt lat="44.5167843" lon="10.4185183"><ele>548.0</ele><time>2026-04-18T13:49:25.728Z</time></trkpt><trkpt lat="44.5168248" lon="10.4186784"><ele>548.0</ele><time>2026-04-18T13:49:27.711Z</time></trkpt><trkpt lat="44.5168614" lon="10.4188294"><ele>548.0</ele><time>2026-04-18T13:49:29.709Z</time></trkpt><trkpt lat="44.516911" lon="10.418975"><ele>548.0</ele><time>2026-04-18T13:49:31.725Z</time></trkpt><trkpt lat="44.5169463" lon="10.4191074"><ele>545.4</ele><time>2026-04-18T13:49:33.721Z</time></trkpt><trkpt lat="44.5169197" lon="10.4192436"><ele>542.8</ele><time>2026-04-18T13:49:35.721Z</time></trkpt><trkpt lat="44.5168484" lon="10.4193487"><ele>540.2</ele><time>2026-04-18T13:49:37.717Z</time></trkpt><trkpt lat="44.5167365" lon="10.4193716"><ele>537.6</ele><time>2026-04-18T13:49:39.713Z</time></trkpt><trkpt lat="44.5166143" lon="10.4193372"><ele>535.0</ele><time>2026-04-18T13:49:41.721Z</time></trkpt><trkpt lat="44.5164928" lon="10.4192942"><ele>535.0</ele><time>2026-04-18T13:49:43.707Z</time></trkpt><trkpt lat="44.5164302" lon="10.4192739"><ele>535.0</ele><time>2026-04-18T13:49:44.717Z</time></trkpt><trkpt lat="44.5163567" lon="10.4192497"><ele>535.0</ele><time>2026-04-18T13:49:45.719Z</time></trkpt><trkpt lat="44.5162846" lon="10.4192202"><ele>535.0</ele><time>2026-04-18T13:49:46.7Z</time></trkpt><trkpt lat="44.5162156" lon="10.4191901"><ele>535.0</ele><time>2026-04-18T13:49:47.721Z</time></trkpt><trkpt lat="44.5161473" lon="10.4191637"><ele>535.0</ele><time>2026-04-18T13:49:48.709Z</time></trkpt><trkpt lat="44.5160815" lon="10.4191415"><ele>535.0</ele><time>2026-04-18T13:49:49.727Z</time></trkpt><trkpt lat="44.5160172" lon="10.4191207"><ele>532.6666666666667</ele><time>2026-04-18T13:49:50.713Z</time></trkpt><trkpt lat="44.5159521" lon="10.4191069"><ele>530.3333333333334</ele><time>2026-04-18T13:49:51.713Z</time></trkpt><trkpt lat="44.5158917" lon="10.4190791"><ele>528.0</ele><time>2026-04-18T13:49:52.722Z</time></trkpt><trkpt lat="44.5157872" lon="10.4190507"><ele>525.6666666666666</ele><time>2026-04-18T13:49:54.718Z</time></trkpt><trkpt lat="44.5157128" lon="10.4190674"><ele>523.3333333333333</ele><time>2026-04-18T13:49:56.712Z</time></trkpt><trkpt lat="44.5157114" lon="10.4191868"><ele>521.0</ele><time>2026-04-18T13:49:58.708Z</time></trkpt><trkpt lat="44.5157898" lon="10.4192971"><ele>521.0</ele><time>2026-04-18T13:50:00.719Z</time></trkpt><trkpt lat="44.5158623" lon="10.4194054"><ele>521.0</ele><time>2026-04-18T13:50:02.718Z</time></trkpt><trkpt lat="44.5158877" lon="10.419544"><ele>521.0</ele><time>2026-04-18T13:50:04.713Z</time></trkpt><trkpt lat="44.5159027" lon="10.419656"><ele>521.0</ele><time>2026-04-18T13:50:05.724Z</time></trkpt><trkpt lat="44.5159181" lon="10.4197573"><ele>521.0</ele><time>2026-04-18T13:50:06.713Z</time></trkpt><trkpt lat="44.5159446" lon="10.4198572"><ele>521.0</ele><time>2026-04-18T13:50:07.718Z</time></trkpt><trkpt lat="44.5159726" lon="10.4199533"><ele>519.6666666666666</ele><time>2026-04-18T13:50:08.732Z</time></trkpt><trkpt lat="44.5160084" lon="10.4200376"><ele>518.3333333333333</ele><time>2026-04-18T13:50:09.722Z</time></trkpt><trkpt lat="44.5160469" lon="10.4201239"><ele>517.0</ele><time>2026-04-18T13:50:10.71Z</time></trkpt><trkpt lat="44.5160976" lon="10.4202026"><ele>515.6666666666666</ele><time>2026-04-18T13:50:11.727Z</time></trkpt><trkpt lat="44.5161446" lon="10.4202813"><ele>514.3333333333334</ele><time>2026-04-18T13:50:12.708Z</time></trkpt><trkpt lat="44.5161882" lon="10.4203504"><ele>513.0</ele><time>2026-04-18T13:50:13.726Z</time></trkpt><trkpt lat="44.5162127" lon="10.4205176"><ele>510.59999999999997</ele><time>2026-04-18T13:50:15.722Z</time></trkpt><trkpt lat="44.5161877" lon="10.4206807"><ele>508.19999999999993</ele><time>2026-04-18T13:50:17.719Z</time></trkpt><trkpt lat="44.5161229" lon="10.420808"><ele>505.8</ele><time>2026-04-18T13:50:19.724Z</time></trkpt><trkpt lat="44.5160388" lon="10.4209038"><ele>503.4</ele><time>2026-04-18T13:50:21.714Z</time></trkpt><trkpt lat="44.5159766" lon="10.4210294"><ele>501.0</ele><time>2026-04-18T13:50:23.724Z</time></trkpt><trkpt lat="44.5159789" lon="10.4211808"><ele>501.0</ele><time>2026-04-18T13:50:25.713Z</time></trkpt><trkpt lat="44.5160154" lon="10.4213131"><ele>501.0</ele><time>2026-04-18T13:50:27.715Z</time></trkpt><trkpt lat="44.516064" lon="10.4214597"><ele>501.0</ele><time>2026-04-18T13:50:29.715Z</time></trkpt><trkpt lat="44.5161246" lon="10.4216098"><ele>501.0</ele><time>2026-04-18T13:50:31.72Z</time></trkpt><trkpt lat="44.5161814" lon="10.4217579"><ele>500.0</ele><time>2026-04-18T13:50:33.707Z</time></trkpt><trkpt lat="44.5162375" lon="10.4218858"><ele>499.0</ele><time>2026-04-18T13:50:35.718Z</time></trkpt><trkpt lat="44.5163" lon="10.4220017"><ele>498.0</ele><time>2026-04-18T13:50:37.711Z</time></trkpt><trkpt lat="44.516363" lon="10.4221073"><ele>497.0</ele><time>2026-04-18T13:50:39.716Z</time></trkpt><trkpt lat="44.5163586" lon="10.4222225"><ele>496.0</ele><time>2026-04-18T13:50:41.711Z</time></trkpt><trkpt lat="44.5163032" lon="10.4223131"><ele>490.5</ele><time>2026-04-18T13:50:43.707Z</time></trkpt><trkpt lat="44.5161969" lon="10.422352"><ele>485.0</ele><time>2026-04-18T13:50:45.716Z</time></trkpt><trkpt lat="44.5160826" lon="10.4223701"><ele>479.5</ele><time>2026-04-18T13:50:47.718Z</time></trkpt><trkpt lat="44.5159597" lon="10.4223882"><ele>474.0</ele><time>2026-04-18T13:50:49.727Z</time></trkpt><trkpt lat="44.5158501" lon="10.4224125"><ele>474.0</ele><time>2026-04-18T13:50:51.709Z</time></trkpt><trkpt lat="44.5157718" lon="10.422455"><ele>474.0</ele><time>2026-04-18T13:50:53.705Z</time></trkpt><trkpt lat="44.515756" lon="10.4225405"><ele>474.0</ele><time>2026-04-18T13:50:55.713Z</time></trkpt><trkpt lat="44.5158004" lon="10.4226397"><ele>474.0</ele><time>2026-04-18T13:50:57.721Z</time></trkpt><trkpt lat="44.5158757" lon="10.4227571"><ele>474.0</ele><time>2026-04-18T13:50:59.722Z</time></trkpt><trkpt lat="44.5159618" lon="10.4228807"><ele>474.0</ele><time>2026-04-18T13:51:01.714Z</time></trkpt><trkpt lat="44.5160057" lon="10.4229471"><ele>474.0</ele><time>2026-04-18T13:51:02.71Z</time></trkpt><trkpt lat="44.5160942" lon="10.4230658"><ele>474.0</ele><time>2026-04-18T13:51:04.721Z</time></trkpt><trkpt lat="44.5161788" lon="10.4231739"><ele>474.0</ele><time>2026-04-18T13:51:06.726Z</time></trkpt><trkpt lat="44.516263" lon="10.4232698"><ele>474.0</ele><time>2026-04-18T13:51:08.727Z</time></trkpt><trkpt lat="44.5163527" lon="10.4233498"><ele>472.0</ele><time>2026-04-18T13:51:10.707Z</time></trkpt><trkpt lat="44.516439" lon="10.4234102"><ele>470.0</ele><time>2026-04-18T13:51:12.716Z</time></trkpt><trkpt lat="44.5165198" lon="10.4234847"><ele>468.0</ele><time>2026-04-18T13:51:14.724Z</time></trkpt><trkpt lat="44.5165679" lon="10.4235953"><ele>466.0</ele><time>2026-04-18T13:51:16.727Z</time></trkpt><trkpt lat="44.516556" lon="10.4237416"><ele>464.0</ele><time>2026-04-18T13:51:18.726Z</time></trkpt><trkpt lat="44.5164965" lon="10.4239013"><ele>461.66666666666663</ele><time>2026-04-18T13:51:20.723Z</time></trkpt><trkpt lat="44.5164594" lon="10.4239907"><ele>459.3333333333333</ele><time>2026-04-18T13:51:21.713Z</time></trkpt><trkpt lat="44.5164321" lon="10.4240713"><ele>457.0</ele><time>2026-04-18T13:51:22.716Z</time></trkpt><trkpt lat="44.5164012" lon="10.4242188"><ele>454.66666666666663</ele><time>2026-04-18T13:51:24.711Z</time></trkpt><trkpt lat="44.5163613" lon="10.4243767"><ele>452.3333333333333</ele><time>2026-04-18T13:51:26.7Z</time></trkpt><trkpt lat="44.516337" lon="10.4244607"><ele>450.0</ele><time>2026-04-18T13:51:27.722Z</time></trkpt><trkpt lat="44.5163005" lon="10.4246236"><ele>448.6666666666667</ele><time>2026-04-18T13:51:29.722Z</time></trkpt><trkpt lat="44.5162657" lon="10.4247837"><ele>447.33333333333337</ele><time>2026-04-18T13:51:31.721Z</time></trkpt><trkpt lat="44.5162368" lon="10.4249569"><ele>446.0</ele><time>2026-04-18T13:51:33.719Z</time></trkpt><trkpt lat="44.5162278" lon="10.425052"><ele>444.6666666666667</ele><time>2026-04-18T13:51:34.724Z</time></trkpt><trkpt lat="44.5162172" lon="10.4251415"><ele>443.33333333333337</ele><time>2026-04-18T13:51:35.722Z</time></trkpt><trkpt lat="44.5162039" lon="10.4252328"><ele>442.0</ele><time>2026-04-18T13:51:36.717Z</time></trkpt><trkpt lat="44.5161908" lon="10.4253321"><ele>442.00000000000006</ele><time>2026-04-18T13:51:37.71Z</time></trkpt><trkpt lat="44.5161798" lon="10.4254334"><ele>442.0</ele><time>2026-04-18T13:51:38.71Z</time></trkpt><trkpt lat="44.5161666" lon="10.4255399"><ele>442.0</ele><time>2026-04-18T13:51:39.709Z</time></trkpt><trkpt lat="44.5161521" lon="10.4256445"><ele>442.0</ele><time>2026-04-18T13:51:40.728Z</time></trkpt><trkpt lat="44.5161336" lon="10.4257414"><ele>442.00000000000006</ele><time>2026-04-18T13:51:41.717Z</time></trkpt><trkpt lat="44.5161158" lon="10.4258303"><ele>442.0</ele><time>2026-04-18T13:51:42.72Z</time></trkpt><trkpt lat="44.5160766" lon="10.4259725"><ele>441.0</ele><time>2026-04-18T13:51:44.727Z</time></trkpt><trkpt lat="44.5160096" lon="10.4260541"><ele>440.00000000000006</ele><time>2026-04-18T13:51:46.724Z</time></trkpt><trkpt lat="44.5159266" lon="10.4260197"><ele>439.00000000000006</ele><time>2026-04-18T13:51:48.712Z</time></trkpt><trkpt lat="44.5158662" lon="10.4259353"><ele>438.0</ele><time>2026-04-18T13:51:50.706Z</time></trkpt><trkpt lat="44.515778" lon="10.4258078"><ele>437.0</ele><time>2026-04-18T13:51:52.706Z</time></trkpt><trkpt lat="44.5156646" lon="10.4257388"><ele>437.0</ele><time>2026-04-18T13:51:54.712Z</time></trkpt><trkpt lat="44.5156004" lon="10.4257191"><ele>437.00000000000006</ele><time>2026-04-18T13:51:55.712Z</time></trkpt><trkpt lat="44.5154765" lon="10.4256763"><ele>437.00000000000006</ele><time>2026-04-18T13:51:57.71Z</time></trkpt><trkpt lat="44.5154133" lon="10.4256562"><ele>437.0</ele><time>2026-04-18T13:51:58.721Z</time></trkpt><trkpt lat="44.5152851" lon="10.4256184"><ele>437.0</ele><time>2026-04-18T13:52:00.71Z</time></trkpt><trkpt lat="44.5152213" lon="10.4256035"><ele>435.8</ele><time>2026-04-18T13:52:01.726Z</time></trkpt><trkpt lat="44.5151512" lon="10.425587"><ele>434.6</ele><time>2026-04-18T13:52:02.707Z</time></trkpt><trkpt lat="44.5150855" lon="10.4255732"><ele>433.40000000000003</ele><time>2026-04-18T13:52:03.704Z</time></trkpt><trkpt lat="44.5149681" lon="10.4255486"><ele>432.20000000000005</ele><time>2026-04-18T13:52:05.723Z</time></trkpt><trkpt lat="44.51486" lon="10.4255136"><ele>431.0</ele><time>2026-04-18T13:52:07.707Z</time></trkpt><trkpt lat="44.5147627" lon="10.4254709"><ele>431.0</ele><time>2026-04-18T13:52:09.722Z</time></trkpt><trkpt lat="44.5146624" lon="10.4254429"><ele>431.0</ele><time>2026-04-18T13:52:11.714Z</time></trkpt><trkpt lat="44.5145462" lon="10.4254272"><ele>431.0</ele><time>2026-04-18T13:52:13.719Z</time></trkpt><trkpt lat="44.5144355" lon="10.4254117"><ele>431.0</ele><time>2026-04-18T13:52:15.709Z</time></trkpt><trkpt lat="44.5143341" lon="10.4253828"><ele>431.0</ele><time>2026-04-18T13:52:17.705Z</time></trkpt><trkpt lat="44.5142449" lon="10.4253354"><ele>427.99999999999994</ele><time>2026-04-18T13:52:19.71Z</time></trkpt><trkpt lat="44.5141559" lon="10.4252779"><ele>425.0</ele><time>2026-04-18T13:52:21.711Z</time></trkpt><trkpt lat="44.5140655" lon="10.4252096"><ele>422.0</ele><time>2026-04-18T13:52:23.72Z</time></trkpt><trkpt lat="44.5139831" lon="10.4251607"><ele>419.0</ele><time>2026-04-18T13:52:25.723Z</time></trkpt><trkpt lat="44.5139132" lon="10.4251715"><ele>415.99999999999994</ele><time>2026-04-18T13:52:27.738Z</time></trkpt><trkpt lat="44.513881" lon="10.4252567"><ele>413.0</ele><time>2026-04-18T13:52:29.707Z</time></trkpt><trkpt lat="44.5138829" lon="10.4253654"><ele>411.8333333333333</ele><time>2026-04-18T13:52:31.708Z</time></trkpt><trkpt lat="44.5138946" lon="10.4254893"><ele>410.66666666666663</ele><time>2026-04-18T13:52:33.71Z</time></trkpt><trkpt lat="44.5139058" lon="10.4255978"><ele>409.5</ele><time>2026-04-18T13:52:35.731Z</time></trkpt><trkpt lat="44.5139277" lon="10.4256859"><ele>408.33333333333337</ele><time>2026-04-18T13:52:37.717Z</time></trkpt><trkpt lat="44.5138958" lon="10.4258062"><ele>407.1666666666667</ele><time>2026-04-18T13:52:40.727Z</time></trkpt><trkpt lat="44.5138122" lon="10.4258038"><ele>406.0</ele><time>2026-04-18T13:52:43.721Z</time></trkpt><trkpt lat="44.5137627" lon="10.4257118"><ele>404.33333333333337</ele><time>2026-04-18T13:52:45.72Z</time></trkpt><trkpt lat="44.5137161" lon="10.4256338"><ele>402.6666666666667</ele><time>2026-04-18T13:52:47.717Z</time></trkpt><trkpt lat="44.5136693" lon="10.4255717"><ele>401.0</ele><time>2026-04-18T13:52:49.732Z</time></trkpt><trkpt lat="44.5135965" lon="10.4255102"><ele>399.33333333333337</ele><time>2026-04-18T13:52:52.706Z</time></trkpt><trkpt lat="44.513511" lon="10.4255386"><ele>397.6666666666667</ele><time>2026-04-18T13:52:55.721Z</time></trkpt><trkpt lat="44.5134721" lon="10.4256128"><ele>396.0</ele><time>2026-04-18T13:52:57.702Z</time></trkpt><trkpt lat="44.5134508" lon="10.4257431"><ele>396.0</ele><time>2026-04-18T13:53:00.723Z</time></trkpt><trkpt lat="44.5134531" lon="10.425834"><ele>396.0</ele><time>2026-04-18T13:53:02.717Z</time></trkpt><trkpt lat="44.5134283" lon="10.4259467"><ele>396.0</ele><time>2026-04-18T13:53:05.719Z</time></trkpt><trkpt lat="44.5133457" lon="10.4259264"><ele>396.0</ele><time>2026-04-18T13:53:08.712Z</time></trkpt><trkpt lat="44.5133122" lon="10.4258489"><ele>396.0</ele><time>2026-04-18T13:53:10.707Z</time></trkpt><trkpt lat="44.5133714" lon="10.4259144"><ele>396.0</ele><time>2026-04-18T13:53:41.719Z</time></trkpt><trkpt lat="44.51341" lon="10.425992"><ele>396.0</ele><time>2026-04-18T13:53:43.718Z</time></trkpt><trkpt lat="44.5134688" lon="10.4259516"><ele>396.0</ele><time>2026-04-18T13:53:45.725Z</time></trkpt><trkpt lat="44.5134761" lon="10.4258483"><ele>396.0</ele><time>2026-04-18T13:53:47.712Z</time></trkpt><trkpt lat="44.5134671" lon="10.4257465"><ele>396.0</ele><time>2026-04-18T13:53:48.713Z</time></trkpt><trkpt lat="44.5134642" lon="10.4256511"><ele>396.0</ele><time>2026-04-18T13:53:49.709Z</time></trkpt><trkpt lat="44.5135088" lon="10.4255254"><ele>396.0</ele><time>2026-04-18T13:53:51.711Z</time></trkpt><trkpt lat="44.5136082" lon="10.4254977"><ele>396.0</ele><time>2026-04-18T13:53:53.717Z</time></trkpt><trkpt lat="44.5136886" lon="10.4255832"><ele>398.0</ele><time>2026-04-18T13:53:55.716Z</time></trkpt><trkpt lat="44.5137643" lon="10.4257051"><ele>400.0</ele><time>2026-04-18T13:53:57.718Z</time></trkpt><trkpt lat="44.5138327" lon="10.4258101"><ele>402.0</ele><time>2026-04-18T13:53:59.714Z</time></trkpt><trkpt lat="44.5139055" lon="10.4257929"><ele>404.0</ele><time>2026-04-18T13:54:01.71Z</time></trkpt><trkpt lat="44.5139304" lon="10.4256692"><ele>406.0</ele><time>2026-04-18T13:54:03.701Z</time></trkpt><trkpt lat="44.5139144" lon="10.4255078"><ele>407.4</ele><time>2026-04-18T13:54:05.704Z</time></trkpt><trkpt lat="44.5139069" lon="10.425395"><ele>408.8</ele><time>2026-04-18T13:54:06.731Z</time></trkpt><trkpt lat="44.5139005" lon="10.425285"><ele>410.2</ele><time>2026-04-18T13:54:07.717Z</time></trkpt><trkpt lat="44.5139449" lon="10.4251694"><ele>411.59999999999997</ele><time>2026-04-18T13:54:09.706Z</time></trkpt><trkpt lat="44.5140397" lon="10.4251725"><ele>413.0</ele><time>2026-04-18T13:54:11.719Z</time></trkpt><trkpt lat="44.5141422" lon="10.425247"><ele>412.99999999999994</ele><time>2026-04-18T13:54:13.73Z</time></trkpt><trkpt lat="44.5142025" lon="10.4252856"><ele>413.0</ele><time>2026-04-18T13:54:14.72Z</time></trkpt><trkpt lat="44.5142694" lon="10.4253261"><ele>413.0</ele><time>2026-04-18T13:54:15.715Z</time></trkpt><trkpt lat="44.5143429" lon="10.4253606"><ele>413.0</ele><time>2026-04-18T13:54:16.717Z</time></trkpt><trkpt lat="44.5144262" lon="10.4253843"><ele>412.99999999999994</ele><time>2026-04-18T13:54:17.71Z</time></trkpt><trkpt lat="44.5145212" lon="10.4254095"><ele>413.0</ele><time>2026-04-18T13:54:18.723Z</time></trkpt><trkpt lat="44.5146443" lon="10.4254366"><ele>414.75</ele><time>2026-04-18T13:54:19.718Z</time></trkpt><trkpt lat="44.5147658" lon="10.425473"><ele>416.5</ele><time>2026-04-18T13:54:20.722Z</time></trkpt><trkpt lat="44.5148771" lon="10.4255148"><ele>418.25</ele><time>2026-04-18T13:54:21.719Z</time></trkpt><trkpt lat="44.5149871" lon="10.4255531"><ele>420.0</ele><time>2026-04-18T13:54:22.705Z</time></trkpt><trkpt lat="44.5150983" lon="10.4255784"><ele>420.0</ele><time>2026-04-18T13:54:23.716Z</time></trkpt><trkpt lat="44.5152128" lon="10.4256069"><ele>420.0</ele><time>2026-04-18T13:54:24.702Z</time></trkpt><trkpt lat="44.5153272" lon="10.4256414"><ele>420.0</ele><time>2026-04-18T13:54:25.725Z</time></trkpt><trkpt lat="44.5154415" lon="10.4256788"><ele>420.0</ele><time>2026-04-18T13:54:26.722Z</time></trkpt><trkpt lat="44.5155507" lon="10.4257136"><ele>423.4</ele><time>2026-04-18T13:54:27.719Z</time></trkpt><trkpt lat="44.5156543" lon="10.4257478"><ele>426.8</ele><time>2026-04-18T13:54:28.714Z</time></trkpt><trkpt lat="44.5157422" lon="10.4257788"><ele>430.20000000000005</ele><time>2026-04-18T13:54:29.71Z</time></trkpt><trkpt lat="44.5158136" lon="10.4258234"><ele>433.6</ele><time>2026-04-18T13:54:30.72Z</time></trkpt><trkpt lat="44.5158614" lon="10.4258857"><ele>437.0</ele><time>2026-04-18T13:54:31.705Z</time></trkpt><trkpt lat="44.515934" lon="10.4260143"><ele>437.0</ele><time>2026-04-18T13:54:33.709Z</time></trkpt><trkpt lat="44.5160246" lon="10.4260347"><ele>437.00000000000006</ele><time>2026-04-18T13:54:35.709Z</time></trkpt><trkpt lat="44.5161038" lon="10.4259348"><ele>437.00000000000006</ele><time>2026-04-18T13:54:37.722Z</time></trkpt><trkpt lat="44.5161333" lon="10.4258426"><ele>437.0</ele><time>2026-04-18T13:54:38.707Z</time></trkpt><trkpt lat="44.5161531" lon="10.4257227"><ele>437.0</ele><time>2026-04-18T13:54:39.708Z</time></trkpt><trkpt lat="44.5161739" lon="10.425568"><ele>436.75</ele><time>2026-04-18T13:54:40.708Z</time></trkpt><trkpt lat="44.5161968" lon="10.4253856"><ele>436.5</ele><time>2026-04-18T13:54:41.717Z</time></trkpt><trkpt lat="44.5162244" lon="10.4251996"><ele>436.25</ele><time>2026-04-18T13:54:42.721Z</time></trkpt><trkpt lat="44.5162478" lon="10.4250183"><ele>436.0</ele><time>2026-04-18T13:54:43.715Z</time></trkpt><trkpt lat="44.516271" lon="10.4248443"><ele>436.0</ele><time>2026-04-18T13:54:44.718Z</time></trkpt><trkpt lat="44.5162943" lon="10.424671"><ele>436.0</ele><time>2026-04-18T13:54:45.717Z</time></trkpt><trkpt lat="44.5163284" lon="10.4245155"><ele>436.0</ele><time>2026-04-18T13:54:46.71Z</time></trkpt><trkpt lat="44.5163705" lon="10.424365"><ele>436.0</ele><time>2026-04-18T13:54:47.706Z</time></trkpt><trkpt lat="44.5163972" lon="10.4242173"><ele>438.8</ele><time>2026-04-18T13:54:48.711Z</time></trkpt><trkpt lat="44.5164228" lon="10.4240735"><ele>441.6</ele><time>2026-04-18T13:54:49.718Z</time></trkpt><trkpt lat="44.5164564" lon="10.4239335"><ele>444.4</ele><time>2026-04-18T13:54:50.706Z</time></trkpt><trkpt lat="44.5165104" lon="10.4238334"><ele>447.2</ele><time>2026-04-18T13:54:51.719Z</time></trkpt><trkpt lat="44.5165609" lon="10.4237395"><ele>450.0</ele><time>2026-04-18T13:54:52.721Z</time></trkpt><trkpt lat="44.5165925" lon="10.4236452"><ele>452.8</ele><time>2026-04-18T13:54:53.718Z</time></trkpt><trkpt lat="44.5165849" lon="10.4235468"><ele>455.6</ele><time>2026-04-18T13:54:54.709Z</time></trkpt><trkpt lat="44.5165247" lon="10.42341"><ele>458.4</ele><time>2026-04-18T13:54:56.728Z</time></trkpt><trkpt lat="44.5164575" lon="10.4233675"><ele>461.2</ele><time>2026-04-18T13:54:57.702Z</time></trkpt><trkpt lat="44.5163646" lon="10.423288"><ele>464.0</ele><time>2026-04-18T13:54:58.722Z</time></trkpt><trkpt lat="44.5162745" lon="10.423208"><ele>463.6</ele><time>2026-04-18T13:54:59.711Z</time></trkpt><trkpt lat="44.5161881" lon="10.4231143"><ele>463.2</ele><time>2026-04-18T13:55:00.707Z</time></trkpt><trkpt lat="44.5161043" lon="10.4230101"><ele>462.80000000000007</ele><time>2026-04-18T13:55:01.7Z</time></trkpt><trkpt lat="44.5160217" lon="10.4229069"><ele>462.40000000000003</ele><time>2026-04-18T13:55:02.724Z</time></trkpt><trkpt lat="44.5159486" lon="10.4228057"><ele>462.0</ele><time>2026-04-18T13:55:03.727Z</time></trkpt><trkpt lat="44.5158869" lon="10.422716"><ele>464.40000000000003</ele><time>2026-04-18T13:55:04.722Z</time></trkpt><trkpt lat="44.5158335" lon="10.4226399"><ele>466.80000000000007</ele><time>2026-04-18T13:55:05.713Z</time></trkpt><trkpt lat="44.5157714" lon="10.4225127"><ele>469.2</ele><time>2026-04-18T13:55:07.706Z</time></trkpt><trkpt lat="44.5157752" lon="10.4224163"><ele>471.6</ele><time>2026-04-18T13:55:09.709Z</time></trkpt><trkpt lat="44.515897" lon="10.4223888"><ele>474.0</ele><time>2026-04-18T13:55:11.725Z</time></trkpt><trkpt lat="44.5159753" lon="10.4223768"><ele>474.0</ele><time>2026-04-18T13:55:12.722Z</time></trkpt><trkpt lat="44.5160601" lon="10.4223605"><ele>474.0</ele><time>2026-04-18T13:55:13.714Z</time></trkpt><trkpt lat="44.5161397" lon="10.422346"><ele>474.0</ele><time>2026-04-18T13:55:14.72Z</time></trkpt><trkpt lat="44.516207" lon="10.4223289"><ele>474.0</ele><time>2026-04-18T13:55:15.709Z</time></trkpt><trkpt lat="44.51631" lon="10.4222715"><ele>474.0</ele><time>2026-04-18T13:55:17.718Z</time></trkpt><trkpt lat="44.5163393" lon="10.4221517"><ele>474.0</ele><time>2026-04-18T13:55:19.722Z</time></trkpt><trkpt lat="44.516303" lon="10.4220126"><ele>476.1666666666667</ele><time>2026-04-18T13:55:21.704Z</time></trkpt><trkpt lat="44.5162628" lon="10.4219385"><ele>478.33333333333337</ele><time>2026-04-18T13:55:22.704Z</time></trkpt><trkpt lat="44.5162227" lon="10.4218439"><ele>480.5</ele><time>2026-04-18T13:55:23.723Z</time></trkpt><trkpt lat="44.5161827" lon="10.421734"><ele>482.6666666666667</ele><time>2026-04-18T13:55:24.714Z</time></trkpt><trkpt lat="44.5161411" lon="10.4216206"><ele>484.83333333333337</ele><time>2026-04-18T13:55:25.713Z</time></trkpt><trkpt lat="44.5160989" lon="10.4215068"><ele>487.0</ele><time>2026-04-18T13:55:26.717Z</time></trkpt><trkpt lat="44.5160603" lon="10.4214031"><ele>489.33333333333337</ele><time>2026-04-18T13:55:27.702Z</time></trkpt><trkpt lat="44.5160281" lon="10.4213009"><ele>491.6666666666667</ele><time>2026-04-18T13:55:28.713Z</time></trkpt><trkpt lat="44.5160067" lon="10.4212015"><ele>494.0</ele><time>2026-04-18T13:55:29.716Z</time></trkpt><trkpt lat="44.5159865" lon="10.4211055"><ele>496.33333333333337</ele><time>2026-04-18T13:55:30.721Z</time></trkpt><trkpt lat="44.5160321" lon="10.4209415"><ele>498.6666666666667</ele><time>2026-04-18T13:55:32.722Z</time></trkpt><trkpt lat="44.516081" lon="10.420867"><ele>501.0</ele><time>2026-04-18T13:55:33.719Z</time></trkpt><trkpt lat="44.5161472" lon="10.4208012"><ele>501.0</ele><time>2026-04-18T13:55:34.711Z</time></trkpt><trkpt lat="44.5161842" lon="10.420713"><ele>501.0</ele><time>2026-04-18T13:55:35.717Z</time></trkpt><trkpt lat="44.5162341" lon="10.4206399"><ele>501.0</ele><time>2026-04-18T13:55:36.705Z</time></trkpt><trkpt lat="44.5162423" lon="10.4205307"><ele>501.0</ele><time>2026-04-18T13:55:37.704Z</time></trkpt><trkpt lat="44.5162282" lon="10.4204218"><ele>501.0</ele><time>2026-04-18T13:55:38.723Z</time></trkpt><trkpt lat="44.5162082" lon="10.4203155"><ele>501.0</ele><time>2026-04-18T13:55:39.709Z</time></trkpt><trkpt lat="44.516156" lon="10.420224"><ele>503.0</ele><time>2026-04-18T13:55:40.723Z</time></trkpt><trkpt lat="44.5160999" lon="10.42013"><ele>505.0</ele><time>2026-04-18T13:55:41.709Z</time></trkpt><trkpt lat="44.516046" lon="10.4200372"><ele>507.0</ele><time>2026-04-18T13:55:42.711Z</time></trkpt><trkpt lat="44.5160066" lon="10.4199373"><ele>509.0</ele><time>2026-04-18T13:55:43.719Z</time></trkpt><trkpt lat="44.5159801" lon="10.4198383"><ele>511.0</ele><time>2026-04-18T13:55:44.703Z</time></trkpt><trkpt lat="44.5159581" lon="10.4197193"><ele>513.0</ele><time>2026-04-18T13:55:45.702Z</time></trkpt><trkpt lat="44.5159333" lon="10.4195948"><ele>514.3333333333334</ele><time>2026-04-18T13:55:46.72Z</time></trkpt><trkpt lat="44.5159048" lon="10.4194862"><ele>515.6666666666666</ele><time>2026-04-18T13:55:47.71Z</time></trkpt><trkpt lat="44.5158662" lon="10.4193864"><ele>517.0</ele><time>2026-04-18T13:55:48.723Z</time></trkpt><trkpt lat="44.5158103" lon="10.4193086"><ele>518.3333333333333</ele><time>2026-04-18T13:55:49.719Z</time></trkpt><trkpt lat="44.515767" lon="10.4192445"><ele>519.6666666666666</ele><time>2026-04-18T13:55:50.713Z</time></trkpt><trkpt lat="44.5157546" lon="10.4191279"><ele>521.0</ele><time>2026-04-18T13:55:52.715Z</time></trkpt><trkpt lat="44.5158261" lon="10.4190755"><ele>521.0</ele><time>2026-04-18T13:55:54.74Z</time></trkpt><trkpt lat="44.5159502" lon="10.419123"><ele>521.0</ele><time>2026-04-18T13:55:56.723Z</time></trkpt><trkpt lat="44.5160194" lon="10.4191511"><ele>521.0</ele><time>2026-04-18T13:55:57.72Z</time></trkpt><trkpt lat="44.5160842" lon="10.4191746"><ele>521.0</ele><time>2026-04-18T13:55:58.711Z</time></trkpt><trkpt lat="44.5161497" lon="10.4192029"><ele>521.0</ele><time>2026-04-18T13:55:59.706Z</time></trkpt><trkpt lat="44.5162216" lon="10.4192225"><ele>521.0</ele><time>2026-04-18T13:56:00.707Z</time></trkpt><trkpt lat="44.5163128" lon="10.4192447"><ele>523.3333333333333</ele><time>2026-04-18T13:56:01.711Z</time></trkpt><trkpt lat="44.516394" lon="10.4192649"><ele>525.6666666666666</ele><time>2026-04-18T13:56:02.719Z</time></trkpt><trkpt lat="44.5164745" lon="10.4192963"><ele>528.0</ele><time>2026-04-18T13:56:03.724Z</time></trkpt><trkpt lat="44.5165543" lon="10.4193293"><ele>530.3333333333334</ele><time>2026-04-18T13:56:04.705Z</time></trkpt><trkpt lat="44.5166205" lon="10.4193565"><ele>532.6666666666667</ele><time>2026-04-18T13:56:05.715Z</time></trkpt><trkpt lat="44.5166899" lon="10.4193692"><ele>535.0</ele><time>2026-04-18T13:56:06.725Z</time></trkpt><trkpt lat="44.5167599" lon="10.4193617"><ele>535.0</ele><time>2026-04-18T13:56:07.721Z</time></trkpt><trkpt lat="44.5168246" lon="10.4193317"><ele>535.0</ele><time>2026-04-18T13:56:08.715Z</time></trkpt><trkpt lat="44.5168827" lon="10.4192766"><ele>535.0</ele><time>2026-04-18T13:56:09.727Z</time></trkpt><trkpt lat="44.5169187" lon="10.4192023"><ele>535.0</ele><time>2026-04-18T13:56:10.713Z</time></trkpt><trkpt lat="44.5169494" lon="10.4191249"><ele>535.0</ele><time>2026-04-18T13:56:11.713Z</time></trkpt><trkpt lat="44.5169406" lon="10.4190309"><ele>535.0</ele><time>2026-04-18T13:56:12.724Z</time></trkpt><trkpt lat="44.5169144" lon="10.4189317"><ele>535.0</ele><time>2026-04-18T13:56:13.719Z</time></trkpt><trkpt lat="44.5168835" lon="10.4188313"><ele>537.1666666666667</ele><time>2026-04-18T13:56:14.712Z</time></trkpt><trkpt lat="44.5168611" lon="10.4187232"><ele>539.3333333333334</ele><time>2026-04-18T13:56:15.718Z</time></trkpt><trkpt lat="44.5168438" lon="10.4186145"><ele>541.5</ele><time>2026-04-18T13:56:16.715Z</time></trkpt><trkpt lat="44.516814" lon="10.4185117"><ele>543.6666666666666</ele><time>2026-04-18T13:56:17.706Z</time></trkpt><trkpt lat="44.5167718" lon="10.418414"><ele>545.8333333333333</ele><time>2026-04-18T13:56:18.715Z</time></trkpt><trkpt lat="44.5167242" lon="10.4183196"><ele>548.0</ele><time>2026-04-18T13:56:19.715Z</time></trkpt><trkpt lat="44.5166685" lon="10.4182396"><ele>548.0</ele><time>2026-04-18T13:56:20.708Z</time></trkpt><trkpt lat="44.5166133" lon="10.4181622"><ele>548.0</ele><time>2026-04-18T13:56:21.708Z</time></trkpt><trkpt lat="44.516552" lon="10.4181187"><ele>548.0</ele><time>2026-04-18T13:56:22.705Z</time></trkpt><trkpt lat="44.5164722" lon="10.4179976"><ele>548.0</ele><time>2026-04-18T13:56:24.722Z</time></trkpt><trkpt lat="44.5164464" lon="10.4178502"><ele>548.0</ele><time>2026-04-18T13:56:26.725Z</time></trkpt><trkpt lat="44.5165146" lon="10.4177119"><ele>549.2857142857143</ele><time>2026-04-18T13:56:28.718Z</time></trkpt><trkpt lat="44.5165726" lon="10.4176732"><ele>550.5714285714286</ele><time>2026-04-18T13:56:29.715Z</time></trkpt><trkpt lat="44.516636" lon="10.4176583"><ele>551.8571428571429</ele><time>2026-04-18T13:56:30.706Z</time></trkpt><trkpt lat="44.5167039" lon="10.4176643"><ele>553.1428571428571</ele><time>2026-04-18T13:56:31.71Z</time></trkpt><trkpt lat="44.5167737" lon="10.4176832"><ele>554.4285714285714</ele><time>2026-04-18T13:56:32.715Z</time></trkpt><trkpt lat="44.5168432" lon="10.4177028"><ele>555.7142857142858</ele><time>2026-04-18T13:56:33.725Z</time></trkpt><trkpt lat="44.5169176" lon="10.4177148"><ele>557.0</ele><time>2026-04-18T13:56:34.724Z</time></trkpt><trkpt lat="44.5169861" lon="10.4177313"><ele>559.4</ele><time>2026-04-18T13:56:35.718Z</time></trkpt><trkpt lat="44.5171009" lon="10.4177377"><ele>561.8000000000001</ele><time>2026-04-18T13:56:37.727Z</time></trkpt><trkpt lat="44.5171799" lon="10.4176994"><ele>564.2</ele><time>2026-04-18T13:56:39.7Z</time></trkpt><trkpt lat="44.5172212" lon="10.417579"><ele>566.6</ele><time>2026-04-18T13:56:41.704Z</time></trkpt><trkpt lat="44.5171948" lon="10.4173998"><ele>569.0</ele><time>2026-04-18T13:56:43.708Z</time></trkpt><trkpt lat="44.5171818" lon="10.4172975"><ele>569.0</ele><time>2026-04-18T13:56:44.707Z</time></trkpt><trkpt lat="44.5171743" lon="10.4171859"><ele>569.0</ele><time>2026-04-18T13:56:45.719Z</time></trkpt><trkpt lat="44.5171763" lon="10.4170724"><ele>569.0</ele><time>2026-04-18T13:56:46.715Z</time></trkpt><trkpt lat="44.5171791" lon="10.4169618"><ele>569.0</ele><time>2026-04-18T13:56:47.713Z</time></trkpt><trkpt lat="44.5171962" lon="10.4168465"><ele>569.0</ele><time>2026-04-18T13:56:48.71Z</time></trkpt><trkpt lat="44.5172135" lon="10.4167271"><ele>569.0</ele><time>2026-04-18T13:56:49.713Z</time></trkpt><trkpt lat="44.5172364" lon="10.4166068"><ele>570.8</ele><time>2026-04-18T13:56:50.7Z</time></trkpt><trkpt lat="44.5172579" lon="10.4164861"><ele>572.5999999999999</ele><time>2026-04-18T13:56:51.719Z</time></trkpt><trkpt lat="44.5172775" lon="10.4163605"><ele>574.4</ele><time>2026-04-18T13:56:52.724Z</time></trkpt><trkpt lat="44.5172965" lon="10.4162315"><ele>576.1999999999999</ele><time>2026-04-18T13:56:53.707Z</time></trkpt><trkpt lat="44.5173148" lon="10.4161022"><ele>578.0</ele><time>2026-04-18T13:56:54.711Z</time></trkpt><trkpt lat="44.5173303" lon="10.4159751"><ele>579.1666666666666</ele><time>2026-04-18T13:56:55.706Z</time></trkpt><trkpt lat="44.5173456" lon="10.4158499"><ele>580.3333333333333</ele><time>2026-04-18T13:56:56.723Z</time></trkpt><trkpt lat="44.5173586" lon="10.4157294"><ele>581.5</ele><time>2026-04-18T13:56:57.714Z</time></trkpt><trkpt lat="44.5173656" lon="10.4156103"><ele>582.6666666666666</ele><time>2026-04-18T13:56:58.707Z</time></trkpt><trkpt lat="44.5173728" lon="10.4154946"><ele>583.8333333333334</ele><time>2026-04-18T13:56:59.723Z</time></trkpt><trkpt lat="44.5173896" lon="10.4153809"><ele>585.0</ele><time>2026-04-18T13:57:00.721Z</time></trkpt><trkpt lat="44.5174055" lon="10.4152738"><ele>586.3333333333334</ele><time>2026-04-18T13:57:01.724Z</time></trkpt><trkpt lat="44.5174378" lon="10.4151613"><ele>587.6666666666666</ele><time>2026-04-18T13:57:02.707Z</time></trkpt><trkpt lat="44.5174631" lon="10.4150445"><ele>589.0</ele><time>2026-04-18T13:57:03.722Z</time></trkpt><trkpt lat="44.5174808" lon="10.4149266"><ele>590.3333333333333</ele><time>2026-04-18T13:57:04.721Z</time></trkpt><trkpt lat="44.517488" lon="10.4148035"><ele>591.6666666666666</ele><time>2026-04-18T13:57:05.718Z</time></trkpt><trkpt lat="44.5174933" lon="10.4146825"><ele>593.0</ele><time>2026-04-18T13:57:06.709Z</time></trkpt><trkpt lat="44.5174959" lon="10.4145609"><ele>594.1666666666666</ele><time>2026-04-18T13:57:07.715Z</time></trkpt><trkpt lat="44.517499" lon="10.4144389"><ele>595.3333333333333</ele><time>2026-04-18T13:57:08.72Z</time></trkpt><trkpt lat="44.5175006" lon="10.4143158"><ele>596.5</ele><time>2026-04-18T13:57:09.727Z</time></trkpt><trkpt lat="44.5174944" lon="10.4141903"><ele>597.6666666666666</ele><time>2026-04-18T13:57:10.723Z</time></trkpt><trkpt lat="44.5174863" lon="10.4140623"><ele>598.8333333333334</ele><time>2026-04-18T13:57:11.706Z</time></trkpt><trkpt lat="44.51748" lon="10.4139331"><ele>600.0</ele><time>2026-04-18T13:57:12.718Z</time></trkpt><trkpt lat="44.5174784" lon="10.4138135"><ele>601.3333333333334</ele><time>2026-04-18T13:57:13.719Z</time></trkpt><trkpt lat="44.5174875" lon="10.4137042"><ele>602.6666666666666</ele><time>2026-04-18T13:57:14.731Z</time></trkpt><trkpt lat="44.5175388" lon="10.4135719"><ele>604.0</ele><time>2026-04-18T13:57:16.717Z</time></trkpt><trkpt lat="44.5176156" lon="10.4135262"><ele>605.3333333333333</ele><time>2026-04-18T13:57:18.712Z</time></trkpt><trkpt lat="44.5176829" lon="10.4135922"><ele>606.6666666666666</ele><time>2026-04-18T13:57:20.733Z</time></trkpt><trkpt lat="44.5177296" lon="10.4136557"><ele>608.0</ele><time>2026-04-18T13:57:21.723Z</time></trkpt><trkpt lat="44.5177866" lon="10.4137267"><ele>608.0</ele><time>2026-04-18T13:57:22.716Z</time></trkpt><trkpt lat="44.517846" lon="10.4137992"><ele>608.0</ele><time>2026-04-18T13:57:23.723Z</time></trkpt><trkpt lat="44.5179052" lon="10.4138771"><ele>608.0</ele><time>2026-04-18T13:57:24.717Z</time></trkpt><trkpt lat="44.517958" lon="10.413955"><ele>608.0</ele><time>2026-04-18T13:57:25.72Z</time></trkpt><trkpt lat="44.5180021" lon="10.4140259"><ele>608.0</ele><time>2026-04-18T13:57:26.723Z</time></trkpt><trkpt lat="44.5180731" lon="10.4141103"><ele>608.0</ele><time>2026-04-18T13:57:28.716Z</time></trkpt><trkpt lat="44.5181397" lon="10.4141065"><ele>609.4</ele><time>2026-04-18T13:57:31.714Z</time></trkpt><trkpt lat="44.5180939" lon="10.4139772"><ele>610.8</ele><time>2026-04-18T13:57:35.707Z</time></trkpt><trkpt lat="44.5180454" lon="10.4138866"><ele>612.2</ele><time>2026-04-18T13:57:36.717Z</time></trkpt><trkpt lat="44.5180066" lon="10.413778"><ele>613.6</ele><time>2026-04-18T13:57:37.717Z</time></trkpt><trkpt lat="44.5179744" lon="10.4136534"><ele>615.0</ele><time>2026-04-18T13:57:38.717Z</time></trkpt><trkpt lat="44.5179479" lon="10.413518"><ele>614.2</ele><time>2026-04-18T13:57:39.717Z</time></trkpt><trkpt lat="44.5179231" lon="10.4133819"><ele>613.4</ele><time>2026-04-18T13:57:40.721Z</time></trkpt><trkpt lat="44.5178953" lon="10.4132531"><ele>612.6</ele><time>2026-04-18T13:57:41.717Z</time></trkpt><trkpt lat="44.5178629" lon="10.4131296"><ele>611.8</ele><time>2026-04-18T13:57:42.717Z</time></trkpt><trkpt lat="44.5178285" lon="10.4130102"><ele>611.0</ele><time>2026-04-18T13:57:43.708Z</time></trkpt><trkpt lat="44.5177946" lon="10.4128906"><ele>611.0</ele><time>2026-04-18T13:57:44.713Z</time></trkpt><trkpt lat="44.5177618" lon="10.4127629"><ele>611.0</ele><time>2026-04-18T13:57:45.708Z</time></trkpt><trkpt lat="44.5177266" lon="10.4126307"><ele>611.0</ele><time>2026-04-18T13:57:46.715Z</time></trkpt><trkpt lat="44.5176889" lon="10.4124968"><ele>611.0</ele><time>2026-04-18T13:57:47.704Z</time></trkpt><trkpt lat="44.5176543" lon="10.4123593"><ele>611.0</ele><time>2026-04-18T13:57:48.712Z</time></trkpt><trkpt lat="44.5176258" lon="10.4122202"><ele>611.2</ele><time>2026-04-18T13:57:49.707Z</time></trkpt><trkpt lat="44.5176053" lon="10.4120786"><ele>611.4000000000001</ele><time>2026-04-18T13:57:50.721Z</time></trkpt><trkpt lat="44.5175944" lon="10.4119389"><ele>611.6</ele><time>2026-04-18T13:57:51.712Z</time></trkpt><trkpt lat="44.517593" lon="10.4117965"><ele>611.8000000000001</ele><time>2026-04-18T13:57:52.716Z</time></trkpt><trkpt lat="44.5175995" lon="10.4116544"><ele>612.0</ele><time>2026-04-18T13:57:53.726Z</time></trkpt><trkpt lat="44.5176135" lon="10.4115117"><ele>612.0</ele><time>2026-04-18T13:57:54.7Z</time></trkpt><trkpt lat="44.5176332" lon="10.411372"><ele>612.0</ele><time>2026-04-18T13:57:55.723Z</time></trkpt><trkpt lat="44.5176637" lon="10.4112399"><ele>612.0</ele><time>2026-04-18T13:57:56.713Z</time></trkpt><trkpt lat="44.5177174" lon="10.4111211"><ele>612.0</ele><time>2026-04-18T13:57:57.718Z</time></trkpt><trkpt lat="44.5177861" lon="10.4110173"><ele>612.0</ele><time>2026-04-18T13:57:58.709Z</time></trkpt><trkpt lat="44.5178525" lon="10.4109168"><ele>613.4</ele><time>2026-04-18T13:57:59.708Z</time></trkpt><trkpt lat="44.5179083" lon="10.4108159"><ele>614.8000000000001</ele><time>2026-04-18T13:58:00.727Z</time></trkpt><trkpt lat="44.5179436" lon="10.4106939"><ele>616.2</ele><time>2026-04-18T13:58:01.706Z</time></trkpt><trkpt lat="44.5179413" lon="10.4105635"><ele>617.6</ele><time>2026-04-18T13:58:02.72Z</time></trkpt><trkpt lat="44.5179085" lon="10.4104318"><ele>619.0</ele><time>2026-04-18T13:58:03.705Z</time></trkpt><trkpt lat="44.5178571" lon="10.4103043"><ele>619.0</ele><time>2026-04-18T13:58:04.715Z</time></trkpt><trkpt lat="44.5178004" lon="10.4101696"><ele>619.0</ele><time>2026-04-18T13:58:05.714Z</time></trkpt><trkpt lat="44.5177404" lon="10.410029"><ele>619.0</ele><time>2026-04-18T13:58:06.714Z</time></trkpt><trkpt lat="44.5176795" lon="10.4098845"><ele>619.0</ele><time>2026-04-18T13:58:07.721Z</time></trkpt><trkpt lat="44.517624" lon="10.4097433"><ele>619.8</ele><time>2026-04-18T13:58:08.708Z</time></trkpt><trkpt lat="44.5175736" lon="10.4096055"><ele>620.5999999999999</ele><time>2026-04-18T13:58:09.706Z</time></trkpt><trkpt lat="44.5175308" lon="10.4094743"><ele>621.4</ele><time>2026-04-18T13:58:10.703Z</time></trkpt><trkpt lat="44.5174939" lon="10.4093443"><ele>622.1999999999999</ele><time>2026-04-18T13:58:11.724Z</time></trkpt><trkpt lat="44.5174566" lon="10.4092266"><ele>623.0</ele><time>2026-04-18T13:58:12.728Z</time></trkpt><trkpt lat="44.5174207" lon="10.4091175"><ele>623.0</ele><time>2026-04-18T13:58:13.705Z</time></trkpt><trkpt lat="44.5173631" lon="10.4090414"><ele>623.0</ele><time>2026-04-18T13:58:14.718Z</time></trkpt><trkpt lat="44.5172825" lon="10.409006"><ele>623.0</ele><time>2026-04-18T13:58:15.722Z</time></trkpt><trkpt lat="44.5171837" lon="10.409"><ele>623.0</ele><time>2026-04-18T13:58:16.707Z</time></trkpt><trkpt lat="44.5170732" lon="10.409035"><ele>623.0</ele><time>2026-04-18T13:58:17.719Z</time></trkpt><trkpt lat="44.5169513" lon="10.409083"><ele>623.0</ele><time>2026-04-18T13:58:18.712Z</time></trkpt><trkpt lat="44.5168198" lon="10.4091388"><ele>623.0</ele><time>2026-04-18T13:58:19.725Z</time></trkpt><trkpt lat="44.5166894" lon="10.4091877"><ele>623.0</ele><time>2026-04-18T13:58:20.723Z</time></trkpt><trkpt lat="44.516557" lon="10.4092419"><ele>623.0</ele><time>2026-04-18T13:58:21.716Z</time></trkpt><trkpt lat="44.5164288" lon="10.4092881"><ele>623.0</ele><time>2026-04-18T13:58:22.713Z</time></trkpt><trkpt lat="44.5163068" lon="10.4093313"><ele>623.0</ele><time>2026-04-18T13:58:23.708Z</time></trkpt><trkpt lat="44.5161935" lon="10.4093642"><ele>623.0</ele><time>2026-04-18T13:58:24.702Z</time></trkpt><trkpt lat="44.5160841" lon="10.4093857"><ele>623.0</ele><time>2026-04-18T13:58:25.716Z</time></trkpt><trkpt lat="44.5159758" lon="10.4094055"><ele>623.4</ele><time>2026-04-18T13:58:26.716Z</time></trkpt><trkpt lat="44.5158702" lon="10.409398"><ele>623.8</ele><time>2026-04-18T13:58:27.707Z</time></trkpt><trkpt lat="44.5157625" lon="10.4093756"><ele>624.2</ele><time>2026-04-18T13:58:28.719Z</time></trkpt><trkpt lat="44.5156562" lon="10.4093501"><ele>624.6</ele><time>2026-04-18T13:58:29.72Z</time></trkpt><trkpt lat="44.5155548" lon="10.409315"><ele>625.0</ele><time>2026-04-18T13:58:30.722Z</time></trkpt><trkpt lat="44.5154604" lon="10.4092634"><ele>623.8</ele><time>2026-04-18T13:58:31.715Z</time></trkpt><trkpt lat="44.5153641" lon="10.4092141"><ele>622.6</ele><time>2026-04-18T13:58:32.717Z</time></trkpt><trkpt lat="44.5152736" lon="10.4091644"><ele>621.4</ele><time>2026-04-18T13:58:33.719Z</time></trkpt><trkpt lat="44.5151896" lon="10.4091131"><ele>620.2</ele><time>2026-04-18T13:58:34.707Z</time></trkpt><trkpt lat="44.515108" lon="10.4090619"><ele>619.0</ele><time>2026-04-18T13:58:35.718Z</time></trkpt><trkpt lat="44.5150261" lon="10.4090004"><ele>619.0</ele><time>2026-04-18T13:58:36.723Z</time></trkpt><trkpt lat="44.5149433" lon="10.4089414"><ele>619.0</ele><time>2026-04-18T13:58:37.711Z</time></trkpt><trkpt lat="44.5148567" lon="10.4088788"><ele>619.0</ele><time>2026-04-18T13:58:38.718Z</time></trkpt><trkpt lat="44.5147672" lon="10.4088144"><ele>619.0</ele><time>2026-04-18T13:58:39.71Z</time></trkpt><trkpt lat="44.514678" lon="10.4087499"><ele>619.0</ele><time>2026-04-18T13:58:40.714Z</time></trkpt><trkpt lat="44.5145878" lon="10.4086844"><ele>617.2</ele><time>2026-04-18T13:58:41.71Z</time></trkpt><trkpt lat="44.5144966" lon="10.4086148"><ele>615.4</ele><time>2026-04-18T13:58:42.718Z</time></trkpt><trkpt lat="44.5144065" lon="10.4085382"><ele>613.6</ele><time>2026-04-18T13:58:43.718Z</time></trkpt><trkpt lat="44.5143178" lon="10.4084555"><ele>611.8</ele><time>2026-04-18T13:58:44.71Z</time></trkpt><trkpt lat="44.5142313" lon="10.4083631"><ele>610.0</ele><time>2026-04-18T13:58:45.709Z</time></trkpt><trkpt lat="44.5141477" lon="10.4082622"><ele>610.0</ele><time>2026-04-18T13:58:46.726Z</time></trkpt><trkpt lat="44.514064" lon="10.4081625"><ele>610.0</ele><time>2026-04-18T13:58:47.72Z</time></trkpt><trkpt lat="44.513983" lon="10.4080667"><ele>610.0</ele><time>2026-04-18T13:58:48.712Z</time></trkpt><trkpt lat="44.5139035" lon="10.40798"><ele>610.0</ele><time>2026-04-18T13:58:49.72Z</time></trkpt><trkpt lat="44.5138287" lon="10.4079014"><ele>610.0</ele><time>2026-04-18T13:58:50.703Z</time></trkpt><trkpt lat="44.5137564" lon="10.4078287"><ele>608.3333333333334</ele><time>2026-04-18T13:58:51.716Z</time></trkpt><trkpt lat="44.5136912" lon="10.4077595"><ele>606.6666666666667</ele><time>2026-04-18T13:58:52.709Z</time></trkpt><trkpt lat="44.5136332" lon="10.4076921"><ele>605.0</ele><time>2026-04-18T13:58:53.717Z</time></trkpt><trkpt lat="44.5135842" lon="10.4076237"><ele>603.3333333333334</ele><time>2026-04-18T13:58:54.714Z</time></trkpt><trkpt lat="44.5135483" lon="10.4075506"><ele>601.6666666666666</ele><time>2026-04-18T13:58:55.706Z</time></trkpt><trkpt lat="44.5135134" lon="10.407396"><ele>600.0</ele><time>2026-04-18T13:58:57.727Z</time></trkpt><trkpt lat="44.5135018" lon="10.4073089"><ele>600.0</ele><time>2026-04-18T13:58:58.718Z</time></trkpt><trkpt lat="44.5134889" lon="10.4072142"><ele>600.0</ele><time>2026-04-18T13:58:59.718Z</time></trkpt><trkpt lat="44.5134746" lon="10.4070996"><ele>600.0</ele><time>2026-04-18T13:59:00.716Z</time></trkpt><trkpt lat="44.5134568" lon="10.4069749"><ele>600.0</ele><time>2026-04-18T13:59:01.721Z</time></trkpt><trkpt lat="44.5134372" lon="10.4068491"><ele>600.0</ele><time>2026-04-18T13:59:02.704Z</time></trkpt><trkpt lat="44.5134182" lon="10.4067225"><ele>600.0</ele><time>2026-04-18T13:59:03.72Z</time></trkpt><trkpt lat="44.5134015" lon="10.4066042"><ele>600.3333333333334</ele><time>2026-04-18T13:59:04.718Z</time></trkpt><trkpt lat="44.5133914" lon="10.406488"><ele>600.6666666666666</ele><time>2026-04-18T13:59:05.716Z</time></trkpt><trkpt lat="44.5133825" lon="10.406383"><ele>601.0</ele><time>2026-04-18T13:59:06.72Z</time></trkpt><trkpt lat="44.5133866" lon="10.4062747"><ele>601.3333333333333</ele><time>2026-04-18T13:59:07.719Z</time></trkpt><trkpt lat="44.5134125" lon="10.4061799"><ele>601.6666666666666</ele><time>2026-04-18T13:59:08.705Z</time></trkpt><trkpt lat="44.5134572" lon="10.4060981"><ele>602.0</ele><time>2026-04-18T13:59:09.715Z</time></trkpt><trkpt lat="44.5135054" lon="10.4060313"><ele>600.4</ele><time>2026-04-18T13:59:10.711Z</time></trkpt><trkpt lat="44.5135687" lon="10.4059294"><ele>598.8000000000001</ele><time>2026-04-18T13:59:12.7Z</time></trkpt><trkpt lat="44.5135637" lon="10.4058395"><ele>597.2</ele><time>2026-04-18T13:59:15.71Z</time></trkpt><trkpt lat="44.5134809" lon="10.4058294"><ele>595.6</ele><time>2026-04-18T13:59:17.716Z</time></trkpt><trkpt lat="44.5133746" lon="10.4058505"><ele>594.0</ele><time>2026-04-18T13:59:19.717Z</time></trkpt><trkpt lat="44.5132539" lon="10.4058606"><ele>594.0</ele><time>2026-04-18T13:59:21.724Z</time></trkpt><trkpt lat="44.5131332" lon="10.4058647"><ele>594.0</ele><time>2026-04-18T13:59:23.709Z</time></trkpt><trkpt lat="44.51307" lon="10.4058721"><ele>594.0</ele><time>2026-04-18T13:59:24.716Z</time></trkpt><trkpt lat="44.5129553" lon="10.4058617"><ele>594.0</ele><time>2026-04-18T13:59:26.719Z</time></trkpt><trkpt lat="44.5128599" lon="10.4057861"><ele>594.0</ele><time>2026-04-18T13:59:28.718Z</time></trkpt><trkpt lat="44.51278" lon="10.4056886"><ele>591.6</ele><time>2026-04-18T13:59:30.724Z</time></trkpt><trkpt lat="44.5126939" lon="10.4056433"><ele>589.2</ele><time>2026-04-18T13:59:32.723Z</time></trkpt><trkpt lat="44.512606" lon="10.405681"><ele>586.8000000000001</ele><time>2026-04-18T13:59:34.723Z</time></trkpt><trkpt lat="44.5125204" lon="10.4058066"><ele>584.4</ele><time>2026-04-18T13:59:36.704Z</time></trkpt><trkpt lat="44.5124743" lon="10.4058878"><ele>582.0</ele><time>2026-04-18T13:59:37.711Z</time></trkpt><trkpt lat="44.5124255" lon="10.4059712"><ele>582.0</ele><time>2026-04-18T13:59:38.71Z</time></trkpt><trkpt lat="44.5123771" lon="10.4060517"><ele>582.0</ele><time>2026-04-18T13:59:39.718Z</time></trkpt><trkpt lat="44.5123298" lon="10.4061284"><ele>582.0</ele><time>2026-04-18T13:59:40.713Z</time></trkpt><trkpt lat="44.5122801" lon="10.4062076"><ele>582.0</ele><time>2026-04-18T13:59:41.713Z</time></trkpt><trkpt lat="44.5122291" lon="10.4062854"><ele>582.0</ele><time>2026-04-18T13:59:42.712Z</time></trkpt><trkpt lat="44.5121725" lon="10.4063627"><ele>582.0</ele><time>2026-04-18T13:59:43.703Z</time></trkpt><trkpt lat="44.5121176" lon="10.4064377"><ele>581.3333333333334</ele><time>2026-04-18T13:59:44.703Z</time></trkpt><trkpt lat="44.5120658" lon="10.4065132"><ele>580.6666666666666</ele><time>2026-04-18T13:59:45.711Z</time></trkpt><trkpt lat="44.5120159" lon="10.4065844"><ele>580.0</ele><time>2026-04-18T13:59:46.715Z</time></trkpt><trkpt lat="44.5119755" lon="10.406666"><ele>579.3333333333333</ele><time>2026-04-18T13:59:47.716Z</time></trkpt><trkpt lat="44.5119378" lon="10.4067384"><ele>578.6666666666666</ele><time>2026-04-18T13:59:48.719Z</time></trkpt><trkpt lat="44.511873" lon="10.4068594"><ele>578.0</ele><time>2026-04-18T13:59:50.722Z</time></trkpt><trkpt lat="44.5118129" lon="10.4069697"><ele>578.0</ele><time>2026-04-18T13:59:52.719Z</time></trkpt><trkpt lat="44.5117609" lon="10.4070443"><ele>578.0</ele><time>2026-04-18T13:59:54.722Z</time></trkpt><trkpt lat="44.5116699" lon="10.4070935"><ele>578.0</ele><time>2026-04-18T13:59:57.725Z</time></trkpt><trkpt lat="44.5115778" lon="10.4070802"><ele>578.0</ele><time>2026-04-18T13:59:59.716Z</time></trkpt><trkpt lat="44.511465" lon="10.4070254"><ele>578.0</ele><time>2026-04-18T14:00:01.72Z</time></trkpt><trkpt lat="44.5113497" lon="10.4069666"><ele>575.8333333333333</ele><time>2026-04-18T14:00:03.723Z</time></trkpt><trkpt lat="44.5112355" lon="10.4069165"><ele>573.6666666666666</ele><time>2026-04-18T14:00:05.715Z</time></trkpt><trkpt lat="44.5111133" lon="10.4068693"><ele>571.5</ele><time>2026-04-18T14:00:07.708Z</time></trkpt><trkpt lat="44.5110531" lon="10.4068398"><ele>569.3333333333334</ele><time>2026-04-18T14:00:08.71Z</time></trkpt><trkpt lat="44.5109928" lon="10.4068105"><ele>567.1666666666667</ele><time>2026-04-18T14:00:09.715Z</time></trkpt><trkpt lat="44.5109314" lon="10.406783"><ele>565.0</ele><time>2026-04-18T14:00:10.704Z</time></trkpt><trkpt lat="44.5108128" lon="10.4067264"><ele>565.0</ele><time>2026-04-18T14:00:12.706Z</time></trkpt><trkpt lat="44.5106942" lon="10.4066809"><ele>565.0</ele><time>2026-04-18T14:00:14.722Z</time></trkpt><trkpt lat="44.5105694" lon="10.4066485"><ele>565.0</ele><time>2026-04-18T14:00:16.703Z</time></trkpt><trkpt lat="44.510452" lon="10.4066203"><ele>565.0</ele><time>2026-04-18T14:00:18.705Z</time></trkpt><trkpt lat="44.5103313" lon="10.4066057"><ele>562.0</ele><time>2026-04-18T14:00:20.718Z</time></trkpt><trkpt lat="44.510267" lon="10.4066041"><ele>559.0</ele><time>2026-04-18T14:00:21.713Z</time></trkpt><trkpt lat="44.5102028" lon="10.4066086"><ele>556.0</ele><time>2026-04-18T14:00:22.721Z</time></trkpt><trkpt lat="44.5100812" lon="10.4066445"><ele>553.0</ele><time>2026-04-18T14:00:24.704Z</time></trkpt><trkpt lat="44.5099695" lon="10.4067068"><ele>550.0</ele><time>2026-04-18T14:00:26.708Z</time></trkpt><trkpt lat="44.5098758" lon="10.406775"><ele>550.0</ele><time>2026-04-18T14:00:28.727Z</time></trkpt><trkpt lat="44.5098051" lon="10.4068055"><ele>550.0</ele><time>2026-04-18T14:00:30.711Z</time></trkpt><trkpt lat="44.5097608" lon="10.4068743"><ele>550.0</ele><time>2026-04-18T14:00:33.719Z</time></trkpt><trkpt lat="44.5098436" lon="10.4067949"><ele>550.0</ele><time>2026-04-18T14:00:52.707Z</time></trkpt><trkpt lat="44.5099618" lon="10.4067194"><ele>550.0</ele><time>2026-04-18T14:00:54.721Z</time></trkpt><trkpt lat="44.5100343" lon="10.4066796"><ele>550.0</ele><time>2026-04-18T14:00:55.706Z</time></trkpt><trkpt lat="44.5101207" lon="10.406641"><ele>550.0</ele><time>2026-04-18T14:00:56.715Z</time></trkpt><trkpt lat="44.5102256" lon="10.4066134"><ele>550.0</ele><time>2026-04-18T14:00:57.715Z</time></trkpt><trkpt lat="44.5103264" lon="10.4066107"><ele>550.0</ele><time>2026-04-18T14:00:58.715Z</time></trkpt><trkpt lat="44.51043" lon="10.406608"><ele>550.0</ele><time>2026-04-18T14:00:59.72Z</time></trkpt><trkpt lat="44.5105435" lon="10.4066296"><ele>550.0</ele><time>2026-04-18T14:01:00.72Z</time></trkpt><trkpt lat="44.5106694" lon="10.4066689"><ele>555.0</ele><time>2026-04-18T14:01:01.722Z</time></trkpt><trkpt lat="44.5108115" lon="10.4067248"><ele>560.0</ele><time>2026-04-18T14:01:02.726Z</time></trkpt><trkpt lat="44.5109643" lon="10.4067901"><ele>565.0</ele><time>2026-04-18T14:01:03.715Z</time></trkpt><trkpt lat="44.5111138" lon="10.4068553"><ele>568.25</ele><time>2026-04-18T14:01:04.715Z</time></trkpt><trkpt lat="44.5112472" lon="10.4069127"><ele>571.5</ele><time>2026-04-18T14:01:05.712Z</time></trkpt><trkpt lat="44.5113608" lon="10.4069639"><ele>574.75</ele><time>2026-04-18T14:01:06.717Z</time></trkpt><trkpt lat="44.5114581" lon="10.4070115"><ele>578.0</ele><time>2026-04-18T14:01:07.718Z</time></trkpt><trkpt lat="44.5115413" lon="10.4070563"><ele>578.0</ele><time>2026-04-18T14:01:08.716Z</time></trkpt><trkpt lat="44.511614" lon="10.407083"><ele>578.0</ele><time>2026-04-18T14:01:09.713Z</time></trkpt><trkpt lat="44.5116859" lon="10.4070799"><ele>578.0</ele><time>2026-04-18T14:01:10.711Z</time></trkpt><trkpt lat="44.5117572" lon="10.4070388"><ele>578.0</ele><time>2026-04-18T14:01:11.712Z</time></trkpt><trkpt lat="44.5118221" lon="10.4069578"><ele>578.0</ele><time>2026-04-18T14:01:12.716Z</time></trkpt><trkpt lat="44.5118915" lon="10.4068684"><ele>578.0</ele><time>2026-04-18T14:01:13.721Z</time></trkpt><trkpt lat="44.5119562" lon="10.4067452"><ele>578.0</ele><time>2026-04-18T14:01:14.706Z</time></trkpt><trkpt lat="44.5120246" lon="10.4066208"><ele>578.0</ele><time>2026-04-18T14:01:15.723Z</time></trkpt><trkpt lat="44.5120992" lon="10.4065001"><ele>578.0</ele><time>2026-04-18T14:01:16.708Z</time></trkpt><trkpt lat="44.512177" lon="10.4063856"><ele>578.0</ele><time>2026-04-18T14:01:17.723Z</time></trkpt><trkpt lat="44.5122522" lon="10.4062727"><ele>578.0</ele><time>2026-04-18T14:01:18.714Z</time></trkpt><trkpt lat="44.5123227" lon="10.4061594"><ele>578.6666666666666</ele><time>2026-04-18T14:01:19.709Z</time></trkpt><trkpt lat="44.5123879" lon="10.4060495"><ele>579.3333333333333</ele><time>2026-04-18T14:01:20.702Z</time></trkpt><trkpt lat="44.5124501" lon="10.405947"><ele>580.0</ele><time>2026-04-18T14:01:21.709Z</time></trkpt><trkpt lat="44.512511" lon="10.4058474"><ele>580.6666666666666</ele><time>2026-04-18T14:01:22.708Z</time></trkpt><trkpt lat="44.512565" lon="10.405758"><ele>581.3333333333334</ele><time>2026-04-18T14:01:23.716Z</time></trkpt><trkpt lat="44.5126117" lon="10.4056879"><ele>582.0</ele><time>2026-04-18T14:01:24.71Z</time></trkpt><trkpt lat="44.5127199" lon="10.4056717"><ele>582.0</ele><time>2026-04-18T14:01:26.722Z</time></trkpt><trkpt lat="44.5128062" lon="10.4057544"><ele>582.0</ele><time>2026-04-18T14:01:28.721Z</time></trkpt><trkpt lat="44.5128948" lon="10.4058635"><ele>582.0</ele><time>2026-04-18T14:01:30.722Z</time></trkpt><trkpt lat="44.5129663" lon="10.4058788"><ele>582.0</ele><time>2026-04-18T14:01:31.718Z</time></trkpt><trkpt lat="44.5130427" lon="10.4058877"><ele>582.0</ele><time>2026-04-18T14:01:32.719Z</time></trkpt><trkpt lat="44.5131263" lon="10.4058651"><ele>584.0</ele><time>2026-04-18T14:01:33.71Z</time></trkpt><trkpt lat="44.5132103" lon="10.4058543"><ele>586.0</ele><time>2026-04-18T14:01:34.717Z</time></trkpt><trkpt lat="44.5132993" lon="10.4058514"><ele>588.0</ele><time>2026-04-18T14:01:35.71Z</time></trkpt><trkpt lat="44.5133812" lon="10.4058503"><ele>590.0</ele><time>2026-04-18T14:01:36.715Z</time></trkpt><trkpt lat="44.5134549" lon="10.4058356"><ele>592.0</ele><time>2026-04-18T14:01:37.717Z</time></trkpt><trkpt lat="44.5135445" lon="10.4058062"><ele>594.0</ele><time>2026-04-18T14:01:39.715Z</time></trkpt><trkpt lat="44.5135951" lon="10.4058738"><ele>594.0</ele><time>2026-04-18T14:01:44.701Z</time></trkpt><trkpt lat="44.5135421" lon="10.4059568"><ele>594.0</ele><time>2026-04-18T14:01:46.705Z</time></trkpt><trkpt lat="44.5134883" lon="10.4060102"><ele>594.0</ele><time>2026-04-18T14:01:47.715Z</time></trkpt><trkpt lat="44.5134358" lon="10.4060773"><ele>594.0</ele><time>2026-04-18T14:01:48.725Z</time></trkpt><trkpt lat="44.5133945" lon="10.4061605"><ele>594.0</ele><time>2026-04-18T14:01:49.708Z</time></trkpt><trkpt lat="44.5133693" lon="10.4062661"><ele>594.0</ele><time>2026-04-18T14:01:50.72Z</time></trkpt><trkpt lat="44.5133676" lon="10.4063945"><ele>596.0</ele><time>2026-04-18T14:01:51.719Z</time></trkpt><trkpt lat="44.5133808" lon="10.4065531"><ele>598.0</ele><time>2026-04-18T14:01:52.722Z</time></trkpt><trkpt lat="44.5134026" lon="10.4067368"><ele>600.0</ele><time>2026-04-18T14:01:53.718Z</time></trkpt><trkpt lat="44.5134255" lon="10.4069251"><ele>602.0</ele><time>2026-04-18T14:01:54.709Z</time></trkpt><trkpt lat="44.51345" lon="10.4071134"><ele>601.6</ele><time>2026-04-18T14:01:55.718Z</time></trkpt><trkpt lat="44.5134716" lon="10.4072859"><ele>601.2</ele><time>2026-04-18T14:01:56.71Z</time></trkpt><trkpt lat="44.5134915" lon="10.4074474"><ele>600.8</ele><time>2026-04-18T14:01:57.721Z</time></trkpt><trkpt lat="44.5135196" lon="10.4075771"><ele>600.4</ele><time>2026-04-18T14:01:58.724Z</time></trkpt><trkpt lat="44.5135514" lon="10.4076976"><ele>600.0</ele><time>2026-04-18T14:01:59.704Z</time></trkpt><trkpt lat="44.5136282" lon="10.40779"><ele>600.0</ele><time>2026-04-18T14:02:00.72Z</time></trkpt><trkpt lat="44.5137174" lon="10.4078758"><ele>600.0</ele><time>2026-04-18T14:02:01.698Z</time></trkpt><trkpt lat="44.5138091" lon="10.4079668"><ele>600.0</ele><time>2026-04-18T14:02:02.725Z</time></trkpt><trkpt lat="44.5138997" lon="10.4080719"><ele>600.0</ele><time>2026-04-18T14:02:03.715Z</time></trkpt><trkpt lat="44.5139911" lon="10.4081816"><ele>602.5</ele><time>2026-04-18T14:02:04.718Z</time></trkpt><trkpt lat="44.5140838" lon="10.408291"><ele>605.0</ele><time>2026-04-18T14:02:05.712Z</time></trkpt><trkpt lat="44.5141735" lon="10.4083961"><ele>607.5</ele><time>2026-04-18T14:02:06.727Z</time></trkpt><trkpt lat="44.5142575" lon="10.4084985"><ele>610.0</ele><time>2026-04-18T14:02:07.719Z</time></trkpt><trkpt lat="44.5143471" lon="10.4085916"><ele>610.0</ele><time>2026-04-18T14:02:08.737Z</time></trkpt><trkpt lat="44.5144454" lon="10.4086749"><ele>610.0</ele><time>2026-04-18T14:02:09.71Z</time></trkpt><trkpt lat="44.5145478" lon="10.4087548"><ele>610.0</ele><time>2026-04-18T14:02:10.716Z</time></trkpt><trkpt lat="44.5146531" lon="10.4088345"><ele>610.0</ele><time>2026-04-18T14:02:11.721Z</time></trkpt><trkpt lat="44.5147592" lon="10.4089092"><ele>611.8</ele><time>2026-04-18T14:02:12.702Z</time></trkpt><trkpt lat="44.5148607" lon="10.4089841"><ele>613.6</ele><time>2026-04-18T14:02:13.721Z</time></trkpt><trkpt lat="44.5149599" lon="10.409058"><ele>615.4</ele><time>2026-04-18T14:02:14.721Z</time></trkpt><trkpt lat="44.5150546" lon="10.4091299"><ele>617.2</ele><time>2026-04-18T14:02:15.722Z</time></trkpt><trkpt lat="44.5151462" lon="10.4091971"><ele>619.0</ele><time>2026-04-18T14:02:16.707Z</time></trkpt><trkpt lat="44.5152399" lon="10.4092549"><ele>619.0</ele><time>2026-04-18T14:02:17.711Z</time></trkpt><trkpt lat="44.5153371" lon="10.409303"><ele>619.0</ele><time>2026-04-18T14:02:18.706Z</time></trkpt><trkpt lat="44.5154353" lon="10.4093478"><ele>619.0</ele><time>2026-04-18T14:02:19.707Z</time></trkpt><trkpt lat="44.5155329" lon="10.4093915"><ele>619.0</ele><time>2026-04-18T14:02:20.714Z</time></trkpt><trkpt lat="44.5156247" lon="10.4094317"><ele>619.0</ele><time>2026-04-18T14:02:21.701Z</time></trkpt><trkpt lat="44.515723" lon="10.4094607"><ele>620.2</ele><time>2026-04-18T14:02:22.717Z</time></trkpt><trkpt lat="44.5158153" lon="10.4094788"><ele>621.4</ele><time>2026-04-18T14:02:23.718Z</time></trkpt><trkpt lat="44.5159063" lon="10.4094885"><ele>622.6</ele><time>2026-04-18T14:02:24.714Z</time></trkpt><trkpt lat="44.5159946" lon="10.4094862"><ele>623.8</ele><time>2026-04-18T14:02:25.722Z</time></trkpt><trkpt lat="44.5160824" lon="10.409471"><ele>625.0</ele><time>2026-04-18T14:02:26.716Z</time></trkpt><trkpt lat="44.5161741" lon="10.4094431"><ele>624.6</ele><time>2026-04-18T14:02:27.709Z</time></trkpt><trkpt lat="44.5162711" lon="10.409407"><ele>624.2</ele><time>2026-04-18T14:02:28.722Z</time></trkpt><trkpt lat="44.5163748" lon="10.4093696"><ele>623.8</ele><time>2026-04-18T14:02:29.712Z</time></trkpt><trkpt lat="44.5164784" lon="10.4093343"><ele>623.4</ele><time>2026-04-18T14:02:30.716Z</time></trkpt><trkpt lat="44.5165849" lon="10.4093012"><ele>623.0</ele><time>2026-04-18T14:02:31.709Z</time></trkpt><trkpt lat="44.5166909" lon="10.4092666"><ele>623.0</ele><time>2026-04-18T14:02:32.714Z</time></trkpt><trkpt lat="44.5167958" lon="10.4092323"><ele>623.0</ele><time>2026-04-18T14:02:33.721Z</time></trkpt><trkpt lat="44.5169011" lon="10.4091989"><ele>623.0</ele><time>2026-04-18T14:02:34.713Z</time></trkpt><trkpt lat="44.517003" lon="10.4091637"><ele>623.0</ele><time>2026-04-18T14:02:35.718Z</time></trkpt><trkpt lat="44.5171001" lon="10.4091307"><ele>623.0</ele><time>2026-04-18T14:02:36.723Z</time></trkpt><trkpt lat="44.5171924" lon="10.4091074"><ele>623.0</ele><time>2026-04-18T14:02:37.725Z</time></trkpt><trkpt lat="44.5172784" lon="10.4091086"><ele>623.0</ele><time>2026-04-18T14:02:38.721Z</time></trkpt><trkpt lat="44.5173531" lon="10.4091497"><ele>623.0</ele><time>2026-04-18T14:02:39.703Z</time></trkpt><trkpt lat="44.5174273" lon="10.4091919"><ele>623.0</ele><time>2026-04-18T14:02:40.705Z</time></trkpt><trkpt lat="44.5174674" lon="10.4093034"><ele>623.0</ele><time>2026-04-18T14:02:41.723Z</time></trkpt><trkpt lat="44.5175036" lon="10.4094211"><ele>623.0</ele><time>2026-04-18T14:02:42.706Z</time></trkpt><trkpt lat="44.5175436" lon="10.4095418"><ele>622.1999999999999</ele><time>2026-04-18T14:02:43.725Z</time></trkpt><trkpt lat="44.5175863" lon="10.409661"><ele>621.4</ele><time>2026-04-18T14:02:44.716Z</time></trkpt><trkpt lat="44.5176336" lon="10.4097804"><ele>620.5999999999999</ele><time>2026-04-18T14:02:45.723Z</time></trkpt><trkpt lat="44.5176831" lon="10.4099015"><ele>619.8</ele><time>2026-04-18T14:02:46.711Z</time></trkpt><trkpt lat="44.5177336" lon="10.4100266"><ele>619.0</ele><time>2026-04-18T14:02:47.712Z</time></trkpt><trkpt lat="44.5177863" lon="10.4101555"><ele>619.0</ele><time>2026-04-18T14:02:48.719Z</time></trkpt><trkpt lat="44.5178405" lon="10.4102823"><ele>619.0</ele><time>2026-04-18T14:02:49.712Z</time></trkpt><trkpt lat="44.5178903" lon="10.4104065"><ele>619.0</ele><time>2026-04-18T14:02:50.715Z</time></trkpt><trkpt lat="44.5179283" lon="10.410528"><ele>619.0</ele><time>2026-04-18T14:02:51.708Z</time></trkpt><trkpt lat="44.5179419" lon="10.4106514"><ele>619.0</ele><time>2026-04-18T14:02:52.724Z</time></trkpt><trkpt lat="44.5179208" lon="10.4107701"><ele>617.8</ele><time>2026-04-18T14:02:53.724Z</time></trkpt><trkpt lat="44.5178694" lon="10.4108786"><ele>616.5999999999999</ele><time>2026-04-18T14:02:54.702Z</time></trkpt><trkpt lat="44.5178038" lon="10.4109826"><ele>615.4</ele><time>2026-04-18T14:02:55.719Z</time></trkpt><trkpt lat="44.5177328" lon="10.4110847"><ele>614.1999999999999</ele><time>2026-04-18T14:02:56.701Z</time></trkpt><trkpt lat="44.5176717" lon="10.411199"><ele>613.0</ele><time>2026-04-18T14:02:57.708Z</time></trkpt><trkpt lat="44.5176315" lon="10.4113323"><ele>612.8</ele><time>2026-04-18T14:02:58.723Z</time></trkpt><trkpt lat="44.5175889" lon="10.4114745"><ele>612.5999999999999</ele><time>2026-04-18T14:02:59.717Z</time></trkpt><trkpt lat="44.51757" lon="10.411626"><ele>612.4000000000001</ele><time>2026-04-18T14:03:00.718Z</time></trkpt><trkpt lat="44.5175569" lon="10.4117769"><ele>612.2</ele><time>2026-04-18T14:03:01.729Z</time></trkpt><trkpt lat="44.517546" lon="10.4119296"><ele>612.0</ele><time>2026-04-18T14:03:02.708Z</time></trkpt><trkpt lat="44.5175606" lon="10.4120827"><ele>611.8000000000001</ele><time>2026-04-18T14:03:03.703Z</time></trkpt><trkpt lat="44.517587" lon="10.4122315"><ele>611.6</ele><time>2026-04-18T14:03:04.715Z</time></trkpt><trkpt lat="44.5176218" lon="10.4123796"><ele>611.4000000000001</ele><time>2026-04-18T14:03:05.724Z</time></trkpt><trkpt lat="44.5176596" lon="10.4125236"><ele>611.2</ele><time>2026-04-18T14:03:06.716Z</time></trkpt><trkpt lat="44.5176997" lon="10.4126668"><ele>611.0</ele><time>2026-04-18T14:03:07.717Z</time></trkpt><trkpt lat="44.5177421" lon="10.4128107"><ele>611.0</ele><time>2026-04-18T14:03:08.717Z</time></trkpt><trkpt lat="44.5177834" lon="10.4129558"><ele>611.0</ele><time>2026-04-18T14:03:09.707Z</time></trkpt><trkpt lat="44.5178227" lon="10.4130983"><ele>611.0</ele><time>2026-04-18T14:03:10.704Z</time></trkpt><trkpt lat="44.5178566" lon="10.4132355"><ele>611.0</ele><time>2026-04-18T14:03:11.711Z</time></trkpt><trkpt lat="44.5178818" lon="10.4133634"><ele>611.0</ele><time>2026-04-18T14:03:12.702Z</time></trkpt><trkpt lat="44.5179073" lon="10.4134892"><ele>611.6666666666666</ele><time>2026-04-18T14:03:13.704Z</time></trkpt><trkpt lat="44.5179285" lon="10.4136074"><ele>612.3333333333333</ele><time>2026-04-18T14:03:14.72Z</time></trkpt><trkpt lat="44.5179494" lon="10.413716"><ele>613.0</ele><time>2026-04-18T14:03:15.709Z</time></trkpt><trkpt lat="44.5179799" lon="10.4138255"><ele>613.6666666666666</ele><time>2026-04-18T14:03:16.714Z</time></trkpt><trkpt lat="44.5180215" lon="10.4139335"><ele>614.3333333333334</ele><time>2026-04-18T14:03:17.704Z</time></trkpt><trkpt lat="44.5180665" lon="10.4140282"><ele>615.0</ele><time>2026-04-18T14:03:18.701Z</time></trkpt><trkpt lat="44.5181172" lon="10.4141055"><ele>615.0</ele><time>2026-04-18T14:03:19.711Z</time></trkpt><trkpt lat="44.5181808" lon="10.4141645"><ele>615.0</ele><time>2026-04-18T14:03:20.71Z</time></trkpt><trkpt lat="44.5182578" lon="10.4141948"><ele>615.0</ele><time>2026-04-18T14:03:21.721Z</time></trkpt><trkpt lat="44.5183378" lon="10.4142216"><ele>615.0</ele><time>2026-04-18T14:03:22.719Z</time></trkpt><trkpt lat="44.5184338" lon="10.4142234"><ele>615.0</ele><time>2026-04-18T14:03:23.714Z</time></trkpt><trkpt lat="44.5185267" lon="10.4142282"><ele>615.0</ele><time>2026-04-18T14:03:24.715Z</time></trkpt><trkpt lat="44.5186195" lon="10.4142246"><ele>615.0</ele><time>2026-04-18T14:03:25.726Z</time></trkpt><trkpt lat="44.5187165" lon="10.4142028"><ele>615.0</ele><time>2026-04-18T14:03:26.713Z</time></trkpt><trkpt lat="44.5188169" lon="10.4141621"><ele>615.0</ele><time>2026-04-18T14:03:27.714Z</time></trkpt><trkpt lat="44.5189194" lon="10.4141133"><ele>615.0</ele><time>2026-04-18T14:03:28.714Z</time></trkpt><trkpt lat="44.5190279" lon="10.4140696"><ele>615.0</ele><time>2026-04-18T14:03:29.702Z</time></trkpt><trkpt lat="44.5191392" lon="10.4140467"><ele>614.8</ele><time>2026-04-18T14:03:30.711Z</time></trkpt><trkpt lat="44.5192482" lon="10.4140314"><ele>614.6</ele><time>2026-04-18T14:03:31.701Z</time></trkpt><trkpt lat="44.5193563" lon="10.4140149"><ele>614.4</ele><time>2026-04-18T14:03:32.714Z</time></trkpt><trkpt lat="44.5194576" lon="10.4139738"><ele>614.2</ele><time>2026-04-18T14:03:33.704Z</time></trkpt><trkpt lat="44.5195591" lon="10.413896"><ele>614.0</ele><time>2026-04-18T14:03:34.72Z</time></trkpt><trkpt lat="44.5196518" lon="10.4138075"><ele>615.0</ele><time>2026-04-18T14:03:35.704Z</time></trkpt><trkpt lat="44.519743" lon="10.4137157"><ele>616.0</ele><time>2026-04-18T14:03:36.703Z</time></trkpt><trkpt lat="44.5198311" lon="10.4136297"><ele>617.0</ele><time>2026-04-18T14:03:37.713Z</time></trkpt><trkpt lat="44.5199126" lon="10.4135473"><ele>618.0</ele><time>2026-04-18T14:03:38.698Z</time></trkpt><trkpt lat="44.5199868" lon="10.413473"><ele>619.0</ele><time>2026-04-18T14:03:39.701Z</time></trkpt><trkpt lat="44.5200538" lon="10.4134115"><ele>619.0</ele><time>2026-04-18T14:03:40.713Z</time></trkpt><trkpt lat="44.5201228" lon="10.4133835"><ele>619.0</ele><time>2026-04-18T14:03:41.712Z</time></trkpt><trkpt lat="44.5201896" lon="10.4133986"><ele>619.0</ele><time>2026-04-18T14:03:42.713Z</time></trkpt><trkpt lat="44.5202514" lon="10.413418"><ele>619.0</ele><time>2026-04-18T14:03:43.717Z</time></trkpt><trkpt lat="44.520275" lon="10.4135182"><ele>619.0</ele><time>2026-04-18T14:03:44.702Z</time></trkpt><trkpt lat="44.520296" lon="10.4136393"><ele>619.0</ele><time>2026-04-18T14:03:45.71Z</time></trkpt><trkpt lat="44.5203248" lon="10.4137773"><ele>618.8</ele><time>2026-04-18T14:03:46.724Z</time></trkpt><trkpt lat="44.5203603" lon="10.4139216"><ele>618.5999999999999</ele><time>2026-04-18T14:03:47.712Z</time></trkpt><trkpt lat="44.5204045" lon="10.4140634"><ele>618.4</ele><time>2026-04-18T14:03:48.719Z</time></trkpt><trkpt lat="44.520452" lon="10.4142019"><ele>618.1999999999999</ele><time>2026-04-18T14:03:49.704Z</time></trkpt><trkpt lat="44.520501" lon="10.4143376"><ele>618.0</ele><time>2026-04-18T14:03:50.716Z</time></trkpt><trkpt lat="44.5205495" lon="10.4144645"><ele>618.0</ele><time>2026-04-18T14:03:51.706Z</time></trkpt><trkpt lat="44.520599" lon="10.4145795"><ele>618.0</ele><time>2026-04-18T14:03:52.725Z</time></trkpt><trkpt lat="44.5206572" lon="10.4146877"><ele>618.0</ele><time>2026-04-18T14:03:53.712Z</time></trkpt><trkpt lat="44.520727" lon="10.4147898"><ele>618.0</ele><time>2026-04-18T14:03:54.713Z</time></trkpt><trkpt lat="44.520803" lon="10.4148912"><ele>618.0</ele><time>2026-04-18T14:03:55.706Z</time></trkpt><trkpt lat="44.5208817" lon="10.414986"><ele>619.0</ele><time>2026-04-18T14:03:56.722Z</time></trkpt><trkpt lat="44.5209607" lon="10.4150785"><ele>620.0</ele><time>2026-04-18T14:03:57.717Z</time></trkpt><trkpt lat="44.5210363" lon="10.4151679"><ele>621.0</ele><time>2026-04-18T14:03:58.717Z</time></trkpt><trkpt lat="44.5211108" lon="10.4152564"><ele>622.0</ele><time>2026-04-18T14:03:59.709Z</time></trkpt><trkpt lat="44.5211853" lon="10.4153458"><ele>623.0</ele><time>2026-04-18T14:04:00.703Z</time></trkpt><trkpt lat="44.5212624" lon="10.4154365"><ele>620.6</ele><time>2026-04-18T14:04:01.726Z</time></trkpt><trkpt lat="44.5213433" lon="10.4155234"><ele>618.1999999999999</ele><time>2026-04-18T14:04:02.713Z</time></trkpt><trkpt lat="44.5214301" lon="10.415615"><ele>615.8</ele><time>2026-04-18T14:04:03.704Z</time></trkpt><trkpt lat="44.5215182" lon="10.4157076"><ele>613.4</ele><time>2026-04-18T14:04:04.718Z</time></trkpt><trkpt lat="44.5216071" lon="10.415802"><ele>611.0</ele><time>2026-04-18T14:04:05.725Z</time></trkpt><trkpt lat="44.5216973" lon="10.4158977"><ele>611.0</ele><time>2026-04-18T14:04:06.724Z</time></trkpt><trkpt lat="44.5217875" lon="10.4159934"><ele>611.0</ele><time>2026-04-18T14:04:07.722Z</time></trkpt><trkpt lat="44.5218771" lon="10.4160895"><ele>611.0</ele><time>2026-04-18T14:04:08.722Z</time></trkpt><trkpt lat="44.5219642" lon="10.4161863"><ele>611.0</ele><time>2026-04-18T14:04:09.706Z</time></trkpt><trkpt lat="44.5220453" lon="10.4162782"><ele>611.0</ele><time>2026-04-18T14:04:10.713Z</time></trkpt><trkpt lat="44.5221221" lon="10.4163627"><ele>610.0</ele><time>2026-04-18T14:04:11.72Z</time></trkpt><trkpt lat="44.5222025" lon="10.4164371"><ele>609.0</ele><time>2026-04-18T14:04:12.721Z</time></trkpt><trkpt lat="44.5222883" lon="10.4164901"><ele>608.0</ele><time>2026-04-18T14:04:13.723Z</time></trkpt><trkpt lat="44.5223784" lon="10.4165158"><ele>607.0</ele><time>2026-04-18T14:04:14.72Z</time></trkpt><trkpt lat="44.5224711" lon="10.4165112"><ele>606.0</ele><time>2026-04-18T14:04:15.717Z</time></trkpt><trkpt lat="44.5225656" lon="10.4164749"><ele>606.0</ele><time>2026-04-18T14:04:16.714Z</time></trkpt><trkpt lat="44.5226591" lon="10.4164096"><ele>606.0</ele><time>2026-04-18T14:04:17.72Z</time></trkpt><trkpt lat="44.5227522" lon="10.4163277"><ele>606.0</ele><time>2026-04-18T14:04:18.717Z</time></trkpt><trkpt lat="44.5228435" lon="10.4162394"><ele>606.0</ele><time>2026-04-18T14:04:19.708Z</time></trkpt><trkpt lat="44.5229303" lon="10.4161498"><ele>606.0</ele><time>2026-04-18T14:04:20.702Z</time></trkpt><trkpt lat="44.5230152" lon="10.4160635"><ele>607.0</ele><time>2026-04-18T14:04:21.709Z</time></trkpt><trkpt lat="44.523101" lon="10.4159888"><ele>608.0</ele><time>2026-04-18T14:04:22.716Z</time></trkpt><trkpt lat="44.5231906" lon="10.4159353"><ele>609.0</ele><time>2026-04-18T14:04:23.707Z</time></trkpt><trkpt lat="44.5232843" lon="10.4159086"><ele>610.0</ele><time>2026-04-18T14:04:24.713Z</time></trkpt><trkpt lat="44.5233819" lon="10.4159067"><ele>611.0</ele><time>2026-04-18T14:04:25.717Z</time></trkpt><trkpt lat="44.5234764" lon="10.4159066"><ele>611.0</ele><time>2026-04-18T14:04:26.709Z</time></trkpt><trkpt lat="44.5235669" lon="10.4159269"><ele>611.0</ele><time>2026-04-18T14:04:27.705Z</time></trkpt><trkpt lat="44.5236532" lon="10.4159236"><ele>611.0</ele><time>2026-04-18T14:04:28.713Z</time></trkpt><trkpt lat="44.52373" lon="10.4158806"><ele>611.0</ele><time>2026-04-18T14:04:29.707Z</time></trkpt><trkpt lat="44.5237889" lon="10.4157923"><ele>611.0</ele><time>2026-04-18T14:04:30.702Z</time></trkpt><trkpt lat="44.5238264" lon="10.4156733"><ele>611.0</ele><time>2026-04-18T14:04:31.702Z</time></trkpt><trkpt lat="44.5238522" lon="10.4155373"><ele>610.0</ele><time>2026-04-18T14:04:32.705Z</time></trkpt><trkpt lat="44.5238813" lon="10.415397"><ele>609.0</ele><time>2026-04-18T14:04:33.701Z</time></trkpt><trkpt lat="44.5239187" lon="10.4152559"><ele>608.0</ele><time>2026-04-18T14:04:34.703Z</time></trkpt><trkpt lat="44.5239653" lon="10.4151187"><ele>607.0</ele><time>2026-04-18T14:04:35.709Z</time></trkpt><trkpt lat="44.524015" lon="10.4149861"><ele>606.0</ele><time>2026-04-18T14:04:36.715Z</time></trkpt><trkpt lat="44.5240666" lon="10.4148578"><ele>606.0</ele><time>2026-04-18T14:04:37.712Z</time></trkpt><trkpt lat="44.5241167" lon="10.4147303"><ele>606.0</ele><time>2026-04-18T14:04:38.709Z</time></trkpt><trkpt lat="44.5241651" lon="10.4146097"><ele>606.0</ele><time>2026-04-18T14:04:39.704Z</time></trkpt><trkpt lat="44.5242109" lon="10.4145"><ele>606.0</ele><time>2026-04-18T14:04:40.715Z</time></trkpt><trkpt lat="44.5242538" lon="10.4143934"><ele>606.0</ele><time>2026-04-18T14:04:41.71Z</time></trkpt><trkpt lat="44.5243122" lon="10.4143193"><ele>617.0</ele><time>2026-04-18T14:04:42.707Z</time></trkpt><trkpt lat="44.5243808" lon="10.4142729"><ele>617.0</ele><time>2026-04-18T14:04:43.714Z</time></trkpt><trkpt lat="44.5244556" lon="10.4142599"><ele>617.0</ele><time>2026-04-18T14:04:44.721Z</time></trkpt><trkpt lat="44.5245284" lon="10.4142726"><ele>617.0</ele><time>2026-04-18T14:04:45.727Z</time></trkpt><trkpt lat="44.5246378" lon="10.4142994"><ele>611.0</ele><time>2026-04-18T14:04:47.714Z</time></trkpt><trkpt lat="44.5247046" lon="10.4143115"><ele>611.0</ele><time>2026-04-18T14:04:49.712Z</time></trkpt></trkseg></trk></gpx>